<?xml version='1.0' encoding='UTF-8'?><gpx version="1.1" creator="JPX - https://github.com/jenetics/jpx" xmlns="http://www.topografix.com/GPX/1/1"><trk><trkseg><trkpt lat="43.8815569" lon="11.1787777"><ele>106.0</ele><time>2026-04-06T06:25:14.303Z</time></trkpt><trkpt lat="43.8816238" lon="11.1788192"><ele>106.0</ele><time>2026-04-06T06:25:35.332Z</time></trkpt><trkpt lat="43.8816867" lon="11.1788698"><ele>106.0</ele><time>2026-04-06T06:25:38.299Z</time></trkpt><trkpt lat="43.8817376" lon="11.1789249"><ele>106.0</ele><time>2026-04-06T06:25:41.311Z</time></trkpt><trkpt lat="43.8817805" lon="11.1790175"><ele>106.0</ele><time>2026-04-06T06:25:44.301Z</time></trkpt><trkpt lat="43.881827" lon="11.1791036"><ele>106.0</ele><time>2026-04-06T06:25:47.307Z</time></trkpt><trkpt lat="43.8818646" lon="11.1791958"><ele>106.0</ele><time>2026-04-06T06:25:50.294Z</time></trkpt><trkpt lat="43.8819056" lon="11.1792898"><ele>103.83333333333334</ele><time>2026-04-06T06:25:53.305Z</time></trkpt><trkpt lat="43.8819383" lon="11.1793763"><ele>101.66666666666667</ele><time>2026-04-06T06:25:56.295Z</time></trkpt><trkpt lat="43.8819219" lon="11.179474"><ele>99.5</ele><time>2026-04-06T06:25:59.285Z</time></trkpt><trkpt lat="43.8818946" lon="11.1795775"><ele>97.33333333333334</ele><time>2026-04-06T06:26:02.299Z</time></trkpt><trkpt lat="43.8818668" lon="11.1797002"><ele>95.16666666666667</ele><time>2026-04-06T06:26:05.295Z</time></trkpt><trkpt lat="43.8818375" lon="11.1797787"><ele>93.0</ele><time>2026-04-06T06:26:07.315Z</time></trkpt><trkpt lat="43.8818037" lon="11.1798907"><ele>92.16666666666667</ele><time>2026-04-06T06:26:10.294Z</time></trkpt><trkpt lat="43.881764" lon="11.1800066"><ele>91.33333333333333</ele><time>2026-04-06T06:26:13.298Z</time></trkpt><trkpt lat="43.8817143" lon="11.1800941"><ele>90.5</ele><time>2026-04-06T06:26:16.299Z</time></trkpt><trkpt lat="43.8816524" lon="11.1801774"><ele>89.66666666666666</ele><time>2026-04-06T06:26:19.302Z</time></trkpt><trkpt lat="43.8816257" lon="11.1803013"><ele>88.83333333333333</ele><time>2026-04-06T06:26:22.295Z</time></trkpt><trkpt lat="43.8816415" lon="11.1803934"><ele>88.0</ele><time>2026-04-06T06:26:24.31Z</time></trkpt><trkpt lat="43.8816906" lon="11.180472"><ele>88.0</ele><time>2026-04-06T06:26:26.297Z</time></trkpt><trkpt lat="43.8817561" lon="11.1805134"><ele>88.0</ele><time>2026-04-06T06:26:28.31Z</time></trkpt><trkpt lat="43.8818203" lon="11.1805011"><ele>88.0</ele><time>2026-04-06T06:26:30.313Z</time></trkpt><trkpt lat="43.8818977" lon="11.1804384"><ele>88.0</ele><time>2026-04-06T06:26:33.301Z</time></trkpt><trkpt lat="43.8819469" lon="11.1803783"><ele>88.0</ele><time>2026-04-06T06:26:35.31Z</time></trkpt><trkpt lat="43.8820344" lon="11.1803264"><ele>88.0</ele><time>2026-04-06T06:26:38.294Z</time></trkpt><trkpt lat="43.8821036" lon="11.1803261"><ele>88.5</ele><time>2026-04-06T06:26:40.298Z</time></trkpt><trkpt lat="43.8821676" lon="11.1803331"><ele>89.0</ele><time>2026-04-06T06:26:42.31Z</time></trkpt><trkpt lat="43.8822332" lon="11.1803394"><ele>89.5</ele><time>2026-04-06T06:26:44.308Z</time></trkpt><trkpt lat="43.8822957" lon="11.1803509"><ele>90.0</ele><time>2026-04-06T06:26:46.301Z</time></trkpt><trkpt lat="43.8823868" lon="11.1803768"><ele>90.5</ele><time>2026-04-06T06:26:49.304Z</time></trkpt><trkpt lat="43.8824702" lon="11.1804195"><ele>91.0</ele><time>2026-04-06T06:26:52.301Z</time></trkpt><trkpt lat="43.8825373" lon="11.1804892"><ele>91.0</ele><time>2026-04-06T06:26:55.304Z</time></trkpt><trkpt lat="43.882615" lon="11.18053"><ele>91.0</ele><time>2026-04-06T06:26:58.299Z</time></trkpt><trkpt lat="43.8826917" lon="11.1805651"><ele>91.0</ele><time>2026-04-06T06:27:01.3Z</time></trkpt><trkpt lat="43.8827686" lon="11.1805983"><ele>91.0</ele><time>2026-04-06T06:27:04.319Z</time></trkpt><trkpt lat="43.8828594" lon="11.1806016"><ele>91.0</ele><time>2026-04-06T06:27:07.291Z</time></trkpt><trkpt lat="43.8829376" lon="11.1806071"><ele>91.0</ele><time>2026-04-06T06:27:10.293Z</time></trkpt><trkpt lat="43.8830094" lon="11.1806427"><ele>91.0</ele><time>2026-04-06T06:27:13.299Z</time></trkpt><trkpt lat="43.8830804" lon="11.1806742"><ele>91.0</ele><time>2026-04-06T06:27:16.301Z</time></trkpt><trkpt lat="43.8831507" lon="11.1807073"><ele>91.0</ele><time>2026-04-06T06:27:19.301Z</time></trkpt><trkpt lat="43.8832246" lon="11.1807454"><ele>91.0</ele><time>2026-04-06T06:27:22.3Z</time></trkpt><trkpt lat="43.8832954" lon="11.1807814"><ele>91.0</ele><time>2026-04-06T06:27:25.301Z</time></trkpt><trkpt lat="43.8833558" lon="11.1808461"><ele>91.0</ele><time>2026-04-06T06:27:28.289Z</time></trkpt><trkpt lat="43.8834043" lon="11.1809296"><ele>91.0</ele><time>2026-04-06T06:27:31.303Z</time></trkpt><trkpt lat="43.883453" lon="11.1810144"><ele>91.0</ele><time>2026-04-06T06:27:34.302Z</time></trkpt><trkpt lat="43.8834942" lon="11.1811127"><ele>91.0</ele><time>2026-04-06T06:27:37.295Z</time></trkpt><trkpt lat="43.8835044" lon="11.1812206"><ele>91.0</ele><time>2026-04-06T06:27:40.33Z</time></trkpt><trkpt lat="43.8835097" lon="11.1813343"><ele>91.0</ele><time>2026-04-06T06:27:43.297Z</time></trkpt><trkpt lat="43.8835226" lon="11.1814472"><ele>91.0</ele><time>2026-04-06T06:27:46.302Z</time></trkpt><trkpt lat="43.8835447" lon="11.1815602"><ele>91.33333333333333</ele><time>2026-04-06T06:27:49.294Z</time></trkpt><trkpt lat="43.8835754" lon="11.1816802"><ele>91.66666666666666</ele><time>2026-04-06T06:27:52.295Z</time></trkpt><trkpt lat="43.8836" lon="11.1817987"><ele>92.0</ele><time>2026-04-06T06:27:55.298Z</time></trkpt><trkpt lat="43.8836303" lon="11.1819073"><ele>92.33333333333333</ele><time>2026-04-06T06:27:58.293Z</time></trkpt><trkpt lat="43.8836649" lon="11.1820099"><ele>92.66666666666667</ele><time>2026-04-06T06:28:01.296Z</time></trkpt><trkpt lat="43.883702" lon="11.1821204"><ele>93.0</ele><time>2026-04-06T06:28:04.304Z</time></trkpt><trkpt lat="43.8837429" lon="11.1822272"><ele>93.0</ele><time>2026-04-06T06:28:07.293Z</time></trkpt><trkpt lat="43.8837823" lon="11.1823326"><ele>93.0</ele><time>2026-04-06T06:28:10.293Z</time></trkpt><trkpt lat="43.8838239" lon="11.1824403"><ele>93.0</ele><time>2026-04-06T06:28:13.293Z</time></trkpt><trkpt lat="43.883866" lon="11.1825483"><ele>93.0</ele><time>2026-04-06T06:28:16.298Z</time></trkpt><trkpt lat="43.8839076" lon="11.1826547"><ele>93.0</ele><time>2026-04-06T06:28:19.299Z</time></trkpt><trkpt lat="43.88395" lon="11.1827648"><ele>93.0</ele><time>2026-04-06T06:28:22.3Z</time></trkpt><trkpt lat="43.8839893" lon="11.1828743"><ele>93.2</ele><time>2026-04-06T06:28:25.297Z</time></trkpt><trkpt lat="43.8840346" lon="11.1829813"><ele>93.4</ele><time>2026-04-06T06:28:28.303Z</time></trkpt><trkpt lat="43.8840731" lon="11.1830962"><ele>93.60000000000001</ele><time>2026-04-06T06:28:31.303Z</time></trkpt><trkpt lat="43.8841169" lon="11.1832067"><ele>93.80000000000001</ele><time>2026-04-06T06:28:34.292Z</time></trkpt><trkpt lat="43.8841599" lon="11.1833168"><ele>94.0</ele><time>2026-04-06T06:28:37.317Z</time></trkpt><trkpt lat="43.8842019" lon="11.1834285"><ele>94.0</ele><time>2026-04-06T06:28:40.291Z</time></trkpt><trkpt lat="43.8842461" lon="11.1835363"><ele>94.0</ele><time>2026-04-06T06:28:43.301Z</time></trkpt><trkpt lat="43.88429" lon="11.183645"><ele>94.0</ele><time>2026-04-06T06:28:46.302Z</time></trkpt><trkpt lat="43.8843336" lon="11.1837562"><ele>94.0</ele><time>2026-04-06T06:28:49.291Z</time></trkpt><trkpt lat="43.8843741" lon="11.1838674"><ele>94.0</ele><time>2026-04-06T06:28:52.315Z</time></trkpt><trkpt lat="43.8844173" lon="11.183981"><ele>94.2</ele><time>2026-04-06T06:28:55.297Z</time></trkpt><trkpt lat="43.8844613" lon="11.184093"><ele>94.4</ele><time>2026-04-06T06:28:58.308Z</time></trkpt><trkpt lat="43.8844997" lon="11.1842105"><ele>94.6</ele><time>2026-04-06T06:29:01.302Z</time></trkpt><trkpt lat="43.88454" lon="11.1843184"><ele>94.8</ele><time>2026-04-06T06:29:04.296Z</time></trkpt><trkpt lat="43.8845882" lon="11.1844233"><ele>95.0</ele><time>2026-04-06T06:29:07.291Z</time></trkpt><trkpt lat="43.8846348" lon="11.1845333"><ele>95.0</ele><time>2026-04-06T06:29:10.299Z</time></trkpt><trkpt lat="43.8846783" lon="11.184645"><ele>95.0</ele><time>2026-04-06T06:29:13.29Z</time></trkpt><trkpt lat="43.8847203" lon="11.1847547"><ele>95.0</ele><time>2026-04-06T06:29:16.306Z</time></trkpt><trkpt lat="43.8847604" lon="11.1848549"><ele>95.0</ele><time>2026-04-06T06:29:19.303Z</time></trkpt><trkpt lat="43.8847984" lon="11.1849306"><ele>95.0</ele><time>2026-04-06T06:29:21.307Z</time></trkpt><trkpt lat="43.8848448" lon="11.1850294"><ele>95.0</ele><time>2026-04-06T06:29:24.3Z</time></trkpt><trkpt lat="43.8848976" lon="11.1851414"><ele>95.33333333333334</ele><time>2026-04-06T06:29:27.305Z</time></trkpt><trkpt lat="43.8849438" lon="11.1852175"><ele>95.66666666666667</ele><time>2026-04-06T06:29:29.304Z</time></trkpt><trkpt lat="43.8850053" lon="11.185317"><ele>96.0</ele><time>2026-04-06T06:29:32.311Z</time></trkpt><trkpt lat="43.88507" lon="11.1854121"><ele>96.33333333333334</ele><time>2026-04-06T06:29:35.299Z</time></trkpt><trkpt lat="43.8851201" lon="11.1854659"><ele>96.66666666666667</ele><time>2026-04-06T06:29:37.302Z</time></trkpt><trkpt lat="43.8851977" lon="11.185538"><ele>97.0</ele><time>2026-04-06T06:29:40.306Z</time></trkpt><trkpt lat="43.8852508" lon="11.185586"><ele>97.00000000000001</ele><time>2026-04-06T06:29:42.31Z</time></trkpt><trkpt lat="43.8853323" lon="11.1856476"><ele>97.0</ele><time>2026-04-06T06:29:45.308Z</time></trkpt><trkpt lat="43.8854174" lon="11.185702"><ele>97.0</ele><time>2026-04-06T06:29:48.29Z</time></trkpt><trkpt lat="43.8854779" lon="11.1857345"><ele>97.0</ele><time>2026-04-06T06:29:50.308Z</time></trkpt><trkpt lat="43.8855382" lon="11.1857662"><ele>97.00000000000001</ele><time>2026-04-06T06:29:52.289Z</time></trkpt><trkpt lat="43.8856232" lon="11.1858158"><ele>97.0</ele><time>2026-04-06T06:29:55.299Z</time></trkpt><trkpt lat="43.8857052" lon="11.1858735"><ele>97.0</ele><time>2026-04-06T06:29:58.307Z</time></trkpt><trkpt lat="43.8857841" lon="11.1859359"><ele>97.0</ele><time>2026-04-06T06:30:01.305Z</time></trkpt><trkpt lat="43.8858602" lon="11.1860034"><ele>97.0</ele><time>2026-04-06T06:30:04.371Z</time></trkpt><trkpt lat="43.8859315" lon="11.1860805"><ele>97.0</ele><time>2026-04-06T06:30:07.295Z</time></trkpt><trkpt lat="43.886001" lon="11.1861613"><ele>97.0</ele><time>2026-04-06T06:30:10.287Z</time></trkpt><trkpt lat="43.88607" lon="11.1862492"><ele>97.83333333333334</ele><time>2026-04-06T06:30:13.299Z</time></trkpt><trkpt lat="43.886135" lon="11.1863423"><ele>98.66666666666667</ele><time>2026-04-06T06:30:16.296Z</time></trkpt><trkpt lat="43.8861974" lon="11.186438"><ele>99.5</ele><time>2026-04-06T06:30:19.286Z</time></trkpt><trkpt lat="43.8862398" lon="11.1865029"><ele>100.33333333333334</ele><time>2026-04-06T06:30:21.303Z</time></trkpt><trkpt lat="43.8863026" lon="11.1865972"><ele>101.16666666666667</ele><time>2026-04-06T06:30:24.299Z</time></trkpt><trkpt lat="43.8863644" lon="11.1866899"><ele>102.0</ele><time>2026-04-06T06:30:27.294Z</time></trkpt><trkpt lat="43.8864272" lon="11.1867779"><ele>102.0</ele><time>2026-04-06T06:30:30.3Z</time></trkpt><trkpt lat="43.8864902" lon="11.18687"><ele>102.0</ele><time>2026-04-06T06:30:33.3Z</time></trkpt><trkpt lat="43.8865538" lon="11.1869588"><ele>102.0</ele><time>2026-04-06T06:30:36.298Z</time></trkpt><trkpt lat="43.8866173" lon="11.187056"><ele>102.0</ele><time>2026-04-06T06:30:39.307Z</time></trkpt><trkpt lat="43.8866599" lon="11.1871231"><ele>102.0</ele><time>2026-04-06T06:30:41.295Z</time></trkpt><trkpt lat="43.8867241" lon="11.1872174"><ele>102.0</ele><time>2026-04-06T06:30:44.307Z</time></trkpt><trkpt lat="43.8867873" lon="11.1873108"><ele>103.33333333333333</ele><time>2026-04-06T06:30:47.299Z</time></trkpt><trkpt lat="43.8868447" lon="11.1874027"><ele>104.66666666666666</ele><time>2026-04-06T06:30:50.3Z</time></trkpt><trkpt lat="43.8869098" lon="11.1874798"><ele>106.0</ele><time>2026-04-06T06:30:53.292Z</time></trkpt><trkpt lat="43.8869706" lon="11.1875708"><ele>107.33333333333333</ele><time>2026-04-06T06:30:56.302Z</time></trkpt><trkpt lat="43.8870329" lon="11.1876536"><ele>108.66666666666666</ele><time>2026-04-06T06:30:59.297Z</time></trkpt><trkpt lat="43.8871104" lon="11.1876727"><ele>110.0</ele><time>2026-04-06T06:31:02.306Z</time></trkpt><trkpt lat="43.8872026" lon="11.1876757"><ele>109.99999999999999</ele><time>2026-04-06T06:31:05.299Z</time></trkpt><trkpt lat="43.8872819" lon="11.1876721"><ele>110.0</ele><time>2026-04-06T06:31:08.306Z</time></trkpt><trkpt lat="43.8873575" lon="11.187659"><ele>110.0</ele><time>2026-04-06T06:31:11.311Z</time></trkpt><trkpt lat="43.8874313" lon="11.1876567"><ele>110.0</ele><time>2026-04-06T06:31:14.303Z</time></trkpt><trkpt lat="43.8874948" lon="11.1876348"><ele>110.0</ele><time>2026-04-06T06:31:17.285Z</time></trkpt><trkpt lat="43.8875612" lon="11.1876129"><ele>109.99999999999999</ele><time>2026-04-06T06:31:20.295Z</time></trkpt><trkpt lat="43.887624" lon="11.1875946"><ele>110.0</ele><time>2026-04-06T06:31:23.306Z</time></trkpt><trkpt lat="43.8876976" lon="11.1875595"><ele>112.71428571428571</ele><time>2026-04-06T06:31:27.297Z</time></trkpt><trkpt lat="43.8877557" lon="11.1875009"><ele>115.42857142857142</ele><time>2026-04-06T06:31:31.296Z</time></trkpt><trkpt lat="43.8878088" lon="11.187446"><ele>118.14285714285714</ele><time>2026-04-06T06:31:35.288Z</time></trkpt><trkpt lat="43.887829" lon="11.1873545"><ele>120.85714285714285</ele><time>2026-04-06T06:31:39.304Z</time></trkpt><trkpt lat="43.8878354" lon="11.1872561"><ele>123.57142857142857</ele><time>2026-04-06T06:31:43.298Z</time></trkpt><trkpt lat="43.8878275" lon="11.1871467"><ele>126.28571428571426</ele><time>2026-04-06T06:31:47.294Z</time></trkpt><trkpt lat="43.887822" lon="11.1870513"><ele>129.0</ele><time>2026-04-06T06:31:51.306Z</time></trkpt><trkpt lat="43.8878154" lon="11.1869596"><ele>129.28571428571428</ele><time>2026-04-06T06:31:55.336Z</time></trkpt><trkpt lat="43.8878088" lon="11.1868528"><ele>129.57142857142856</ele><time>2026-04-06T06:32:00.304Z</time></trkpt><trkpt lat="43.8877965" lon="11.18676"><ele>129.85714285714286</ele><time>2026-04-06T06:32:04.308Z</time></trkpt><trkpt lat="43.887789" lon="11.1866664"><ele>130.14285714285714</ele><time>2026-04-06T06:32:08.308Z</time></trkpt><trkpt lat="43.8877881" lon="11.1865713"><ele>130.42857142857144</ele><time>2026-04-06T06:32:12.306Z</time></trkpt><trkpt lat="43.8878003" lon="11.186475"><ele>130.71428571428572</ele><time>2026-04-06T06:32:16.294Z</time></trkpt><trkpt lat="43.8878043" lon="11.1863822"><ele>131.0</ele><time>2026-04-06T06:32:20.302Z</time></trkpt><trkpt lat="43.8878198" lon="11.1862937"><ele>132.42857142857144</ele><time>2026-04-06T06:32:24.307Z</time></trkpt><trkpt lat="43.8878432" lon="11.1861952"><ele>133.85714285714286</ele><time>2026-04-06T06:32:29.293Z</time></trkpt><trkpt lat="43.887864" lon="11.1861069"><ele>135.28571428571428</ele><time>2026-04-06T06:32:33.299Z</time></trkpt><trkpt lat="43.8878827" lon="11.186015"><ele>136.71428571428572</ele><time>2026-04-06T06:32:38.299Z</time></trkpt><trkpt lat="43.8878962" lon="11.18591"><ele>138.14285714285714</ele><time>2026-04-06T06:32:43.29Z</time></trkpt><trkpt lat="43.8878984" lon="11.1858051"><ele>139.57142857142858</ele><time>2026-04-06T06:32:48.293Z</time></trkpt><trkpt lat="43.8879118" lon="11.1857193"><ele>141.0</ele><time>2026-04-06T06:32:53.308Z</time></trkpt><trkpt lat="43.8879004" lon="11.1856322"><ele>141.0</ele><time>2026-04-06T06:32:57.293Z</time></trkpt><trkpt lat="43.8878786" lon="11.1855324"><ele>141.0</ele><time>2026-04-06T06:33:02.297Z</time></trkpt><trkpt lat="43.8878751" lon="11.1854307"><ele>141.0</ele><time>2026-04-06T06:33:07.302Z</time></trkpt><trkpt lat="43.8878492" lon="11.1853413"><ele>141.0</ele><time>2026-04-06T06:33:13.3Z</time></trkpt><trkpt lat="43.8878392" lon="11.1852547"><ele>141.0</ele><time>2026-04-06T06:33:17.297Z</time></trkpt><trkpt lat="43.8878244" lon="11.1851687"><ele>141.0</ele><time>2026-04-06T06:33:20.299Z</time></trkpt><trkpt lat="43.8878298" lon="11.1850654"><ele>141.0</ele><time>2026-04-06T06:33:24.298Z</time></trkpt><trkpt lat="43.8879013" lon="11.185072"><ele>141.0</ele><time>2026-04-06T06:33:29.297Z</time></trkpt><trkpt lat="43.8879457" lon="11.1851369"><ele>141.0</ele><time>2026-04-06T06:33:33.289Z</time></trkpt><trkpt lat="43.8879952" lon="11.1851987"><ele>141.0</ele><time>2026-04-06T06:33:37.295Z</time></trkpt><trkpt lat="43.8880497" lon="11.1852708"><ele>141.0</ele><time>2026-04-06T06:33:42.301Z</time></trkpt><trkpt lat="43.8880994" lon="11.1853543"><ele>141.0</ele><time>2026-04-06T06:33:47.3Z</time></trkpt><trkpt lat="43.8881402" lon="11.1854232"><ele>141.0</ele><time>2026-04-06T06:33:51.295Z</time></trkpt><trkpt lat="43.8881869" lon="11.1854845"><ele>141.0</ele><time>2026-04-06T06:33:55.306Z</time></trkpt><trkpt lat="43.8882256" lon="11.1855564"><ele>141.0</ele><time>2026-04-06T06:33:59.301Z</time></trkpt><trkpt lat="43.8882708" lon="11.1856184"><ele>141.0</ele><time>2026-04-06T06:34:03.295Z</time></trkpt><trkpt lat="43.888317" lon="11.1856806"><ele>141.0</ele><time>2026-04-06T06:34:07.299Z</time></trkpt><trkpt lat="43.888365" lon="11.1857448"><ele>141.0</ele><time>2026-04-06T06:34:11.303Z</time></trkpt><trkpt lat="43.8884298" lon="11.1858034"><ele>141.0</ele><time>2026-04-06T06:34:16.307Z</time></trkpt><trkpt lat="43.8884886" lon="11.1858595"><ele>141.0</ele><time>2026-04-06T06:34:20.301Z</time></trkpt><trkpt lat="43.8885498" lon="11.1859042"><ele>141.0</ele><time>2026-04-06T06:34:24.306Z</time></trkpt><trkpt lat="43.8886246" lon="11.1859366"><ele>143.33333333333334</ele><time>2026-04-06T06:34:29.295Z</time></trkpt><trkpt lat="43.8886958" lon="11.1859473"><ele>145.66666666666666</ele><time>2026-04-06T06:34:33.305Z</time></trkpt><trkpt lat="43.8887682" lon="11.1859693"><ele>148.0</ele><time>2026-04-06T06:34:38.295Z</time></trkpt><trkpt lat="43.8888463" lon="11.1859931"><ele>150.33333333333331</ele><time>2026-04-06T06:34:43.295Z</time></trkpt><trkpt lat="43.8889214" lon="11.1860107"><ele>152.66666666666666</ele><time>2026-04-06T06:34:47.292Z</time></trkpt><trkpt lat="43.8889928" lon="11.1860228"><ele>155.0</ele><time>2026-04-06T06:34:51.31Z</time></trkpt><trkpt lat="43.8890687" lon="11.1860232"><ele>155.0</ele><time>2026-04-06T06:34:55.289Z</time></trkpt><trkpt lat="43.8891354" lon="11.1860448"><ele>155.0</ele><time>2026-04-06T06:34:59.303Z</time></trkpt><trkpt lat="43.8892041" lon="11.1860678"><ele>155.0</ele><time>2026-04-06T06:35:03.302Z</time></trkpt><trkpt lat="43.8892727" lon="11.1860905"><ele>155.0</ele><time>2026-04-06T06:35:06.3Z</time></trkpt><trkpt lat="43.8893377" lon="11.186112"><ele>155.0</ele><time>2026-04-06T06:35:10.298Z</time></trkpt><trkpt lat="43.8894092" lon="11.1861456"><ele>155.0</ele><time>2026-04-06T06:35:14.296Z</time></trkpt><trkpt lat="43.8894892" lon="11.1861746"><ele>155.0</ele><time>2026-04-06T06:35:18.304Z</time></trkpt><trkpt lat="43.8895621" lon="11.1862229"><ele>154.42857142857144</ele><time>2026-04-06T06:35:22.297Z</time></trkpt><trkpt lat="43.8896155" lon="11.1862734"><ele>153.85714285714286</ele><time>2026-04-06T06:35:25.297Z</time></trkpt><trkpt lat="43.8896592" lon="11.1863509"><ele>153.28571428571428</ele><time>2026-04-06T06:35:29.296Z</time></trkpt><trkpt lat="43.8897019" lon="11.1864204"><ele>152.71428571428572</ele><time>2026-04-06T06:35:33.302Z</time></trkpt><trkpt lat="43.8897576" lon="11.1864987"><ele>152.14285714285714</ele><time>2026-04-06T06:35:37.293Z</time></trkpt><trkpt lat="43.8898033" lon="11.1865664"><ele>151.57142857142858</ele><time>2026-04-06T06:35:40.311Z</time></trkpt><trkpt lat="43.889853" lon="11.1866512"><ele>151.0</ele><time>2026-04-06T06:35:44.312Z</time></trkpt><trkpt lat="43.8898994" lon="11.1867365"><ele>152.83333333333334</ele><time>2026-04-06T06:35:49.303Z</time></trkpt><trkpt lat="43.8899439" lon="11.1868217"><ele>154.66666666666669</ele><time>2026-04-06T06:35:54.299Z</time></trkpt><trkpt lat="43.889982" lon="11.1869246"><ele>156.5</ele><time>2026-04-06T06:35:58.291Z</time></trkpt><trkpt lat="43.8900176" lon="11.1870284"><ele>158.33333333333334</ele><time>2026-04-06T06:36:02.301Z</time></trkpt><trkpt lat="43.890053" lon="11.1871267"><ele>160.16666666666666</ele><time>2026-04-06T06:36:06.302Z</time></trkpt><trkpt lat="43.8900887" lon="11.1872182"><ele>162.0</ele><time>2026-04-06T06:36:10.298Z</time></trkpt><trkpt lat="43.890129" lon="11.1873179"><ele>163.57142857142858</ele><time>2026-04-06T06:36:14.296Z</time></trkpt><trkpt lat="43.8901645" lon="11.1873916"><ele>165.14285714285714</ele><time>2026-04-06T06:36:17.299Z</time></trkpt><trkpt lat="43.8902132" lon="11.1874589"><ele>166.71428571428572</ele><time>2026-04-06T06:36:20.296Z</time></trkpt><trkpt lat="43.8902644" lon="11.1875269"><ele>168.28571428571428</ele><time>2026-04-06T06:36:24.297Z</time></trkpt><trkpt lat="43.8903141" lon="11.1876106"><ele>169.85714285714286</ele><time>2026-04-06T06:36:29.291Z</time></trkpt><trkpt lat="43.8903722" lon="11.1876605"><ele>171.42857142857142</ele><time>2026-04-06T06:36:33.305Z</time></trkpt><trkpt lat="43.8904319" lon="11.187729"><ele>173.0</ele><time>2026-04-06T06:36:38.3Z</time></trkpt><trkpt lat="43.8904869" lon="11.1877892"><ele>173.0</ele><time>2026-04-06T06:36:42.315Z</time></trkpt><trkpt lat="43.8905511" lon="11.187838"><ele>173.0</ele><time>2026-04-06T06:36:46.3Z</time></trkpt><trkpt lat="43.8906269" lon="11.1878642"><ele>173.0</ele><time>2026-04-06T06:36:50.325Z</time></trkpt><trkpt lat="43.8906988" lon="11.1878597"><ele>173.0</ele><time>2026-04-06T06:36:54.311Z</time></trkpt><trkpt lat="43.8907675" lon="11.1878421"><ele>173.0</ele><time>2026-04-06T06:36:59.304Z</time></trkpt><trkpt lat="43.8908381" lon="11.1878184"><ele>173.0</ele><time>2026-04-06T06:37:03.302Z</time></trkpt><trkpt lat="43.8909041" lon="11.1878053"><ele>173.0</ele><time>2026-04-06T06:37:07.31Z</time></trkpt><trkpt lat="43.8909792" lon="11.1878067"><ele>172.42857142857142</ele><time>2026-04-06T06:37:11.287Z</time></trkpt><trkpt lat="43.8910457" lon="11.1878258"><ele>171.85714285714286</ele><time>2026-04-06T06:37:15.294Z</time></trkpt><trkpt lat="43.891106" lon="11.1878685"><ele>171.28571428571428</ele><time>2026-04-06T06:37:19.295Z</time></trkpt><trkpt lat="43.8911732" lon="11.1879197"><ele>170.71428571428572</ele><time>2026-04-06T06:37:24.298Z</time></trkpt><trkpt lat="43.8912345" lon="11.1879638"><ele>170.14285714285714</ele><time>2026-04-06T06:37:28.312Z</time></trkpt><trkpt lat="43.8912983" lon="11.1880236"><ele>169.57142857142858</ele><time>2026-04-06T06:37:32.304Z</time></trkpt><trkpt lat="43.8913452" lon="11.1880885"><ele>169.0</ele><time>2026-04-06T06:37:36.323Z</time></trkpt><trkpt lat="43.8913829" lon="11.1881663"><ele>170.42857142857144</ele><time>2026-04-06T06:37:40.306Z</time></trkpt><trkpt lat="43.8914324" lon="11.1882468"><ele>171.85714285714286</ele><time>2026-04-06T06:37:44.291Z</time></trkpt><trkpt lat="43.8914767" lon="11.1883376"><ele>173.28571428571428</ele><time>2026-04-06T06:37:48.285Z</time></trkpt><trkpt lat="43.8915071" lon="11.1884161"><ele>174.71428571428572</ele><time>2026-04-06T06:37:52.309Z</time></trkpt><trkpt lat="43.8915436" lon="11.188494"><ele>176.14285714285714</ele><time>2026-04-06T06:37:56.301Z</time></trkpt><trkpt lat="43.8915768" lon="11.1885733"><ele>177.57142857142858</ele><time>2026-04-06T06:37:59.283Z</time></trkpt><trkpt lat="43.8916142" lon="11.1886523"><ele>179.0</ele><time>2026-04-06T06:38:02.295Z</time></trkpt><trkpt lat="43.8916474" lon="11.1887446"><ele>179.00000000000003</ele><time>2026-04-06T06:38:06.297Z</time></trkpt><trkpt lat="43.891686" lon="11.1888186"><ele>179.0</ele><time>2026-04-06T06:38:10.291Z</time></trkpt><trkpt lat="43.8917476" lon="11.188894"><ele>179.0</ele><time>2026-04-06T06:38:14.29Z</time></trkpt><trkpt lat="43.8918118" lon="11.1889488"><ele>179.0</ele><time>2026-04-06T06:38:18.296Z</time></trkpt><trkpt lat="43.8918831" lon="11.1889925"><ele>179.0</ele><time>2026-04-06T06:38:22.306Z</time></trkpt><trkpt lat="43.8919425" lon="11.1890333"><ele>179.00000000000003</ele><time>2026-04-06T06:38:26.305Z</time></trkpt><trkpt lat="43.8920081" lon="11.1890832"><ele>179.0</ele><time>2026-04-06T06:38:31.29Z</time></trkpt><trkpt lat="43.8920628" lon="11.1891284"><ele>180.71428571428572</ele><time>2026-04-06T06:38:35.296Z</time></trkpt><trkpt lat="43.8921173" lon="11.1891835"><ele>182.42857142857144</ele><time>2026-04-06T06:38:40.301Z</time></trkpt><trkpt lat="43.8921554" lon="11.1892644"><ele>184.14285714285717</ele><time>2026-04-06T06:38:44.305Z</time></trkpt><trkpt lat="43.8922013" lon="11.1893275"><ele>185.85714285714286</ele><time>2026-04-06T06:38:48.286Z</time></trkpt><trkpt lat="43.8922602" lon="11.1893883"><ele>187.57142857142856</ele><time>2026-04-06T06:38:52.304Z</time></trkpt><trkpt lat="43.8923131" lon="11.1894484"><ele>189.2857142857143</ele><time>2026-04-06T06:38:56.309Z</time></trkpt><trkpt lat="43.892369" lon="11.1895058"><ele>191.0</ele><time>2026-04-06T06:39:00.304Z</time></trkpt><trkpt lat="43.892422" lon="11.1895633"><ele>191.0</ele><time>2026-04-06T06:39:04.301Z</time></trkpt><trkpt lat="43.8924748" lon="11.1896188"><ele>191.0</ele><time>2026-04-06T06:39:08.291Z</time></trkpt><trkpt lat="43.8925303" lon="11.1896912"><ele>191.0</ele><time>2026-04-06T06:39:13.297Z</time></trkpt><trkpt lat="43.8925755" lon="11.1897844"><ele>191.0</ele><time>2026-04-06T06:39:17.299Z</time></trkpt><trkpt lat="43.8926234" lon="11.1898496"><ele>191.0</ele><time>2026-04-06T06:39:21.306Z</time></trkpt><trkpt lat="43.8926749" lon="11.1899067"><ele>191.0</ele><time>2026-04-06T06:39:25.321Z</time></trkpt><trkpt lat="43.8927233" lon="11.1899711"><ele>191.0</ele><time>2026-04-06T06:39:29.299Z</time></trkpt><trkpt lat="43.8927619" lon="11.190042"><ele>191.14285714285714</ele><time>2026-04-06T06:39:33.31Z</time></trkpt><trkpt lat="43.8928094" lon="11.190106"><ele>191.28571428571428</ele><time>2026-04-06T06:39:38.324Z</time></trkpt><trkpt lat="43.8928619" lon="11.1901656"><ele>191.42857142857142</ele><time>2026-04-06T06:39:42.301Z</time></trkpt><trkpt lat="43.8929135" lon="11.1902318"><ele>191.57142857142856</ele><time>2026-04-06T06:39:46.307Z</time></trkpt><trkpt lat="43.8929495" lon="11.1903074"><ele>191.71428571428572</ele><time>2026-04-06T06:39:51.308Z</time></trkpt><trkpt lat="43.8930024" lon="11.1903716"><ele>191.85714285714283</ele><time>2026-04-06T06:39:55.307Z</time></trkpt><trkpt lat="43.8930611" lon="11.1904526"><ele>192.0</ele><time>2026-04-06T06:40:00.295Z</time></trkpt><trkpt lat="43.8931251" lon="11.1905186"><ele>191.99999999999997</ele><time>2026-04-06T06:40:04.294Z</time></trkpt><trkpt lat="43.8931871" lon="11.1905831"><ele>192.0</ele><time>2026-04-06T06:40:08.299Z</time></trkpt><trkpt lat="43.8932318" lon="11.1906582"><ele>192.0</ele><time>2026-04-06T06:40:12.308Z</time></trkpt><trkpt lat="43.8932805" lon="11.1907144"><ele>192.0</ele><time>2026-04-06T06:40:16.295Z</time></trkpt><trkpt lat="43.8933475" lon="11.1907778"><ele>192.0</ele><time>2026-04-06T06:40:20.296Z</time></trkpt><trkpt lat="43.8933976" lon="11.1908325"><ele>191.99999999999997</ele><time>2026-04-06T06:40:24.291Z</time></trkpt><trkpt lat="43.8934529" lon="11.1908852"><ele>192.0</ele><time>2026-04-06T06:40:29.301Z</time></trkpt><trkpt lat="43.8935113" lon="11.1909377"><ele>193.0</ele><time>2026-04-06T06:40:33.298Z</time></trkpt><trkpt lat="43.8935719" lon="11.1909809"><ele>194.0</ele><time>2026-04-06T06:40:37.298Z</time></trkpt><trkpt lat="43.8936301" lon="11.1910527"><ele>195.0</ele><time>2026-04-06T06:40:41.327Z</time></trkpt><trkpt lat="43.8936806" lon="11.1911285"><ele>196.0</ele><time>2026-04-06T06:40:45.294Z</time></trkpt><trkpt lat="43.8937153" lon="11.1912243"><ele>197.0</ele><time>2026-04-06T06:40:50.303Z</time></trkpt><trkpt lat="43.8937545" lon="11.1913218"><ele>198.0</ele><time>2026-04-06T06:40:55.305Z</time></trkpt><trkpt lat="43.8937886" lon="11.1914099"><ele>198.0</ele><time>2026-04-06T06:40:59.291Z</time></trkpt><trkpt lat="43.8938114" lon="11.191494"><ele>198.0</ele><time>2026-04-06T06:41:03.292Z</time></trkpt><trkpt lat="43.8938447" lon="11.1915722"><ele>198.0</ele><time>2026-04-06T06:41:08.301Z</time></trkpt><trkpt lat="43.8938973" lon="11.1916363"><ele>198.0</ele><time>2026-04-06T06:41:13.286Z</time></trkpt><trkpt lat="43.8939658" lon="11.1916862"><ele>198.0</ele><time>2026-04-06T06:41:17.292Z</time></trkpt><trkpt lat="43.8940306" lon="11.191751"><ele>198.0</ele><time>2026-04-06T06:41:22.297Z</time></trkpt><trkpt lat="43.8940762" lon="11.1918115"><ele>198.0</ele><time>2026-04-06T06:41:26.293Z</time></trkpt><trkpt lat="43.8941216" lon="11.1918938"><ele>199.71428571428572</ele><time>2026-04-06T06:41:31.296Z</time></trkpt><trkpt lat="43.8941665" lon="11.1919675"><ele>201.42857142857142</ele><time>2026-04-06T06:41:35.289Z</time></trkpt><trkpt lat="43.8941871" lon="11.1920566"><ele>203.14285714285714</ele><time>2026-04-06T06:41:39.316Z</time></trkpt><trkpt lat="43.8942087" lon="11.1921502"><ele>204.85714285714286</ele><time>2026-04-06T06:41:43.28Z</time></trkpt><trkpt lat="43.8942255" lon="11.1922362"><ele>206.57142857142856</ele><time>2026-04-06T06:41:47.292Z</time></trkpt><trkpt lat="43.8942274" lon="11.1923377"><ele>208.28571428571428</ele><time>2026-04-06T06:41:51.301Z</time></trkpt><trkpt lat="43.8942286" lon="11.1924309"><ele>210.0</ele><time>2026-04-06T06:41:56.296Z</time></trkpt><trkpt lat="43.8942693" lon="11.1925207"><ele>210.28571428571428</ele><time>2026-04-06T06:42:03.306Z</time></trkpt><trkpt lat="43.8942941" lon="11.1926032"><ele>210.57142857142856</ele><time>2026-04-06T06:42:08.304Z</time></trkpt><trkpt lat="43.894321" lon="11.1927009"><ele>210.85714285714286</ele><time>2026-04-06T06:42:13.283Z</time></trkpt><trkpt lat="43.8943437" lon="11.1927974"><ele>211.14285714285714</ele><time>2026-04-06T06:42:17.298Z</time></trkpt><trkpt lat="43.8943749" lon="11.1928819"><ele>211.42857142857142</ele><time>2026-04-06T06:42:22.299Z</time></trkpt><trkpt lat="43.8944037" lon="11.1929754"><ele>211.71428571428572</ele><time>2026-04-06T06:42:27.3Z</time></trkpt><trkpt lat="43.8944296" lon="11.1930637"><ele>212.0</ele><time>2026-04-06T06:42:32.3Z</time></trkpt><trkpt lat="43.8944592" lon="11.1931416"><ele>213.57142857142858</ele><time>2026-04-06T06:42:37.306Z</time></trkpt><trkpt lat="43.8944828" lon="11.1932273"><ele>215.14285714285714</ele><time>2026-04-06T06:42:42.302Z</time></trkpt><trkpt lat="43.8945071" lon="11.1933144"><ele>216.71428571428572</ele><time>2026-04-06T06:42:47.313Z</time></trkpt><trkpt lat="43.8945399" lon="11.1934018"><ele>218.28571428571428</ele><time>2026-04-06T06:42:52.286Z</time></trkpt><trkpt lat="43.894548" lon="11.1934954"><ele>219.85714285714283</ele><time>2026-04-06T06:42:57.285Z</time></trkpt><trkpt lat="43.8945671" lon="11.193582"><ele>221.42857142857142</ele><time>2026-04-06T06:43:02.289Z</time></trkpt><trkpt lat="43.8945869" lon="11.193665"><ele>223.0</ele><time>2026-04-06T06:43:07.294Z</time></trkpt><trkpt lat="43.8946075" lon="11.1937559"><ele>223.0</ele><time>2026-04-06T06:43:14.297Z</time></trkpt><trkpt lat="43.8946263" lon="11.1938479"><ele>223.0</ele><time>2026-04-06T06:43:19.293Z</time></trkpt><trkpt lat="43.8946468" lon="11.1939318"><ele>223.0</ele><time>2026-04-06T06:43:24.305Z</time></trkpt><trkpt lat="43.8946833" lon="11.1940198"><ele>223.0</ele><time>2026-04-06T06:43:30.307Z</time></trkpt><trkpt lat="43.8947194" lon="11.1940936"><ele>223.0</ele><time>2026-04-06T06:43:35.295Z</time></trkpt><trkpt lat="43.8947591" lon="11.1941737"><ele>223.0</ele><time>2026-04-06T06:43:41.293Z</time></trkpt><trkpt lat="43.8948021" lon="11.1942524"><ele>223.0</ele><time>2026-04-06T06:43:46.301Z</time></trkpt><trkpt lat="43.894833" lon="11.1943345"><ele>224.71428571428572</ele><time>2026-04-06T06:43:52.31Z</time></trkpt><trkpt lat="43.8948646" lon="11.1944101"><ele>226.42857142857142</ele><time>2026-04-06T06:43:57.284Z</time></trkpt><trkpt lat="43.894894" lon="11.1944925"><ele>228.14285714285714</ele><time>2026-04-06T06:44:02.292Z</time></trkpt><trkpt lat="43.894923" lon="11.1945737"><ele>229.85714285714283</ele><time>2026-04-06T06:44:07.299Z</time></trkpt><trkpt lat="43.8949646" lon="11.1946513"><ele>231.57142857142856</ele><time>2026-04-06T06:44:11.289Z</time></trkpt><trkpt lat="43.8950149" lon="11.194734"><ele>233.28571428571428</ele><time>2026-04-06T06:44:16.292Z</time></trkpt><trkpt lat="43.8950474" lon="11.1948136"><ele>235.0</ele><time>2026-04-06T06:44:21.288Z</time></trkpt><trkpt lat="43.8951089" lon="11.1948798"><ele>236.85714285714283</ele><time>2026-04-06T06:44:27.287Z</time></trkpt><trkpt lat="43.895162" lon="11.1949326"><ele>238.7142857142857</ele><time>2026-04-06T06:44:31.306Z</time></trkpt><trkpt lat="43.895231" lon="11.1949727"><ele>240.57142857142856</ele><time>2026-04-06T06:44:37.3Z</time></trkpt><trkpt lat="43.8952935" lon="11.195019"><ele>242.42857142857144</ele><time>2026-04-06T06:44:43.301Z</time></trkpt><trkpt lat="43.8953415" lon="11.1950782"><ele>244.2857142857143</ele><time>2026-04-06T06:44:47.287Z</time></trkpt><trkpt lat="43.8953975" lon="11.1951323"><ele>246.14285714285717</ele><time>2026-04-06T06:44:52.299Z</time></trkpt><trkpt lat="43.8954471" lon="11.1951941"><ele>248.0</ele><time>2026-04-06T06:44:58.299Z</time></trkpt><trkpt lat="43.8955032" lon="11.1952342"><ele>248.0</ele><time>2026-04-06T06:45:03.3Z</time></trkpt><trkpt lat="43.8955618" lon="11.1952663"><ele>248.00000000000003</ele><time>2026-04-06T06:45:08.3Z</time></trkpt><trkpt lat="43.8956237" lon="11.1953121"><ele>248.0</ele><time>2026-04-06T06:45:14.294Z</time></trkpt><trkpt lat="43.8956814" lon="11.1953658"><ele>248.0</ele><time>2026-04-06T06:45:20.295Z</time></trkpt><trkpt lat="43.8957259" lon="11.1954358"><ele>248.00000000000003</ele><time>2026-04-06T06:45:24.29Z</time></trkpt><trkpt lat="43.8957428" lon="11.1955341"><ele>248.0</ele><time>2026-04-06T06:45:30.291Z</time></trkpt><trkpt lat="43.8957312" lon="11.1956405"><ele>248.0</ele><time>2026-04-06T06:45:35.32Z</time></trkpt><trkpt lat="43.8957251" lon="11.1957518"><ele>249.2857142857143</ele><time>2026-04-06T06:45:40.29Z</time></trkpt><trkpt lat="43.8957455" lon="11.1958456"><ele>250.5714285714286</ele><time>2026-04-06T06:45:45.302Z</time></trkpt><trkpt lat="43.8957515" lon="11.19595"><ele>251.85714285714286</ele><time>2026-04-06T06:45:50.308Z</time></trkpt><trkpt lat="43.8957485" lon="11.1960454"><ele>253.14285714285717</ele><time>2026-04-06T06:45:54.29Z</time></trkpt><trkpt lat="43.8957413" lon="11.1961439"><ele>254.42857142857144</ele><time>2026-04-06T06:45:58.296Z</time></trkpt><trkpt lat="43.8957469" lon="11.1962342"><ele>255.71428571428572</ele><time>2026-04-06T06:46:02.289Z</time></trkpt><trkpt lat="43.8957394" lon="11.1963305"><ele>257.0</ele><time>2026-04-06T06:46:07.311Z</time></trkpt><trkpt lat="43.8957416" lon="11.1964332"><ele>257.1428571428571</ele><time>2026-04-06T06:46:12.288Z</time></trkpt><trkpt lat="43.8957581" lon="11.1965241"><ele>257.2857142857143</ele><time>2026-04-06T06:46:16.298Z</time></trkpt><trkpt lat="43.8957836" lon="11.1966219"><ele>257.42857142857144</ele><time>2026-04-06T06:46:20.3Z</time></trkpt><trkpt lat="43.8958144" lon="11.1967116"><ele>257.57142857142856</ele><time>2026-04-06T06:46:24.308Z</time></trkpt><trkpt lat="43.8958488" lon="11.1968063"><ele>257.7142857142857</ele><time>2026-04-06T06:46:28.3Z</time></trkpt><trkpt lat="43.8958708" lon="11.1969049"><ele>257.85714285714283</ele><time>2026-04-06T06:46:32.288Z</time></trkpt><trkpt lat="43.895844" lon="11.1969992"><ele>258.0</ele><time>2026-04-06T06:46:37.296Z</time></trkpt><trkpt lat="43.8959" lon="11.1970493"><ele>256.99999999999994</ele><time>2026-04-06T06:46:41.31Z</time></trkpt><trkpt lat="43.8959724" lon="11.1970817"><ele>256.0</ele><time>2026-04-06T06:46:45.293Z</time></trkpt><trkpt lat="43.896033" lon="11.197125"><ele>254.99999999999997</ele><time>2026-04-06T06:46:49.296Z</time></trkpt><trkpt lat="43.8960852" lon="11.1971783"><ele>253.99999999999997</ele><time>2026-04-06T06:46:53.29Z</time></trkpt><trkpt lat="43.8961401" lon="11.1972473"><ele>253.0</ele><time>2026-04-06T06:46:57.287Z</time></trkpt><trkpt lat="43.8961916" lon="11.1973043"><ele>251.99999999999997</ele><time>2026-04-06T06:47:01.295Z</time></trkpt><trkpt lat="43.8962481" lon="11.1973712"><ele>250.99999999999997</ele><time>2026-04-06T06:47:05.301Z</time></trkpt><trkpt lat="43.8962969" lon="11.1974306"><ele>253.66666666666669</ele><time>2026-04-06T06:47:09.294Z</time></trkpt><trkpt lat="43.8963529" lon="11.1974939"><ele>256.33333333333337</ele><time>2026-04-06T06:47:13.298Z</time></trkpt><trkpt lat="43.8964217" lon="11.1975389"><ele>259.0</ele><time>2026-04-06T06:47:17.292Z</time></trkpt><trkpt lat="43.8965082" lon="11.1975475"><ele>261.6666666666667</ele><time>2026-04-06T06:47:21.31Z</time></trkpt><trkpt lat="43.8965811" lon="11.1975401"><ele>264.3333333333333</ele><time>2026-04-06T06:47:25.295Z</time></trkpt><trkpt lat="43.8966554" lon="11.1975282"><ele>267.0</ele><time>2026-04-06T06:47:29.297Z</time></trkpt><trkpt lat="43.8967342" lon="11.1975069"><ele>267.14285714285717</ele><time>2026-04-06T06:47:33.301Z</time></trkpt><trkpt lat="43.8968019" lon="11.1974882"><ele>267.2857142857143</ele><time>2026-04-06T06:47:37.294Z</time></trkpt><trkpt lat="43.8968756" lon="11.1974744"><ele>267.42857142857144</ele><time>2026-04-06T06:47:42.302Z</time></trkpt><trkpt lat="43.8969469" lon="11.1974556"><ele>267.57142857142856</ele><time>2026-04-06T06:47:47.298Z</time></trkpt><trkpt lat="43.8970099" lon="11.1974549"><ele>267.7142857142857</ele><time>2026-04-06T06:47:51.296Z</time></trkpt><trkpt lat="43.8970861" lon="11.1974466"><ele>267.8571428571429</ele><time>2026-04-06T06:47:56.307Z</time></trkpt><trkpt lat="43.8971502" lon="11.1974474"><ele>268.0</ele><time>2026-04-06T06:48:00.305Z</time></trkpt><trkpt lat="43.8972194" lon="11.1974592"><ele>268.0</ele><time>2026-04-06T06:48:05.309Z</time></trkpt><trkpt lat="43.8972922" lon="11.197481"><ele>268.0</ele><time>2026-04-06T06:48:10.298Z</time></trkpt><trkpt lat="43.897359" lon="11.1975288"><ele>268.0</ele><time>2026-04-06T06:48:15.304Z</time></trkpt><trkpt lat="43.8974172" lon="11.1975854"><ele>268.0</ele><time>2026-04-06T06:48:19.298Z</time></trkpt><trkpt lat="43.8974722" lon="11.1976622"><ele>268.0</ele><time>2026-04-06T06:48:23.291Z</time></trkpt><trkpt lat="43.8975185" lon="11.1977342"><ele>268.0</ele><time>2026-04-06T06:48:27.295Z</time></trkpt><trkpt lat="43.897561" lon="11.1978079"><ele>268.0</ele><time>2026-04-06T06:48:31.296Z</time></trkpt><trkpt lat="43.89761" lon="11.197885"><ele>267.0</ele><time>2026-04-06T06:48:35.305Z</time></trkpt><trkpt lat="43.8976562" lon="11.1979546"><ele>266.0</ele><time>2026-04-06T06:48:38.302Z</time></trkpt><trkpt lat="43.8976981" lon="11.1980276"><ele>265.0</ele><time>2026-04-06T06:48:41.302Z</time></trkpt><trkpt lat="43.8977453" lon="11.1981032"><ele>264.0</ele><time>2026-04-06T06:48:45.308Z</time></trkpt><trkpt lat="43.8977898" lon="11.1981837"><ele>263.0</ele><time>2026-04-06T06:48:49.299Z</time></trkpt><trkpt lat="43.8978395" lon="11.1982792"><ele>262.0</ele><time>2026-04-06T06:48:53.291Z</time></trkpt><trkpt lat="43.8978901" lon="11.1983571"><ele>261.0</ele><time>2026-04-06T06:48:56.309Z</time></trkpt><trkpt lat="43.8979473" lon="11.1984352"><ele>261.0</ele><time>2026-04-06T06:48:59.296Z</time></trkpt><trkpt lat="43.8980054" lon="11.1985056"><ele>261.0</ele><time>2026-04-06T06:49:02.293Z</time></trkpt><trkpt lat="43.8980487" lon="11.1985721"><ele>261.0</ele><time>2026-04-06T06:49:05.298Z</time></trkpt><trkpt lat="43.8980962" lon="11.1986549"><ele>261.0</ele><time>2026-04-06T06:49:09.305Z</time></trkpt><trkpt lat="43.8981485" lon="11.1987423"><ele>261.0</ele><time>2026-04-06T06:49:13.295Z</time></trkpt><trkpt lat="43.8981938" lon="11.1988383"><ele>261.0</ele><time>2026-04-06T06:49:17.299Z</time></trkpt><trkpt lat="43.8982389" lon="11.1989244"><ele>261.42857142857144</ele><time>2026-04-06T06:49:21.293Z</time></trkpt><trkpt lat="43.8982737" lon="11.1990077"><ele>261.85714285714283</ele><time>2026-04-06T06:49:25.309Z</time></trkpt><trkpt lat="43.8983148" lon="11.1990754"><ele>262.2857142857143</ele><time>2026-04-06T06:49:28.302Z</time></trkpt><trkpt lat="43.8983581" lon="11.1991535"><ele>262.7142857142857</ele><time>2026-04-06T06:49:32.302Z</time></trkpt><trkpt lat="43.8983985" lon="11.199221"><ele>263.14285714285717</ele><time>2026-04-06T06:49:35.294Z</time></trkpt><trkpt lat="43.8984489" lon="11.1992865"><ele>263.57142857142856</ele><time>2026-04-06T06:49:38.299Z</time></trkpt><trkpt lat="43.8985166" lon="11.1993495"><ele>264.0</ele><time>2026-04-06T06:49:41.298Z</time></trkpt><trkpt lat="43.8985748" lon="11.1994053"><ele>264.0</ele><time>2026-04-06T06:49:44.311Z</time></trkpt><trkpt lat="43.8986336" lon="11.1994477"><ele>264.0</ele><time>2026-04-06T06:49:47.302Z</time></trkpt><trkpt lat="43.8987009" lon="11.1994886"><ele>264.0</ele><time>2026-04-06T06:49:50.297Z</time></trkpt><trkpt lat="43.8987762" lon="11.1995381"><ele>264.0</ele><time>2026-04-06T06:49:53.301Z</time></trkpt><trkpt lat="43.8988426" lon="11.1995789"><ele>264.0</ele><time>2026-04-06T06:49:56.309Z</time></trkpt><trkpt lat="43.898903" lon="11.1996259"><ele>264.0</ele><time>2026-04-06T06:49:59.302Z</time></trkpt><trkpt lat="43.8989753" lon="11.1996804"><ele>264.0</ele><time>2026-04-06T06:50:03.314Z</time></trkpt><trkpt lat="43.8990338" lon="11.1997162"><ele>264.0</ele><time>2026-04-06T06:50:06.308Z</time></trkpt><trkpt lat="43.8990924" lon="11.1997494"><ele>264.0</ele><time>2026-04-06T06:50:09.302Z</time></trkpt><trkpt lat="43.8991556" lon="11.1997913"><ele>264.0</ele><time>2026-04-06T06:50:12.295Z</time></trkpt><trkpt lat="43.8992204" lon="11.1998307"><ele>264.0</ele><time>2026-04-06T06:50:15.3Z</time></trkpt><trkpt lat="43.8992783" lon="11.1998664"><ele>264.0</ele><time>2026-04-06T06:50:18.299Z</time></trkpt><trkpt lat="43.899349" lon="11.199903"><ele>264.0</ele><time>2026-04-06T06:50:22.289Z</time></trkpt><trkpt lat="43.8994256" lon="11.1999093"><ele>264.0</ele><time>2026-04-06T06:50:26.3Z</time></trkpt><trkpt lat="43.8994871" lon="11.1999307"><ele>265.85714285714283</ele><time>2026-04-06T06:50:29.3Z</time></trkpt><trkpt lat="43.8995697" lon="11.1999412"><ele>267.7142857142857</ele><time>2026-04-06T06:50:33.329Z</time></trkpt><trkpt lat="43.8996375" lon="11.199945"><ele>269.57142857142856</ele><time>2026-04-06T06:50:36.303Z</time></trkpt><trkpt lat="43.8997061" lon="11.1999502"><ele>271.42857142857144</ele><time>2026-04-06T06:50:39.307Z</time></trkpt><trkpt lat="43.8997746" lon="11.1999549"><ele>273.2857142857143</ele><time>2026-04-06T06:50:42.297Z</time></trkpt><trkpt lat="43.8998407" lon="11.1999562"><ele>275.1428571428571</ele><time>2026-04-06T06:50:45.305Z</time></trkpt><trkpt lat="43.8999053" lon="11.1999605"><ele>277.0</ele><time>2026-04-06T06:50:48.299Z</time></trkpt><trkpt lat="43.8999701" lon="11.1999647"><ele>277.0</ele><time>2026-04-06T06:50:51.3Z</time></trkpt><trkpt lat="43.9000339" lon="11.1999693"><ele>277.0</ele><time>2026-04-06T06:50:54.304Z</time></trkpt><trkpt lat="43.9000963" lon="11.1999813"><ele>277.0</ele><time>2026-04-06T06:50:57.298Z</time></trkpt><trkpt lat="43.9001635" lon="11.1999917"><ele>277.0</ele><time>2026-04-06T06:51:00.299Z</time></trkpt><trkpt lat="43.9002278" lon="11.2000029"><ele>277.0</ele><time>2026-04-06T06:51:03.306Z</time></trkpt><trkpt lat="43.9003038" lon="11.2000021"><ele>277.0</ele><time>2026-04-06T06:51:06.299Z</time></trkpt><trkpt lat="43.9003707" lon="11.2000019"><ele>277.0</ele><time>2026-04-06T06:51:09.293Z</time></trkpt><trkpt lat="43.9004537" lon="11.2000168"><ele>276.5</ele><time>2026-04-06T06:51:12.292Z</time></trkpt><trkpt lat="43.9005204" lon="11.2000254"><ele>276.0</ele><time>2026-04-06T06:51:14.318Z</time></trkpt><trkpt lat="43.9005883" lon="11.2000331"><ele>275.5</ele><time>2026-04-06T06:51:16.298Z</time></trkpt><trkpt lat="43.9006547" lon="11.2000414"><ele>275.0</ele><time>2026-04-06T06:51:18.296Z</time></trkpt><trkpt lat="43.9007541" lon="11.2000502"><ele>274.5</ele><time>2026-04-06T06:51:20.311Z</time></trkpt><trkpt lat="43.9008682" lon="11.200087"><ele>274.0</ele><time>2026-04-06T06:51:22.298Z</time></trkpt><trkpt lat="43.9009846" lon="11.2001403"><ele>272.8</ele><time>2026-04-06T06:51:24.298Z</time></trkpt><trkpt lat="43.901045" lon="11.2001698"><ele>271.59999999999997</ele><time>2026-04-06T06:51:25.308Z</time></trkpt><trkpt lat="43.901153" lon="11.2002408"><ele>270.4</ele><time>2026-04-06T06:51:27.296Z</time></trkpt><trkpt lat="43.9012551" lon="11.2003038"><ele>269.2</ele><time>2026-04-06T06:51:29.303Z</time></trkpt><trkpt lat="43.9013417" lon="11.2003581"><ele>268.0</ele><time>2026-04-06T06:51:31.303Z</time></trkpt><trkpt lat="43.9014143" lon="11.2004073"><ele>268.0</ele><time>2026-04-06T06:51:33.298Z</time></trkpt><trkpt lat="43.901481" lon="11.2004496"><ele>268.0</ele><time>2026-04-06T06:51:35.3Z</time></trkpt><trkpt lat="43.9015506" lon="11.2004907"><ele>268.0</ele><time>2026-04-06T06:51:37.298Z</time></trkpt><trkpt lat="43.901618" lon="11.2005291"><ele>268.0</ele><time>2026-04-06T06:51:39.303Z</time></trkpt><trkpt lat="43.9016783" lon="11.2005584"><ele>268.0</ele><time>2026-04-06T06:51:41.312Z</time></trkpt><trkpt lat="43.90176" lon="11.2005726"><ele>268.0</ele><time>2026-04-06T06:51:44.303Z</time></trkpt><trkpt lat="43.901847" lon="11.2005355"><ele>268.7142857142857</ele><time>2026-04-06T06:51:47.292Z</time></trkpt><trkpt lat="43.9019146" lon="11.2004954"><ele>269.42857142857144</ele><time>2026-04-06T06:51:49.318Z</time></trkpt><trkpt lat="43.9019774" lon="11.2004665"><ele>270.1428571428571</ele><time>2026-04-06T06:51:51.303Z</time></trkpt><trkpt lat="43.9020396" lon="11.2004399"><ele>270.8571428571429</ele><time>2026-04-06T06:51:53.307Z</time></trkpt><trkpt lat="43.9020993" lon="11.2004051"><ele>271.57142857142856</ele><time>2026-04-06T06:51:55.302Z</time></trkpt><trkpt lat="43.902161" lon="11.2003728"><ele>272.2857142857143</ele><time>2026-04-06T06:51:57.3Z</time></trkpt><trkpt lat="43.9022248" lon="11.2003416"><ele>273.0</ele><time>2026-04-06T06:51:59.315Z</time></trkpt><trkpt lat="43.902286" lon="11.2003073"><ele>273.0</ele><time>2026-04-06T06:52:01.291Z</time></trkpt><trkpt lat="43.9023726" lon="11.2002585"><ele>273.0</ele><time>2026-04-06T06:52:04.309Z</time></trkpt><trkpt lat="43.9024542" lon="11.2002205"><ele>273.0</ele><time>2026-04-06T06:52:07.295Z</time></trkpt><trkpt lat="43.9025303" lon="11.200176"><ele>273.0</ele><time>2026-04-06T06:52:10.293Z</time></trkpt><trkpt lat="43.9026039" lon="11.2001365"><ele>273.0</ele><time>2026-04-06T06:52:13.299Z</time></trkpt><trkpt lat="43.9026719" lon="11.2001065"><ele>273.0</ele><time>2026-04-06T06:52:16.309Z</time></trkpt><trkpt lat="43.902737" lon="11.2000909"><ele>273.5</ele><time>2026-04-06T06:52:19.294Z</time></trkpt><trkpt lat="43.9028002" lon="11.2000791"><ele>274.0</ele><time>2026-04-06T06:52:22.301Z</time></trkpt><trkpt lat="43.9028813" lon="11.2000766"><ele>274.5</ele><time>2026-04-06T06:52:25.306Z</time></trkpt><trkpt lat="43.9029707" lon="11.2000816"><ele>275.0</ele><time>2026-04-06T06:52:28.304Z</time></trkpt><trkpt lat="43.903062" lon="11.2000866"><ele>275.5</ele><time>2026-04-06T06:52:31.303Z</time></trkpt><trkpt lat="43.9031537" lon="11.2000876"><ele>276.0</ele><time>2026-04-06T06:52:34.301Z</time></trkpt><trkpt lat="43.9032202" lon="11.2000873"><ele>276.0</ele><time>2026-04-06T06:52:36.303Z</time></trkpt><trkpt lat="43.9032887" lon="11.2000809"><ele>276.0</ele><time>2026-04-06T06:52:38.31Z</time></trkpt><trkpt lat="43.9033564" lon="11.2000733"><ele>276.0</ele><time>2026-04-06T06:52:40.313Z</time></trkpt><trkpt lat="43.9034492" lon="11.2000701"><ele>276.0</ele><time>2026-04-06T06:52:43.303Z</time></trkpt><trkpt lat="43.9035382" lon="11.2000737"><ele>276.0</ele><time>2026-04-06T06:52:46.311Z</time></trkpt><trkpt lat="43.9036243" lon="11.2000781"><ele>276.0</ele><time>2026-04-06T06:52:49.309Z</time></trkpt><trkpt lat="43.9037123" lon="11.2000738"><ele>276.0</ele><time>2026-04-06T06:52:52.304Z</time></trkpt><trkpt lat="43.9037938" lon="11.2000285"><ele>276.0</ele><time>2026-04-06T06:52:55.297Z</time></trkpt><trkpt lat="43.903857" lon="11.1999416"><ele>276.0</ele><time>2026-04-06T06:52:58.295Z</time></trkpt><trkpt lat="43.9038955" lon="11.199853"><ele>276.0</ele><time>2026-04-06T06:53:01.312Z</time></trkpt><trkpt lat="43.9039336" lon="11.1997587"><ele>276.0</ele><time>2026-04-06T06:53:05.308Z</time></trkpt><trkpt lat="43.9039578" lon="11.1996704"><ele>276.0</ele><time>2026-04-06T06:53:08.302Z</time></trkpt><trkpt lat="43.9039901" lon="11.199576"><ele>276.0</ele><time>2026-04-06T06:53:11.301Z</time></trkpt><trkpt lat="43.9040446" lon="11.1994909"><ele>276.0</ele><time>2026-04-06T06:53:14.294Z</time></trkpt><trkpt lat="43.9041013" lon="11.1993915"><ele>276.0</ele><time>2026-04-06T06:53:17.309Z</time></trkpt><trkpt lat="43.9041612" lon="11.1992936"><ele>276.0</ele><time>2026-04-06T06:53:20.319Z</time></trkpt><trkpt lat="43.9042183" lon="11.1992019"><ele>276.0</ele><time>2026-04-06T06:53:23.295Z</time></trkpt><trkpt lat="43.90427" lon="11.1991105"><ele>276.0</ele><time>2026-04-06T06:53:26.303Z</time></trkpt><trkpt lat="43.9043207" lon="11.1990159"><ele>276.14285714285717</ele><time>2026-04-06T06:53:29.3Z</time></trkpt><trkpt lat="43.9043689" lon="11.1989301"><ele>276.28571428571433</ele><time>2026-04-06T06:53:32.297Z</time></trkpt><trkpt lat="43.9044149" lon="11.1988443"><ele>276.42857142857144</ele><time>2026-04-06T06:53:35.296Z</time></trkpt><trkpt lat="43.9044614" lon="11.198756"><ele>276.57142857142856</ele><time>2026-04-06T06:53:39.307Z</time></trkpt><trkpt lat="43.9045016" lon="11.1986865"><ele>276.71428571428567</ele><time>2026-04-06T06:53:43.307Z</time></trkpt><trkpt lat="43.9045466" lon="11.1986171"><ele>276.85714285714283</ele><time>2026-04-06T06:53:47.303Z</time></trkpt><trkpt lat="43.9045861" lon="11.1985243"><ele>277.0</ele><time>2026-04-06T06:53:52.303Z</time></trkpt><trkpt lat="43.904641" lon="11.1984578"><ele>277.0</ele><time>2026-04-06T06:53:55.304Z</time></trkpt><trkpt lat="43.904708" lon="11.1984449"><ele>277.0</ele><time>2026-04-06T06:53:58.309Z</time></trkpt><trkpt lat="43.9048015" lon="11.1984673"><ele>277.0</ele><time>2026-04-06T06:54:01.305Z</time></trkpt><trkpt lat="43.9048733" lon="11.1984856"><ele>277.0</ele><time>2026-04-06T06:54:03.296Z</time></trkpt><trkpt lat="43.9049602" lon="11.19851"><ele>277.0</ele><time>2026-04-06T06:54:05.3Z</time></trkpt><trkpt lat="43.9050503" lon="11.1985302"><ele>277.0</ele><time>2026-04-06T06:54:07.297Z</time></trkpt><trkpt lat="43.9051343" lon="11.19855"><ele>276.0</ele><time>2026-04-06T06:54:09.312Z</time></trkpt><trkpt lat="43.905215" lon="11.1985759"><ele>275.0</ele><time>2026-04-06T06:54:11.309Z</time></trkpt><trkpt lat="43.9052956" lon="11.1985965"><ele>274.0</ele><time>2026-04-06T06:54:13.296Z</time></trkpt><trkpt lat="43.9053859" lon="11.1986243"><ele>273.0</ele><time>2026-04-06T06:54:15.311Z</time></trkpt><trkpt lat="43.905475" lon="11.1986458"><ele>272.0</ele><time>2026-04-06T06:54:17.301Z</time></trkpt><trkpt lat="43.9055647" lon="11.1986714"><ele>271.0</ele><time>2026-04-06T06:54:19.311Z</time></trkpt><trkpt lat="43.9056463" lon="11.1986909"><ele>271.0</ele><time>2026-04-06T06:54:21.295Z</time></trkpt><trkpt lat="43.9057174" lon="11.1986665"><ele>271.0</ele><time>2026-04-06T06:54:24.304Z</time></trkpt><trkpt lat="43.9057811" lon="11.198573"><ele>271.0</ele><time>2026-04-06T06:54:26.307Z</time></trkpt><trkpt lat="43.9058552" lon="11.198469"><ele>271.0</ele><time>2026-04-06T06:54:28.301Z</time></trkpt><trkpt lat="43.9059296" lon="11.1983711"><ele>271.0</ele><time>2026-04-06T06:54:30.319Z</time></trkpt><trkpt lat="43.9060017" lon="11.1982759"><ele>270.40000000000003</ele><time>2026-04-06T06:54:32.3Z</time></trkpt><trkpt lat="43.9060884" lon="11.1981791"><ele>269.8</ele><time>2026-04-06T06:54:34.308Z</time></trkpt><trkpt lat="43.9061626" lon="11.1980832"><ele>269.20000000000005</ele><time>2026-04-06T06:54:36.298Z</time></trkpt><trkpt lat="43.906239" lon="11.1979885"><ele>268.6</ele><time>2026-04-06T06:54:38.292Z</time></trkpt><trkpt lat="43.906315" lon="11.1978685"><ele>268.0</ele><time>2026-04-06T06:54:40.296Z</time></trkpt><trkpt lat="43.9063823" lon="11.1977403"><ele>266.6</ele><time>2026-04-06T06:54:42.309Z</time></trkpt><trkpt lat="43.9064231" lon="11.1976694"><ele>265.20000000000005</ele><time>2026-04-06T06:54:43.308Z</time></trkpt><trkpt lat="43.9064655" lon="11.1976018"><ele>263.8</ele><time>2026-04-06T06:54:44.296Z</time></trkpt><trkpt lat="43.9065591" lon="11.1974875"><ele>262.40000000000003</ele><time>2026-04-06T06:54:46.299Z</time></trkpt><trkpt lat="43.9066604" lon="11.1974041"><ele>261.0</ele><time>2026-04-06T06:54:48.295Z</time></trkpt><trkpt lat="43.9067628" lon="11.1973955"><ele>257.6</ele><time>2026-04-06T06:54:50.302Z</time></trkpt><trkpt lat="43.9068458" lon="11.197473"><ele>254.20000000000002</ele><time>2026-04-06T06:54:52.31Z</time></trkpt><trkpt lat="43.9069236" lon="11.1975689"><ele>250.79999999999998</ele><time>2026-04-06T06:54:54.303Z</time></trkpt><trkpt lat="43.9069951" lon="11.1976623"><ele>247.39999999999998</ele><time>2026-04-06T06:54:56.345Z</time></trkpt><trkpt lat="43.9070653" lon="11.1977439"><ele>244.0</ele><time>2026-04-06T06:54:58.31Z</time></trkpt><trkpt lat="43.9071331" lon="11.1978397"><ele>243.99999999999997</ele><time>2026-04-06T06:55:00.309Z</time></trkpt><trkpt lat="43.9071932" lon="11.197887"><ele>244.0</ele><time>2026-04-06T06:55:04.347Z</time></trkpt><trkpt lat="43.9072544" lon="11.1978304"><ele>244.0</ele><time>2026-04-06T06:55:08.296Z</time></trkpt><trkpt lat="43.9072934" lon="11.1977533"><ele>244.0</ele><time>2026-04-06T06:55:12.325Z</time></trkpt><trkpt lat="43.9073215" lon="11.1976567"><ele>243.99999999999997</ele><time>2026-04-06T06:55:16.292Z</time></trkpt><trkpt lat="43.9073749" lon="11.1976073"><ele>244.0</ele><time>2026-04-06T06:55:21.349Z</time></trkpt><trkpt lat="43.9074654" lon="11.1977735"><ele>241.5</ele><time>2026-04-06T06:55:27.296Z</time></trkpt><trkpt lat="43.9076031" lon="11.1979419"><ele>239.0</ele><time>2026-04-06T06:55:32.295Z</time></trkpt><trkpt lat="43.9076884" lon="11.1978893"><ele>236.5</ele><time>2026-04-06T06:55:36.304Z</time></trkpt><trkpt lat="43.9078116" lon="11.1979436"><ele>234.0</ele><time>2026-04-06T06:55:38.312Z</time></trkpt><trkpt lat="43.9079038" lon="11.1979525"><ele>234.0</ele><time>2026-04-06T06:55:40.3Z</time></trkpt><trkpt lat="43.9080135" lon="11.197954"><ele>234.0</ele><time>2026-04-06T06:55:42.31Z</time></trkpt><trkpt lat="43.9081064" lon="11.1979159"><ele>234.0</ele><time>2026-04-06T06:55:44.297Z</time></trkpt><trkpt lat="43.9081666" lon="11.1978728"><ele>234.0</ele><time>2026-04-06T06:55:46.309Z</time></trkpt><trkpt lat="43.9082437" lon="11.1977937"><ele>234.0</ele><time>2026-04-06T06:55:49.296Z</time></trkpt><trkpt lat="43.9083139" lon="11.1977605"><ele>234.0</ele><time>2026-04-06T06:55:51.299Z</time></trkpt><trkpt lat="43.9083832" lon="11.1977025"><ele>232.39999999999998</ele><time>2026-04-06T06:55:54.307Z</time></trkpt><trkpt lat="43.9084765" lon="11.1976023"><ele>230.79999999999998</ele><time>2026-04-06T06:55:57.294Z</time></trkpt><trkpt lat="43.9085603" lon="11.1974893"><ele>229.20000000000002</ele><time>2026-04-06T06:55:59.31Z</time></trkpt><trkpt lat="43.9086323" lon="11.1973982"><ele>227.60000000000002</ele><time>2026-04-06T06:56:01.305Z</time></trkpt><trkpt lat="43.9087089" lon="11.197314"><ele>226.0</ele><time>2026-04-06T06:56:03.3Z</time></trkpt><trkpt lat="43.9087868" lon="11.1972341"><ele>226.0</ele><time>2026-04-06T06:56:05.299Z</time></trkpt><trkpt lat="43.9088537" lon="11.1971796"><ele>226.0</ele><time>2026-04-06T06:56:07.298Z</time></trkpt><trkpt lat="43.9089392" lon="11.1970799"><ele>226.0</ele><time>2026-04-06T06:56:09.306Z</time></trkpt><trkpt lat="43.9089688" lon="11.1967018"><ele>226.0</ele><time>2026-04-06T06:56:15.294Z</time></trkpt><trkpt lat="43.9090003" lon="11.1965329"><ele>226.0</ele><time>2026-04-06T06:56:16.296Z</time></trkpt><trkpt lat="43.9090627" lon="11.1963295"><ele>226.0</ele><time>2026-04-06T06:56:17.294Z</time></trkpt><trkpt lat="43.909078" lon="11.1961293"><ele>226.0</ele><time>2026-04-06T06:56:18.313Z</time></trkpt><trkpt lat="43.9090773" lon="11.1959861"><ele>223.4</ele><time>2026-04-06T06:56:19.309Z</time></trkpt><trkpt lat="43.9090855" lon="11.1958375"><ele>220.8</ele><time>2026-04-06T06:56:21.301Z</time></trkpt><trkpt lat="43.9090784" lon="11.1956597"><ele>218.20000000000002</ele><time>2026-04-06T06:56:23.294Z</time></trkpt><trkpt lat="43.9090625" lon="11.1955036"><ele>215.60000000000002</ele><time>2026-04-06T06:56:25.304Z</time></trkpt><trkpt lat="43.9090326" lon="11.1953749"><ele>213.0</ele><time>2026-04-06T06:56:27.305Z</time></trkpt><trkpt lat="43.9089951" lon="11.1952827"><ele>212.5</ele><time>2026-04-06T06:56:29.297Z</time></trkpt><trkpt lat="43.9089432" lon="11.1951917"><ele>212.0</ele><time>2026-04-06T06:56:31.299Z</time></trkpt><trkpt lat="43.9088849" lon="11.1951037"><ele>211.5</ele><time>2026-04-06T06:56:33.297Z</time></trkpt><trkpt lat="43.908805" lon="11.1950069"><ele>211.0</ele><time>2026-04-06T06:56:35.301Z</time></trkpt><trkpt lat="43.908744" lon="11.1949487"><ele>210.5</ele><time>2026-04-06T06:56:37.292Z</time></trkpt><trkpt lat="43.90868" lon="11.1949291"><ele>210.0</ele><time>2026-04-06T06:56:39.318Z</time></trkpt><trkpt lat="43.9086552" lon="11.194843"><ele>208.66666666666666</ele><time>2026-04-06T06:56:43.31Z</time></trkpt><trkpt lat="43.9086344" lon="11.1947534"><ele>207.33333333333331</ele><time>2026-04-06T06:56:45.292Z</time></trkpt><trkpt lat="43.9086056" lon="11.1946104"><ele>206.0</ele><time>2026-04-06T06:56:47.292Z</time></trkpt><trkpt lat="43.9085894" lon="11.194516"><ele>204.66666666666666</ele><time>2026-04-06T06:56:48.307Z</time></trkpt><trkpt lat="43.9085725" lon="11.19442"><ele>203.33333333333331</ele><time>2026-04-06T06:56:49.294Z</time></trkpt><trkpt lat="43.908568" lon="11.1942405"><ele>202.0</ele><time>2026-04-06T06:56:51.3Z</time></trkpt><trkpt lat="43.9085702" lon="11.1941447"><ele>201.99999999999997</ele><time>2026-04-06T06:56:52.303Z</time></trkpt><trkpt lat="43.9085666" lon="11.194046"><ele>202.0</ele><time>2026-04-06T06:56:53.3Z</time></trkpt><trkpt lat="43.9085632" lon="11.19395"><ele>202.0</ele><time>2026-04-06T06:56:54.303Z</time></trkpt><trkpt lat="43.9085666" lon="11.1938098"><ele>202.0</ele><time>2026-04-06T06:56:56.303Z</time></trkpt><trkpt lat="43.908573" lon="11.193691"><ele>201.99999999999997</ele><time>2026-04-06T06:56:58.299Z</time></trkpt><trkpt lat="43.9086125" lon="11.1935942"><ele>202.0</ele><time>2026-04-06T06:57:00.301Z</time></trkpt><trkpt lat="43.9086854" lon="11.1935702"><ele>197.2</ele><time>2026-04-06T06:57:02.296Z</time></trkpt><trkpt lat="43.9087782" lon="11.1935635"><ele>192.39999999999998</ele><time>2026-04-06T06:57:04.293Z</time></trkpt><trkpt lat="43.9088845" lon="11.1935637"><ele>187.60000000000002</ele><time>2026-04-06T06:57:06.288Z</time></trkpt><trkpt lat="43.908987" lon="11.1935792"><ele>182.8</ele><time>2026-04-06T06:57:08.313Z</time></trkpt><trkpt lat="43.9090801" lon="11.1935566"><ele>178.0</ele><time>2026-04-06T06:57:10.296Z</time></trkpt><trkpt lat="43.9091627" lon="11.1935277"><ele>178.0</ele><time>2026-04-06T06:57:12.302Z</time></trkpt><trkpt lat="43.909233" lon="11.1935009"><ele>178.0</ele><time>2026-04-06T06:57:14.294Z</time></trkpt><trkpt lat="43.90932" lon="11.1934677"><ele>178.0</ele><time>2026-04-06T06:57:16.304Z</time></trkpt><trkpt lat="43.9094112" lon="11.1934303"><ele>178.0</ele><time>2026-04-06T06:57:18.3Z</time></trkpt><trkpt lat="43.9095252" lon="11.1933901"><ele>178.0</ele><time>2026-04-06T06:57:20.314Z</time></trkpt><trkpt lat="43.9096273" lon="11.1933713"><ele>176.8</ele><time>2026-04-06T06:57:22.296Z</time></trkpt><trkpt lat="43.9097355" lon="11.1933581"><ele>175.60000000000002</ele><time>2026-04-06T06:57:24.304Z</time></trkpt><trkpt lat="43.9098442" lon="11.1933483"><ele>174.39999999999998</ele><time>2026-04-06T06:57:26.292Z</time></trkpt><trkpt lat="43.9099562" lon="11.1933824"><ele>173.2</ele><time>2026-04-06T06:57:28.302Z</time></trkpt><trkpt lat="43.9100687" lon="11.1934183"><ele>172.0</ele><time>2026-04-06T06:57:30.303Z</time></trkpt><trkpt lat="43.9101814" lon="11.1934616"><ele>169.16666666666669</ele><time>2026-04-06T06:57:32.297Z</time></trkpt><trkpt lat="43.9102788" lon="11.1934879"><ele>166.33333333333334</ele><time>2026-04-06T06:57:34.296Z</time></trkpt><trkpt lat="43.9103847" lon="11.1935216"><ele>163.5</ele><time>2026-04-06T06:57:36.304Z</time></trkpt><trkpt lat="43.910445" lon="11.1935478"><ele>160.66666666666666</ele><time>2026-04-06T06:57:37.298Z</time></trkpt><trkpt lat="43.9105084" lon="11.1935741"><ele>157.83333333333331</ele><time>2026-04-06T06:57:38.304Z</time></trkpt><trkpt lat="43.9105793" lon="11.1936038"><ele>155.0</ele><time>2026-04-06T06:57:39.294Z</time></trkpt><trkpt lat="43.9106431" lon="11.1936271"><ele>155.0</ele><time>2026-04-06T06:57:40.291Z</time></trkpt><trkpt lat="43.9107171" lon="11.193664"><ele>155.0</ele><time>2026-04-06T06:57:41.297Z</time></trkpt><trkpt lat="43.9108037" lon="11.193709"><ele>155.0</ele><time>2026-04-06T06:57:42.314Z</time></trkpt><trkpt lat="43.9108911" lon="11.1937597"><ele>155.0</ele><time>2026-04-06T06:57:43.299Z</time></trkpt><trkpt lat="43.9109902" lon="11.1938095"><ele>155.0</ele><time>2026-04-06T06:57:44.298Z</time></trkpt><trkpt lat="43.9110788" lon="11.1938543"><ele>154.16666666666666</ele><time>2026-04-06T06:57:45.297Z</time></trkpt><trkpt lat="43.9111694" lon="11.1939063"><ele>153.33333333333331</ele><time>2026-04-06T06:57:46.299Z</time></trkpt><trkpt lat="43.9112542" lon="11.1939604"><ele>152.5</ele><time>2026-04-06T06:57:47.306Z</time></trkpt><trkpt lat="43.9113252" lon="11.1940102"><ele>151.66666666666666</ele><time>2026-04-06T06:57:48.282Z</time></trkpt><trkpt lat="43.9113917" lon="11.1940476"><ele>150.83333333333334</ele><time>2026-04-06T06:57:49.291Z</time></trkpt><trkpt lat="43.9114538" lon="11.1940793"><ele>150.0</ele><time>2026-04-06T06:57:50.297Z</time></trkpt><trkpt lat="43.9115631" lon="11.1941346"><ele>150.4</ele><time>2026-04-06T06:57:52.316Z</time></trkpt><trkpt lat="43.9116581" lon="11.1941946"><ele>150.8</ele><time>2026-04-06T06:57:54.299Z</time></trkpt><trkpt lat="43.9117504" lon="11.1942545"><ele>151.2</ele><time>2026-04-06T06:57:56.306Z</time></trkpt><trkpt lat="43.9118377" lon="11.1943133"><ele>151.6</ele><time>2026-04-06T06:57:58.296Z</time></trkpt><trkpt lat="43.9119167" lon="11.1943743"><ele>152.0</ele><time>2026-04-06T06:58:00.303Z</time></trkpt><trkpt lat="43.9119841" lon="11.1944392"><ele>152.0</ele><time>2026-04-06T06:58:02.29Z</time></trkpt><trkpt lat="43.9120503" lon="11.1945107"><ele>152.0</ele><time>2026-04-06T06:58:04.309Z</time></trkpt><trkpt lat="43.9121212" lon="11.19459"><ele>152.0</ele><time>2026-04-06T06:58:06.315Z</time></trkpt><trkpt lat="43.9122258" lon="11.1946898"><ele>152.0</ele><time>2026-04-06T06:58:08.294Z</time></trkpt><trkpt lat="43.9122873" lon="11.1947443"><ele>152.0</ele><time>2026-04-06T06:58:09.294Z</time></trkpt><trkpt lat="43.9123402" lon="11.1947932"><ele>152.0</ele><time>2026-04-06T06:58:10.313Z</time></trkpt><trkpt lat="43.912445" lon="11.1948811"><ele>153.2</ele><time>2026-04-06T06:58:12.291Z</time></trkpt><trkpt lat="43.9125507" lon="11.1949345"><ele>154.39999999999998</ele><time>2026-04-06T06:58:14.299Z</time></trkpt><trkpt lat="43.9126517" lon="11.1949605"><ele>155.60000000000002</ele><time>2026-04-06T06:58:16.284Z</time></trkpt><trkpt lat="43.9127436" lon="11.1949796"><ele>156.8</ele><time>2026-04-06T06:58:18.294Z</time></trkpt><trkpt lat="43.9128209" lon="11.1949991"><ele>158.0</ele><time>2026-04-06T06:58:20.305Z</time></trkpt><trkpt lat="43.9128907" lon="11.1950167"><ele>158.00000000000003</ele><time>2026-04-06T06:58:22.303Z</time></trkpt><trkpt lat="43.9129545" lon="11.1950216"><ele>158.0</ele><time>2026-04-06T06:58:24.302Z</time></trkpt><trkpt lat="43.9130321" lon="11.1950411"><ele>158.0</ele><time>2026-04-06T06:58:27.308Z</time></trkpt><trkpt lat="43.9130957" lon="11.19504"><ele>158.0</ele><time>2026-04-06T06:58:52.317Z</time></trkpt><trkpt lat="43.9131633" lon="11.1949886"><ele>158.0</ele><time>2026-04-06T06:58:56.306Z</time></trkpt><trkpt lat="43.9132259" lon="11.1950097"><ele>158.00000000000003</ele><time>2026-04-06T06:58:59.302Z</time></trkpt><trkpt lat="43.91329" lon="11.1950381"><ele>158.0</ele><time>2026-04-06T06:59:02.303Z</time></trkpt><trkpt lat="43.913358" lon="11.1950939"><ele>157.5</ele><time>2026-04-06T06:59:06.307Z</time></trkpt><trkpt lat="43.9134124" lon="11.195141"><ele>157.0</ele><time>2026-04-06T06:59:09.302Z</time></trkpt><trkpt lat="43.9134743" lon="11.1951973"><ele>156.5</ele><time>2026-04-06T06:59:12.298Z</time></trkpt><trkpt lat="43.9135431" lon="11.1952443"><ele>156.0</ele><time>2026-04-06T06:59:15.3Z</time></trkpt><trkpt lat="43.9136272" lon="11.195274"><ele>155.5</ele><time>2026-04-06T06:59:18.302Z</time></trkpt><trkpt lat="43.9137269" lon="11.1952719"><ele>155.0</ele><time>2026-04-06T06:59:20.296Z</time></trkpt><trkpt lat="43.9138224" lon="11.1952593"><ele>155.0</ele><time>2026-04-06T06:59:22.296Z</time></trkpt><trkpt lat="43.91391" lon="11.195238"><ele>155.0</ele><time>2026-04-06T06:59:24.297Z</time></trkpt><trkpt lat="43.9139868" lon="11.1952173"><ele>155.0</ele><time>2026-04-06T06:59:26.307Z</time></trkpt><trkpt lat="43.9140511" lon="11.1951901"><ele>155.0</ele><time>2026-04-06T06:59:28.296Z</time></trkpt><trkpt lat="43.9141213" lon="11.1951235"><ele>155.0</ele><time>2026-04-06T06:59:31.347Z</time></trkpt><trkpt lat="43.9141714" lon="11.1950347"><ele>155.0</ele><time>2026-04-06T06:59:34.304Z</time></trkpt><trkpt lat="43.91422" lon="11.1949388"><ele>155.16666666666666</ele><time>2026-04-06T06:59:37.305Z</time></trkpt><trkpt lat="43.9142508" lon="11.1948301"><ele>155.33333333333331</ele><time>2026-04-06T06:59:40.298Z</time></trkpt><trkpt lat="43.9142598" lon="11.1947113"><ele>155.5</ele><time>2026-04-06T06:59:43.302Z</time></trkpt><trkpt lat="43.9142446" lon="11.1945922"><ele>155.66666666666666</ele><time>2026-04-06T06:59:46.307Z</time></trkpt><trkpt lat="43.9142238" lon="11.1945035"><ele>155.83333333333334</ele><time>2026-04-06T06:59:49.295Z</time></trkpt><trkpt lat="43.9142038" lon="11.1944152"><ele>156.0</ele><time>2026-04-06T06:59:52.306Z</time></trkpt><trkpt lat="43.9141974" lon="11.1943279"><ele>156.0</ele><time>2026-04-06T06:59:55.305Z</time></trkpt><trkpt lat="43.9142029" lon="11.1942249"><ele>156.0</ele><time>2026-04-06T06:59:59.305Z</time></trkpt><trkpt lat="43.9142267" lon="11.1941269"><ele>156.0</ele><time>2026-04-06T07:00:04.3Z</time></trkpt><trkpt lat="43.9142633" lon="11.1940322"><ele>156.0</ele><time>2026-04-06T07:00:09.303Z</time></trkpt><trkpt lat="43.9143022" lon="11.1939628"><ele>156.0</ele><time>2026-04-06T07:00:13.302Z</time></trkpt><trkpt lat="43.9143563" lon="11.1939149"><ele>156.0</ele><time>2026-04-06T07:00:17.31Z</time></trkpt><trkpt lat="43.9144129" lon="11.1938648"><ele>156.0</ele><time>2026-04-06T07:00:21.299Z</time></trkpt><trkpt lat="43.9144659" lon="11.1938136"><ele>157.0</ele><time>2026-04-06T07:00:25.296Z</time></trkpt><trkpt lat="43.9145205" lon="11.1937522"><ele>158.0</ele><time>2026-04-06T07:00:30.322Z</time></trkpt><trkpt lat="43.9145772" lon="11.193699"><ele>159.0</ele><time>2026-04-06T07:00:34.292Z</time></trkpt><trkpt lat="43.9146376" lon="11.1936402"><ele>160.0</ele><time>2026-04-06T07:00:38.288Z</time></trkpt><trkpt lat="43.9146924" lon="11.1935827"><ele>161.0</ele><time>2026-04-06T07:00:41.297Z</time></trkpt><trkpt lat="43.9147531" lon="11.1935235"><ele>162.0</ele><time>2026-04-06T07:00:44.297Z</time></trkpt><trkpt lat="43.9148036" lon="11.1934663"><ele>163.0</ele><time>2026-04-06T07:00:47.296Z</time></trkpt><trkpt lat="43.9148587" lon="11.1934037"><ele>163.0</ele><time>2026-04-06T07:00:50.304Z</time></trkpt><trkpt lat="43.9149079" lon="11.1933417"><ele>163.0</ele><time>2026-04-06T07:00:53.311Z</time></trkpt><trkpt lat="43.9149625" lon="11.1932853"><ele>163.0</ele><time>2026-04-06T07:00:56.303Z</time></trkpt><trkpt lat="43.9150227" lon="11.1932425"><ele>163.0</ele><time>2026-04-06T07:00:59.302Z</time></trkpt><trkpt lat="43.9150795" lon="11.1931977"><ele>163.0</ele><time>2026-04-06T07:01:02.313Z</time></trkpt><trkpt lat="43.915146" lon="11.193159"><ele>163.0</ele><time>2026-04-06T07:01:06.305Z</time></trkpt><trkpt lat="43.9152088" lon="11.1931698"><ele>163.0</ele><time>2026-04-06T07:01:10.314Z</time></trkpt><trkpt lat="43.9152828" lon="11.193176"><ele>164.14285714285714</ele><time>2026-04-06T07:01:15.316Z</time></trkpt><trkpt lat="43.9153505" lon="11.1931753"><ele>165.28571428571428</ele><time>2026-04-06T07:01:20.306Z</time></trkpt><trkpt lat="43.9154231" lon="11.1931827"><ele>166.42857142857142</ele><time>2026-04-06T07:01:25.301Z</time></trkpt><trkpt lat="43.9154969" lon="11.1932123"><ele>167.57142857142856</ele><time>2026-04-06T07:01:31.3Z</time></trkpt><trkpt lat="43.9155731" lon="11.1932131"><ele>168.71428571428572</ele><time>2026-04-06T07:01:37.303Z</time></trkpt><trkpt lat="43.9156368" lon="11.193217"><ele>169.85714285714283</ele><time>2026-04-06T07:01:42.299Z</time></trkpt><trkpt lat="43.9157071" lon="11.1932468"><ele>171.0</ele><time>2026-04-06T07:01:47.294Z</time></trkpt><trkpt lat="43.9157719" lon="11.1932979"><ele>170.99999999999997</ele><time>2026-04-06T07:01:53.298Z</time></trkpt><trkpt lat="43.9158406" lon="11.193299"><ele>171.0</ele><time>2026-04-06T07:01:59.29Z</time></trkpt><trkpt lat="43.915905" lon="11.1933064"><ele>171.0</ele><time>2026-04-06T07:02:04.295Z</time></trkpt><trkpt lat="43.9159764" lon="11.1933205"><ele>171.0</ele><time>2026-04-06T07:02:10.313Z</time></trkpt><trkpt lat="43.9160359" lon="11.1932892"><ele>171.0</ele><time>2026-04-06T07:02:15.308Z</time></trkpt><trkpt lat="43.9161096" lon="11.1932723"><ele>170.99999999999997</ele><time>2026-04-06T07:02:21.305Z</time></trkpt><trkpt lat="43.9161794" lon="11.1932538"><ele>171.0</ele><time>2026-04-06T07:02:27.307Z</time></trkpt><trkpt lat="43.9162343" lon="11.1931961"><ele>170.7142857142857</ele><time>2026-04-06T07:02:32.303Z</time></trkpt><trkpt lat="43.9163064" lon="11.1931871"><ele>170.42857142857142</ele><time>2026-04-06T07:02:37.291Z</time></trkpt><trkpt lat="43.9163749" lon="11.1931948"><ele>170.14285714285714</ele><time>2026-04-06T07:02:42.297Z</time></trkpt><trkpt lat="43.9164401" lon="11.1931622"><ele>169.85714285714283</ele><time>2026-04-06T07:02:46.29Z</time></trkpt><trkpt lat="43.916503" lon="11.1931537"><ele>169.57142857142856</ele><time>2026-04-06T07:02:50.297Z</time></trkpt><trkpt lat="43.9165842" lon="11.1931622"><ele>169.28571428571428</ele><time>2026-04-06T07:02:55.295Z</time></trkpt><trkpt lat="43.9166543" lon="11.1931446"><ele>169.0</ele><time>2026-04-06T07:02:59.294Z</time></trkpt><trkpt lat="43.9167177" lon="11.1931354"><ele>170.0</ele><time>2026-04-06T07:03:03.304Z</time></trkpt><trkpt lat="43.9167878" lon="11.1931281"><ele>171.0</ele><time>2026-04-06T07:03:08.3Z</time></trkpt><trkpt lat="43.9168543" lon="11.1931246"><ele>172.0</ele><time>2026-04-06T07:03:13.304Z</time></trkpt><trkpt lat="43.9169307" lon="11.1931322"><ele>173.0</ele><time>2026-04-06T07:03:18.304Z</time></trkpt><trkpt lat="43.9170021" lon="11.1931344"><ele>174.0</ele><time>2026-04-06T07:03:22.295Z</time></trkpt><trkpt lat="43.9170786" lon="11.1931226"><ele>175.0</ele><time>2026-04-06T07:03:27.307Z</time></trkpt><trkpt lat="43.9171486" lon="11.1931071"><ele>176.0</ele><time>2026-04-06T07:03:31.304Z</time></trkpt><trkpt lat="43.9172175" lon="11.1930804"><ele>176.0</ele><time>2026-04-06T07:03:35.291Z</time></trkpt><trkpt lat="43.9172813" lon="11.1930428"><ele>176.0</ele><time>2026-04-06T07:03:39.301Z</time></trkpt><trkpt lat="43.9173595" lon="11.1930374"><ele>176.0</ele><time>2026-04-06T07:03:44.292Z</time></trkpt><trkpt lat="43.9174253" lon="11.1930395"><ele>176.0</ele><time>2026-04-06T07:03:48.29Z</time></trkpt><trkpt lat="43.9175036" lon="11.1930477"><ele>176.0</ele><time>2026-04-06T07:03:53.298Z</time></trkpt><trkpt lat="43.9175674" lon="11.1930631"><ele>176.0</ele><time>2026-04-06T07:03:57.298Z</time></trkpt><trkpt lat="43.917633" lon="11.1930817"><ele>176.0</ele><time>2026-04-06T07:04:02.301Z</time></trkpt><trkpt lat="43.9176981" lon="11.1930728"><ele>177.0</ele><time>2026-04-06T07:04:06.297Z</time></trkpt><trkpt lat="43.9177686" lon="11.1930641"><ele>178.0</ele><time>2026-04-06T07:04:10.301Z</time></trkpt><trkpt lat="43.9178347" lon="11.1930434"><ele>179.0</ele><time>2026-04-06T07:04:14.311Z</time></trkpt><trkpt lat="43.9179106" lon="11.1930089"><ele>180.0</ele><time>2026-04-06T07:04:19.296Z</time></trkpt><trkpt lat="43.9179757" lon="11.1929595"><ele>181.0</ele><time>2026-04-06T07:04:23.299Z</time></trkpt><trkpt lat="43.9180358" lon="11.1929319"><ele>182.0</ele><time>2026-04-06T07:04:27.312Z</time></trkpt><trkpt lat="43.9180971" lon="11.1929083"><ele>183.0</ele><time>2026-04-06T07:04:31.307Z</time></trkpt><trkpt lat="43.9181724" lon="11.1928942"><ele>183.0</ele><time>2026-04-06T07:04:35.303Z</time></trkpt><trkpt lat="43.9182409" lon="11.1928802"><ele>183.0</ele><time>2026-04-06T07:04:39.299Z</time></trkpt><trkpt lat="43.9183146" lon="11.1928649"><ele>183.0</ele><time>2026-04-06T07:04:43.304Z</time></trkpt><trkpt lat="43.9183835" lon="11.1928486"><ele>183.0</ele><time>2026-04-06T07:04:47.307Z</time></trkpt><trkpt lat="43.9184573" lon="11.1928276"><ele>183.0</ele><time>2026-04-06T07:04:51.301Z</time></trkpt><trkpt lat="43.9185206" lon="11.1928016"><ele>183.0</ele><time>2026-04-06T07:04:54.3Z</time></trkpt><trkpt lat="43.9186018" lon="11.1927837"><ele>183.0</ele><time>2026-04-06T07:04:58.303Z</time></trkpt><trkpt lat="43.9186756" lon="11.19276"><ele>184.85714285714286</ele><time>2026-04-06T07:05:02.288Z</time></trkpt><trkpt lat="43.9187543" lon="11.1927312"><ele>186.71428571428572</ele><time>2026-04-06T07:05:06.29Z</time></trkpt><trkpt lat="43.9188173" lon="11.1927185"><ele>188.57142857142856</ele><time>2026-04-06T07:05:09.306Z</time></trkpt><trkpt lat="43.9188919" lon="11.1927079"><ele>190.42857142857144</ele><time>2026-04-06T07:05:13.298Z</time></trkpt><trkpt lat="43.9189654" lon="11.192685"><ele>192.28571428571428</ele><time>2026-04-06T07:05:17.306Z</time></trkpt><trkpt lat="43.9190255" lon="11.19265"><ele>194.14285714285714</ele><time>2026-04-06T07:05:21.306Z</time></trkpt><trkpt lat="43.9190932" lon="11.1926059"><ele>196.0</ele><time>2026-04-06T07:05:25.302Z</time></trkpt><trkpt lat="43.9191539" lon="11.1925525"><ele>196.0</ele><time>2026-04-06T07:05:30.294Z</time></trkpt><trkpt lat="43.9192088" lon="11.1925078"><ele>196.0</ele><time>2026-04-06T07:05:34.312Z</time></trkpt><trkpt lat="43.9192781" lon="11.1924748"><ele>196.0</ele><time>2026-04-06T07:05:39.304Z</time></trkpt><trkpt lat="43.9193346" lon="11.1924326"><ele>196.0</ele><time>2026-04-06T07:05:44.294Z</time></trkpt><trkpt lat="43.9193971" lon="11.1924043"><ele>196.0</ele><time>2026-04-06T07:05:49.291Z</time></trkpt><trkpt lat="43.9194543" lon="11.1923674"><ele>196.0</ele><time>2026-04-06T07:05:54.307Z</time></trkpt><trkpt lat="43.9195143" lon="11.1923126"><ele>196.0</ele><time>2026-04-06T07:06:00.304Z</time></trkpt><trkpt lat="43.9195732" lon="11.192263"><ele>198.28571428571428</ele><time>2026-04-06T07:06:06.302Z</time></trkpt><trkpt lat="43.919636" lon="11.1922051"><ele>200.57142857142856</ele><time>2026-04-06T07:06:12.29Z</time></trkpt><trkpt lat="43.9196916" lon="11.1921385"><ele>202.85714285714286</ele><time>2026-04-06T07:06:18.299Z</time></trkpt><trkpt lat="43.919746" lon="11.1920764"><ele>205.14285714285714</ele><time>2026-04-06T07:06:24.309Z</time></trkpt><trkpt lat="43.9197952" lon="11.1920094"><ele>207.42857142857142</ele><time>2026-04-06T07:06:29.301Z</time></trkpt><trkpt lat="43.9198462" lon="11.1919557"><ele>209.71428571428572</ele><time>2026-04-06T07:06:34.292Z</time></trkpt><trkpt lat="43.9199094" lon="11.1919035"><ele>212.0</ele><time>2026-04-06T07:06:40.302Z</time></trkpt><trkpt lat="43.9199684" lon="11.191842"><ele>212.0</ele><time>2026-04-06T07:06:45.3Z</time></trkpt><trkpt lat="43.9200358" lon="11.1917902"><ele>212.0</ele><time>2026-04-06T07:06:51.309Z</time></trkpt><trkpt lat="43.9200881" lon="11.1917379"><ele>212.0</ele><time>2026-04-06T07:06:56.3Z</time></trkpt><trkpt lat="43.9201409" lon="11.1916608"><ele>212.0</ele><time>2026-04-06T07:07:02.299Z</time></trkpt><trkpt lat="43.9201863" lon="11.1915941"><ele>212.0</ele><time>2026-04-06T07:07:07.297Z</time></trkpt><trkpt lat="43.9202416" lon="11.1915204"><ele>212.0</ele><time>2026-04-06T07:07:13.305Z</time></trkpt><trkpt lat="43.9202981" lon="11.1914571"><ele>212.0</ele><time>2026-04-06T07:07:19.303Z</time></trkpt><trkpt lat="43.9203484" lon="11.1913848"><ele>213.57142857142858</ele><time>2026-04-06T07:07:25.29Z</time></trkpt><trkpt lat="43.9204074" lon="11.1913222"><ele>215.14285714285714</ele><time>2026-04-06T07:07:31.308Z</time></trkpt><trkpt lat="43.920458" lon="11.1912686"><ele>216.71428571428572</ele><time>2026-04-06T07:07:36.309Z</time></trkpt><trkpt lat="43.9205163" lon="11.1912261"><ele>218.28571428571428</ele><time>2026-04-06T07:07:41.313Z</time></trkpt><trkpt lat="43.9205748" lon="11.19118"><ele>219.85714285714283</ele><time>2026-04-06T07:07:47.303Z</time></trkpt><trkpt lat="43.9206334" lon="11.1911111"><ele>221.42857142857142</ele><time>2026-04-06T07:07:54.299Z</time></trkpt><trkpt lat="43.9206821" lon="11.1910514"><ele>223.0</ele><time>2026-04-06T07:07:59.304Z</time></trkpt><trkpt lat="43.9207459" lon="11.1910117"><ele>223.0</ele><time>2026-04-06T07:08:04.301Z</time></trkpt><trkpt lat="43.9208024" lon="11.1909672"><ele>223.0</ele><time>2026-04-06T07:08:09.296Z</time></trkpt><trkpt lat="43.9208635" lon="11.1909349"><ele>223.0</ele><time>2026-04-06T07:08:14.303Z</time></trkpt><trkpt lat="43.9209304" lon="11.1909088"><ele>223.0</ele><time>2026-04-06T07:08:19.306Z</time></trkpt><trkpt lat="43.9209942" lon="11.1908984"><ele>223.0</ele><time>2026-04-06T07:08:24.307Z</time></trkpt><trkpt lat="43.9210597" lon="11.1909093"><ele>223.0</ele><time>2026-04-06T07:08:30.307Z</time></trkpt><trkpt lat="43.921135" lon="11.1909353"><ele>223.0</ele><time>2026-04-06T07:08:35.301Z</time></trkpt><trkpt lat="43.9212068" lon="11.1909702"><ele>224.57142857142856</ele><time>2026-04-06T07:08:40.297Z</time></trkpt><trkpt lat="43.921267" lon="11.191022"><ele>226.14285714285714</ele><time>2026-04-06T07:08:45.298Z</time></trkpt><trkpt lat="43.9213333" lon="11.1910547"><ele>227.71428571428572</ele><time>2026-04-06T07:08:50.298Z</time></trkpt><trkpt lat="43.9214026" lon="11.1910916"><ele>229.28571428571428</ele><time>2026-04-06T07:08:56.299Z</time></trkpt><trkpt lat="43.9214547" lon="11.1911452"><ele>230.8571428571429</ele><time>2026-04-06T07:09:01.302Z</time></trkpt><trkpt lat="43.92151" lon="11.1911901"><ele>232.42857142857144</ele><time>2026-04-06T07:09:07.297Z</time></trkpt><trkpt lat="43.9215657" lon="11.1912334"><ele>234.0</ele><time>2026-04-06T07:09:12.3Z</time></trkpt><trkpt lat="43.9215029" lon="11.1912953"><ele>234.0</ele><time>2026-04-06T07:09:18.299Z</time></trkpt><trkpt lat="43.9214377" lon="11.1912949"><ele>234.00000000000003</ele><time>2026-04-06T07:09:22.301Z</time></trkpt><trkpt lat="43.9213679" lon="11.1913004"><ele>234.0</ele><time>2026-04-06T07:09:27.304Z</time></trkpt><trkpt lat="43.921302" lon="11.1913506"><ele>234.0</ele><time>2026-04-06T07:09:33.303Z</time></trkpt><trkpt lat="43.9212508" lon="11.1914167"><ele>234.00000000000003</ele><time>2026-04-06T07:09:39.3Z</time></trkpt><trkpt lat="43.9212271" lon="11.1915157"><ele>234.0</ele><time>2026-04-06T07:09:44.303Z</time></trkpt><trkpt lat="43.9212189" lon="11.1916026"><ele>234.0</ele><time>2026-04-06T07:09:49.298Z</time></trkpt><trkpt lat="43.9212021" lon="11.1916954"><ele>236.0</ele><time>2026-04-06T07:09:54.298Z</time></trkpt><trkpt lat="43.9211868" lon="11.1917936"><ele>238.00000000000003</ele><time>2026-04-06T07:09:59.309Z</time></trkpt><trkpt lat="43.9211677" lon="11.1918877"><ele>240.0</ele><time>2026-04-06T07:10:04.297Z</time></trkpt><trkpt lat="43.9211456" lon="11.1919797"><ele>242.0</ele><time>2026-04-06T07:10:09.31Z</time></trkpt><trkpt lat="43.9211237" lon="11.1920737"><ele>244.00000000000003</ele><time>2026-04-06T07:10:15.301Z</time></trkpt><trkpt lat="43.9210988" lon="11.1921662"><ele>246.0</ele><time>2026-04-06T07:10:20.311Z</time></trkpt><trkpt lat="43.9210621" lon="11.1922554"><ele>248.0</ele><time>2026-04-06T07:10:27.301Z</time></trkpt><trkpt lat="43.9210083" lon="11.1923142"><ele>249.14285714285717</ele><time>2026-04-06T07:10:32.303Z</time></trkpt><trkpt lat="43.9209675" lon="11.192383"><ele>250.2857142857143</ele><time>2026-04-06T07:10:37.299Z</time></trkpt><trkpt lat="43.9209236" lon="11.192477"><ele>251.42857142857144</ele><time>2026-04-06T07:10:42.3Z</time></trkpt><trkpt lat="43.9209094" lon="11.1925666"><ele>252.57142857142856</ele><time>2026-04-06T07:10:46.295Z</time></trkpt><trkpt lat="43.9209011" lon="11.1926657"><ele>253.7142857142857</ele><time>2026-04-06T07:10:52.304Z</time></trkpt><trkpt lat="43.9208938" lon="11.1927711"><ele>254.85714285714283</ele><time>2026-04-06T07:10:57.297Z</time></trkpt><trkpt lat="43.9208805" lon="11.1928633"><ele>256.0</ele><time>2026-04-06T07:11:02.293Z</time></trkpt><trkpt lat="43.9208788" lon="11.1929598"><ele>256.0</ele><time>2026-04-06T07:11:07.308Z</time></trkpt><trkpt lat="43.920868" lon="11.1930596"><ele>255.99999999999997</ele><time>2026-04-06T07:11:12.3Z</time></trkpt><trkpt lat="43.9208671" lon="11.1931615"><ele>256.0</ele><time>2026-04-06T07:11:18.306Z</time></trkpt><trkpt lat="43.9208538" lon="11.1932575"><ele>256.0</ele><time>2026-04-06T07:11:24.322Z</time></trkpt><trkpt lat="43.9208848" lon="11.1933475"><ele>255.99999999999997</ele><time>2026-04-06T07:11:30.308Z</time></trkpt><trkpt lat="43.9209561" lon="11.1933477"><ele>256.0</ele><time>2026-04-06T07:11:35.381Z</time></trkpt><trkpt lat="43.9210157" lon="11.1933065"><ele>256.0</ele><time>2026-04-06T07:11:40.325Z</time></trkpt><trkpt lat="43.9210964" lon="11.1933"><ele>258.7142857142857</ele><time>2026-04-06T07:11:46.297Z</time></trkpt><trkpt lat="43.9211496" lon="11.1933516"><ele>261.4285714285714</ele><time>2026-04-06T07:11:51.306Z</time></trkpt><trkpt lat="43.9211825" lon="11.1934312"><ele>264.1428571428571</ele><time>2026-04-06T07:11:56.307Z</time></trkpt><trkpt lat="43.9212297" lon="11.1934931"><ele>266.85714285714283</ele><time>2026-04-06T07:12:01.315Z</time></trkpt><trkpt lat="43.9212825" lon="11.1935455"><ele>269.57142857142856</ele><time>2026-04-06T07:12:05.294Z</time></trkpt><trkpt lat="43.9213388" lon="11.1935975"><ele>272.2857142857143</ele><time>2026-04-06T07:12:09.318Z</time></trkpt><trkpt lat="43.921393" lon="11.1936563"><ele>275.0</ele><time>2026-04-06T07:12:14.3Z</time></trkpt><trkpt lat="43.9214552" lon="11.1937145"><ele>275.0</ele><time>2026-04-06T07:12:19.312Z</time></trkpt><trkpt lat="43.921515" lon="11.193782"><ele>275.0</ele><time>2026-04-06T07:12:24.276Z</time></trkpt><trkpt lat="43.9215555" lon="11.1938599"><ele>275.0</ele><time>2026-04-06T07:13:21.308Z</time></trkpt><trkpt lat="43.9215961" lon="11.1939366"><ele>275.0</ele><time>2026-04-06T07:13:25.296Z</time></trkpt><trkpt lat="43.9216527" lon="11.1940057"><ele>275.0</ele><time>2026-04-06T07:13:29.298Z</time></trkpt><trkpt lat="43.9216914" lon="11.1940814"><ele>275.0</ele><time>2026-04-06T07:13:33.317Z</time></trkpt><trkpt lat="43.9217428" lon="11.1941584"><ele>275.0</ele><time>2026-04-06T07:13:38.306Z</time></trkpt><trkpt lat="43.9217835" lon="11.1942393"><ele>277.8571428571429</ele><time>2026-04-06T07:13:43.294Z</time></trkpt><trkpt lat="43.9218183" lon="11.1943329"><ele>280.7142857142857</ele><time>2026-04-06T07:13:48.297Z</time></trkpt><trkpt lat="43.9218509" lon="11.1944173"><ele>283.57142857142856</ele><time>2026-04-06T07:13:53.308Z</time></trkpt><trkpt lat="43.9218902" lon="11.1945081"><ele>286.42857142857144</ele><time>2026-04-06T07:13:59.308Z</time></trkpt><trkpt lat="43.9219366" lon="11.1945783"><ele>289.2857142857143</ele><time>2026-04-06T07:14:03.32Z</time></trkpt><trkpt lat="43.9219811" lon="11.1946553"><ele>292.14285714285717</ele><time>2026-04-06T07:14:08.302Z</time></trkpt><trkpt lat="43.9220169" lon="11.1947449"><ele>295.0</ele><time>2026-04-06T07:14:14.303Z</time></trkpt><trkpt lat="43.9220522" lon="11.1948211"><ele>296.28571428571433</ele><time>2026-04-06T07:14:19.31Z</time></trkpt><trkpt lat="43.9220913" lon="11.1949073"><ele>297.57142857142856</ele><time>2026-04-06T07:14:25.307Z</time></trkpt><trkpt lat="43.9221441" lon="11.19497"><ele>298.8571428571429</ele><time>2026-04-06T07:14:30.296Z</time></trkpt><trkpt lat="43.9222012" lon="11.195024"><ele>300.14285714285717</ele><time>2026-04-06T07:14:35.308Z</time></trkpt><trkpt lat="43.9222531" lon="11.195081"><ele>301.42857142857144</ele><time>2026-04-06T07:14:40.315Z</time></trkpt><trkpt lat="43.9223064" lon="11.1951362"><ele>302.7142857142857</ele><time>2026-04-06T07:14:45.3Z</time></trkpt><trkpt lat="43.9223526" lon="11.195205"><ele>304.0</ele><time>2026-04-06T07:14:50.305Z</time></trkpt><trkpt lat="43.9223901" lon="11.1952764"><ele>304.0</ele><time>2026-04-06T07:14:55.31Z</time></trkpt><trkpt lat="43.9224031" lon="11.1953652"><ele>304.0</ele><time>2026-04-06T07:15:00.312Z</time></trkpt><trkpt lat="43.9224147" lon="11.1954531"><ele>304.0</ele><time>2026-04-06T07:15:05.306Z</time></trkpt><trkpt lat="43.9224546" lon="11.1955262"><ele>304.0</ele><time>2026-04-06T07:15:09.305Z</time></trkpt><trkpt lat="43.9224856" lon="11.1956213"><ele>304.0</ele><time>2026-04-06T07:15:14.308Z</time></trkpt><trkpt lat="43.9225347" lon="11.1956952"><ele>304.0</ele><time>2026-04-06T07:15:19.3Z</time></trkpt><trkpt lat="43.9226001" lon="11.1957627"><ele>304.0</ele><time>2026-04-06T07:15:23.305Z</time></trkpt><trkpt lat="43.9226641" lon="11.1958081"><ele>307.5</ele><time>2026-04-06T07:15:27.355Z</time></trkpt><trkpt lat="43.9227235" lon="11.1958549"><ele>311.0</ele><time>2026-04-06T07:15:32.296Z</time></trkpt><trkpt lat="43.9227765" lon="11.1959261"><ele>314.5</ele><time>2026-04-06T07:15:37.314Z</time></trkpt><trkpt lat="43.9228155" lon="11.1960071"><ele>318.0</ele><time>2026-04-06T07:15:40.314Z</time></trkpt><trkpt lat="43.9228675" lon="11.1960565"><ele>321.5</ele><time>2026-04-06T07:15:42.312Z</time></trkpt><trkpt lat="43.9229447" lon="11.1961092"><ele>325.0</ele><time>2026-04-06T07:15:44.307Z</time></trkpt><trkpt lat="43.9230347" lon="11.1961623"><ele>325.0</ele><time>2026-04-06T07:15:46.3Z</time></trkpt><trkpt lat="43.9231275" lon="11.1962295"><ele>325.0</ele><time>2026-04-06T07:15:48.306Z</time></trkpt><trkpt lat="43.9232027" lon="11.1962901"><ele>325.0</ele><time>2026-04-06T07:15:50.312Z</time></trkpt><trkpt lat="43.9232598" lon="11.196349"><ele>325.0</ele><time>2026-04-06T07:15:52.308Z</time></trkpt><trkpt lat="43.9233184" lon="11.1964295"><ele>325.0</ele><time>2026-04-06T07:15:55.311Z</time></trkpt><trkpt lat="43.9233806" lon="11.1965034"><ele>325.0</ele><time>2026-04-06T07:15:58.302Z</time></trkpt><trkpt lat="43.9234335" lon="11.1965623"><ele>327.5</ele><time>2026-04-06T07:16:00.3Z</time></trkpt><trkpt lat="43.9234834" lon="11.1966571"><ele>330.0</ele><time>2026-04-06T07:16:03.313Z</time></trkpt><trkpt lat="43.9235121" lon="11.196745"><ele>332.5</ele><time>2026-04-06T07:16:06.293Z</time></trkpt><trkpt lat="43.9235339" lon="11.1968473"><ele>335.0</ele><time>2026-04-06T07:16:09.311Z</time></trkpt><trkpt lat="43.9235622" lon="11.19696"><ele>337.5</ele><time>2026-04-06T07:16:11.296Z</time></trkpt><trkpt lat="43.9235843" lon="11.1970613"><ele>340.0</ele><time>2026-04-06T07:16:13.301Z</time></trkpt><trkpt lat="43.9235979" lon="11.1971609"><ele>340.0</ele><time>2026-04-06T07:16:15.297Z</time></trkpt><trkpt lat="43.9236179" lon="11.1972615"><ele>340.0</ele><time>2026-04-06T07:16:17.314Z</time></trkpt><trkpt lat="43.9236148" lon="11.1973795"><ele>340.0</ele><time>2026-04-06T07:16:20.3Z</time></trkpt><trkpt lat="43.9236024" lon="11.1974697"><ele>340.0</ele><time>2026-04-06T07:16:22.293Z</time></trkpt><trkpt lat="43.9236086" lon="11.1975825"><ele>340.0</ele><time>2026-04-06T07:16:24.298Z</time></trkpt><trkpt lat="43.9236371" lon="11.1976841"><ele>340.0</ele><time>2026-04-06T07:16:26.302Z</time></trkpt><trkpt lat="43.9237028" lon="11.197785"><ele>337.0</ele><time>2026-04-06T07:16:28.301Z</time></trkpt><trkpt lat="43.923771" lon="11.1978744"><ele>334.0</ele><time>2026-04-06T07:16:30.298Z</time></trkpt><trkpt lat="43.9238272" lon="11.1979286"><ele>331.0</ele><time>2026-04-06T07:16:32.311Z</time></trkpt><trkpt lat="43.9238971" lon="11.1979741"><ele>328.0</ele><time>2026-04-06T07:16:34.308Z</time></trkpt><trkpt lat="43.9239793" lon="11.1980251"><ele>325.0</ele><time>2026-04-06T07:16:36.309Z</time></trkpt><trkpt lat="43.9240797" lon="11.1980856"><ele>322.0</ele><time>2026-04-06T07:16:38.301Z</time></trkpt><trkpt lat="43.9241655" lon="11.1981504"><ele>318.6</ele><time>2026-04-06T07:16:40.302Z</time></trkpt><trkpt lat="43.9242492" lon="11.1982171"><ele>315.20000000000005</ele><time>2026-04-06T07:16:42.3Z</time></trkpt><trkpt lat="43.9243313" lon="11.1982841"><ele>311.8</ele><time>2026-04-06T07:16:44.312Z</time></trkpt><trkpt lat="43.9244057" lon="11.1983346"><ele>308.4</ele><time>2026-04-06T07:16:46.303Z</time></trkpt><trkpt lat="43.9244766" lon="11.1983855"><ele>305.0</ele><time>2026-04-06T07:16:49.305Z</time></trkpt><trkpt lat="43.9245733" lon="11.1984001"><ele>305.0</ele><time>2026-04-06T07:16:52.301Z</time></trkpt><trkpt lat="43.9246397" lon="11.1983886"><ele>305.0</ele><time>2026-04-06T07:16:54.318Z</time></trkpt><trkpt lat="43.9247217" lon="11.1983845"><ele>305.0</ele><time>2026-04-06T07:16:57.294Z</time></trkpt><trkpt lat="43.9247968" lon="11.1983848"><ele>305.0</ele><time>2026-04-06T07:17:00.303Z</time></trkpt><trkpt lat="43.924872" lon="11.1984012"><ele>305.0</ele><time>2026-04-06T07:17:03.304Z</time></trkpt><trkpt lat="43.9249609" lon="11.1984295"><ele>305.0</ele><time>2026-04-06T07:17:06.301Z</time></trkpt><trkpt lat="43.9250335" lon="11.1984509"><ele>301.83333333333337</ele><time>2026-04-06T07:17:08.289Z</time></trkpt><trkpt lat="43.9251237" lon="11.1984944"><ele>298.6666666666667</ele><time>2026-04-06T07:17:10.304Z</time></trkpt><trkpt lat="43.9252098" lon="11.1985358"><ele>295.5</ele><time>2026-04-06T07:17:12.308Z</time></trkpt><trkpt lat="43.92529" lon="11.198531"><ele>292.3333333333333</ele><time>2026-04-06T07:17:14.305Z</time></trkpt><trkpt lat="43.9253656" lon="11.1985072"><ele>289.16666666666663</ele><time>2026-04-06T07:17:16.323Z</time></trkpt><trkpt lat="43.9254319" lon="11.1984937"><ele>286.0</ele><time>2026-04-06T07:17:18.322Z</time></trkpt><trkpt lat="43.9255169" lon="11.1984703"><ele>286.0</ele><time>2026-04-06T07:17:21.313Z</time></trkpt><trkpt lat="43.9255937" lon="11.198428"><ele>286.0</ele><time>2026-04-06T07:17:24.296Z</time></trkpt><trkpt lat="43.9256485" lon="11.1983543"><ele>286.0</ele><time>2026-04-06T07:17:26.299Z</time></trkpt><trkpt lat="43.9257274" lon="11.1982267"><ele>286.0</ele><time>2026-04-06T07:17:28.307Z</time></trkpt><trkpt lat="43.9257626" lon="11.1980622"><ele>286.0</ele><time>2026-04-06T07:17:30.297Z</time></trkpt><trkpt lat="43.9257828" lon="11.1979733"><ele>286.3333333333333</ele><time>2026-04-06T07:17:31.292Z</time></trkpt><trkpt lat="43.9258264" lon="11.1978283"><ele>286.66666666666663</ele><time>2026-04-06T07:17:33.303Z</time></trkpt><trkpt lat="43.9258707" lon="11.1977145"><ele>287.0</ele><time>2026-04-06T07:17:35.318Z</time></trkpt><trkpt lat="43.9259213" lon="11.1976225"><ele>287.3333333333333</ele><time>2026-04-06T07:17:37.311Z</time></trkpt><trkpt lat="43.925984" lon="11.1975413"><ele>287.6666666666667</ele><time>2026-04-06T07:17:40.302Z</time></trkpt><trkpt lat="43.9260313" lon="11.1974806"><ele>288.0</ele><time>2026-04-06T07:17:43.298Z</time></trkpt><trkpt lat="43.9261133" lon="11.1974085"><ele>288.00000000000006</ele><time>2026-04-06T07:17:46.318Z</time></trkpt><trkpt lat="43.9261759" lon="11.1973826"><ele>288.0</ele><time>2026-04-06T07:17:48.307Z</time></trkpt><trkpt lat="43.9262471" lon="11.1973673"><ele>288.0</ele><time>2026-04-06T07:17:50.316Z</time></trkpt><trkpt lat="43.9263318" lon="11.1973377"><ele>288.0</ele><time>2026-04-06T07:17:53.309Z</time></trkpt><trkpt lat="43.9264032" lon="11.1973572"><ele>288.0</ele><time>2026-04-06T07:17:58.301Z</time></trkpt><trkpt lat="43.9264731" lon="11.1973428"><ele>288.00000000000006</ele><time>2026-04-06T07:18:03.302Z</time></trkpt><trkpt lat="43.926542" lon="11.1973552"><ele>288.0</ele><time>2026-04-06T07:18:08.289Z</time></trkpt><trkpt lat="43.9266099" lon="11.1973559"><ele>289.14285714285717</ele><time>2026-04-06T07:18:13.296Z</time></trkpt><trkpt lat="43.9266727" lon="11.1973347"><ele>290.2857142857143</ele><time>2026-04-06T07:18:18.312Z</time></trkpt><trkpt lat="43.926742" lon="11.1973401"><ele>291.42857142857144</ele><time>2026-04-06T07:18:23.308Z</time></trkpt><trkpt lat="43.9268056" lon="11.1973428"><ele>292.57142857142856</ele><time>2026-04-06T07:18:27.309Z</time></trkpt><trkpt lat="43.9268714" lon="11.1973341"><ele>293.7142857142857</ele><time>2026-04-06T07:18:33.302Z</time></trkpt><trkpt lat="43.9269386" lon="11.1973377"><ele>294.8571428571429</ele><time>2026-04-06T07:18:37.293Z</time></trkpt><trkpt lat="43.9270055" lon="11.197309"><ele>296.0</ele><time>2026-04-06T07:19:19.31Z</time></trkpt><trkpt lat="43.9270607" lon="11.1972438"><ele>296.2857142857143</ele><time>2026-04-06T07:19:47.294Z</time></trkpt><trkpt lat="43.9271383" lon="11.1972022"><ele>296.57142857142856</ele><time>2026-04-06T07:19:51.294Z</time></trkpt><trkpt lat="43.9272053" lon="11.1971812"><ele>296.85714285714283</ele><time>2026-04-06T07:19:55.318Z</time></trkpt><trkpt lat="43.9272748" lon="11.1971821"><ele>297.1428571428571</ele><time>2026-04-06T07:19:59.328Z</time></trkpt><trkpt lat="43.9273378" lon="11.1972134"><ele>297.4285714285714</ele><time>2026-04-06T07:20:03.311Z</time></trkpt><trkpt lat="43.9273959" lon="11.1972676"><ele>297.7142857142857</ele><time>2026-04-06T07:20:07.312Z</time></trkpt><trkpt lat="43.927461" lon="11.1973071"><ele>298.0</ele><time>2026-04-06T07:20:11.316Z</time></trkpt><trkpt lat="43.9275183" lon="11.1973462"><ele>298.0</ele><time>2026-04-06T07:20:15.303Z</time></trkpt><trkpt lat="43.9275806" lon="11.1973925"><ele>298.0</ele><time>2026-04-06T07:20:19.306Z</time></trkpt><trkpt lat="43.9276364" lon="11.1974456"><ele>298.0</ele><time>2026-04-06T07:20:30.298Z</time></trkpt><trkpt lat="43.9275743" lon="11.1974101"><ele>298.0</ele><time>2026-04-06T07:22:01.312Z</time></trkpt><trkpt lat="43.9275163" lon="11.1973682"><ele>298.0</ele><time>2026-04-06T07:22:12.305Z</time></trkpt><trkpt lat="43.9274579" lon="11.1973281"><ele>298.0</ele><time>2026-04-06T07:22:20.301Z</time></trkpt><trkpt lat="43.9273949" lon="11.1972682"><ele>298.0</ele><time>2026-04-06T07:22:27.313Z</time></trkpt><trkpt lat="43.9273339" lon="11.197218"><ele>298.57142857142856</ele><time>2026-04-06T07:22:40.315Z</time></trkpt><trkpt lat="43.9272731" lon="11.1971931"><ele>299.1428571428571</ele><time>2026-04-06T07:22:46.311Z</time></trkpt><trkpt lat="43.9272027" lon="11.1971836"><ele>299.7142857142857</ele><time>2026-04-06T07:22:57.314Z</time></trkpt><trkpt lat="43.9271367" lon="11.1972146"><ele>300.2857142857143</ele><time>2026-04-06T07:23:04.301Z</time></trkpt><trkpt lat="43.9270752" lon="11.1972532"><ele>300.8571428571429</ele><time>2026-04-06T07:24:32.302Z</time></trkpt><trkpt lat="43.9270139" lon="11.1972914"><ele>301.42857142857144</ele><time>2026-04-06T07:24:38.316Z</time></trkpt><trkpt lat="43.9269516" lon="11.1973223"><ele>302.0</ele><time>2026-04-06T07:24:45.348Z</time></trkpt><trkpt lat="43.9268712" lon="11.1973331"><ele>302.00000000000006</ele><time>2026-04-06T07:25:01.31Z</time></trkpt><trkpt lat="43.9268076" lon="11.1973334"><ele>302.0</ele><time>2026-04-06T07:25:04.324Z</time></trkpt><trkpt lat="43.9267225" lon="11.1973492"><ele>302.0</ele><time>2026-04-06T07:25:07.311Z</time></trkpt><trkpt lat="43.9266529" lon="11.1973549"><ele>302.0</ele><time>2026-04-06T07:25:09.291Z</time></trkpt><trkpt lat="43.9265722" lon="11.1973691"><ele>302.0</ele><time>2026-04-06T07:25:11.299Z</time></trkpt><trkpt lat="43.9264929" lon="11.1973719"><ele>302.00000000000006</ele><time>2026-04-06T07:25:13.309Z</time></trkpt><trkpt lat="43.9264257" lon="11.1973643"><ele>302.0</ele><time>2026-04-06T07:25:15.299Z</time></trkpt><trkpt lat="43.926362" lon="11.1973507"><ele>302.42857142857144</ele><time>2026-04-06T07:25:18.302Z</time></trkpt><trkpt lat="43.9262905" lon="11.1973513"><ele>302.8571428571429</ele><time>2026-04-06T07:25:22.311Z</time></trkpt><trkpt lat="43.9262231" lon="11.1973782"><ele>303.28571428571433</ele><time>2026-04-06T07:25:27.307Z</time></trkpt><trkpt lat="43.9261568" lon="11.1973793"><ele>303.7142857142857</ele><time>2026-04-06T07:25:32.298Z</time></trkpt><trkpt lat="43.9260761" lon="11.1974156"><ele>304.1428571428571</ele><time>2026-04-06T07:25:46.315Z</time></trkpt><trkpt lat="43.9260193" lon="11.1974827"><ele>304.5714285714286</ele><time>2026-04-06T07:25:50.301Z</time></trkpt><trkpt lat="43.9259531" lon="11.1975484"><ele>305.0</ele><time>2026-04-06T07:25:54.299Z</time></trkpt><trkpt lat="43.9258872" lon="11.1976322"><ele>305.0</ele><time>2026-04-06T07:25:57.307Z</time></trkpt><trkpt lat="43.9258394" lon="11.1977046"><ele>305.0</ele><time>2026-04-06T07:26:00.311Z</time></trkpt><trkpt lat="43.925803" lon="11.1977934"><ele>305.0</ele><time>2026-04-06T07:26:03.309Z</time></trkpt><trkpt lat="43.925777" lon="11.1978758"><ele>305.0</ele><time>2026-04-06T07:26:06.302Z</time></trkpt><trkpt lat="43.9257523" lon="11.1979562"><ele>305.0</ele><time>2026-04-06T07:26:09.308Z</time></trkpt><trkpt lat="43.9257229" lon="11.1980372"><ele>305.0</ele><time>2026-04-06T07:26:12.326Z</time></trkpt><trkpt lat="43.9257006" lon="11.1981367"><ele>305.0</ele><time>2026-04-06T07:26:16.292Z</time></trkpt><trkpt lat="43.9256928" lon="11.1982347"><ele>301.2</ele><time>2026-04-06T07:26:20.3Z</time></trkpt><trkpt lat="43.9256445" lon="11.1983128"><ele>297.4</ele><time>2026-04-06T07:26:26.307Z</time></trkpt><trkpt lat="43.9256118" lon="11.1983919"><ele>293.6</ele><time>2026-04-06T07:26:31.294Z</time></trkpt><trkpt lat="43.9254502" lon="11.1984895"><ele>289.8</ele><time>2026-04-06T07:26:47.302Z</time></trkpt><trkpt lat="43.925375" lon="11.198512"><ele>286.0</ele><time>2026-04-06T07:26:51.315Z</time></trkpt><trkpt lat="43.9253047" lon="11.1985343"><ele>285.99999999999994</ele><time>2026-04-06T07:26:55.295Z</time></trkpt><trkpt lat="43.9252389" lon="11.1985343"><ele>286.0</ele><time>2026-04-06T07:26:59.305Z</time></trkpt><trkpt lat="43.9251705" lon="11.1985113"><ele>286.0</ele><time>2026-04-06T07:27:03.303Z</time></trkpt><trkpt lat="43.9251071" lon="11.1984632"><ele>286.0</ele><time>2026-04-06T07:27:08.305Z</time></trkpt><trkpt lat="43.9250442" lon="11.1984389"><ele>286.0</ele><time>2026-04-06T07:27:12.293Z</time></trkpt><trkpt lat="43.9249803" lon="11.198407"><ele>285.99999999999994</ele><time>2026-04-06T07:27:18.296Z</time></trkpt><trkpt lat="43.9249045" lon="11.198388"><ele>286.0</ele><time>2026-04-06T07:27:22.31Z</time></trkpt><trkpt lat="43.9248346" lon="11.1983799"><ele>289.16666666666663</ele><time>2026-04-06T07:27:26.309Z</time></trkpt><trkpt lat="43.9247616" lon="11.1983815"><ele>292.3333333333333</ele><time>2026-04-06T07:27:31.293Z</time></trkpt><trkpt lat="43.9246759" lon="11.1984052"><ele>295.5</ele><time>2026-04-06T07:27:35.288Z</time></trkpt><trkpt lat="43.9246025" lon="11.198402"><ele>298.6666666666667</ele><time>2026-04-06T07:27:38.306Z</time></trkpt><trkpt lat="43.9245337" lon="11.1983756"><ele>301.83333333333337</ele><time>2026-04-06T07:27:42.294Z</time></trkpt><trkpt lat="43.9244676" lon="11.1983144"><ele>305.0</ele><time>2026-04-06T07:27:46.295Z</time></trkpt><trkpt lat="43.9244016" lon="11.1982559"><ele>305.0</ele><time>2026-04-06T07:27:49.289Z</time></trkpt><trkpt lat="43.9243191" lon="11.1981946"><ele>305.0</ele><time>2026-04-06T07:27:52.297Z</time></trkpt><trkpt lat="43.9242365" lon="11.1981533"><ele>305.0</ele><time>2026-04-06T07:27:55.301Z</time></trkpt><trkpt lat="43.9241656" lon="11.1981034"><ele>305.0</ele><time>2026-04-06T07:27:58.287Z</time></trkpt><trkpt lat="43.9240911" lon="11.1980541"><ele>305.0</ele><time>2026-04-06T07:28:01.306Z</time></trkpt><trkpt lat="43.9240322" lon="11.1980168"><ele>305.0</ele><time>2026-04-06T07:28:04.321Z</time></trkpt><trkpt lat="43.9239716" lon="11.1979723"><ele>307.42857142857144</ele><time>2026-04-06T07:28:07.311Z</time></trkpt><trkpt lat="43.9239096" lon="11.197922"><ele>309.85714285714283</ele><time>2026-04-06T07:28:10.296Z</time></trkpt><trkpt lat="43.9238515" lon="11.1978807"><ele>312.2857142857143</ele><time>2026-04-06T07:28:13.299Z</time></trkpt><trkpt lat="43.9237898" lon="11.1978502"><ele>314.7142857142857</ele><time>2026-04-06T07:28:16.307Z</time></trkpt><trkpt lat="43.9237311" lon="11.1978063"><ele>317.1428571428571</ele><time>2026-04-06T07:28:19.285Z</time></trkpt><trkpt lat="43.9236786" lon="11.1977333"><ele>319.57142857142856</ele><time>2026-04-06T07:28:22.308Z</time></trkpt><trkpt lat="43.9236374" lon="11.1976628"><ele>322.0</ele><time>2026-04-06T07:28:25.313Z</time></trkpt><trkpt lat="43.9236166" lon="11.1975687"><ele>322.0</ele><time>2026-04-06T07:28:30.304Z</time></trkpt><trkpt lat="43.9236353" lon="11.1974603"><ele>322.0</ele><time>2026-04-06T07:28:35.308Z</time></trkpt><trkpt lat="43.9236611" lon="11.1973668"><ele>322.0</ele><time>2026-04-06T07:28:40.306Z</time></trkpt><trkpt lat="43.9236737" lon="11.1972761"><ele>322.0</ele><time>2026-04-06T07:28:44.299Z</time></trkpt><trkpt lat="43.9236556" lon="11.1971714"><ele>322.0</ele><time>2026-04-06T07:28:48.303Z</time></trkpt><trkpt lat="43.9236413" lon="11.1970766"><ele>322.0</ele><time>2026-04-06T07:28:51.309Z</time></trkpt><trkpt lat="43.9236206" lon="11.1969856"><ele>322.0</ele><time>2026-04-06T07:28:54.317Z</time></trkpt><trkpt lat="43.9236039" lon="11.1969002"><ele>324.57142857142856</ele><time>2026-04-06T07:28:57.295Z</time></trkpt><trkpt lat="43.923567" lon="11.1968067"><ele>327.1428571428571</ele><time>2026-04-06T07:29:01.299Z</time></trkpt><trkpt lat="43.9235417" lon="11.1967217"><ele>329.7142857142857</ele><time>2026-04-06T07:29:05.297Z</time></trkpt><trkpt lat="43.9235161" lon="11.1966205"><ele>332.2857142857143</ele><time>2026-04-06T07:29:10.311Z</time></trkpt><trkpt lat="43.923446" lon="11.1965828"><ele>334.85714285714283</ele><time>2026-04-06T07:29:47.303Z</time></trkpt><trkpt lat="43.923491" lon="11.1966606"><ele>337.42857142857144</ele><time>2026-04-06T07:29:55.306Z</time></trkpt><trkpt lat="43.9234738" lon="11.196575"><ele>340.0</ele><time>2026-04-06T07:31:09.285Z</time></trkpt><trkpt lat="43.9234352" lon="11.1964974"><ele>337.0</ele><time>2026-04-06T07:33:02.286Z</time></trkpt><trkpt lat="43.9233655" lon="11.1963729"><ele>334.0</ele><time>2026-04-06T07:33:07.282Z</time></trkpt><trkpt lat="43.923258" lon="11.1962998"><ele>331.0</ele><time>2026-04-06T07:33:08.286Z</time></trkpt><trkpt lat="43.9232029" lon="11.1962487"><ele>328.0</ele><time>2026-04-06T07:33:10.283Z</time></trkpt><trkpt lat="43.9231343" lon="11.1961796"><ele>325.0</ele><time>2026-04-06T07:33:12.291Z</time></trkpt><trkpt lat="43.9230541" lon="11.1961386"><ele>325.0</ele><time>2026-04-06T07:33:15.283Z</time></trkpt><trkpt lat="43.9229828" lon="11.196106"><ele>325.0</ele><time>2026-04-06T07:33:18.286Z</time></trkpt><trkpt lat="43.9229168" lon="11.196069"><ele>325.0</ele><time>2026-04-06T07:33:21.286Z</time></trkpt><trkpt lat="43.9228636" lon="11.1959804"><ele>325.0</ele><time>2026-04-06T07:33:25.276Z</time></trkpt><trkpt lat="43.9228144" lon="11.195913"><ele>325.0</ele><time>2026-04-06T07:33:28.277Z</time></trkpt><trkpt lat="43.922757" lon="11.195843"><ele>325.0</ele><time>2026-04-06T07:33:31.285Z</time></trkpt><trkpt lat="43.9226963" lon="11.1957948"><ele>325.0</ele><time>2026-04-06T07:33:34.286Z</time></trkpt><trkpt lat="43.9226271" lon="11.1957311"><ele>320.8</ele><time>2026-04-06T07:33:37.284Z</time></trkpt><trkpt lat="43.9225583" lon="11.1956531"><ele>316.6</ele><time>2026-04-06T07:33:40.286Z</time></trkpt><trkpt lat="43.9224922" lon="11.1955697"><ele>312.4</ele><time>2026-04-06T07:33:43.282Z</time></trkpt><trkpt lat="43.9224374" lon="11.195473"><ele>308.2</ele><time>2026-04-06T07:33:46.273Z</time></trkpt><trkpt lat="43.9224074" lon="11.1953679"><ele>304.0</ele><time>2026-04-06T07:33:49.273Z</time></trkpt><trkpt lat="43.9223747" lon="11.1952279"><ele>304.0</ele><time>2026-04-06T07:33:52.277Z</time></trkpt><trkpt lat="43.9223174" lon="11.1951265"><ele>304.0</ele><time>2026-04-06T07:33:54.278Z</time></trkpt><trkpt lat="43.92226" lon="11.1950414"><ele>304.0</ele><time>2026-04-06T07:33:56.293Z</time></trkpt><trkpt lat="43.9221991" lon="11.1949726"><ele>304.0</ele><time>2026-04-06T07:33:58.276Z</time></trkpt><trkpt lat="43.9221393" lon="11.1948937"><ele>304.0</ele><time>2026-04-06T07:34:00.279Z</time></trkpt><trkpt lat="43.9220822" lon="11.194826"><ele>304.0</ele><time>2026-04-06T07:34:02.276Z</time></trkpt><trkpt lat="43.9220308" lon="11.1947338"><ele>302.5</ele><time>2026-04-06T07:34:04.27Z</time></trkpt><trkpt lat="43.9219801" lon="11.1946432"><ele>301.0</ele><time>2026-04-06T07:34:06.273Z</time></trkpt><trkpt lat="43.9219381" lon="11.1945438"><ele>299.5</ele><time>2026-04-06T07:34:08.276Z</time></trkpt><trkpt lat="43.9219051" lon="11.1944515"><ele>298.0</ele><time>2026-04-06T07:34:10.28Z</time></trkpt><trkpt lat="43.9218736" lon="11.194354"><ele>296.5</ele><time>2026-04-06T07:34:12.276Z</time></trkpt><trkpt lat="43.9218218" lon="11.194247"><ele>295.0</ele><time>2026-04-06T07:34:14.284Z</time></trkpt><trkpt lat="43.9217536" lon="11.194148"><ele>293.6</ele><time>2026-04-06T07:34:16.278Z</time></trkpt><trkpt lat="43.9216785" lon="11.1940525"><ele>292.2</ele><time>2026-04-06T07:34:18.272Z</time></trkpt><trkpt lat="43.9216002" lon="11.1939518"><ele>290.8</ele><time>2026-04-06T07:34:20.281Z</time></trkpt><trkpt lat="43.9215328" lon="11.1938722"><ele>289.4</ele><time>2026-04-06T07:34:22.282Z</time></trkpt><trkpt lat="43.9214779" lon="11.1938088"><ele>288.0</ele><time>2026-04-06T07:34:24.276Z</time></trkpt><trkpt lat="43.9214137" lon="11.1937212"><ele>285.8333333333333</ele><time>2026-04-06T07:34:26.274Z</time></trkpt><trkpt lat="43.9213513" lon="11.1936211"><ele>283.6666666666667</ele><time>2026-04-06T07:34:29.28Z</time></trkpt><trkpt lat="43.9212924" lon="11.1935333"><ele>281.5</ele><time>2026-04-06T07:34:31.275Z</time></trkpt><trkpt lat="43.9212343" lon="11.1934852"><ele>279.33333333333337</ele><time>2026-04-06T07:34:33.279Z</time></trkpt><trkpt lat="43.9211561" lon="11.193482"><ele>277.1666666666667</ele><time>2026-04-06T07:34:36.294Z</time></trkpt><trkpt lat="43.9210965" lon="11.193443"><ele>275.0</ele><time>2026-04-06T07:34:39.273Z</time></trkpt><trkpt lat="43.9210756" lon="11.1933493"><ele>275.0</ele><time>2026-04-06T07:34:44.293Z</time></trkpt><trkpt lat="43.9210708" lon="11.1932197"><ele>275.0</ele><time>2026-04-06T07:34:47.289Z</time></trkpt><trkpt lat="43.9210804" lon="11.1931281"><ele>275.0</ele><time>2026-04-06T07:34:50.281Z</time></trkpt><trkpt lat="43.9210377" lon="11.1930027"><ele>275.0</ele><time>2026-04-06T07:34:54.275Z</time></trkpt><trkpt lat="43.9210187" lon="11.1928693"><ele>275.0</ele><time>2026-04-06T07:34:56.284Z</time></trkpt><trkpt lat="43.9210297" lon="11.1927436"><ele>275.0</ele><time>2026-04-06T07:34:59.271Z</time></trkpt><trkpt lat="43.9210593" lon="11.1926563"><ele>271.83333333333337</ele><time>2026-04-06T07:35:01.269Z</time></trkpt><trkpt lat="43.9210987" lon="11.1925844"><ele>268.6666666666667</ele><time>2026-04-06T07:35:03.279Z</time></trkpt><trkpt lat="43.9211599" lon="11.1924889"><ele>265.5</ele><time>2026-04-06T07:35:06.277Z</time></trkpt><trkpt lat="43.921185" lon="11.1923745"><ele>262.3333333333333</ele><time>2026-04-06T07:35:09.283Z</time></trkpt><trkpt lat="43.9212042" lon="11.1922631"><ele>259.16666666666663</ele><time>2026-04-06T07:35:12.284Z</time></trkpt><trkpt lat="43.9212102" lon="11.1921555"><ele>256.0</ele><time>2026-04-06T07:35:14.277Z</time></trkpt><trkpt lat="43.9212257" lon="11.192049"><ele>254.66666666666666</ele><time>2026-04-06T07:35:17.279Z</time></trkpt><trkpt lat="43.9212508" lon="11.1919508"><ele>253.33333333333331</ele><time>2026-04-06T07:35:21.284Z</time></trkpt><trkpt lat="43.9212623" lon="11.1918578"><ele>252.0</ele><time>2026-04-06T07:35:24.282Z</time></trkpt><trkpt lat="43.9213099" lon="11.1917477"><ele>250.66666666666669</ele><time>2026-04-06T07:35:29.288Z</time></trkpt><trkpt lat="43.9213545" lon="11.1916632"><ele>249.33333333333334</ele><time>2026-04-06T07:35:31.286Z</time></trkpt><trkpt lat="43.921408" lon="11.1915873"><ele>248.0</ele><time>2026-04-06T07:35:34.277Z</time></trkpt><trkpt lat="43.9214481" lon="11.1915025"><ele>248.71428571428572</ele><time>2026-04-06T07:35:37.282Z</time></trkpt><trkpt lat="43.9214939" lon="11.1914395"><ele>249.42857142857144</ele><time>2026-04-06T07:35:41.282Z</time></trkpt><trkpt lat="43.9215409" lon="11.191357"><ele>250.14285714285717</ele><time>2026-04-06T07:35:44.289Z</time></trkpt><trkpt lat="43.9216296" lon="11.191347"><ele>250.8571428571429</ele><time>2026-04-06T07:35:47.277Z</time></trkpt><trkpt lat="43.9216934" lon="11.1913586"><ele>251.57142857142858</ele><time>2026-04-06T07:35:49.285Z</time></trkpt><trkpt lat="43.9217733" lon="11.1913635"><ele>252.28571428571433</ele><time>2026-04-06T07:35:51.29Z</time></trkpt><trkpt lat="43.9218386" lon="11.1913532"><ele>253.00000000000003</ele><time>2026-04-06T07:35:53.284Z</time></trkpt><trkpt lat="43.9219152" lon="11.1913261"><ele>253.00000000000003</ele><time>2026-04-06T07:35:56.288Z</time></trkpt><trkpt lat="43.921999" lon="11.1912737"><ele>253.0</ele><time>2026-04-06T07:35:59.285Z</time></trkpt><trkpt lat="43.9220586" lon="11.1912346"><ele>253.00000000000003</ele><time>2026-04-06T07:36:01.282Z</time></trkpt><trkpt lat="43.9221317" lon="11.1911817"><ele>253.00000000000003</ele><time>2026-04-06T07:36:04.274Z</time></trkpt><trkpt lat="43.9221946" lon="11.1911444"><ele>253.0</ele><time>2026-04-06T07:36:07.288Z</time></trkpt><trkpt lat="43.9222585" lon="11.1910921"><ele>253.00000000000003</ele><time>2026-04-06T07:36:11.275Z</time></trkpt><trkpt lat="43.9223072" lon="11.1910327"><ele>253.00000000000003</ele><time>2026-04-06T07:36:15.287Z</time></trkpt><trkpt lat="43.9223581" lon="11.1909688"><ele>253.00000000000003</ele><time>2026-04-06T07:36:20.281Z</time></trkpt><trkpt lat="43.9224144" lon="11.1909094"><ele>253.0</ele><time>2026-04-06T07:36:25.282Z</time></trkpt><trkpt lat="43.9224756" lon="11.1908428"><ele>253.00000000000003</ele><time>2026-04-06T07:36:30.282Z</time></trkpt><trkpt lat="43.922522" lon="11.1907638"><ele>253.00000000000003</ele><time>2026-04-06T07:36:36.286Z</time></trkpt><trkpt lat="43.9225742" lon="11.1906948"><ele>253.0</ele><time>2026-04-06T07:36:41.283Z</time></trkpt><trkpt lat="43.9226377" lon="11.1906228"><ele>253.00000000000003</ele><time>2026-04-06T07:36:46.273Z</time></trkpt><trkpt lat="43.9226859" lon="11.1905638"><ele>253.00000000000003</ele><time>2026-04-06T07:36:50.281Z</time></trkpt><trkpt lat="43.9227372" lon="11.1905104"><ele>256.8571428571429</ele><time>2026-04-06T07:36:55.287Z</time></trkpt><trkpt lat="43.9227879" lon="11.1904572"><ele>260.7142857142857</ele><time>2026-04-06T07:36:59.275Z</time></trkpt><trkpt lat="43.9228476" lon="11.1904226"><ele>264.57142857142856</ele><time>2026-04-06T07:37:04.283Z</time></trkpt><trkpt lat="43.9229014" lon="11.1903613"><ele>268.42857142857144</ele><time>2026-04-06T07:37:11.287Z</time></trkpt><trkpt lat="43.9229561" lon="11.1902969"><ele>272.2857142857143</ele><time>2026-04-06T07:37:16.292Z</time></trkpt><trkpt lat="43.9229999" lon="11.1902288"><ele>276.14285714285717</ele><time>2026-04-06T07:37:22.29Z</time></trkpt><trkpt lat="43.9230258" lon="11.1901198"><ele>280.0</ele><time>2026-04-06T07:37:27.287Z</time></trkpt><trkpt lat="43.9230318" lon="11.190022"><ele>280.0</ele><time>2026-04-06T07:37:32.282Z</time></trkpt><trkpt lat="43.9230382" lon="11.1899325"><ele>280.0</ele><time>2026-04-06T07:37:37.28Z</time></trkpt><trkpt lat="43.9230417" lon="11.1898303"><ele>280.0</ele><time>2026-04-06T07:37:42.287Z</time></trkpt><trkpt lat="43.9230445" lon="11.1897424"><ele>280.0</ele><time>2026-04-06T07:37:49.299Z</time></trkpt><trkpt lat="43.9230337" lon="11.1896512"><ele>280.0</ele><time>2026-04-06T07:37:54.281Z</time></trkpt><trkpt lat="43.9230266" lon="11.1895599"><ele>280.0</ele><time>2026-04-06T07:37:59.285Z</time></trkpt><trkpt lat="43.9230551" lon="11.1894722"><ele>280.0</ele><time>2026-04-06T07:38:04.294Z</time></trkpt><trkpt lat="43.9230631" lon="11.1893735"><ele>280.57142857142856</ele><time>2026-04-06T07:38:11.278Z</time></trkpt><trkpt lat="43.9230983" lon="11.1892827"><ele>281.1428571428571</ele><time>2026-04-06T07:38:17.283Z</time></trkpt><trkpt lat="43.9231417" lon="11.1892187"><ele>281.7142857142857</ele><time>2026-04-06T07:38:21.288Z</time></trkpt><trkpt lat="43.9231946" lon="11.1891521"><ele>282.2857142857143</ele><time>2026-04-06T07:38:25.282Z</time></trkpt><trkpt lat="43.923249" lon="11.1890972"><ele>282.85714285714283</ele><time>2026-04-06T07:38:29.275Z</time></trkpt><trkpt lat="43.9232927" lon="11.1890333"><ele>283.42857142857144</ele><time>2026-04-06T07:38:33.269Z</time></trkpt><trkpt lat="43.9233361" lon="11.188949"><ele>284.0</ele><time>2026-04-06T07:38:39.277Z</time></trkpt><trkpt lat="43.9233776" lon="11.1888599"><ele>288.7142857142857</ele><time>2026-04-06T07:38:44.284Z</time></trkpt><trkpt lat="43.923431" lon="11.1887851"><ele>293.4285714285714</ele><time>2026-04-06T07:38:48.286Z</time></trkpt><trkpt lat="43.923482" lon="11.1887019"><ele>298.1428571428571</ele><time>2026-04-06T07:38:52.287Z</time></trkpt><trkpt lat="43.923509" lon="11.1886103"><ele>302.85714285714283</ele><time>2026-04-06T07:38:56.282Z</time></trkpt><trkpt lat="43.923531" lon="11.1885104"><ele>307.57142857142856</ele><time>2026-04-06T07:39:00.285Z</time></trkpt><trkpt lat="43.9235549" lon="11.1884235"><ele>312.2857142857143</ele><time>2026-04-06T07:39:04.29Z</time></trkpt><trkpt lat="43.9235798" lon="11.1883342"><ele>317.0</ele><time>2026-04-06T07:39:08.282Z</time></trkpt><trkpt lat="43.9235991" lon="11.1882334"><ele>315.14285714285717</ele><time>2026-04-06T07:39:12.273Z</time></trkpt><trkpt lat="43.9236181" lon="11.1881367"><ele>313.2857142857143</ele><time>2026-04-06T07:39:16.281Z</time></trkpt><trkpt lat="43.9236446" lon="11.1880526"><ele>311.42857142857144</ele><time>2026-04-06T07:39:21.287Z</time></trkpt><trkpt lat="43.9236721" lon="11.1879731"><ele>309.57142857142856</ele><time>2026-04-06T07:39:26.269Z</time></trkpt><trkpt lat="43.9237056" lon="11.1878886"><ele>307.7142857142857</ele><time>2026-04-06T07:39:31.277Z</time></trkpt><trkpt lat="43.9237445" lon="11.1878111"><ele>305.85714285714283</ele><time>2026-04-06T07:39:35.273Z</time></trkpt><trkpt lat="43.9237793" lon="11.1877378"><ele>304.0</ele><time>2026-04-06T07:39:38.275Z</time></trkpt><trkpt lat="43.9238215" lon="11.1876604"><ele>304.0</ele><time>2026-04-06T07:39:42.285Z</time></trkpt><trkpt lat="43.9238613" lon="11.1875867"><ele>304.0</ele><time>2026-04-06T07:39:46.284Z</time></trkpt><trkpt lat="43.9239116" lon="11.1875005"><ele>304.0</ele><time>2026-04-06T07:39:50.277Z</time></trkpt><trkpt lat="43.9239501" lon="11.1873949"><ele>304.0</ele><time>2026-04-06T07:39:53.277Z</time></trkpt><trkpt lat="43.9240012" lon="11.1872828"><ele>304.0</ele><time>2026-04-06T07:39:56.283Z</time></trkpt><trkpt lat="43.9240472" lon="11.1871761"><ele>304.0</ele><time>2026-04-06T07:39:59.284Z</time></trkpt><trkpt lat="43.9240962" lon="11.187087"><ele>302.4285714285714</ele><time>2026-04-06T07:40:02.278Z</time></trkpt><trkpt lat="43.9241248" lon="11.1869932"><ele>300.8571428571429</ele><time>2026-04-06T07:40:05.285Z</time></trkpt><trkpt lat="43.9241388" lon="11.1869023"><ele>299.2857142857143</ele><time>2026-04-06T07:40:07.28Z</time></trkpt><trkpt lat="43.924145" lon="11.1867963"><ele>297.71428571428567</ele><time>2026-04-06T07:40:09.285Z</time></trkpt><trkpt lat="43.9241504" lon="11.1866957"><ele>296.1428571428571</ele><time>2026-04-06T07:40:11.295Z</time></trkpt><trkpt lat="43.9241525" lon="11.186608"><ele>294.57142857142856</ele><time>2026-04-06T07:40:13.279Z</time></trkpt><trkpt lat="43.9241655" lon="11.186492"><ele>293.0</ele><time>2026-04-06T07:40:16.281Z</time></trkpt><trkpt lat="43.9241853" lon="11.1863952"><ele>291.71428571428567</ele><time>2026-04-06T07:40:19.28Z</time></trkpt><trkpt lat="43.9242035" lon="11.1863003"><ele>290.42857142857144</ele><time>2026-04-06T07:40:22.285Z</time></trkpt><trkpt lat="43.9242341" lon="11.1861969"><ele>289.1428571428571</ele><time>2026-04-06T07:40:25.278Z</time></trkpt><trkpt lat="43.9242714" lon="11.1861182"><ele>287.85714285714283</ele><time>2026-04-06T07:40:28.284Z</time></trkpt><trkpt lat="43.9243093" lon="11.1860391"><ele>286.57142857142856</ele><time>2026-04-06T07:40:31.293Z</time></trkpt><trkpt lat="43.9243612" lon="11.185947"><ele>285.2857142857143</ele><time>2026-04-06T07:40:34.282Z</time></trkpt><trkpt lat="43.9244074" lon="11.1858776"><ele>284.0</ele><time>2026-04-06T07:40:37.284Z</time></trkpt><trkpt lat="43.9244503" lon="11.1857689"><ele>286.33333333333337</ele><time>2026-04-06T07:40:40.274Z</time></trkpt><trkpt lat="43.9244926" lon="11.1856809"><ele>288.6666666666667</ele><time>2026-04-06T07:40:43.28Z</time></trkpt><trkpt lat="43.9245276" lon="11.1855866"><ele>291.0</ele><time>2026-04-06T07:40:46.286Z</time></trkpt><trkpt lat="43.9245666" lon="11.1854806"><ele>293.3333333333333</ele><time>2026-04-06T07:40:49.283Z</time></trkpt><trkpt lat="43.9246044" lon="11.1854014"><ele>295.66666666666663</ele><time>2026-04-06T07:40:51.273Z</time></trkpt><trkpt lat="43.9246447" lon="11.185298"><ele>298.0</ele><time>2026-04-06T07:40:53.277Z</time></trkpt><trkpt lat="43.9246701" lon="11.1851504"><ele>298.0</ele><time>2026-04-06T07:40:55.285Z</time></trkpt><trkpt lat="43.9246797" lon="11.1850627"><ele>298.0</ele><time>2026-04-06T07:40:56.283Z</time></trkpt><trkpt lat="43.9246917" lon="11.1849707"><ele>298.0</ele><time>2026-04-06T07:40:57.283Z</time></trkpt><trkpt lat="43.9247073" lon="11.1848845"><ele>298.0</ele><time>2026-04-06T07:40:58.273Z</time></trkpt><trkpt lat="43.9247496" lon="11.184743"><ele>298.0</ele><time>2026-04-06T07:41:00.287Z</time></trkpt><trkpt lat="43.9247857" lon="11.1846537"><ele>298.0</ele><time>2026-04-06T07:41:02.274Z</time></trkpt><trkpt lat="43.9248187" lon="11.1845545"><ele>298.2857142857143</ele><time>2026-04-06T07:41:18.277Z</time></trkpt><trkpt lat="43.924865" lon="11.1844786"><ele>298.57142857142856</ele><time>2026-04-06T07:41:22.277Z</time></trkpt><trkpt lat="43.9249005" lon="11.1843818"><ele>298.85714285714283</ele><time>2026-04-06T07:41:26.286Z</time></trkpt><trkpt lat="43.9249356" lon="11.184308"><ele>299.1428571428571</ele><time>2026-04-06T07:41:30.28Z</time></trkpt><trkpt lat="43.9249651" lon="11.1842215"><ele>299.42857142857144</ele><time>2026-04-06T07:41:34.279Z</time></trkpt><trkpt lat="43.9249998" lon="11.184134"><ele>299.71428571428567</ele><time>2026-04-06T07:41:38.282Z</time></trkpt><trkpt lat="43.9250261" lon="11.1840486"><ele>300.0</ele><time>2026-04-06T07:41:42.288Z</time></trkpt><trkpt lat="43.9250593" lon="11.1839518"><ele>302.4285714285714</ele><time>2026-04-06T07:41:47.285Z</time></trkpt><trkpt lat="43.9250946" lon="11.183873"><ele>304.85714285714283</ele><time>2026-04-06T07:41:51.273Z</time></trkpt><trkpt lat="43.9251493" lon="11.1838171"><ele>307.2857142857143</ele><time>2026-04-06T07:41:55.283Z</time></trkpt><trkpt lat="43.9252281" lon="11.1838141"><ele>309.71428571428567</ele><time>2026-04-06T07:42:00.292Z</time></trkpt><trkpt lat="43.9253003" lon="11.1837936"><ele>312.1428571428571</ele><time>2026-04-06T07:42:04.278Z</time></trkpt><trkpt lat="43.9253642" lon="11.1837741"><ele>314.57142857142856</ele><time>2026-04-06T07:42:08.28Z</time></trkpt><trkpt lat="43.9254323" lon="11.1837381"><ele>317.0</ele><time>2026-04-06T07:42:13.278Z</time></trkpt><trkpt lat="43.9254847" lon="11.1836609"><ele>317.0</ele><time>2026-04-06T07:42:19.285Z</time></trkpt><trkpt lat="43.9255294" lon="11.1835808"><ele>317.0</ele><time>2026-04-06T07:42:24.286Z</time></trkpt><trkpt lat="43.9255705" lon="11.1835109"><ele>317.0</ele><time>2026-04-06T07:42:29.272Z</time></trkpt><trkpt lat="43.9256115" lon="11.1834362"><ele>317.0</ele><time>2026-04-06T07:42:34.274Z</time></trkpt><trkpt lat="43.9256563" lon="11.183367"><ele>317.0</ele><time>2026-04-06T07:42:39.278Z</time></trkpt><trkpt lat="43.9257061" lon="11.1832947"><ele>317.0</ele><time>2026-04-06T07:42:45.273Z</time></trkpt><trkpt lat="43.9257595" lon="11.1832213"><ele>317.0</ele><time>2026-04-06T07:42:51.282Z</time></trkpt><trkpt lat="43.9258038" lon="11.1831449"><ele>318.0</ele><time>2026-04-06T07:42:56.282Z</time></trkpt><trkpt lat="43.9258312" lon="11.1830604"><ele>319.0</ele><time>2026-04-06T07:43:01.272Z</time></trkpt><trkpt lat="43.9258434" lon="11.1829668"><ele>320.0</ele><time>2026-04-06T07:43:06.283Z</time></trkpt><trkpt lat="43.9258513" lon="11.1828704"><ele>321.0</ele><time>2026-04-06T07:43:11.284Z</time></trkpt><trkpt lat="43.9258643" lon="11.1827819"><ele>322.0</ele><time>2026-04-06T07:43:16.279Z</time></trkpt><trkpt lat="43.9258822" lon="11.1826894"><ele>323.0</ele><time>2026-04-06T07:43:22.273Z</time></trkpt><trkpt lat="43.9259018" lon="11.18259"><ele>324.0</ele><time>2026-04-06T07:43:27.276Z</time></trkpt><trkpt lat="43.9259103" lon="11.1825003"><ele>325.57142857142856</ele><time>2026-04-06T07:43:31.285Z</time></trkpt><trkpt lat="43.9259326" lon="11.1823985"><ele>327.1428571428571</ele><time>2026-04-06T07:43:36.292Z</time></trkpt><trkpt lat="43.9259503" lon="11.1822984"><ele>328.71428571428567</ele><time>2026-04-06T07:43:41.297Z</time></trkpt><trkpt lat="43.9259699" lon="11.1822024"><ele>330.2857142857143</ele><time>2026-04-06T07:43:46.284Z</time></trkpt><trkpt lat="43.9259869" lon="11.1821162"><ele>331.85714285714283</ele><time>2026-04-06T07:43:50.284Z</time></trkpt><trkpt lat="43.9260195" lon="11.1820233"><ele>333.4285714285714</ele><time>2026-04-06T07:43:55.275Z</time></trkpt><trkpt lat="43.9260763" lon="11.1819613"><ele>335.0</ele><time>2026-04-06T07:44:00.289Z</time></trkpt><trkpt lat="43.9261448" lon="11.1819072"><ele>335.57142857142856</ele><time>2026-04-06T07:44:05.29Z</time></trkpt><trkpt lat="43.9262046" lon="11.1818697"><ele>336.1428571428571</ele><time>2026-04-06T07:44:10.282Z</time></trkpt><trkpt lat="43.926269" lon="11.1818504"><ele>336.71428571428567</ele><time>2026-04-06T07:44:15.283Z</time></trkpt><trkpt lat="43.9263464" lon="11.1818278"><ele>337.2857142857143</ele><time>2026-04-06T07:44:20.288Z</time></trkpt><trkpt lat="43.9264076" lon="11.1818028"><ele>337.8571428571429</ele><time>2026-04-06T07:44:23.279Z</time></trkpt><trkpt lat="43.92646" lon="11.1817382"><ele>338.4285714285714</ele><time>2026-04-06T07:44:26.29Z</time></trkpt><trkpt lat="43.9265073" lon="11.1816573"><ele>339.0</ele><time>2026-04-06T07:44:29.289Z</time></trkpt><trkpt lat="43.9265435" lon="11.1815843"><ele>338.57142857142856</ele><time>2026-04-06T07:44:32.283Z</time></trkpt><trkpt lat="43.9265778" lon="11.1815015"><ele>338.14285714285717</ele><time>2026-04-06T07:44:35.286Z</time></trkpt><trkpt lat="43.9266125" lon="11.1814208"><ele>337.7142857142857</ele><time>2026-04-06T07:44:38.286Z</time></trkpt><trkpt lat="43.9266635" lon="11.1813463"><ele>337.2857142857143</ele><time>2026-04-06T07:44:41.288Z</time></trkpt><trkpt lat="43.9267107" lon="11.1812734"><ele>336.8571428571429</ele><time>2026-04-06T07:44:44.275Z</time></trkpt><trkpt lat="43.9267541" lon="11.1811969"><ele>336.42857142857144</ele><time>2026-04-06T07:44:47.283Z</time></trkpt><trkpt lat="43.9268104" lon="11.1811244"><ele>336.0</ele><time>2026-04-06T07:44:50.287Z</time></trkpt><trkpt lat="43.9268662" lon="11.1810604"><ele>338.85714285714283</ele><time>2026-04-06T07:44:53.286Z</time></trkpt><trkpt lat="43.9269373" lon="11.181022"><ele>341.7142857142857</ele><time>2026-04-06T07:44:57.281Z</time></trkpt><trkpt lat="43.9270072" lon="11.1810208"><ele>344.57142857142856</ele><time>2026-04-06T07:45:00.285Z</time></trkpt><trkpt lat="43.9270819" lon="11.1810361"><ele>347.42857142857144</ele><time>2026-04-06T07:45:04.275Z</time></trkpt><trkpt lat="43.9271564" lon="11.181059"><ele>350.2857142857143</ele><time>2026-04-06T07:45:09.284Z</time></trkpt><trkpt lat="43.9272206" lon="11.1810891"><ele>353.1428571428571</ele><time>2026-04-06T07:45:13.29Z</time></trkpt><trkpt lat="43.9272901" lon="11.181116"><ele>356.0</ele><time>2026-04-06T07:45:18.278Z</time></trkpt><trkpt lat="43.9273571" lon="11.1811455"><ele>355.99999999999994</ele><time>2026-04-06T07:45:23.288Z</time></trkpt><trkpt lat="43.9274238" lon="11.1811486"><ele>356.0</ele><time>2026-04-06T07:45:28.288Z</time></trkpt><trkpt lat="43.9274947" lon="11.1811168"><ele>356.0</ele><time>2026-04-06T07:45:33.273Z</time></trkpt><trkpt lat="43.9275438" lon="11.1810488"><ele>356.0</ele><time>2026-04-06T07:45:38.287Z</time></trkpt><trkpt lat="43.9275844" lon="11.1809699"><ele>356.0</ele><time>2026-04-06T07:45:44.276Z</time></trkpt><trkpt lat="43.9276148" lon="11.1808896"><ele>355.99999999999994</ele><time>2026-04-06T07:45:49.276Z</time></trkpt><trkpt lat="43.9276448" lon="11.1808037"><ele>356.0</ele><time>2026-04-06T07:45:54.28Z</time></trkpt><trkpt lat="43.9276732" lon="11.1807095"><ele>360.71428571428567</ele><time>2026-04-06T07:46:00.28Z</time></trkpt><trkpt lat="43.9277028" lon="11.1806243"><ele>365.42857142857144</ele><time>2026-04-06T07:46:05.296Z</time></trkpt><trkpt lat="43.9277209" lon="11.1805259"><ele>370.1428571428571</ele><time>2026-04-06T07:46:11.288Z</time></trkpt><trkpt lat="43.9277478" lon="11.1804338"><ele>374.85714285714283</ele><time>2026-04-06T07:46:17.28Z</time></trkpt><trkpt lat="43.9277596" lon="11.1803364"><ele>379.57142857142856</ele><time>2026-04-06T07:46:22.29Z</time></trkpt><trkpt lat="43.927778" lon="11.1802455"><ele>384.2857142857143</ele><time>2026-04-06T07:46:27.288Z</time></trkpt><trkpt lat="43.9278148" lon="11.1801695"><ele>389.0</ele><time>2026-04-06T07:46:32.286Z</time></trkpt><trkpt lat="43.9278365" lon="11.1800761"><ele>389.0</ele><time>2026-04-06T07:46:37.276Z</time></trkpt><trkpt lat="43.9278534" lon="11.179983"><ele>389.0</ele><time>2026-04-06T07:46:42.282Z</time></trkpt><trkpt lat="43.9278714" lon="11.1798975"><ele>389.0</ele><time>2026-04-06T07:46:47.283Z</time></trkpt><trkpt lat="43.9278882" lon="11.1798031"><ele>389.0</ele><time>2026-04-06T07:46:52.279Z</time></trkpt><trkpt lat="43.9279014" lon="11.1796985"><ele>389.0</ele><time>2026-04-06T07:46:57.287Z</time></trkpt><trkpt lat="43.9279303" lon="11.1796081"><ele>389.0</ele><time>2026-04-06T07:47:02.283Z</time></trkpt><trkpt lat="43.9279969" lon="11.1795831"><ele>389.0</ele><time>2026-04-06T07:47:07.277Z</time></trkpt><trkpt lat="43.9280565" lon="11.1796457"><ele>389.0</ele><time>2026-04-06T07:47:12.287Z</time></trkpt><trkpt lat="43.9280753" lon="11.1797403"><ele>389.0</ele><time>2026-04-06T07:47:17.279Z</time></trkpt><trkpt lat="43.9280771" lon="11.1798441"><ele>389.0</ele><time>2026-04-06T07:47:22.285Z</time></trkpt><trkpt lat="43.9280716" lon="11.1799364"><ele>389.0</ele><time>2026-04-06T07:47:26.283Z</time></trkpt><trkpt lat="43.928056" lon="11.1800259"><ele>389.0</ele><time>2026-04-06T07:47:30.285Z</time></trkpt><trkpt lat="43.9280427" lon="11.1801188"><ele>389.0</ele><time>2026-04-06T07:47:34.289Z</time></trkpt><trkpt lat="43.9280466" lon="11.1802103"><ele>389.0</ele><time>2026-04-06T07:47:38.288Z</time></trkpt><trkpt lat="43.9280648" lon="11.1803144"><ele>389.0</ele><time>2026-04-06T07:47:43.274Z</time></trkpt><trkpt lat="43.9280923" lon="11.1803931"><ele>389.0</ele><time>2026-04-06T07:47:47.283Z</time></trkpt><trkpt lat="43.92812" lon="11.1804791"><ele>389.0</ele><time>2026-04-06T07:47:52.292Z</time></trkpt><trkpt lat="43.9281436" lon="11.180584"><ele>389.0</ele><time>2026-04-06T07:47:57.292Z</time></trkpt><trkpt lat="43.9281528" lon="11.1806711"><ele>389.0</ele><time>2026-04-06T07:48:00.277Z</time></trkpt><trkpt lat="43.9281804" lon="11.1807757"><ele>389.0</ele><time>2026-04-06T07:48:04.288Z</time></trkpt><trkpt lat="43.928212" lon="11.1808711"><ele>389.0</ele><time>2026-04-06T07:48:08.283Z</time></trkpt><trkpt lat="43.9282324" lon="11.1809614"><ele>388.8571428571429</ele><time>2026-04-06T07:48:12.302Z</time></trkpt><trkpt lat="43.9282355" lon="11.1810578"><ele>388.71428571428567</ele><time>2026-04-06T07:48:16.293Z</time></trkpt><trkpt lat="43.9282443" lon="11.181174"><ele>388.57142857142856</ele><time>2026-04-06T07:48:20.285Z</time></trkpt><trkpt lat="43.9282631" lon="11.1812655"><ele>388.42857142857144</ele><time>2026-04-06T07:48:24.282Z</time></trkpt><trkpt lat="43.9282885" lon="11.1813464"><ele>388.28571428571433</ele><time>2026-04-06T07:48:27.278Z</time></trkpt><trkpt lat="43.9283394" lon="11.1814292"><ele>388.1428571428571</ele><time>2026-04-06T07:48:31.288Z</time></trkpt><trkpt lat="43.9283991" lon="11.1814619"><ele>388.0</ele><time>2026-04-06T07:48:34.28Z</time></trkpt><trkpt lat="43.9284751" lon="11.1814715"><ele>391.57142857142856</ele><time>2026-04-06T07:48:38.278Z</time></trkpt><trkpt lat="43.9285511" lon="11.1814608"><ele>395.14285714285717</ele><time>2026-04-06T07:48:42.281Z</time></trkpt><trkpt lat="43.9286278" lon="11.1814411"><ele>398.7142857142857</ele><time>2026-04-06T07:48:46.296Z</time></trkpt><trkpt lat="43.9286937" lon="11.1814251"><ele>402.2857142857143</ele><time>2026-04-06T07:48:50.284Z</time></trkpt><trkpt lat="43.9287639" lon="11.1814178"><ele>405.8571428571429</ele><time>2026-04-06T07:48:54.288Z</time></trkpt><trkpt lat="43.9288311" lon="11.1813974"><ele>409.42857142857144</ele><time>2026-04-06T07:48:58.293Z</time></trkpt><trkpt lat="43.9289085" lon="11.1813866"><ele>413.0</ele><time>2026-04-06T07:49:03.278Z</time></trkpt><trkpt lat="43.9289762" lon="11.1813675"><ele>413.0</ele><time>2026-04-06T07:49:08.303Z</time></trkpt><trkpt lat="43.9290376" lon="11.1813311"><ele>413.0</ele><time>2026-04-06T07:49:12.291Z</time></trkpt><trkpt lat="43.9291034" lon="11.1812835"><ele>413.0</ele><time>2026-04-06T07:49:17.285Z</time></trkpt><trkpt lat="43.9291525" lon="11.1812259"><ele>413.0</ele><time>2026-04-06T07:49:22.285Z</time></trkpt><trkpt lat="43.9292177" lon="11.1811669"><ele>413.0</ele><time>2026-04-06T07:49:27.289Z</time></trkpt><trkpt lat="43.9292671" lon="11.1810885"><ele>413.0</ele><time>2026-04-06T07:49:32.282Z</time></trkpt><trkpt lat="43.9292854" lon="11.1809984"><ele>413.0</ele><time>2026-04-06T07:49:37.283Z</time></trkpt><trkpt lat="43.9292863" lon="11.1809002"><ele>413.0</ele><time>2026-04-06T07:49:43.289Z</time></trkpt><trkpt lat="43.929259" lon="11.1808042"><ele>413.0</ele><time>2026-04-06T07:49:49.28Z</time></trkpt><trkpt lat="43.9292253" lon="11.1807249"><ele>413.0</ele><time>2026-04-06T07:49:54.292Z</time></trkpt><trkpt lat="43.929207" lon="11.1806283"><ele>413.0</ele><time>2026-04-06T07:49:59.276Z</time></trkpt><trkpt lat="43.9291706" lon="11.1805335"><ele>413.0</ele><time>2026-04-06T07:50:05.294Z</time></trkpt><trkpt lat="43.9291313" lon="11.1804593"><ele>413.0</ele><time>2026-04-06T07:50:10.279Z</time></trkpt><trkpt lat="43.929121" lon="11.1803623"><ele>413.0</ele><time>2026-04-06T07:50:16.272Z</time></trkpt><trkpt lat="43.9291094" lon="11.180274"><ele>414.8333333333333</ele><time>2026-04-06T07:50:21.287Z</time></trkpt><trkpt lat="43.9291715" lon="11.1802905"><ele>416.66666666666663</ele><time>2026-04-06T07:50:30.281Z</time></trkpt><trkpt lat="43.9292045" lon="11.1803782"><ele>418.5</ele><time>2026-04-06T07:50:36.282Z</time></trkpt><trkpt lat="43.9292427" lon="11.1804564"><ele>420.33333333333337</ele><time>2026-04-06T07:51:30.292Z</time></trkpt><trkpt lat="43.9292891" lon="11.1805573"><ele>422.1666666666667</ele><time>2026-04-06T07:51:33.282Z</time></trkpt><trkpt lat="43.9293341" lon="11.1806675"><ele>424.0</ele><time>2026-04-06T07:51:36.283Z</time></trkpt><trkpt lat="43.9293723" lon="11.1807578"><ele>427.33333333333337</ele><time>2026-04-06T07:51:39.288Z</time></trkpt><trkpt lat="43.9294232" lon="11.1808593"><ele>430.6666666666667</ele><time>2026-04-06T07:51:42.286Z</time></trkpt><trkpt lat="43.9294664" lon="11.1809393"><ele>434.0</ele><time>2026-04-06T07:51:44.29Z</time></trkpt><trkpt lat="43.9295152" lon="11.1810242"><ele>437.33333333333337</ele><time>2026-04-06T07:51:47.292Z</time></trkpt><trkpt lat="43.9295594" lon="11.1811091"><ele>440.6666666666667</ele><time>2026-04-06T07:51:50.273Z</time></trkpt><trkpt lat="43.9296004" lon="11.1812016"><ele>444.0</ele><time>2026-04-06T07:51:53.271Z</time></trkpt><trkpt lat="43.9296347" lon="11.1813024"><ele>444.0</ele><time>2026-04-06T07:51:57.278Z</time></trkpt><trkpt lat="43.929656" lon="11.1813919"><ele>444.0</ele><time>2026-04-06T07:52:01.287Z</time></trkpt><trkpt lat="43.9296896" lon="11.1815089"><ele>444.0</ele><time>2026-04-06T07:52:05.282Z</time></trkpt><trkpt lat="43.9297209" lon="11.1815989"><ele>444.0</ele><time>2026-04-06T07:52:09.283Z</time></trkpt><trkpt lat="43.9297426" lon="11.1816854"><ele>444.0</ele><time>2026-04-06T07:52:13.281Z</time></trkpt><trkpt lat="43.9297667" lon="11.1817747"><ele>444.0</ele><time>2026-04-06T07:52:17.269Z</time></trkpt><trkpt lat="43.9297823" lon="11.1818803"><ele>444.0</ele><time>2026-04-06T07:52:21.291Z</time></trkpt><trkpt lat="43.9298111" lon="11.181959"><ele>443.2857142857143</ele><time>2026-04-06T07:52:27.294Z</time></trkpt><trkpt lat="43.929837" lon="11.1820495"><ele>442.5714285714286</ele><time>2026-04-06T07:52:33.283Z</time></trkpt><trkpt lat="43.9298359" lon="11.18214"><ele>441.8571428571429</ele><time>2026-04-06T07:52:38.283Z</time></trkpt><trkpt lat="43.9298324" lon="11.1822512"><ele>441.1428571428571</ele><time>2026-04-06T07:52:43.289Z</time></trkpt><trkpt lat="43.9298324" lon="11.1823475"><ele>440.42857142857144</ele><time>2026-04-06T07:52:47.298Z</time></trkpt><trkpt lat="43.929803" lon="11.1824484"><ele>439.7142857142857</ele><time>2026-04-06T07:52:52.279Z</time></trkpt><trkpt lat="43.9297734" lon="11.1825339"><ele>439.0</ele><time>2026-04-06T07:52:55.275Z</time></trkpt><trkpt lat="43.9297395" lon="11.1826198"><ele>439.00000000000006</ele><time>2026-04-06T07:52:59.295Z</time></trkpt><trkpt lat="43.9297036" lon="11.1827042"><ele>439.0</ele><time>2026-04-06T07:53:03.295Z</time></trkpt><trkpt lat="43.9296687" lon="11.1827819"><ele>439.0</ele><time>2026-04-06T07:53:07.284Z</time></trkpt><trkpt lat="43.9296288" lon="11.1828803"><ele>439.0</ele><time>2026-04-06T07:53:11.283Z</time></trkpt><trkpt lat="43.9295824" lon="11.182962"><ele>439.00000000000006</ele><time>2026-04-06T07:53:15.3Z</time></trkpt><trkpt lat="43.929537" lon="11.1830533"><ele>439.0</ele><time>2026-04-06T07:53:19.287Z</time></trkpt><trkpt lat="43.9294934" lon="11.1831538"><ele>439.85714285714283</ele><time>2026-04-06T07:53:23.282Z</time></trkpt><trkpt lat="43.9294573" lon="11.1832324"><ele>440.71428571428567</ele><time>2026-04-06T07:53:26.286Z</time></trkpt><trkpt lat="43.9294338" lon="11.1833227"><ele>441.57142857142856</ele><time>2026-04-06T07:53:29.282Z</time></trkpt><trkpt lat="43.9294269" lon="11.1834116"><ele>442.42857142857144</ele><time>2026-04-06T07:53:32.276Z</time></trkpt><trkpt lat="43.9294298" lon="11.1835029"><ele>443.2857142857143</ele><time>2026-04-06T07:53:35.288Z</time></trkpt><trkpt lat="43.9294275" lon="11.1835931"><ele>444.14285714285717</ele><time>2026-04-06T07:53:38.293Z</time></trkpt><trkpt lat="43.9294088" lon="11.1836952"><ele>445.0</ele><time>2026-04-06T07:53:41.293Z</time></trkpt><trkpt lat="43.929392" lon="11.1837932"><ele>445.00000000000006</ele><time>2026-04-06T07:53:44.284Z</time></trkpt><trkpt lat="43.9293804" lon="11.1838968"><ele>445.0</ele><time>2026-04-06T07:53:47.3Z</time></trkpt><trkpt lat="43.92937" lon="11.1839999"><ele>445.0</ele><time>2026-04-06T07:53:50.298Z</time></trkpt><trkpt lat="43.9293641" lon="11.1841001"><ele>445.0</ele><time>2026-04-06T07:53:54.289Z</time></trkpt><trkpt lat="43.9293627" lon="11.1842136"><ele>445.00000000000006</ele><time>2026-04-06T07:53:57.292Z</time></trkpt><trkpt lat="43.9293528" lon="11.1843235"><ele>445.0</ele><time>2026-04-06T07:54:00.283Z</time></trkpt><trkpt lat="43.9293431" lon="11.1844284"><ele>445.8571428571429</ele><time>2026-04-06T07:54:04.28Z</time></trkpt><trkpt lat="43.9293523" lon="11.1845346"><ele>446.71428571428567</ele><time>2026-04-06T07:54:09.278Z</time></trkpt><trkpt lat="43.9293799" lon="11.1846328"><ele>447.57142857142856</ele><time>2026-04-06T07:54:14.282Z</time></trkpt><trkpt lat="43.9294151" lon="11.1847164"><ele>448.42857142857144</ele><time>2026-04-06T07:54:20.293Z</time></trkpt><trkpt lat="43.9294288" lon="11.1848163"><ele>449.28571428571433</ele><time>2026-04-06T07:54:25.276Z</time></trkpt><trkpt lat="43.9294648" lon="11.1849002"><ele>450.1428571428571</ele><time>2026-04-06T07:54:30.308Z</time></trkpt><trkpt lat="43.9295287" lon="11.1849624"><ele>451.0</ele><time>2026-04-06T07:54:35.296Z</time></trkpt><trkpt lat="43.9295743" lon="11.1850365"><ele>451.2857142857143</ele><time>2026-04-06T07:54:40.287Z</time></trkpt><trkpt lat="43.9296011" lon="11.1851189"><ele>451.57142857142856</ele><time>2026-04-06T07:56:01.298Z</time></trkpt><trkpt lat="43.9296502" lon="11.1851758"><ele>451.85714285714283</ele><time>2026-04-06T07:56:05.288Z</time></trkpt><trkpt lat="43.9296889" lon="11.1852506"><ele>452.1428571428571</ele><time>2026-04-06T07:56:09.291Z</time></trkpt><trkpt lat="43.9297099" lon="11.1853563"><ele>452.42857142857144</ele><time>2026-04-06T07:56:14.284Z</time></trkpt><trkpt lat="43.9297183" lon="11.1854606"><ele>452.71428571428567</ele><time>2026-04-06T07:56:19.284Z</time></trkpt><trkpt lat="43.9297405" lon="11.1855702"><ele>452.99999999999994</ele><time>2026-04-06T07:56:23.29Z</time></trkpt><trkpt lat="43.9297425" lon="11.1856618"><ele>452.5714285714285</ele><time>2026-04-06T07:56:27.293Z</time></trkpt><trkpt lat="43.9297332" lon="11.1857506"><ele>452.1428571428571</ele><time>2026-04-06T07:56:32.275Z</time></trkpt><trkpt lat="43.9297165" lon="11.1858424"><ele>451.7142857142857</ele><time>2026-04-06T07:56:36.294Z</time></trkpt><trkpt lat="43.9297045" lon="11.1859545"><ele>451.2857142857143</ele><time>2026-04-06T07:56:41.289Z</time></trkpt><trkpt lat="43.9297044" lon="11.1860644"><ele>450.8571428571429</ele><time>2026-04-06T07:56:44.28Z</time></trkpt><trkpt lat="43.9297136" lon="11.1861691"><ele>450.4285714285715</ele><time>2026-04-06T07:56:47.289Z</time></trkpt><trkpt lat="43.9297375" lon="11.1862655"><ele>450.00000000000006</ele><time>2026-04-06T07:56:50.303Z</time></trkpt><trkpt lat="43.9297772" lon="11.1863428"><ele>450.0</ele><time>2026-04-06T07:56:53.303Z</time></trkpt><trkpt lat="43.9298027" lon="11.1864293"><ele>450.0</ele><time>2026-04-06T07:56:56.291Z</time></trkpt><trkpt lat="43.9298238" lon="11.1865627"><ele>450.0</ele><time>2026-04-06T07:56:59.292Z</time></trkpt><trkpt lat="43.9298531" lon="11.1866539"><ele>450.0</ele><time>2026-04-06T07:57:01.286Z</time></trkpt><trkpt lat="43.9298971" lon="11.1867613"><ele>450.0</ele><time>2026-04-06T07:57:03.294Z</time></trkpt><trkpt lat="43.9299635" lon="11.1869042"><ele>450.0</ele><time>2026-04-06T07:57:05.292Z</time></trkpt><trkpt lat="43.929993" lon="11.1869871"><ele>449.6</ele><time>2026-04-06T07:57:06.298Z</time></trkpt><trkpt lat="43.9300159" lon="11.1870698"><ele>449.2</ele><time>2026-04-06T07:57:07.297Z</time></trkpt><trkpt lat="43.9300367" lon="11.1872253"><ele>448.79999999999995</ele><time>2026-04-06T07:57:09.3Z</time></trkpt><trkpt lat="43.9300072" lon="11.1873347"><ele>448.4</ele><time>2026-04-06T07:57:11.276Z</time></trkpt><trkpt lat="43.9299655" lon="11.1874624"><ele>448.0</ele><time>2026-04-06T07:57:13.289Z</time></trkpt><trkpt lat="43.9299319" lon="11.1875881"><ele>448.8571428571429</ele><time>2026-04-06T07:57:15.314Z</time></trkpt><trkpt lat="43.9299193" lon="11.18768"><ele>449.7142857142857</ele><time>2026-04-06T07:57:17.28Z</time></trkpt><trkpt lat="43.9299455" lon="11.1877711"><ele>450.57142857142856</ele><time>2026-04-06T07:57:19.297Z</time></trkpt><trkpt lat="43.9300123" lon="11.1878221"><ele>451.42857142857144</ele><time>2026-04-06T07:57:22.294Z</time></trkpt><trkpt lat="43.9300923" lon="11.187847"><ele>452.28571428571433</ele><time>2026-04-06T07:57:25.292Z</time></trkpt><trkpt lat="43.9301641" lon="11.1878731"><ele>453.14285714285717</ele><time>2026-04-06T07:57:27.298Z</time></trkpt><trkpt lat="43.9302281" lon="11.1878954"><ele>454.0</ele><time>2026-04-06T07:57:29.284Z</time></trkpt><trkpt lat="43.9302953" lon="11.1879235"><ele>454.00000000000006</ele><time>2026-04-06T07:57:31.272Z</time></trkpt><trkpt lat="43.9303787" lon="11.1879507"><ele>454.0</ele><time>2026-04-06T07:57:34.284Z</time></trkpt><trkpt lat="43.9304633" lon="11.1879989"><ele>454.0</ele><time>2026-04-06T07:57:37.279Z</time></trkpt><trkpt lat="43.9305434" lon="11.1880593"><ele>454.0</ele><time>2026-04-06T07:57:40.283Z</time></trkpt><trkpt lat="43.9306219" lon="11.188127"><ele>454.00000000000006</ele><time>2026-04-06T07:57:43.29Z</time></trkpt><trkpt lat="43.9306804" lon="11.1881717"><ele>454.0</ele><time>2026-04-06T07:57:45.29Z</time></trkpt><trkpt lat="43.9307575" lon="11.1882334"><ele>454.8571428571429</ele><time>2026-04-06T07:57:48.286Z</time></trkpt><trkpt lat="43.93081" lon="11.1882864"><ele>455.7142857142858</ele><time>2026-04-06T07:57:50.295Z</time></trkpt><trkpt lat="43.9308622" lon="11.1883436"><ele>456.57142857142856</ele><time>2026-04-06T07:57:52.288Z</time></trkpt><trkpt lat="43.9309147" lon="11.1883942"><ele>457.42857142857144</ele><time>2026-04-06T07:57:54.279Z</time></trkpt><trkpt lat="43.9309884" lon="11.188449"><ele>458.2857142857143</ele><time>2026-04-06T07:57:57.282Z</time></trkpt><trkpt lat="43.9310651" lon="11.1884851"><ele>459.1428571428571</ele><time>2026-04-06T07:58:00.289Z</time></trkpt><trkpt lat="43.9311372" lon="11.1885126"><ele>459.99999999999994</ele><time>2026-04-06T07:58:03.289Z</time></trkpt><trkpt lat="43.9312049" lon="11.1885503"><ele>459.99999999999994</ele><time>2026-04-06T07:58:06.281Z</time></trkpt><trkpt lat="43.9312554" lon="11.1886044"><ele>460.0</ele><time>2026-04-06T07:58:09.279Z</time></trkpt><trkpt lat="43.9313238" lon="11.1886601"><ele>459.99999999999994</ele><time>2026-04-06T07:58:13.292Z</time></trkpt><trkpt lat="43.9313783" lon="11.1887104"><ele>459.99999999999994</ele><time>2026-04-06T07:58:16.289Z</time></trkpt><trkpt lat="43.9314379" lon="11.1887773"><ele>460.0</ele><time>2026-04-06T07:58:20.29Z</time></trkpt><trkpt lat="43.9314893" lon="11.1888356"><ele>459.99999999999994</ele><time>2026-04-06T07:58:25.296Z</time></trkpt><trkpt lat="43.931556" lon="11.1888888"><ele>459.99999999999994</ele><time>2026-04-06T07:58:30.307Z</time></trkpt><trkpt lat="43.9315951" lon="11.1889686"><ele>460.5714285714285</ele><time>2026-04-06T07:58:35.286Z</time></trkpt><trkpt lat="43.9316323" lon="11.189043"><ele>461.1428571428571</ele><time>2026-04-06T07:58:40.297Z</time></trkpt><trkpt lat="43.9316695" lon="11.1891256"><ele>461.7142857142857</ele><time>2026-04-06T07:58:45.301Z</time></trkpt><trkpt lat="43.9317301" lon="11.1891901"><ele>462.2857142857143</ele><time>2026-04-06T07:58:51.296Z</time></trkpt><trkpt lat="43.9317885" lon="11.1892236"><ele>462.8571428571429</ele><time>2026-04-06T07:58:55.305Z</time></trkpt><trkpt lat="43.9318562" lon="11.1892536"><ele>463.4285714285715</ele><time>2026-04-06T07:59:00.293Z</time></trkpt><trkpt lat="43.9319315" lon="11.1892562"><ele>464.00000000000006</ele><time>2026-04-06T07:59:05.291Z</time></trkpt><trkpt lat="43.9319972" lon="11.1892342"><ele>464.00000000000006</ele><time>2026-04-06T07:59:10.3Z</time></trkpt><trkpt lat="43.9320616" lon="11.1892104"><ele>464.0</ele><time>2026-04-06T07:59:14.289Z</time></trkpt><trkpt lat="43.9321335" lon="11.1891775"><ele>464.00000000000006</ele><time>2026-04-06T07:59:19.304Z</time></trkpt><trkpt lat="43.9321936" lon="11.1891375"><ele>464.00000000000006</ele><time>2026-04-06T07:59:23.283Z</time></trkpt><trkpt lat="43.9322524" lon="11.1890934"><ele>464.0</ele><time>2026-04-06T07:59:29.294Z</time></trkpt><trkpt lat="43.9323211" lon="11.1890437"><ele>464.00000000000006</ele><time>2026-04-06T07:59:34.29Z</time></trkpt><trkpt lat="43.9323832" lon="11.1889998"><ele>464.00000000000006</ele><time>2026-04-06T07:59:38.294Z</time></trkpt><trkpt lat="43.9324345" lon="11.1889424"><ele>465.28571428571433</ele><time>2026-04-06T07:59:42.29Z</time></trkpt><trkpt lat="43.932494" lon="11.188906"><ele>466.57142857142856</ele><time>2026-04-06T07:59:46.288Z</time></trkpt><trkpt lat="43.9325671" lon="11.1888526"><ele>467.8571428571429</ele><time>2026-04-06T07:59:50.29Z</time></trkpt><trkpt lat="43.932626" lon="11.1888012"><ele>469.14285714285717</ele><time>2026-04-06T07:59:54.292Z</time></trkpt><trkpt lat="43.9326833" lon="11.1887538"><ele>470.42857142857144</ele><time>2026-04-06T07:59:57.289Z</time></trkpt><trkpt lat="43.932747" lon="11.1887074"><ele>471.7142857142857</ele><time>2026-04-06T08:00:00.288Z</time></trkpt><trkpt lat="43.9328055" lon="11.1886543"><ele>473.0</ele><time>2026-04-06T08:00:04.283Z</time></trkpt><trkpt lat="43.9328589" lon="11.1885907"><ele>472.99999999999994</ele><time>2026-04-06T08:00:07.277Z</time></trkpt><trkpt lat="43.9329202" lon="11.1885206"><ele>473.0</ele><time>2026-04-06T08:00:10.286Z</time></trkpt><trkpt lat="43.9329807" lon="11.1884707"><ele>473.0</ele><time>2026-04-06T08:00:13.285Z</time></trkpt><trkpt lat="43.9330597" lon="11.1884344"><ele>473.0</ele><time>2026-04-06T08:00:17.28Z</time></trkpt><trkpt lat="43.9331375" lon="11.1884142"><ele>472.99999999999994</ele><time>2026-04-06T08:00:21.285Z</time></trkpt><trkpt lat="43.9332044" lon="11.1884031"><ele>473.0</ele><time>2026-04-06T08:00:25.322Z</time></trkpt><trkpt lat="43.9332729" lon="11.1883637"><ele>473.0</ele><time>2026-04-06T08:00:29.28Z</time></trkpt><trkpt lat="43.9333431" lon="11.1883064"><ele>473.0</ele><time>2026-04-06T08:00:33.296Z</time></trkpt><trkpt lat="43.9334052" lon="11.1882694"><ele>473.0</ele><time>2026-04-06T08:00:36.27Z</time></trkpt><trkpt lat="43.9334735" lon="11.1882568"><ele>473.0</ele><time>2026-04-06T08:00:39.291Z</time></trkpt><trkpt lat="43.9335478" lon="11.1882505"><ele>473.0</ele><time>2026-04-06T08:00:42.29Z</time></trkpt><trkpt lat="43.9336119" lon="11.1882534"><ele>473.0</ele><time>2026-04-06T08:00:45.289Z</time></trkpt><trkpt lat="43.9336811" lon="11.1882643"><ele>473.0</ele><time>2026-04-06T08:00:49.275Z</time></trkpt><trkpt lat="43.9337553" lon="11.1882662"><ele>473.8571428571429</ele><time>2026-04-06T08:00:53.276Z</time></trkpt><trkpt lat="43.9338205" lon="11.1882505"><ele>474.71428571428567</ele><time>2026-04-06T08:00:56.282Z</time></trkpt><trkpt lat="43.9338916" lon="11.1882374"><ele>475.57142857142856</ele><time>2026-04-06T08:01:01.292Z</time></trkpt><trkpt lat="43.9339603" lon="11.188214"><ele>476.42857142857144</ele><time>2026-04-06T08:01:06.279Z</time></trkpt><trkpt lat="43.9340256" lon="11.188193"><ele>477.28571428571433</ele><time>2026-04-06T08:01:10.288Z</time></trkpt><trkpt lat="43.9340972" lon="11.1881898"><ele>478.1428571428571</ele><time>2026-04-06T08:01:14.283Z</time></trkpt><trkpt lat="43.9341757" lon="11.1882159"><ele>479.0</ele><time>2026-04-06T08:01:20.271Z</time></trkpt><trkpt lat="43.9342535" lon="11.188215"><ele>480.42857142857144</ele><time>2026-04-06T08:01:26.283Z</time></trkpt><trkpt lat="43.9343239" lon="11.1882321"><ele>481.8571428571429</ele><time>2026-04-06T08:01:33.281Z</time></trkpt><trkpt lat="43.9343921" lon="11.1882624"><ele>483.28571428571433</ele><time>2026-04-06T08:01:39.284Z</time></trkpt><trkpt lat="43.9344607" lon="11.1882779"><ele>484.7142857142857</ele><time>2026-04-06T08:01:43.277Z</time></trkpt><trkpt lat="43.9345328" lon="11.1882871"><ele>486.1428571428572</ele><time>2026-04-06T08:01:47.289Z</time></trkpt><trkpt lat="43.9345966" lon="11.1882698"><ele>487.5714285714286</ele><time>2026-04-06T08:01:52.287Z</time></trkpt><trkpt lat="43.9346623" lon="11.188262"><ele>489.0</ele><time>2026-04-06T08:01:56.288Z</time></trkpt><trkpt lat="43.9347361" lon="11.1882334"><ele>489.0</ele><time>2026-04-06T08:02:01.288Z</time></trkpt><trkpt lat="43.9348027" lon="11.1882015"><ele>489.00000000000006</ele><time>2026-04-06T08:02:06.274Z</time></trkpt><trkpt lat="43.9348684" lon="11.1882124"><ele>489.0</ele><time>2026-04-06T08:02:11.291Z</time></trkpt><trkpt lat="43.934928" lon="11.1882427"><ele>489.0</ele><time>2026-04-06T08:02:16.274Z</time></trkpt><trkpt lat="43.9350045" lon="11.188257"><ele>489.00000000000006</ele><time>2026-04-06T08:02:21.284Z</time></trkpt><trkpt lat="43.9350761" lon="11.1882901"><ele>489.0</ele><time>2026-04-06T08:02:25.282Z</time></trkpt><trkpt lat="43.9351371" lon="11.188341"><ele>489.0</ele><time>2026-04-06T08:02:30.286Z</time></trkpt><trkpt lat="43.9351956" lon="11.1883937"><ele>489.8571428571429</ele><time>2026-04-06T08:02:36.274Z</time></trkpt><trkpt lat="43.9352589" lon="11.18843"><ele>490.7142857142858</ele><time>2026-04-06T08:02:41.287Z</time></trkpt><trkpt lat="43.9353285" lon="11.1884331"><ele>491.57142857142856</ele><time>2026-04-06T08:02:46.283Z</time></trkpt><trkpt lat="43.9353989" lon="11.1884051"><ele>492.42857142857144</ele><time>2026-04-06T08:02:51.287Z</time></trkpt><trkpt lat="43.9354629" lon="11.1883628"><ele>493.2857142857143</ele><time>2026-04-06T08:02:56.275Z</time></trkpt><trkpt lat="43.9355159" lon="11.1882966"><ele>494.1428571428571</ele><time>2026-04-06T08:03:02.291Z</time></trkpt><trkpt lat="43.9355635" lon="11.1882346"><ele>494.99999999999994</ele><time>2026-04-06T08:03:08.286Z</time></trkpt><trkpt lat="43.9356122" lon="11.1881783"><ele>496.71428571428567</ele><time>2026-04-06T08:03:13.288Z</time></trkpt><trkpt lat="43.9356347" lon="11.1880943"><ele>498.42857142857144</ele><time>2026-04-06T08:03:19.289Z</time></trkpt><trkpt lat="43.9356249" lon="11.1879998"><ele>500.1428571428571</ele><time>2026-04-06T08:03:25.291Z</time></trkpt><trkpt lat="43.9356403" lon="11.187915"><ele>501.85714285714283</ele><time>2026-04-06T08:03:30.282Z</time></trkpt><trkpt lat="43.9356838" lon="11.187849"><ele>503.57142857142856</ele><time>2026-04-06T08:03:35.28Z</time></trkpt><trkpt lat="43.9357432" lon="11.1877783"><ele>505.2857142857143</ele><time>2026-04-06T08:03:41.294Z</time></trkpt><trkpt lat="43.9358074" lon="11.1877233"><ele>507.0</ele><time>2026-04-06T08:03:48.283Z</time></trkpt><trkpt lat="43.9358737" lon="11.1877318"><ele>507.2857142857143</ele><time>2026-04-06T08:03:53.271Z</time></trkpt><trkpt lat="43.9359437" lon="11.1877286"><ele>507.57142857142856</ele><time>2026-04-06T08:03:58.319Z</time></trkpt><trkpt lat="43.9360087" lon="11.1877248"><ele>507.85714285714283</ele><time>2026-04-06T08:06:14.304Z</time></trkpt><trkpt lat="43.9360769" lon="11.187768"><ele>508.1428571428571</ele><time>2026-04-06T08:06:18.293Z</time></trkpt><trkpt lat="43.9361375" lon="11.1877999"><ele>508.42857142857144</ele><time>2026-04-06T08:06:21.291Z</time></trkpt><trkpt lat="43.9362099" lon="11.1878074"><ele>508.71428571428567</ele><time>2026-04-06T08:06:25.309Z</time></trkpt><trkpt lat="43.9362761" lon="11.1877906"><ele>508.99999999999994</ele><time>2026-04-06T08:06:28.275Z</time></trkpt><trkpt lat="43.9363469" lon="11.1877862"><ele>508.99999999999994</ele><time>2026-04-06T08:06:31.283Z</time></trkpt><trkpt lat="43.9364106" lon="11.1877965"><ele>509.0</ele><time>2026-04-06T08:06:34.281Z</time></trkpt><trkpt lat="43.9364851" lon="11.1878123"><ele>509.0</ele><time>2026-04-06T08:06:38.281Z</time></trkpt><trkpt lat="43.9365696" lon="11.1878226"><ele>509.0</ele><time>2026-04-06T08:06:42.297Z</time></trkpt><trkpt lat="43.9366513" lon="11.1878251"><ele>508.99999999999994</ele><time>2026-04-06T08:06:45.3Z</time></trkpt><trkpt lat="43.9367158" lon="11.1878025"><ele>509.0</ele><time>2026-04-06T08:06:48.309Z</time></trkpt><trkpt lat="43.9367975" lon="11.1877653"><ele>508.42857142857133</ele><time>2026-04-06T08:06:52.304Z</time></trkpt><trkpt lat="43.9368593" lon="11.1877286"><ele>507.85714285714283</ele><time>2026-04-06T08:06:55.29Z</time></trkpt><trkpt lat="43.93693" lon="11.1876731"><ele>507.2857142857142</ele><time>2026-04-06T08:06:58.303Z</time></trkpt><trkpt lat="43.9369898" lon="11.1876125"><ele>506.71428571428567</ele><time>2026-04-06T08:07:01.299Z</time></trkpt><trkpt lat="43.9370403" lon="11.1875543"><ele>506.1428571428571</ele><time>2026-04-06T08:07:04.293Z</time></trkpt><trkpt lat="43.9370937" lon="11.1874977"><ele>505.57142857142856</ele><time>2026-04-06T08:07:08.306Z</time></trkpt><trkpt lat="43.9371438" lon="11.1874228"><ele>505.0</ele><time>2026-04-06T08:07:12.299Z</time></trkpt><trkpt lat="43.9371984" lon="11.1873331"><ele>507.71428571428567</ele><time>2026-04-06T08:07:17.297Z</time></trkpt><trkpt lat="43.9372311" lon="11.1872254"><ele>510.4285714285714</ele><time>2026-04-06T08:07:21.302Z</time></trkpt><trkpt lat="43.9372663" lon="11.1871505"><ele>513.1428571428571</ele><time>2026-04-06T08:07:24.308Z</time></trkpt><trkpt lat="43.9372982" lon="11.1870706"><ele>515.8571428571429</ele><time>2026-04-06T08:07:27.299Z</time></trkpt><trkpt lat="43.937318" lon="11.1869707"><ele>518.5714285714287</ele><time>2026-04-06T08:07:31.296Z</time></trkpt><trkpt lat="43.9373503" lon="11.1868788"><ele>521.2857142857143</ele><time>2026-04-06T08:07:35.311Z</time></trkpt><trkpt lat="43.9374171" lon="11.1869449"><ele>524.0</ele><time>2026-04-06T08:07:41.3Z</time></trkpt><trkpt lat="43.9374722" lon="11.187002"><ele>524.0</ele><time>2026-04-06T08:07:43.303Z</time></trkpt><trkpt lat="43.9375412" lon="11.1870054"><ele>524.0</ele><time>2026-04-06T08:07:45.305Z</time></trkpt><trkpt lat="43.937628" lon="11.1869873"><ele>524.0</ele><time>2026-04-06T08:07:48.306Z</time></trkpt><trkpt lat="43.9376993" lon="11.1869873"><ele>524.0</ele><time>2026-04-06T08:07:50.303Z</time></trkpt><trkpt lat="43.9377731" lon="11.1869873"><ele>524.0</ele><time>2026-04-06T08:07:52.326Z</time></trkpt><trkpt lat="43.9378446" lon="11.1869939"><ele>524.0</ele><time>2026-04-06T08:07:54.294Z</time></trkpt><trkpt lat="43.9379137" lon="11.1869948"><ele>524.0</ele><time>2026-04-06T08:07:56.308Z</time></trkpt><trkpt lat="43.9380019" lon="11.1870079"><ele>524.5</ele><time>2026-04-06T08:07:58.303Z</time></trkpt><trkpt lat="43.9380928" lon="11.1870279"><ele>525.0</ele><time>2026-04-06T08:08:00.303Z</time></trkpt><trkpt lat="43.9381559" lon="11.1870494"><ele>525.5</ele><time>2026-04-06T08:08:02.301Z</time></trkpt><trkpt lat="43.938234" lon="11.1870828"><ele>526.0</ele><time>2026-04-06T08:08:05.323Z</time></trkpt><trkpt lat="43.9382999" lon="11.1871233"><ele>526.5</ele><time>2026-04-06T08:08:07.3Z</time></trkpt><trkpt lat="43.9383902" lon="11.1872075"><ele>527.0</ele><time>2026-04-06T08:08:09.301Z</time></trkpt><trkpt lat="43.9384784" lon="11.1873048"><ele>525.4285714285714</ele><time>2026-04-06T08:08:11.303Z</time></trkpt><trkpt lat="43.938548" lon="11.1873976"><ele>523.8571428571429</ele><time>2026-04-06T08:08:13.297Z</time></trkpt><trkpt lat="43.9385838" lon="11.1874794"><ele>522.2857142857142</ele><time>2026-04-06T08:08:15.31Z</time></trkpt><trkpt lat="43.9386215" lon="11.1875595"><ele>520.7142857142858</ele><time>2026-04-06T08:08:17.304Z</time></trkpt><trkpt lat="43.9386635" lon="11.187639"><ele>519.1428571428571</ele><time>2026-04-06T08:08:19.311Z</time></trkpt><trkpt lat="43.9387019" lon="11.1877085"><ele>517.5714285714286</ele><time>2026-04-06T08:08:21.306Z</time></trkpt><trkpt lat="43.9387461" lon="11.1877745"><ele>516.0</ele><time>2026-04-06T08:08:23.31Z</time></trkpt><trkpt lat="43.9387964" lon="11.1878352"><ele>516.0</ele><time>2026-04-06T08:08:25.302Z</time></trkpt><trkpt lat="43.9388577" lon="11.1878619"><ele>516.0</ele><time>2026-04-06T08:08:28.296Z</time></trkpt><trkpt lat="43.9389414" lon="11.1879085"><ele>516.0</ele><time>2026-04-06T08:08:31.338Z</time></trkpt><trkpt lat="43.9390213" lon="11.1879371"><ele>516.0</ele><time>2026-04-06T08:08:33.306Z</time></trkpt><trkpt lat="43.9391099" lon="11.1879805"><ele>516.0</ele><time>2026-04-06T08:08:35.312Z</time></trkpt><trkpt lat="43.9392096" lon="11.1880369"><ele>516.0</ele><time>2026-04-06T08:08:37.311Z</time></trkpt><trkpt lat="43.9393162" lon="11.188133"><ele>516.0</ele><time>2026-04-06T08:08:39.296Z</time></trkpt><trkpt lat="43.9393716" lon="11.1881799"><ele>516.0</ele><time>2026-04-06T08:08:40.3Z</time></trkpt><trkpt lat="43.9394318" lon="11.1882283"><ele>516.0</ele><time>2026-04-06T08:08:41.305Z</time></trkpt><trkpt lat="43.9395385" lon="11.1882957"><ele>516.0</ele><time>2026-04-06T08:08:43.306Z</time></trkpt><trkpt lat="43.9396181" lon="11.1883407"><ele>516.0</ele><time>2026-04-06T08:08:45.282Z</time></trkpt><trkpt lat="43.9396755" lon="11.1883774"><ele>516.0</ele><time>2026-04-06T08:08:47.301Z</time></trkpt><trkpt lat="43.9397533" lon="11.1884276"><ele>515.9999999999999</ele><time>2026-04-06T08:08:51.313Z</time></trkpt><trkpt lat="43.9398124" lon="11.1884746"><ele>516.0</ele><time>2026-04-06T08:08:54.303Z</time></trkpt><trkpt lat="43.9398656" lon="11.1885222"><ele>516.0</ele><time>2026-04-06T08:08:57.303Z</time></trkpt><trkpt lat="43.9399301" lon="11.1885593"><ele>516.0</ele><time>2026-04-06T08:09:01.307Z</time></trkpt><trkpt lat="43.9400149" lon="11.18859"><ele>516.0</ele><time>2026-04-06T08:09:04.3Z</time></trkpt><trkpt lat="43.9400864" lon="11.1886055"><ele>515.9999999999999</ele><time>2026-04-06T08:09:07.323Z</time></trkpt><trkpt lat="43.9401561" lon="11.1886227"><ele>516.0</ele><time>2026-04-06T08:09:10.306Z</time></trkpt><trkpt lat="43.9402258" lon="11.1886289"><ele>516.9999999999999</ele><time>2026-04-06T08:09:13.302Z</time></trkpt><trkpt lat="43.9403029" lon="11.1886445"><ele>518.0</ele><time>2026-04-06T08:09:16.301Z</time></trkpt><trkpt lat="43.9403852" lon="11.1886618"><ele>519.0</ele><time>2026-04-06T08:09:20.299Z</time></trkpt><trkpt lat="43.9404526" lon="11.1886584"><ele>520.0</ele><time>2026-04-06T08:09:23.305Z</time></trkpt><trkpt lat="43.9405233" lon="11.1886514"><ele>521.0</ele><time>2026-04-06T08:09:26.297Z</time></trkpt><trkpt lat="43.9405978" lon="11.1886505"><ele>521.9999999999999</ele><time>2026-04-06T08:09:29.311Z</time></trkpt><trkpt lat="43.9406695" lon="11.1886365"><ele>523.0</ele><time>2026-04-06T08:09:33.313Z</time></trkpt><trkpt lat="43.9407511" lon="11.1886235"><ele>522.9999999999999</ele><time>2026-04-06T08:09:37.306Z</time></trkpt><trkpt lat="43.9408156" lon="11.1886066"><ele>523.0</ele><time>2026-04-06T08:09:40.303Z</time></trkpt><trkpt lat="43.9408782" lon="11.1885864"><ele>523.0</ele><time>2026-04-06T08:09:43.306Z</time></trkpt><trkpt lat="43.9409655" lon="11.1885355"><ele>523.0</ele><time>2026-04-06T08:09:46.298Z</time></trkpt><trkpt lat="43.9410195" lon="11.1884842"><ele>523.0</ele><time>2026-04-06T08:09:48.303Z</time></trkpt><trkpt lat="43.9410796" lon="11.1884027"><ele>522.9999999999999</ele><time>2026-04-06T08:09:51.302Z</time></trkpt><trkpt lat="43.9411115" lon="11.1883251"><ele>523.0</ele><time>2026-04-06T08:09:54.306Z</time></trkpt><trkpt lat="43.9411422" lon="11.1882195"><ele>523.8333333333334</ele><time>2026-04-06T08:09:57.312Z</time></trkpt><trkpt lat="43.941196" lon="11.1881203"><ele>524.6666666666667</ele><time>2026-04-06T08:10:00.302Z</time></trkpt><trkpt lat="43.9412646" lon="11.1881092"><ele>525.5</ele><time>2026-04-06T08:10:02.302Z</time></trkpt><trkpt lat="43.9413462" lon="11.1881764"><ele>526.3333333333334</ele><time>2026-04-06T08:10:05.309Z</time></trkpt><trkpt lat="43.9414139" lon="11.1882491"><ele>527.1666666666666</ele><time>2026-04-06T08:10:08.309Z</time></trkpt><trkpt lat="43.9414751" lon="11.1883212"><ele>528.0</ele><time>2026-04-06T08:10:11.305Z</time></trkpt><trkpt lat="43.9415307" lon="11.18839"><ele>528.0</ele><time>2026-04-06T08:10:14.313Z</time></trkpt><trkpt lat="43.9415855" lon="11.1884633"><ele>528.0</ele><time>2026-04-06T08:10:18.305Z</time></trkpt><trkpt lat="43.9416424" lon="11.1885316"><ele>528.0</ele><time>2026-04-06T08:10:21.302Z</time></trkpt><trkpt lat="43.9416922" lon="11.1885866"><ele>528.0</ele><time>2026-04-06T08:10:24.307Z</time></trkpt><trkpt lat="43.9417494" lon="11.1886566"><ele>528.0</ele><time>2026-04-06T08:10:29.307Z</time></trkpt><trkpt lat="43.9417945" lon="11.1887339"><ele>528.0</ele><time>2026-04-06T08:10:34.307Z</time></trkpt><trkpt lat="43.9418366" lon="11.1888051"><ele>528.0</ele><time>2026-04-06T08:10:38.293Z</time></trkpt><trkpt lat="43.9418602" lon="11.1888965"><ele>530.1428571428571</ele><time>2026-04-06T08:10:43.308Z</time></trkpt><trkpt lat="43.9418633" lon="11.1889978"><ele>532.2857142857143</ele><time>2026-04-06T08:10:48.306Z</time></trkpt><trkpt lat="43.9418397" lon="11.1890995"><ele>534.4285714285714</ele><time>2026-04-06T08:10:53.307Z</time></trkpt><trkpt lat="43.9418365" lon="11.1891971"><ele>536.5714285714286</ele><time>2026-04-06T08:10:58.316Z</time></trkpt><trkpt lat="43.9418332" lon="11.189288"><ele>538.7142857142857</ele><time>2026-04-06T08:11:02.316Z</time></trkpt><trkpt lat="43.9418332" lon="11.1894005"><ele>540.8571428571429</ele><time>2026-04-06T08:11:07.304Z</time></trkpt><trkpt lat="43.9418353" lon="11.189495"><ele>543.0</ele><time>2026-04-06T08:11:12.315Z</time></trkpt><trkpt lat="43.9418306" lon="11.1895954"><ele>543.0</ele><time>2026-04-06T08:11:15.287Z</time></trkpt><trkpt lat="43.941809" lon="11.1897327"><ele>543.0</ele><time>2026-04-06T08:11:18.298Z</time></trkpt><trkpt lat="43.9417845" lon="11.1898356"><ele>543.0</ele><time>2026-04-06T08:11:20.313Z</time></trkpt><trkpt lat="43.9417403" lon="11.1899585"><ele>543.0</ele><time>2026-04-06T08:11:22.294Z</time></trkpt><trkpt lat="43.9417349" lon="11.1901262"><ele>543.0</ele><time>2026-04-06T08:11:24.294Z</time></trkpt><trkpt lat="43.9417567" lon="11.1902273"><ele>542.1666666666666</ele><time>2026-04-06T08:11:25.307Z</time></trkpt><trkpt lat="43.9417732" lon="11.1903532"><ele>541.3333333333334</ele><time>2026-04-06T08:11:26.305Z</time></trkpt><trkpt lat="43.9417891" lon="11.1904848"><ele>540.5</ele><time>2026-04-06T08:11:27.308Z</time></trkpt><trkpt lat="43.9417987" lon="11.1906081"><ele>539.6666666666667</ele><time>2026-04-06T08:11:28.293Z</time></trkpt><trkpt lat="43.9418112" lon="11.1907208"><ele>538.8333333333334</ele><time>2026-04-06T08:11:29.297Z</time></trkpt><trkpt lat="43.9418274" lon="11.1908175"><ele>538.0</ele><time>2026-04-06T08:11:30.305Z</time></trkpt><trkpt lat="43.9418604" lon="11.1909127"><ele>537.4285714285714</ele><time>2026-04-06T08:11:31.301Z</time></trkpt><trkpt lat="43.9419154" lon="11.1909917"><ele>536.8571428571429</ele><time>2026-04-06T08:11:32.305Z</time></trkpt><trkpt lat="43.9419718" lon="11.1910605"><ele>536.2857142857143</ele><time>2026-04-06T08:11:33.315Z</time></trkpt><trkpt lat="43.9420256" lon="11.1911354"><ele>535.7142857142858</ele><time>2026-04-06T08:11:34.295Z</time></trkpt><trkpt lat="43.9420743" lon="11.1912102"><ele>535.1428571428571</ele><time>2026-04-06T08:11:35.298Z</time></trkpt><trkpt lat="43.9420941" lon="11.1913039"><ele>534.5714285714287</ele><time>2026-04-06T08:11:36.299Z</time></trkpt><trkpt lat="43.9421022" lon="11.1913945"><ele>534.0</ele><time>2026-04-06T08:11:37.308Z</time></trkpt><trkpt lat="43.9421172" lon="11.1915636"><ele>533.1666666666666</ele><time>2026-04-06T08:11:39.298Z</time></trkpt><trkpt lat="43.9421304" lon="11.1917128"><ele>532.3333333333334</ele><time>2026-04-06T08:11:41.301Z</time></trkpt><trkpt lat="43.9421467" lon="11.1918304"><ele>531.5</ele><time>2026-04-06T08:11:43.306Z</time></trkpt><trkpt lat="43.9421637" lon="11.1919177"><ele>530.6666666666667</ele><time>2026-04-06T08:11:45.308Z</time></trkpt><trkpt lat="43.9422004" lon="11.1920395"><ele>529.8333333333334</ele><time>2026-04-06T08:11:48.319Z</time></trkpt><trkpt lat="43.9422301" lon="11.1921225"><ele>529.0</ele><time>2026-04-06T08:11:50.311Z</time></trkpt><trkpt lat="43.9422587" lon="11.1922354"><ele>529.0</ele><time>2026-04-06T08:11:53.301Z</time></trkpt><trkpt lat="43.9422754" lon="11.1923346"><ele>529.0</ele><time>2026-04-06T08:11:56.303Z</time></trkpt><trkpt lat="43.9423046" lon="11.1924202"><ele>529.0</ele><time>2026-04-06T08:12:00.297Z</time></trkpt><trkpt lat="43.9423496" lon="11.1924873"><ele>529.0</ele><time>2026-04-06T08:12:05.303Z</time></trkpt><trkpt lat="43.9423876" lon="11.1925778"><ele>529.0</ele><time>2026-04-06T08:12:11.302Z</time></trkpt><trkpt lat="43.9424333" lon="11.1926505"><ele>529.0</ele><time>2026-04-06T08:12:15.301Z</time></trkpt><trkpt lat="43.9424908" lon="11.1927011"><ele>529.0</ele><time>2026-04-06T08:12:19.313Z</time></trkpt><trkpt lat="43.9425615" lon="11.1927965"><ele>531.3333333333334</ele><time>2026-04-06T08:12:22.313Z</time></trkpt><trkpt lat="43.9426205" lon="11.1928761"><ele>533.6666666666667</ele><time>2026-04-06T08:12:24.326Z</time></trkpt><trkpt lat="43.9426807" lon="11.1929994"><ele>536.0</ele><time>2026-04-06T08:12:26.301Z</time></trkpt><trkpt lat="43.9427103" lon="11.1931289"><ele>538.3333333333334</ele><time>2026-04-06T08:12:28.298Z</time></trkpt><trkpt lat="43.9427291" lon="11.1932468"><ele>540.6666666666666</ele><time>2026-04-06T08:12:30.321Z</time></trkpt><trkpt lat="43.9427469" lon="11.1933317"><ele>543.0</ele><time>2026-04-06T08:12:32.316Z</time></trkpt><trkpt lat="43.9427882" lon="11.1934305"><ele>543.0</ele><time>2026-04-06T08:12:35.306Z</time></trkpt><trkpt lat="43.942827" lon="11.1935193"><ele>543.0</ele><time>2026-04-06T08:12:38.306Z</time></trkpt><trkpt lat="43.9428687" lon="11.1935961"><ele>543.0</ele><time>2026-04-06T08:12:41.304Z</time></trkpt><trkpt lat="43.9429106" lon="11.193662"><ele>543.0</ele><time>2026-04-06T08:12:44.298Z</time></trkpt><trkpt lat="43.9429748" lon="11.1937294"><ele>543.0</ele><time>2026-04-06T08:12:48.306Z</time></trkpt><trkpt lat="43.9430276" lon="11.1937831"><ele>543.0</ele><time>2026-04-06T08:12:51.304Z</time></trkpt><trkpt lat="43.9430931" lon="11.1938379"><ele>543.0</ele><time>2026-04-06T08:12:54.332Z</time></trkpt><trkpt lat="43.9431613" lon="11.193906"><ele>543.0</ele><time>2026-04-06T08:12:57.295Z</time></trkpt><trkpt lat="43.9432199" lon="11.1939844"><ele>543.0</ele><time>2026-04-06T08:13:00.315Z</time></trkpt><trkpt lat="43.9432414" lon="11.1940721"><ele>543.0</ele><time>2026-04-06T08:13:03.303Z</time></trkpt><trkpt lat="43.943237" lon="11.1941955"><ele>543.0</ele><time>2026-04-06T08:13:06.312Z</time></trkpt><trkpt lat="43.9432236" lon="11.1942994"><ele>543.0</ele><time>2026-04-06T08:13:09.31Z</time></trkpt><trkpt lat="43.9432128" lon="11.1943982"><ele>543.0</ele><time>2026-04-06T08:13:13.305Z</time></trkpt><trkpt lat="43.9432274" lon="11.1945031"><ele>541.8333333333334</ele><time>2026-04-06T08:13:16.314Z</time></trkpt><trkpt lat="43.9432644" lon="11.1946249"><ele>540.6666666666666</ele><time>2026-04-06T08:13:19.301Z</time></trkpt><trkpt lat="43.9433023" lon="11.1947209"><ele>539.5</ele><time>2026-04-06T08:13:21.298Z</time></trkpt><trkpt lat="43.943312" lon="11.1948355"><ele>538.3333333333333</ele><time>2026-04-06T08:13:23.333Z</time></trkpt><trkpt lat="43.9432879" lon="11.1949354"><ele>537.1666666666666</ele><time>2026-04-06T08:13:25.313Z</time></trkpt><trkpt lat="43.9432635" lon="11.1950177"><ele>536.0</ele><time>2026-04-06T08:13:27.302Z</time></trkpt><trkpt lat="43.9432414" lon="11.195123"><ele>536.0</ele><time>2026-04-06T08:13:29.296Z</time></trkpt><trkpt lat="43.9432238" lon="11.1952545"><ele>536.0</ele><time>2026-04-06T08:13:31.298Z</time></trkpt><trkpt lat="43.943227" lon="11.1953898"><ele>536.0</ele><time>2026-04-06T08:13:33.31Z</time></trkpt><trkpt lat="43.9432645" lon="11.1954996"><ele>536.0</ele><time>2026-04-06T08:13:35.296Z</time></trkpt><trkpt lat="43.9433306" lon="11.1955881"><ele>536.0</ele><time>2026-04-06T08:13:37.3Z</time></trkpt><trkpt lat="43.9434012" lon="11.1956956"><ele>536.0</ele><time>2026-04-06T08:13:39.303Z</time></trkpt><trkpt lat="43.9434762" lon="11.1958136"><ele>536.0</ele><time>2026-04-06T08:13:41.308Z</time></trkpt><trkpt lat="43.9435232" lon="11.1958855"><ele>536.0</ele><time>2026-04-06T08:13:42.306Z</time></trkpt><trkpt lat="43.9435704" lon="11.1959623"><ele>536.0</ele><time>2026-04-06T08:13:43.298Z</time></trkpt><trkpt lat="43.9436133" lon="11.1960299"><ele>536.0</ele><time>2026-04-06T08:13:44.304Z</time></trkpt><trkpt lat="43.9436567" lon="11.1960958"><ele>536.0</ele><time>2026-04-06T08:13:45.303Z</time></trkpt><trkpt lat="43.9437404" lon="11.196208"><ele>536.0</ele><time>2026-04-06T08:13:47.303Z</time></trkpt><trkpt lat="43.9438306" lon="11.1962938"><ele>536.0</ele><time>2026-04-06T08:13:49.3Z</time></trkpt><trkpt lat="43.9439112" lon="11.1963643"><ele>536.0</ele><time>2026-04-06T08:13:51.304Z</time></trkpt><trkpt lat="43.9439974" lon="11.1964999"><ele>536.0</ele><time>2026-04-06T08:13:53.305Z</time></trkpt><trkpt lat="43.9440278" lon="11.1965928"><ele>536.0</ele><time>2026-04-06T08:13:54.304Z</time></trkpt><trkpt lat="43.9440545" lon="11.1966952"><ele>533.8333333333333</ele><time>2026-04-06T08:13:55.306Z</time></trkpt><trkpt lat="43.94408" lon="11.1967833"><ele>531.6666666666666</ele><time>2026-04-06T08:13:56.303Z</time></trkpt><trkpt lat="43.9441214" lon="11.1969177"><ele>529.5</ele><time>2026-04-06T08:13:58.3Z</time></trkpt><trkpt lat="43.9441453" lon="11.1970475"><ele>527.3333333333334</ele><time>2026-04-06T08:14:00.314Z</time></trkpt><trkpt lat="43.9441687" lon="11.1971654"><ele>525.1666666666667</ele><time>2026-04-06T08:14:02.3Z</time></trkpt><trkpt lat="43.9441873" lon="11.1972815"><ele>523.0</ele><time>2026-04-06T08:14:05.314Z</time></trkpt><trkpt lat="43.9442127" lon="11.1973812"><ele>520.0</ele><time>2026-04-06T08:14:08.304Z</time></trkpt><trkpt lat="43.9442453" lon="11.1975039"><ele>517.0</ele><time>2026-04-06T08:14:11.319Z</time></trkpt><trkpt lat="43.9442847" lon="11.1976245"><ele>514.0</ele><time>2026-04-06T08:14:14.306Z</time></trkpt><trkpt lat="43.9443431" lon="11.197735"><ele>511.0</ele><time>2026-04-06T08:14:17.3Z</time></trkpt><trkpt lat="43.9444198" lon="11.1978608"><ele>508.0</ele><time>2026-04-06T08:14:19.31Z</time></trkpt><trkpt lat="43.9444555" lon="11.197954"><ele>508.00000000000006</ele><time>2026-04-06T08:14:20.298Z</time></trkpt><trkpt lat="43.9444788" lon="11.1980561"><ele>508.0</ele><time>2026-04-06T08:14:21.319Z</time></trkpt><trkpt lat="43.9444933" lon="11.1981611"><ele>508.0</ele><time>2026-04-06T08:14:22.308Z</time></trkpt><trkpt lat="43.9445043" lon="11.198264"><ele>508.0</ele><time>2026-04-06T08:14:23.305Z</time></trkpt><trkpt lat="43.9445076" lon="11.1983608"><ele>508.00000000000006</ele><time>2026-04-06T08:14:24.304Z</time></trkpt><trkpt lat="43.9445167" lon="11.1984493"><ele>508.0</ele><time>2026-04-06T08:14:25.318Z</time></trkpt><trkpt lat="43.9445458" lon="11.1986006"><ele>506.1666666666667</ele><time>2026-04-06T08:14:27.296Z</time></trkpt><trkpt lat="43.944595" lon="11.1987041"><ele>504.33333333333337</ele><time>2026-04-06T08:14:29.305Z</time></trkpt><trkpt lat="43.9446311" lon="11.1988156"><ele>502.5</ele><time>2026-04-06T08:14:32.31Z</time></trkpt><trkpt lat="43.9446584" lon="11.198917"><ele>500.66666666666663</ele><time>2026-04-06T08:14:35.308Z</time></trkpt><trkpt lat="43.9446653" lon="11.1990248"><ele>498.8333333333333</ele><time>2026-04-06T08:14:38.306Z</time></trkpt><trkpt lat="43.9446524" lon="11.1991152"><ele>497.0</ele><time>2026-04-06T08:14:41.3Z</time></trkpt><trkpt lat="43.9446405" lon="11.1992027"><ele>497.0</ele><time>2026-04-06T08:14:44.301Z</time></trkpt><trkpt lat="43.9446195" lon="11.1993096"><ele>497.0</ele><time>2026-04-06T08:14:48.299Z</time></trkpt><trkpt lat="43.9446003" lon="11.1993952"><ele>497.0</ele><time>2026-04-06T08:14:52.301Z</time></trkpt><trkpt lat="43.9445828" lon="11.1994794"><ele>497.0</ele><time>2026-04-06T08:14:56.311Z</time></trkpt><trkpt lat="43.9445689" lon="11.1995811"><ele>497.0</ele><time>2026-04-06T08:15:00.298Z</time></trkpt><trkpt lat="43.9445507" lon="11.1996649"><ele>497.0</ele><time>2026-04-06T08:15:04.303Z</time></trkpt><trkpt lat="43.9445308" lon="11.1997644"><ele>497.0</ele><time>2026-04-06T08:15:08.303Z</time></trkpt><trkpt lat="43.9445186" lon="11.1998558"><ele>497.49999999999994</ele><time>2026-04-06T08:15:12.299Z</time></trkpt><trkpt lat="43.9445078" lon="11.1999485"><ele>498.0</ele><time>2026-04-06T08:15:15.29Z</time></trkpt><trkpt lat="43.9445106" lon="11.2000379"><ele>498.5</ele><time>2026-04-06T08:15:17.305Z</time></trkpt><trkpt lat="43.9445372" lon="11.2001568"><ele>499.0</ele><time>2026-04-06T08:15:20.303Z</time></trkpt><trkpt lat="43.9445441" lon="11.2002786"><ele>499.49999999999994</ele><time>2026-04-06T08:15:23.324Z</time></trkpt><trkpt lat="43.9445471" lon="11.2003728"><ele>500.0</ele><time>2026-04-06T08:15:25.314Z</time></trkpt><trkpt lat="43.9445397" lon="11.2004818"><ele>499.99999999999994</ele><time>2026-04-06T08:15:27.31Z</time></trkpt><trkpt lat="43.9445298" lon="11.2006031"><ele>500.0</ele><time>2026-04-06T08:15:29.313Z</time></trkpt><trkpt lat="43.9445236" lon="11.2007227"><ele>500.0</ele><time>2026-04-06T08:15:31.314Z</time></trkpt><trkpt lat="43.9445164" lon="11.2008243"><ele>500.0</ele><time>2026-04-06T08:15:33.301Z</time></trkpt><trkpt lat="43.9444859" lon="11.2009399"><ele>499.99999999999994</ele><time>2026-04-06T08:15:36.304Z</time></trkpt><trkpt lat="43.9444631" lon="11.2010257"><ele>500.0</ele><time>2026-04-06T08:15:38.307Z</time></trkpt><trkpt lat="43.9444549" lon="11.2011567"><ele>499.49999999999994</ele><time>2026-04-06T08:15:41.329Z</time></trkpt><trkpt lat="43.944492" lon="11.2012414"><ele>499.0</ele><time>2026-04-06T08:15:43.331Z</time></trkpt><trkpt lat="43.9445418" lon="11.2012985"><ele>498.5</ele><time>2026-04-06T08:15:45.292Z</time></trkpt><trkpt lat="43.9445978" lon="11.2013429"><ele>498.0</ele><time>2026-04-06T08:15:47.303Z</time></trkpt><trkpt lat="43.9446743" lon="11.2014086"><ele>497.49999999999994</ele><time>2026-04-06T08:15:50.308Z</time></trkpt><trkpt lat="43.9447423" lon="11.2014807"><ele>497.0</ele><time>2026-04-06T08:15:53.324Z</time></trkpt><trkpt lat="43.9446852" lon="11.2013959"><ele>497.0</ele><time>2026-04-06T08:16:02.296Z</time></trkpt><trkpt lat="43.9446093" lon="11.2013343"><ele>497.0</ele><time>2026-04-06T08:16:05.305Z</time></trkpt><trkpt lat="43.9445354" lon="11.2013267"><ele>497.0</ele><time>2026-04-06T08:16:09.322Z</time></trkpt><trkpt lat="43.9445451" lon="11.2014201"><ele>497.0</ele><time>2026-04-06T08:16:13.3Z</time></trkpt><trkpt lat="43.9445858" lon="11.2014922"><ele>497.0</ele><time>2026-04-06T08:16:16.316Z</time></trkpt><trkpt lat="43.9446138" lon="11.2015783"><ele>497.0</ele><time>2026-04-06T08:16:19.311Z</time></trkpt><trkpt lat="43.9446325" lon="11.2016652"><ele>497.0</ele><time>2026-04-06T08:16:22.304Z</time></trkpt><trkpt lat="43.9446607" lon="11.2017467"><ele>497.0</ele><time>2026-04-06T08:16:25.307Z</time></trkpt><trkpt lat="43.9446847" lon="11.2018392"><ele>497.0</ele><time>2026-04-06T08:16:29.309Z</time></trkpt><trkpt lat="43.9447157" lon="11.2019234"><ele>497.0</ele><time>2026-04-06T08:16:33.299Z</time></trkpt><trkpt lat="43.9447504" lon="11.2020262"><ele>497.0</ele><time>2026-04-06T08:16:37.309Z</time></trkpt><trkpt lat="43.9447669" lon="11.2021211"><ele>497.0</ele><time>2026-04-06T08:16:41.296Z</time></trkpt><trkpt lat="43.9447894" lon="11.2022257"><ele>497.0</ele><time>2026-04-06T08:16:45.328Z</time></trkpt><trkpt lat="43.9448119" lon="11.2023081"><ele>497.0</ele><time>2026-04-06T08:16:48.307Z</time></trkpt><trkpt lat="43.9448218" lon="11.202422"><ele>497.16666666666663</ele><time>2026-04-06T08:16:51.31Z</time></trkpt><trkpt lat="43.9448372" lon="11.2025099"><ele>497.3333333333333</ele><time>2026-04-06T08:16:53.306Z</time></trkpt><trkpt lat="43.9448496" lon="11.2026052"><ele>497.5</ele><time>2026-04-06T08:16:55.307Z</time></trkpt><trkpt lat="43.9448421" lon="11.2027182"><ele>497.66666666666663</ele><time>2026-04-06T08:16:58.304Z</time></trkpt><trkpt lat="43.9448394" lon="11.2028476"><ele>497.8333333333333</ele><time>2026-04-06T08:17:00.303Z</time></trkpt><trkpt lat="43.9448295" lon="11.2029562"><ele>498.0</ele><time>2026-04-06T08:17:03.319Z</time></trkpt><trkpt lat="43.9448191" lon="11.2030425"><ele>497.2</ele><time>2026-04-06T08:17:05.307Z</time></trkpt><trkpt lat="43.9448203" lon="11.203185"><ele>496.4</ele><time>2026-04-06T08:17:07.314Z</time></trkpt><trkpt lat="43.9448259" lon="11.2033005"><ele>495.59999999999997</ele><time>2026-04-06T08:17:09.326Z</time></trkpt><trkpt lat="43.9448362" lon="11.2034267"><ele>494.79999999999995</ele><time>2026-04-06T08:17:11.297Z</time></trkpt><trkpt lat="43.9448333" lon="11.2035714"><ele>494.0</ele><time>2026-04-06T08:17:13.303Z</time></trkpt><trkpt lat="43.9448117" lon="11.2037172"><ele>493.99999999999994</ele><time>2026-04-06T08:17:15.331Z</time></trkpt><trkpt lat="43.9447882" lon="11.203799"><ele>494.0</ele><time>2026-04-06T08:17:16.303Z</time></trkpt><trkpt lat="43.9447715" lon="11.2038959"><ele>494.0</ele><time>2026-04-06T08:17:17.313Z</time></trkpt><trkpt lat="43.9447624" lon="11.2040196"><ele>494.0</ele><time>2026-04-06T08:17:18.304Z</time></trkpt><trkpt lat="43.9447642" lon="11.2041387"><ele>493.99999999999994</ele><time>2026-04-06T08:17:19.3Z</time></trkpt><trkpt lat="43.9447634" lon="11.2042289"><ele>494.0</ele><time>2026-04-06T08:17:20.297Z</time></trkpt><trkpt lat="43.9447699" lon="11.2043765"><ele>493.57142857142856</ele><time>2026-04-06T08:17:22.312Z</time></trkpt><trkpt lat="43.9447757" lon="11.2044876"><ele>493.1428571428571</ele><time>2026-04-06T08:17:24.311Z</time></trkpt><trkpt lat="43.9447917" lon="11.2046039"><ele>492.71428571428567</ele><time>2026-04-06T08:17:27.299Z</time></trkpt><trkpt lat="43.9447988" lon="11.204692"><ele>492.2857142857143</ele><time>2026-04-06T08:17:30.297Z</time></trkpt><trkpt lat="43.9448179" lon="11.2047813"><ele>491.8571428571428</ele><time>2026-04-06T08:17:34.306Z</time></trkpt><trkpt lat="43.944859" lon="11.2048596"><ele>491.4285714285714</ele><time>2026-04-06T08:17:38.312Z</time></trkpt><trkpt lat="43.9448823" lon="11.2049424"><ele>491.0</ele><time>2026-04-06T08:17:42.316Z</time></trkpt><trkpt lat="43.94492" lon="11.2050224"><ele>490.99999999999994</ele><time>2026-04-06T08:17:47.303Z</time></trkpt><trkpt lat="43.9449493" lon="11.2051114"><ele>491.0</ele><time>2026-04-06T08:17:52.305Z</time></trkpt><trkpt lat="43.9449701" lon="11.2052173"><ele>491.0</ele><time>2026-04-06T08:17:57.307Z</time></trkpt><trkpt lat="43.9449813" lon="11.2053087"><ele>491.0</ele><time>2026-04-06T08:18:00.307Z</time></trkpt><trkpt lat="43.9450079" lon="11.2054378"><ele>490.99999999999994</ele><time>2026-04-06T08:18:03.307Z</time></trkpt><trkpt lat="43.9450247" lon="11.2055554"><ele>491.0</ele><time>2026-04-06T08:18:05.299Z</time></trkpt><trkpt lat="43.9450285" lon="11.2056755"><ele>490.8333333333333</ele><time>2026-04-06T08:18:07.306Z</time></trkpt><trkpt lat="43.9450152" lon="11.2057675"><ele>490.66666666666663</ele><time>2026-04-06T08:18:09.3Z</time></trkpt><trkpt lat="43.9449809" lon="11.2058731"><ele>490.5</ele><time>2026-04-06T08:18:12.284Z</time></trkpt><trkpt lat="43.9449485" lon="11.2059578"><ele>490.33333333333337</ele><time>2026-04-06T08:18:15.314Z</time></trkpt><trkpt lat="43.9449197" lon="11.2060576"><ele>490.1666666666667</ele><time>2026-04-06T08:18:17.292Z</time></trkpt><trkpt lat="43.9449003" lon="11.2061656"><ele>490.0</ele><time>2026-04-06T08:18:19.225Z</time></trkpt><trkpt lat="43.9448951" lon="11.2062843"><ele>490.00000000000006</ele><time>2026-04-06T08:18:21.296Z</time></trkpt><trkpt lat="43.9448913" lon="11.206387"><ele>490.0</ele><time>2026-04-06T08:18:23.3Z</time></trkpt><trkpt lat="43.9448941" lon="11.2064958"><ele>490.0</ele><time>2026-04-06T08:18:25.305Z</time></trkpt><trkpt lat="43.9449035" lon="11.2065895"><ele>490.0</ele><time>2026-04-06T08:18:26.32Z</time></trkpt><trkpt lat="43.9449144" lon="11.2067086"><ele>490.00000000000006</ele><time>2026-04-06T08:18:27.312Z</time></trkpt><trkpt lat="43.9449242" lon="11.2068234"><ele>490.0</ele><time>2026-04-06T08:18:28.309Z</time></trkpt><trkpt lat="43.9449383" lon="11.2069723"><ele>487.8</ele><time>2026-04-06T08:18:29.303Z</time></trkpt><trkpt lat="43.9449499" lon="11.2071112"><ele>485.6</ele><time>2026-04-06T08:18:30.321Z</time></trkpt><trkpt lat="43.9449615" lon="11.2072707"><ele>483.4</ele><time>2026-04-06T08:18:31.311Z</time></trkpt><trkpt lat="43.9449715" lon="11.2074334"><ele>481.2</ele><time>2026-04-06T08:18:32.317Z</time></trkpt><trkpt lat="43.9449826" lon="11.2075924"><ele>479.0</ele><time>2026-04-06T08:18:33.312Z</time></trkpt><trkpt lat="43.9449916" lon="11.2077455"><ele>476.79999999999995</ele><time>2026-04-06T08:18:34.309Z</time></trkpt><trkpt lat="43.9449879" lon="11.207904"><ele>474.59999999999997</ele><time>2026-04-06T08:18:35.313Z</time></trkpt><trkpt lat="43.9449834" lon="11.2080567"><ele>472.4</ele><time>2026-04-06T08:18:36.306Z</time></trkpt><trkpt lat="43.9449704" lon="11.2082022"><ele>470.2</ele><time>2026-04-06T08:18:37.301Z</time></trkpt><trkpt lat="43.9449625" lon="11.2083408"><ele>468.0</ele><time>2026-04-06T08:18:38.326Z</time></trkpt><trkpt lat="43.9449725" lon="11.208475"><ele>466.79999999999995</ele><time>2026-04-06T08:18:39.297Z</time></trkpt><trkpt lat="43.9450023" lon="11.208602"><ele>465.59999999999997</ele><time>2026-04-06T08:18:40.318Z</time></trkpt><trkpt lat="43.9450376" lon="11.2087203"><ele>464.40000000000003</ele><time>2026-04-06T08:18:41.317Z</time></trkpt><trkpt lat="43.9450842" lon="11.2088281"><ele>463.20000000000005</ele><time>2026-04-06T08:18:42.313Z</time></trkpt><trkpt lat="43.9451367" lon="11.2089339"><ele>462.0</ele><time>2026-04-06T08:18:43.306Z</time></trkpt><trkpt lat="43.9451862" lon="11.2090363"><ele>460.0</ele><time>2026-04-06T08:18:44.311Z</time></trkpt><trkpt lat="43.9452332" lon="11.2091316"><ele>458.0</ele><time>2026-04-06T08:18:45.3Z</time></trkpt><trkpt lat="43.9452752" lon="11.2092309"><ele>456.0</ele><time>2026-04-06T08:18:46.299Z</time></trkpt><trkpt lat="43.945311" lon="11.2093339"><ele>454.0</ele><time>2026-04-06T08:18:47.312Z</time></trkpt><trkpt lat="43.9453462" lon="11.2094448"><ele>452.0</ele><time>2026-04-06T08:18:48.302Z</time></trkpt><trkpt lat="43.9453667" lon="11.2095611"><ele>450.0</ele><time>2026-04-06T08:18:49.308Z</time></trkpt><trkpt lat="43.9453868" lon="11.2096863"><ele>450.0</ele><time>2026-04-06T08:18:50.294Z</time></trkpt><trkpt lat="43.945405" lon="11.2098131"><ele>450.0</ele><time>2026-04-06T08:18:51.317Z</time></trkpt><trkpt lat="43.9454239" lon="11.2099391"><ele>450.0</ele><time>2026-04-06T08:18:52.316Z</time></trkpt><trkpt lat="43.9454436" lon="11.2100672"><ele>450.0</ele><time>2026-04-06T08:18:53.305Z</time></trkpt><trkpt lat="43.9454646" lon="11.2101888"><ele>450.0</ele><time>2026-04-06T08:18:54.299Z</time></trkpt><trkpt lat="43.9454897" lon="11.2103118"><ele>450.0</ele><time>2026-04-06T08:18:55.301Z</time></trkpt><trkpt lat="43.945512" lon="11.2104266"><ele>450.0</ele><time>2026-04-06T08:18:56.323Z</time></trkpt><trkpt lat="43.9455324" lon="11.2105498"><ele>450.0</ele><time>2026-04-06T08:18:57.284Z</time></trkpt><trkpt lat="43.9455528" lon="11.2106756"><ele>450.0</ele><time>2026-04-06T08:18:58.311Z</time></trkpt><trkpt lat="43.9455786" lon="11.2108013"><ele>450.0</ele><time>2026-04-06T08:18:59.315Z</time></trkpt><trkpt lat="43.9456053" lon="11.2109336"><ele>450.0</ele><time>2026-04-06T08:19:00.354Z</time></trkpt><trkpt lat="43.9456337" lon="11.2110621"><ele>450.0</ele><time>2026-04-06T08:19:01.312Z</time></trkpt><trkpt lat="43.9456589" lon="11.2111982"><ele>450.0</ele><time>2026-04-06T08:19:02.31Z</time></trkpt><trkpt lat="43.9456845" lon="11.2113319"><ele>450.0</ele><time>2026-04-06T08:19:03.294Z</time></trkpt><trkpt lat="43.9457058" lon="11.2114634"><ele>450.0</ele><time>2026-04-06T08:19:04.304Z</time></trkpt><trkpt lat="43.9457252" lon="11.2115855"><ele>449.6</ele><time>2026-04-06T08:19:05.306Z</time></trkpt><trkpt lat="43.9457257" lon="11.2117053"><ele>449.2</ele><time>2026-04-06T08:19:06.291Z</time></trkpt><trkpt lat="43.9457193" lon="11.2118319"><ele>448.79999999999995</ele><time>2026-04-06T08:19:07.302Z</time></trkpt><trkpt lat="43.9456983" lon="11.2119585"><ele>448.4</ele><time>2026-04-06T08:19:08.312Z</time></trkpt><trkpt lat="43.9456797" lon="11.2120797"><ele>448.0</ele><time>2026-04-06T08:19:09.317Z</time></trkpt><trkpt lat="43.9456643" lon="11.2122136"><ele>446.59999999999997</ele><time>2026-04-06T08:19:10.305Z</time></trkpt><trkpt lat="43.9456499" lon="11.2123466"><ele>445.19999999999993</ele><time>2026-04-06T08:19:11.302Z</time></trkpt><trkpt lat="43.9456289" lon="11.2124742"><ele>443.8</ele><time>2026-04-06T08:19:12.311Z</time></trkpt><trkpt lat="43.9456053" lon="11.2125958"><ele>442.4</ele><time>2026-04-06T08:19:13.337Z</time></trkpt><trkpt lat="43.945583" lon="11.2127136"><ele>441.0</ele><time>2026-04-06T08:19:14.316Z</time></trkpt><trkpt lat="43.9455645" lon="11.2128337"><ele>441.0</ele><time>2026-04-06T08:19:15.311Z</time></trkpt><trkpt lat="43.945555" lon="11.2129509"><ele>441.0</ele><time>2026-04-06T08:19:16.305Z</time></trkpt><trkpt lat="43.9455444" lon="11.2130615"><ele>441.0</ele><time>2026-04-06T08:19:17.303Z</time></trkpt><trkpt lat="43.9455332" lon="11.2131623"><ele>441.0</ele><time>2026-04-06T08:19:18.313Z</time></trkpt><trkpt lat="43.9455223" lon="11.2132555"><ele>441.0</ele><time>2026-04-06T08:19:19.308Z</time></trkpt><trkpt lat="43.9455087" lon="11.2133926"><ele>441.0</ele><time>2026-04-06T08:19:21.31Z</time></trkpt><trkpt lat="43.9454946" lon="11.2134973"><ele>439.0</ele><time>2026-04-06T08:19:24.309Z</time></trkpt><trkpt lat="43.9454379" lon="11.2135602"><ele>437.0</ele><time>2026-04-06T08:19:26.316Z</time></trkpt><trkpt lat="43.9453497" lon="11.2135981"><ele>435.0</ele><time>2026-04-06T08:19:28.309Z</time></trkpt><trkpt lat="43.9452564" lon="11.2136221"><ele>433.0</ele><time>2026-04-06T08:19:30.321Z</time></trkpt><trkpt lat="43.9451703" lon="11.2136385"><ele>431.0</ele><time>2026-04-06T08:19:32.313Z</time></trkpt><trkpt lat="43.945125" lon="11.213731"><ele>429.0</ele><time>2026-04-06T08:19:36.329Z</time></trkpt><trkpt lat="43.9451087" lon="11.2138293"><ele>429.0</ele><time>2026-04-06T08:19:39.318Z</time></trkpt><trkpt lat="43.945152" lon="11.2139101"><ele>429.0</ele><time>2026-04-06T08:19:42.313Z</time></trkpt><trkpt lat="43.9452089" lon="11.2139747"><ele>429.0</ele><time>2026-04-06T08:19:45.309Z</time></trkpt><trkpt lat="43.9452606" lon="11.2140386"><ele>429.0</ele><time>2026-04-06T08:19:48.313Z</time></trkpt><trkpt lat="43.9453186" lon="11.2140924"><ele>429.0</ele><time>2026-04-06T08:19:51.324Z</time></trkpt><trkpt lat="43.9453808" lon="11.2141106"><ele>429.0</ele><time>2026-04-06T08:19:54.312Z</time></trkpt><trkpt lat="43.9454525" lon="11.2141053"><ele>429.0</ele><time>2026-04-06T08:19:57.308Z</time></trkpt><trkpt lat="43.9455224" lon="11.214107"><ele>429.0</ele><time>2026-04-06T08:20:00.314Z</time></trkpt><trkpt lat="43.9455959" lon="11.2141067"><ele>429.0</ele><time>2026-04-06T08:20:03.319Z</time></trkpt><trkpt lat="43.9456456" lon="11.2140478"><ele>429.0</ele><time>2026-04-06T08:21:10.313Z</time></trkpt><trkpt lat="43.945674" lon="11.2139313"><ele>429.0</ele><time>2026-04-06T08:21:14.306Z</time></trkpt><trkpt lat="43.9457088" lon="11.2138543"><ele>429.0</ele><time>2026-04-06T08:21:16.31Z</time></trkpt><trkpt lat="43.9457627" lon="11.2137609"><ele>429.0</ele><time>2026-04-06T08:21:19.302Z</time></trkpt><trkpt lat="43.9458135" lon="11.2136783"><ele>427.42857142857144</ele><time>2026-04-06T08:21:23.304Z</time></trkpt><trkpt lat="43.9458787" lon="11.2136535"><ele>425.8571428571429</ele><time>2026-04-06T08:21:27.309Z</time></trkpt><trkpt lat="43.9459278" lon="11.2135892"><ele>424.2857142857143</ele><time>2026-04-06T08:23:10.311Z</time></trkpt><trkpt lat="43.9459822" lon="11.2136368"><ele>422.7142857142857</ele><time>2026-04-06T08:24:00.322Z</time></trkpt><trkpt lat="43.9460495" lon="11.213671"><ele>421.1428571428571</ele><time>2026-04-06T08:24:28.303Z</time></trkpt><trkpt lat="43.9461271" lon="11.2136842"><ele>419.57142857142856</ele><time>2026-04-06T08:26:48.278Z</time></trkpt><trkpt lat="43.9461919" lon="11.2137205"><ele>418.0</ele><time>2026-04-06T08:27:09.286Z</time></trkpt><trkpt lat="43.94615" lon="11.2136393"><ele>418.00000000000006</ele><time>2026-04-06T08:28:38.293Z</time></trkpt><trkpt lat="43.9460893" lon="11.2135459"><ele>418.0</ele><time>2026-04-06T08:28:40.284Z</time></trkpt><trkpt lat="43.9460169" lon="11.2135419"><ele>418.0</ele><time>2026-04-06T08:28:43.29Z</time></trkpt><trkpt lat="43.9459493" lon="11.2135954"><ele>418.0</ele><time>2026-04-06T08:29:28.296Z</time></trkpt><trkpt lat="43.9458769" lon="11.213683"><ele>418.00000000000006</ele><time>2026-04-06T08:30:11.276Z</time></trkpt><trkpt lat="43.9458112" lon="11.2137022"><ele>418.0</ele><time>2026-04-06T08:30:46.282Z</time></trkpt><trkpt lat="43.9457443" lon="11.2137315"><ele>419.57142857142856</ele><time>2026-04-06T08:30:49.289Z</time></trkpt><trkpt lat="43.9456761" lon="11.2137395"><ele>421.1428571428571</ele><time>2026-04-06T08:30:52.296Z</time></trkpt><trkpt lat="43.9456068" lon="11.213801"><ele>422.7142857142857</ele><time>2026-04-06T08:30:56.292Z</time></trkpt><trkpt lat="43.9455427" lon="11.213851"><ele>424.2857142857143</ele><time>2026-04-06T08:31:00.295Z</time></trkpt><trkpt lat="43.9454722" lon="11.2138703"><ele>425.8571428571429</ele><time>2026-04-06T08:31:04.288Z</time></trkpt><trkpt lat="43.9453975" lon="11.2138343"><ele>427.42857142857144</ele><time>2026-04-06T08:31:08.296Z</time></trkpt><trkpt lat="43.9453393" lon="11.2137989"><ele>429.0</ele><time>2026-04-06T08:31:12.292Z</time></trkpt><trkpt lat="43.9452392" lon="11.2137986"><ele>429.0</ele><time>2026-04-06T08:31:51.287Z</time></trkpt><trkpt lat="43.9451696" lon="11.2137264"><ele>429.0</ele><time>2026-04-06T08:31:54.291Z</time></trkpt><trkpt lat="43.9452128" lon="11.2136546"><ele>429.0</ele><time>2026-04-06T08:31:58.274Z</time></trkpt><trkpt lat="43.9452785" lon="11.2136431"><ele>429.0</ele><time>2026-04-06T08:32:01.291Z</time></trkpt><trkpt lat="43.9453505" lon="11.2136135"><ele>429.0</ele><time>2026-04-06T08:32:05.277Z</time></trkpt><trkpt lat="43.945418" lon="11.2135993"><ele>429.0</ele><time>2026-04-06T08:32:09.28Z</time></trkpt><trkpt lat="43.9454864" lon="11.21355"><ele>429.0</ele><time>2026-04-06T08:32:14.29Z</time></trkpt><trkpt lat="43.9455323" lon="11.2134848"><ele>429.0</ele><time>2026-04-06T08:32:18.294Z</time></trkpt><trkpt lat="43.9455321" lon="11.2133949"><ele>429.0</ele><time>2026-04-06T08:32:22.298Z</time></trkpt><trkpt lat="43.9455296" lon="11.2132968"><ele>429.0</ele><time>2026-04-06T08:32:27.276Z</time></trkpt><trkpt lat="43.9455358" lon="11.2132096"><ele>429.0</ele><time>2026-04-06T08:32:31.281Z</time></trkpt><trkpt lat="43.9455402" lon="11.2131019"><ele>429.0</ele><time>2026-04-06T08:32:36.288Z</time></trkpt><trkpt lat="43.9455453" lon="11.2129933"><ele>429.0</ele><time>2026-04-06T08:32:41.29Z</time></trkpt><trkpt lat="43.945554" lon="11.2129067"><ele>429.0</ele><time>2026-04-06T08:32:46.296Z</time></trkpt><trkpt lat="43.9455702" lon="11.2128199"><ele>431.0</ele><time>2026-04-06T08:32:51.281Z</time></trkpt><trkpt lat="43.94558" lon="11.2127169"><ele>433.0</ele><time>2026-04-06T08:32:56.29Z</time></trkpt><trkpt lat="43.9455907" lon="11.2126297"><ele>435.0</ele><time>2026-04-06T08:33:02.287Z</time></trkpt><trkpt lat="43.9455868" lon="11.2124873"><ele>437.0</ele><time>2026-04-06T08:33:07.288Z</time></trkpt><trkpt lat="43.9456003" lon="11.2123856"><ele>439.0</ele><time>2026-04-06T08:33:12.278Z</time></trkpt><trkpt lat="43.9456268" lon="11.2122991"><ele>441.0</ele><time>2026-04-06T08:33:16.279Z</time></trkpt><trkpt lat="43.945644" lon="11.2122084"><ele>442.0</ele><time>2026-04-06T08:33:21.279Z</time></trkpt><trkpt lat="43.9456584" lon="11.2121158"><ele>443.0</ele><time>2026-04-06T08:33:25.298Z</time></trkpt><trkpt lat="43.9456713" lon="11.2120124"><ele>444.0</ele><time>2026-04-06T08:33:30.295Z</time></trkpt><trkpt lat="43.9456987" lon="11.2119314"><ele>445.0</ele><time>2026-04-06T08:33:33.284Z</time></trkpt><trkpt lat="43.9457162" lon="11.211834"><ele>446.0</ele><time>2026-04-06T08:33:39.283Z</time></trkpt><trkpt lat="43.9457278" lon="11.2117257"><ele>447.0</ele><time>2026-04-06T08:33:44.293Z</time></trkpt><trkpt lat="43.9457318" lon="11.2116219"><ele>448.0</ele><time>2026-04-06T08:33:49.291Z</time></trkpt><trkpt lat="43.9457327" lon="11.2115308"><ele>448.2857142857143</ele><time>2026-04-06T08:33:53.297Z</time></trkpt><trkpt lat="43.9457409" lon="11.211419"><ele>448.57142857142856</ele><time>2026-04-06T08:33:57.289Z</time></trkpt><trkpt lat="43.9457363" lon="11.2113309"><ele>448.8571428571429</ele><time>2026-04-06T08:34:00.281Z</time></trkpt><trkpt lat="43.9457147" lon="11.211235"><ele>449.14285714285717</ele><time>2026-04-06T08:34:03.288Z</time></trkpt><trkpt lat="43.9456977" lon="11.2111483"><ele>449.42857142857144</ele><time>2026-04-06T08:34:06.288Z</time></trkpt><trkpt lat="43.9456847" lon="11.2110308"><ele>449.7142857142858</ele><time>2026-04-06T08:34:10.303Z</time></trkpt><trkpt lat="43.9456706" lon="11.2109441"><ele>450.00000000000006</ele><time>2026-04-06T08:34:13.291Z</time></trkpt><trkpt lat="43.9456527" lon="11.2108553"><ele>450.0</ele><time>2026-04-06T08:34:17.288Z</time></trkpt><trkpt lat="43.9456321" lon="11.210756"><ele>450.0</ele><time>2026-04-06T08:34:21.277Z</time></trkpt><trkpt lat="43.945621" lon="11.2106567"><ele>450.0</ele><time>2026-04-06T08:34:24.292Z</time></trkpt><trkpt lat="43.945603" lon="11.2105501"><ele>450.0</ele><time>2026-04-06T08:34:28.287Z</time></trkpt><trkpt lat="43.9455809" lon="11.2104423"><ele>450.0</ele><time>2026-04-06T08:34:32.288Z</time></trkpt><trkpt lat="43.9455706" lon="11.2103356"><ele>450.0</ele><time>2026-04-06T08:34:36.29Z</time></trkpt><trkpt lat="43.9455554" lon="11.2102412"><ele>450.00000000000006</ele><time>2026-04-06T08:34:40.28Z</time></trkpt><trkpt lat="43.9455374" lon="11.2101533"><ele>450.0</ele><time>2026-04-06T08:34:43.289Z</time></trkpt><trkpt lat="43.9455138" lon="11.210064"><ele>450.00000000000006</ele><time>2026-04-06T08:34:46.28Z</time></trkpt><trkpt lat="43.9454853" lon="11.2099594"><ele>450.00000000000006</ele><time>2026-04-06T08:34:50.284Z</time></trkpt><trkpt lat="43.9454708" lon="11.2098464"><ele>450.0</ele><time>2026-04-06T08:34:54.28Z</time></trkpt><trkpt lat="43.9454542" lon="11.2097382"><ele>450.00000000000006</ele><time>2026-04-06T08:34:58.273Z</time></trkpt><trkpt lat="43.9454396" lon="11.2096437"><ele>450.00000000000006</ele><time>2026-04-06T08:35:01.277Z</time></trkpt><trkpt lat="43.9454284" lon="11.2095484"><ele>450.00000000000006</ele><time>2026-04-06T08:35:04.279Z</time></trkpt><trkpt lat="43.9453991" lon="11.2094587"><ele>450.0</ele><time>2026-04-06T08:35:07.291Z</time></trkpt><trkpt lat="43.9453738" lon="11.209354"><ele>450.00000000000006</ele><time>2026-04-06T08:35:11.277Z</time></trkpt><trkpt lat="43.9453419" lon="11.20927"><ele>450.00000000000006</ele><time>2026-04-06T08:35:14.287Z</time></trkpt><trkpt lat="43.9453072" lon="11.2091887"><ele>450.0</ele><time>2026-04-06T08:35:17.293Z</time></trkpt><trkpt lat="43.9452686" lon="11.2091103"><ele>450.00000000000006</ele><time>2026-04-06T08:35:20.294Z</time></trkpt><trkpt lat="43.945229" lon="11.2090133"><ele>450.00000000000006</ele><time>2026-04-06T08:35:23.276Z</time></trkpt><trkpt lat="43.9451803" lon="11.2089232"><ele>450.1428571428572</ele><time>2026-04-06T08:35:26.289Z</time></trkpt><trkpt lat="43.9451358" lon="11.2088303"><ele>450.28571428571433</ele><time>2026-04-06T08:35:29.283Z</time></trkpt><trkpt lat="43.9451017" lon="11.2087491"><ele>450.42857142857144</ele><time>2026-04-06T08:35:32.281Z</time></trkpt><trkpt lat="43.9450706" lon="11.2086427"><ele>450.5714285714286</ele><time>2026-04-06T08:35:36.29Z</time></trkpt><trkpt lat="43.945045" lon="11.2085523"><ele>450.7142857142858</ele><time>2026-04-06T08:35:39.291Z</time></trkpt><trkpt lat="43.9450271" lon="11.2084579"><ele>450.85714285714283</ele><time>2026-04-06T08:35:42.284Z</time></trkpt><trkpt lat="43.9450172" lon="11.2083577"><ele>451.0</ele><time>2026-04-06T08:35:45.293Z</time></trkpt><trkpt lat="43.9450146" lon="11.2082502"><ele>453.42857142857144</ele><time>2026-04-06T08:35:48.278Z</time></trkpt><trkpt lat="43.9450202" lon="11.2081431"><ele>455.8571428571429</ele><time>2026-04-06T08:35:51.289Z</time></trkpt><trkpt lat="43.9450175" lon="11.2080406"><ele>458.28571428571433</ele><time>2026-04-06T08:35:54.279Z</time></trkpt><trkpt lat="43.9450187" lon="11.2079407"><ele>460.7142857142857</ele><time>2026-04-06T08:35:57.288Z</time></trkpt><trkpt lat="43.9450236" lon="11.2078245"><ele>463.1428571428572</ele><time>2026-04-06T08:36:00.289Z</time></trkpt><trkpt lat="43.9450227" lon="11.2077299"><ele>465.5714285714286</ele><time>2026-04-06T08:36:03.292Z</time></trkpt><trkpt lat="43.9450155" lon="11.207631"><ele>468.0</ele><time>2026-04-06T08:36:06.291Z</time></trkpt><trkpt lat="43.9450046" lon="11.207517"><ele>468.0</ele><time>2026-04-06T08:36:09.285Z</time></trkpt><trkpt lat="43.9449994" lon="11.2074214"><ele>468.00000000000006</ele><time>2026-04-06T08:36:12.294Z</time></trkpt><trkpt lat="43.9449915" lon="11.207321"><ele>468.0</ele><time>2026-04-06T08:36:16.275Z</time></trkpt><trkpt lat="43.9449816" lon="11.2072179"><ele>468.0</ele><time>2026-04-06T08:36:21.287Z</time></trkpt><trkpt lat="43.9449659" lon="11.2071274"><ele>468.00000000000006</ele><time>2026-04-06T08:36:25.289Z</time></trkpt><trkpt lat="43.9449621" lon="11.2070294"><ele>468.0</ele><time>2026-04-06T08:36:30.293Z</time></trkpt><trkpt lat="43.9449575" lon="11.2069336"><ele>468.0</ele><time>2026-04-06T08:36:36.291Z</time></trkpt><trkpt lat="43.9449536" lon="11.206836"><ele>469.5714285714286</ele><time>2026-04-06T08:36:41.295Z</time></trkpt><trkpt lat="43.9449408" lon="11.2067388"><ele>471.1428571428572</ele><time>2026-04-06T08:36:46.285Z</time></trkpt><trkpt lat="43.9449335" lon="11.2066418"><ele>472.7142857142857</ele><time>2026-04-06T08:36:52.288Z</time></trkpt><trkpt lat="43.9449355" lon="11.2065442"><ele>474.28571428571433</ele><time>2026-04-06T08:36:58.285Z</time></trkpt><trkpt lat="43.9449259" lon="11.2064483"><ele>475.8571428571429</ele><time>2026-04-06T08:37:04.274Z</time></trkpt><trkpt lat="43.9449173" lon="11.2063602"><ele>477.42857142857144</ele><time>2026-04-06T08:37:09.286Z</time></trkpt><trkpt lat="43.9449163" lon="11.2062617"><ele>479.0</ele><time>2026-04-06T08:37:13.274Z</time></trkpt><trkpt lat="43.944911" lon="11.2061735"><ele>480.8333333333333</ele><time>2026-04-06T08:37:19.286Z</time></trkpt><trkpt lat="43.9449247" lon="11.2060753"><ele>482.66666666666663</ele><time>2026-04-06T08:37:25.284Z</time></trkpt><trkpt lat="43.9449344" lon="11.2059747"><ele>484.5</ele><time>2026-04-06T08:37:30.281Z</time></trkpt><trkpt lat="43.9449609" lon="11.2058736"><ele>486.33333333333337</ele><time>2026-04-06T08:37:36.288Z</time></trkpt><trkpt lat="43.9449819" lon="11.2057784"><ele>488.1666666666667</ele><time>2026-04-06T08:37:41.293Z</time></trkpt><trkpt lat="43.9449956" lon="11.2056735"><ele>490.0</ele><time>2026-04-06T08:37:46.273Z</time></trkpt><trkpt lat="43.944998" lon="11.2055637"><ele>490.1666666666667</ele><time>2026-04-06T08:37:51.293Z</time></trkpt><trkpt lat="43.9449915" lon="11.2054647"><ele>490.33333333333337</ele><time>2026-04-06T08:37:55.29Z</time></trkpt><trkpt lat="43.9449808" lon="11.2053691"><ele>490.5</ele><time>2026-04-06T08:37:59.287Z</time></trkpt><trkpt lat="43.9449621" lon="11.2052676"><ele>490.66666666666663</ele><time>2026-04-06T08:38:04.283Z</time></trkpt><trkpt lat="43.9449561" lon="11.2051624"><ele>490.8333333333333</ele><time>2026-04-06T08:38:08.274Z</time></trkpt><trkpt lat="43.9449215" lon="11.2050595"><ele>491.0</ele><time>2026-04-06T08:38:12.286Z</time></trkpt><trkpt lat="43.9449036" lon="11.2049385"><ele>490.99999999999994</ele><time>2026-04-06T08:38:15.287Z</time></trkpt><trkpt lat="43.9448803" lon="11.2048368"><ele>491.0</ele><time>2026-04-06T08:38:17.292Z</time></trkpt><trkpt lat="43.9448513" lon="11.2047087"><ele>491.0</ele><time>2026-04-06T08:38:19.289Z</time></trkpt><trkpt lat="43.9448264" lon="11.2045398"><ele>491.0</ele><time>2026-04-06T08:38:21.28Z</time></trkpt><trkpt lat="43.9448301" lon="11.2044458"><ele>490.99999999999994</ele><time>2026-04-06T08:38:22.288Z</time></trkpt><trkpt lat="43.9448389" lon="11.2043497"><ele>491.0</ele><time>2026-04-06T08:38:23.29Z</time></trkpt><trkpt lat="43.9448569" lon="11.2042562"><ele>490.99999999999994</ele><time>2026-04-06T08:38:24.282Z</time></trkpt><trkpt lat="43.9448809" lon="11.2041611"><ele>491.0</ele><time>2026-04-06T08:38:25.284Z</time></trkpt><trkpt lat="43.9449041" lon="11.2040759"><ele>491.0</ele><time>2026-04-06T08:38:26.28Z</time></trkpt><trkpt lat="43.9449667" lon="11.2039593"><ele>491.0</ele><time>2026-04-06T08:38:28.281Z</time></trkpt><trkpt lat="43.9450124" lon="11.2038799"><ele>490.99999999999994</ele><time>2026-04-06T08:38:30.286Z</time></trkpt><trkpt lat="43.9450484" lon="11.2037968"><ele>491.0</ele><time>2026-04-06T08:38:33.29Z</time></trkpt><trkpt lat="43.9450911" lon="11.2037277"><ele>490.99999999999994</ele><time>2026-04-06T08:38:36.283Z</time></trkpt><trkpt lat="43.9451376" lon="11.2036364"><ele>491.0</ele><time>2026-04-06T08:38:40.284Z</time></trkpt><trkpt lat="43.9451877" lon="11.2035483"><ele>491.0</ele><time>2026-04-06T08:38:44.286Z</time></trkpt><trkpt lat="43.9452309" lon="11.2034488"><ele>491.0</ele><time>2026-04-06T08:38:48.281Z</time></trkpt><trkpt lat="43.9452562" lon="11.2033651"><ele>490.99999999999994</ele><time>2026-04-06T08:38:51.284Z</time></trkpt><trkpt lat="43.9452456" lon="11.2032532"><ele>491.0</ele><time>2026-04-06T08:38:55.282Z</time></trkpt><trkpt lat="43.9452025" lon="11.2031603"><ele>490.0</ele><time>2026-04-06T08:38:59.292Z</time></trkpt><trkpt lat="43.9451598" lon="11.203083"><ele>488.99999999999994</ele><time>2026-04-06T08:39:02.293Z</time></trkpt><trkpt lat="43.9451241" lon="11.2030098"><ele>488.0</ele><time>2026-04-06T08:39:05.296Z</time></trkpt><trkpt lat="43.9450778" lon="11.2029304"><ele>487.0</ele><time>2026-04-06T08:39:08.282Z</time></trkpt><trkpt lat="43.9450439" lon="11.2028477"><ele>485.99999999999994</ele><time>2026-04-06T08:39:11.29Z</time></trkpt><trkpt lat="43.9450151" lon="11.2027571"><ele>485.0</ele><time>2026-04-06T08:39:15.303Z</time></trkpt><trkpt lat="43.9450213" lon="11.202653"><ele>484.0</ele><time>2026-04-06T08:39:19.285Z</time></trkpt><trkpt lat="43.9450421" lon="11.2025547"><ele>484.0</ele><time>2026-04-06T08:39:23.279Z</time></trkpt><trkpt lat="43.9450807" lon="11.2024558"><ele>483.99999999999994</ele><time>2026-04-06T08:39:27.288Z</time></trkpt><trkpt lat="43.9451225" lon="11.2023722"><ele>484.0</ele><time>2026-04-06T08:39:31.295Z</time></trkpt><trkpt lat="43.9451429" lon="11.2022867"><ele>484.0</ele><time>2026-04-06T08:39:35.283Z</time></trkpt><trkpt lat="43.9451481" lon="11.2021989"><ele>483.99999999999994</ele><time>2026-04-06T08:39:38.295Z</time></trkpt><trkpt lat="43.9451485" lon="11.2021002"><ele>484.0</ele><time>2026-04-06T08:39:41.293Z</time></trkpt><trkpt lat="43.9451412" lon="11.2020064"><ele>484.0</ele><time>2026-04-06T08:39:44.292Z</time></trkpt><trkpt lat="43.9451128" lon="11.2019151"><ele>483.1428571428571</ele><time>2026-04-06T08:39:47.284Z</time></trkpt><trkpt lat="43.9450692" lon="11.2018353"><ele>482.2857142857142</ele><time>2026-04-06T08:39:50.289Z</time></trkpt><trkpt lat="43.9450105" lon="11.2017608"><ele>481.42857142857144</ele><time>2026-04-06T08:39:52.29Z</time></trkpt><trkpt lat="43.9449521" lon="11.2016922"><ele>480.57142857142856</ele><time>2026-04-06T08:39:54.303Z</time></trkpt><trkpt lat="43.9448973" lon="11.2016269"><ele>479.7142857142857</ele><time>2026-04-06T08:39:56.287Z</time></trkpt><trkpt lat="43.9448486" lon="11.201569"><ele>478.8571428571429</ele><time>2026-04-06T08:39:58.29Z</time></trkpt><trkpt lat="43.9447864" lon="11.2014936"><ele>478.00000000000006</ele><time>2026-04-06T08:40:01.286Z</time></trkpt><trkpt lat="43.9447266" lon="11.2014267"><ele>481.1666666666667</ele><time>2026-04-06T08:40:04.289Z</time></trkpt><trkpt lat="43.9446527" lon="11.2013661"><ele>484.33333333333337</ele><time>2026-04-06T08:40:07.282Z</time></trkpt><trkpt lat="43.9445878" lon="11.2013032"><ele>487.5</ele><time>2026-04-06T08:40:10.292Z</time></trkpt><trkpt lat="43.9445277" lon="11.2012092"><ele>490.66666666666663</ele><time>2026-04-06T08:40:13.291Z</time></trkpt><trkpt lat="43.9444859" lon="11.2011154"><ele>493.8333333333333</ele><time>2026-04-06T08:40:16.289Z</time></trkpt><trkpt lat="43.9444966" lon="11.2010151"><ele>497.0</ele><time>2026-04-06T08:40:19.282Z</time></trkpt><trkpt lat="43.9445091" lon="11.2009087"><ele>497.0</ele><time>2026-04-06T08:40:22.279Z</time></trkpt><trkpt lat="43.9445186" lon="11.2008076"><ele>497.0</ele><time>2026-04-06T08:40:25.294Z</time></trkpt><trkpt lat="43.9445242" lon="11.2007109"><ele>497.0</ele><time>2026-04-06T08:40:28.291Z</time></trkpt><trkpt lat="43.9445314" lon="11.200613"><ele>497.0</ele><time>2026-04-06T08:40:32.288Z</time></trkpt><trkpt lat="43.9445422" lon="11.2005177"><ele>497.0</ele><time>2026-04-06T08:40:36.293Z</time></trkpt><trkpt lat="43.9445436" lon="11.2004125"><ele>497.0</ele><time>2026-04-06T08:40:41.303Z</time></trkpt><trkpt lat="43.9445507" lon="11.2003124"><ele>497.0</ele><time>2026-04-06T08:40:46.293Z</time></trkpt><trkpt lat="43.9445521" lon="11.2002138"><ele>497.0</ele><time>2026-04-06T08:40:51.28Z</time></trkpt><trkpt lat="43.9445415" lon="11.2001244"><ele>497.0</ele><time>2026-04-06T08:40:56.287Z</time></trkpt><trkpt lat="43.9445169" lon="11.2000389"><ele>497.0</ele><time>2026-04-06T08:41:00.283Z</time></trkpt><trkpt lat="43.9444908" lon="11.1999509"><ele>497.0</ele><time>2026-04-06T08:41:04.286Z</time></trkpt><trkpt lat="43.9444892" lon="11.1998516"><ele>497.0</ele><time>2026-04-06T08:41:09.289Z</time></trkpt><trkpt lat="43.9445118" lon="11.199755"><ele>497.0</ele><time>2026-04-06T08:41:14.29Z</time></trkpt><trkpt lat="43.9445409" lon="11.1996619"><ele>497.0</ele><time>2026-04-06T08:41:17.294Z</time></trkpt><trkpt lat="43.9445686" lon="11.1995661"><ele>496.99999999999994</ele><time>2026-04-06T08:41:19.289Z</time></trkpt><trkpt lat="43.944598" lon="11.199465"><ele>497.0</ele><time>2026-04-06T08:41:21.278Z</time></trkpt><trkpt lat="43.9446237" lon="11.1993711"><ele>497.0</ele><time>2026-04-06T08:41:23.293Z</time></trkpt><trkpt lat="43.9446421" lon="11.1992824"><ele>497.0</ele><time>2026-04-06T08:41:25.293Z</time></trkpt><trkpt lat="43.9446638" lon="11.19918"><ele>496.99999999999994</ele><time>2026-04-06T08:41:28.284Z</time></trkpt><trkpt lat="43.9446908" lon="11.199066"><ele>497.0</ele><time>2026-04-06T08:41:31.285Z</time></trkpt><trkpt lat="43.9446875" lon="11.1989294"><ele>496.6</ele><time>2026-04-06T08:41:34.293Z</time></trkpt><trkpt lat="43.9446538" lon="11.1987973"><ele>496.20000000000005</ele><time>2026-04-06T08:41:36.287Z</time></trkpt><trkpt lat="43.9446129" lon="11.1986603"><ele>495.8</ele><time>2026-04-06T08:41:38.287Z</time></trkpt><trkpt lat="43.9445642" lon="11.1985063"><ele>495.4</ele><time>2026-04-06T08:41:40.28Z</time></trkpt><trkpt lat="43.9445374" lon="11.1983542"><ele>495.0</ele><time>2026-04-06T08:41:42.288Z</time></trkpt><trkpt lat="43.944521" lon="11.1982041"><ele>497.1666666666667</ele><time>2026-04-06T08:41:44.297Z</time></trkpt><trkpt lat="43.9445052" lon="11.198063"><ele>499.33333333333337</ele><time>2026-04-06T08:41:46.286Z</time></trkpt><trkpt lat="43.9444738" lon="11.1979542"><ele>501.5</ele><time>2026-04-06T08:41:48.277Z</time></trkpt><trkpt lat="43.9444433" lon="11.1978733"><ele>503.6666666666667</ele><time>2026-04-06T08:41:51.284Z</time></trkpt><trkpt lat="43.9444035" lon="11.197779"><ele>505.83333333333337</ele><time>2026-04-06T08:41:55.288Z</time></trkpt><trkpt lat="43.9443599" lon="11.1977074"><ele>508.0</ele><time>2026-04-06T08:41:59.274Z</time></trkpt><trkpt lat="43.9443024" lon="11.1976423"><ele>508.0</ele><time>2026-04-06T08:42:04.281Z</time></trkpt><trkpt lat="43.9442567" lon="11.1975699"><ele>508.0</ele><time>2026-04-06T08:42:09.286Z</time></trkpt><trkpt lat="43.9442327" lon="11.1974756"><ele>508.0</ele><time>2026-04-06T08:42:13.302Z</time></trkpt><trkpt lat="43.9442158" lon="11.1973682"><ele>508.0</ele><time>2026-04-06T08:42:19.303Z</time></trkpt><trkpt lat="43.9441951" lon="11.1972738"><ele>508.0</ele><time>2026-04-06T08:42:25.288Z</time></trkpt><trkpt lat="43.9441856" lon="11.1971782"><ele>508.0</ele><time>2026-04-06T08:42:30.289Z</time></trkpt><trkpt lat="43.9441783" lon="11.1970906"><ele>508.0</ele><time>2026-04-06T08:42:34.277Z</time></trkpt><trkpt lat="43.9441758" lon="11.1969974"><ele>510.14285714285717</ele><time>2026-04-06T08:42:38.289Z</time></trkpt><trkpt lat="43.9441775" lon="11.1969017"><ele>512.2857142857142</ele><time>2026-04-06T08:42:42.287Z</time></trkpt><trkpt lat="43.9441424" lon="11.1968265"><ele>514.4285714285713</ele><time>2026-04-06T08:44:03.277Z</time></trkpt><trkpt lat="43.9441199" lon="11.1967314"><ele>516.5714285714286</ele><time>2026-04-06T08:44:06.28Z</time></trkpt><trkpt lat="43.9440964" lon="11.1966478"><ele>518.7142857142857</ele><time>2026-04-06T08:44:08.283Z</time></trkpt><trkpt lat="43.9440698" lon="11.1965594"><ele>520.8571428571428</ele><time>2026-04-06T08:44:11.287Z</time></trkpt><trkpt lat="43.9440428" lon="11.1964712"><ele>523.0</ele><time>2026-04-06T08:44:14.275Z</time></trkpt><trkpt lat="43.9439938" lon="11.1963798"><ele>525.1666666666667</ele><time>2026-04-06T08:44:18.29Z</time></trkpt><trkpt lat="43.9439251" lon="11.1963027"><ele>527.3333333333334</ele><time>2026-04-06T08:44:22.28Z</time></trkpt><trkpt lat="43.943867" lon="11.1962422"><ele>529.5</ele><time>2026-04-06T08:44:25.289Z</time></trkpt><trkpt lat="43.9438078" lon="11.1961913"><ele>531.6666666666666</ele><time>2026-04-06T08:44:28.281Z</time></trkpt><trkpt lat="43.9437475" lon="11.1961527"><ele>533.8333333333333</ele><time>2026-04-06T08:44:31.27Z</time></trkpt><trkpt lat="43.9436791" lon="11.1960797"><ele>536.0</ele><time>2026-04-06T08:44:35.294Z</time></trkpt><trkpt lat="43.9436334" lon="11.19601"><ele>536.0</ele><time>2026-04-06T08:44:38.276Z</time></trkpt><trkpt lat="43.9435928" lon="11.1959326"><ele>536.0</ele><time>2026-04-06T08:44:41.284Z</time></trkpt><trkpt lat="43.9435477" lon="11.1958587"><ele>536.0</ele><time>2026-04-06T08:44:44.284Z</time></trkpt><trkpt lat="43.9434987" lon="11.1957986"><ele>536.0</ele><time>2026-04-06T08:44:48.296Z</time></trkpt><trkpt lat="43.9434474" lon="11.1957222"><ele>536.0</ele><time>2026-04-06T08:44:52.289Z</time></trkpt><trkpt lat="43.9434017" lon="11.1956593"><ele>536.0</ele><time>2026-04-06T08:44:56.28Z</time></trkpt><trkpt lat="43.9433474" lon="11.1955897"><ele>536.0</ele><time>2026-04-06T08:45:00.294Z</time></trkpt><trkpt lat="43.9432925" lon="11.1955314"><ele>535.2857142857143</ele><time>2026-04-06T08:45:06.29Z</time></trkpt><trkpt lat="43.9432542" lon="11.1954615"><ele>534.5714285714286</ele><time>2026-04-06T08:45:11.29Z</time></trkpt><trkpt lat="43.9432473" lon="11.1953489"><ele>533.8571428571429</ele><time>2026-04-06T08:45:16.299Z</time></trkpt><trkpt lat="43.94325" lon="11.1952406"><ele>533.1428571428571</ele><time>2026-04-06T08:45:22.283Z</time></trkpt><trkpt lat="43.9432643" lon="11.1951369"><ele>532.4285714285714</ele><time>2026-04-06T08:45:27.292Z</time></trkpt><trkpt lat="43.9432829" lon="11.1950528"><ele>531.7142857142858</ele><time>2026-04-06T08:45:32.278Z</time></trkpt><trkpt lat="43.9432981" lon="11.1949654"><ele>531.0</ele><time>2026-04-06T08:45:37.292Z</time></trkpt><trkpt lat="43.9433174" lon="11.1948694"><ele>531.8333333333334</ele><time>2026-04-06T08:45:42.296Z</time></trkpt><trkpt lat="43.943342" lon="11.1947737"><ele>532.6666666666666</ele><time>2026-04-06T08:45:46.287Z</time></trkpt><trkpt lat="43.9433373" lon="11.1946658"><ele>533.5</ele><time>2026-04-06T08:45:50.277Z</time></trkpt><trkpt lat="43.9432956" lon="11.1945847"><ele>534.3333333333333</ele><time>2026-04-06T08:45:54.289Z</time></trkpt><trkpt lat="43.9432471" lon="11.1945001"><ele>535.1666666666666</ele><time>2026-04-06T08:45:58.284Z</time></trkpt><trkpt lat="43.943228" lon="11.1944054"><ele>536.0</ele><time>2026-04-06T08:46:02.29Z</time></trkpt><trkpt lat="43.9432428" lon="11.1942909"><ele>536.0</ele><time>2026-04-06T08:46:06.28Z</time></trkpt><trkpt lat="43.9432535" lon="11.1941963"><ele>536.0</ele><time>2026-04-06T08:46:09.277Z</time></trkpt><trkpt lat="43.9432458" lon="11.1940994"><ele>536.0</ele><time>2026-04-06T08:46:12.294Z</time></trkpt><trkpt lat="43.9432297" lon="11.1939919"><ele>536.0</ele><time>2026-04-06T08:46:15.287Z</time></trkpt><trkpt lat="43.9431896" lon="11.1938927"><ele>536.0</ele><time>2026-04-06T08:46:17.291Z</time></trkpt><trkpt lat="43.9431196" lon="11.1938173"><ele>536.0</ele><time>2026-04-06T08:46:19.279Z</time></trkpt><trkpt lat="43.9430552" lon="11.1937476"><ele>537.4</ele><time>2026-04-06T08:46:21.283Z</time></trkpt><trkpt lat="43.9429839" lon="11.1936647"><ele>538.8</ele><time>2026-04-06T08:46:23.285Z</time></trkpt><trkpt lat="43.9429055" lon="11.1935749"><ele>540.1999999999999</ele><time>2026-04-06T08:46:25.294Z</time></trkpt><trkpt lat="43.9428167" lon="11.1934457"><ele>541.6</ele><time>2026-04-06T08:46:27.274Z</time></trkpt><trkpt lat="43.9427788" lon="11.1933711"><ele>543.0</ele><time>2026-04-06T08:46:28.284Z</time></trkpt><trkpt lat="43.9427514" lon="11.1932858"><ele>543.0</ele><time>2026-04-06T08:46:29.277Z</time></trkpt><trkpt lat="43.9427279" lon="11.1931939"><ele>543.0</ele><time>2026-04-06T08:46:30.283Z</time></trkpt><trkpt lat="43.942709" lon="11.1931018"><ele>543.0</ele><time>2026-04-06T08:46:31.287Z</time></trkpt><trkpt lat="43.9426902" lon="11.193018"><ele>543.0</ele><time>2026-04-06T08:46:32.284Z</time></trkpt><trkpt lat="43.9426504" lon="11.192866"><ele>543.0</ele><time>2026-04-06T08:46:34.283Z</time></trkpt><trkpt lat="43.9425963" lon="11.1927847"><ele>543.0</ele><time>2026-04-06T08:46:36.274Z</time></trkpt><trkpt lat="43.9425343" lon="11.1927423"><ele>540.6666666666666</ele><time>2026-04-06T08:46:39.285Z</time></trkpt><trkpt lat="43.9424737" lon="11.1926923"><ele>538.3333333333334</ele><time>2026-04-06T08:46:43.282Z</time></trkpt><trkpt lat="43.9424266" lon="11.1926213"><ele>536.0</ele><time>2026-04-06T08:46:47.287Z</time></trkpt><trkpt lat="43.9423799" lon="11.1925441"><ele>533.6666666666667</ele><time>2026-04-06T08:46:52.281Z</time></trkpt><trkpt lat="43.9423286" lon="11.1924571"><ele>531.3333333333334</ele><time>2026-04-06T08:46:55.282Z</time></trkpt><trkpt lat="43.9422822" lon="11.1923214"><ele>529.0</ele><time>2026-04-06T08:46:57.281Z</time></trkpt><trkpt lat="43.9422595" lon="11.1922243"><ele>529.0</ele><time>2026-04-06T08:46:58.287Z</time></trkpt><trkpt lat="43.942237" lon="11.1921107"><ele>529.0</ele><time>2026-04-06T08:46:59.29Z</time></trkpt><trkpt lat="43.9422096" lon="11.1920032"><ele>529.0</ele><time>2026-04-06T08:47:00.277Z</time></trkpt><trkpt lat="43.9421765" lon="11.1919013"><ele>529.0</ele><time>2026-04-06T08:47:01.289Z</time></trkpt><trkpt lat="43.9421593" lon="11.1918088"><ele>529.0</ele><time>2026-04-06T08:47:02.276Z</time></trkpt><trkpt lat="43.9421399" lon="11.1917099"><ele>529.0</ele><time>2026-04-06T08:47:03.293Z</time></trkpt><trkpt lat="43.9421317" lon="11.1916054"><ele>529.8333333333334</ele><time>2026-04-06T08:47:04.275Z</time></trkpt><trkpt lat="43.9421224" lon="11.1915022"><ele>530.6666666666667</ele><time>2026-04-06T08:47:05.29Z</time></trkpt><trkpt lat="43.9421178" lon="11.1914077"><ele>531.5</ele><time>2026-04-06T08:47:06.277Z</time></trkpt><trkpt lat="43.9421071" lon="11.1913164"><ele>532.3333333333334</ele><time>2026-04-06T08:47:07.282Z</time></trkpt><trkpt lat="43.9420744" lon="11.1911697"><ele>533.1666666666666</ele><time>2026-04-06T08:47:09.284Z</time></trkpt><trkpt lat="43.9420249" lon="11.1910539"><ele>534.0</ele><time>2026-04-06T08:47:11.287Z</time></trkpt><trkpt lat="43.9419453" lon="11.1909699"><ele>534.0000000000001</ele><time>2026-04-06T08:47:13.275Z</time></trkpt><trkpt lat="43.9418796" lon="11.1908907"><ele>534.0</ele><time>2026-04-06T08:47:15.286Z</time></trkpt><trkpt lat="43.9418414" lon="11.1908157"><ele>534.0</ele><time>2026-04-06T08:47:17.294Z</time></trkpt><trkpt lat="43.9418122" lon="11.1907291"><ele>534.0</ele><time>2026-04-06T08:47:19.276Z</time></trkpt><trkpt lat="43.9417966" lon="11.1906335"><ele>534.0</ele><time>2026-04-06T08:47:21.288Z</time></trkpt><trkpt lat="43.9417953" lon="11.1905356"><ele>534.0000000000001</ele><time>2026-04-06T08:47:23.292Z</time></trkpt><trkpt lat="43.9417952" lon="11.190436"><ele>534.0</ele><time>2026-04-06T08:47:25.289Z</time></trkpt><trkpt lat="43.9417868" lon="11.1903312"><ele>534.5714285714287</ele><time>2026-04-06T08:47:27.275Z</time></trkpt><trkpt lat="43.9417697" lon="11.190242"><ele>535.1428571428571</ele><time>2026-04-06T08:47:29.293Z</time></trkpt><trkpt lat="43.9417578" lon="11.1901426"><ele>535.7142857142858</ele><time>2026-04-06T08:47:32.289Z</time></trkpt><trkpt lat="43.9417462" lon="11.1900483"><ele>536.2857142857143</ele><time>2026-04-06T08:47:35.281Z</time></trkpt><trkpt lat="43.9417499" lon="11.189953"><ele>536.8571428571429</ele><time>2026-04-06T08:47:39.291Z</time></trkpt><trkpt lat="43.9417752" lon="11.1898713"><ele>537.4285714285714</ele><time>2026-04-06T08:47:43.285Z</time></trkpt><trkpt lat="43.9418129" lon="11.1897805"><ele>538.0</ele><time>2026-04-06T08:47:47.275Z</time></trkpt><trkpt lat="43.9418401" lon="11.1896709"><ele>538.8333333333334</ele><time>2026-04-06T08:47:51.296Z</time></trkpt><trkpt lat="43.9418498" lon="11.1895807"><ele>539.6666666666667</ele><time>2026-04-06T08:47:54.287Z</time></trkpt><trkpt lat="43.9418574" lon="11.1894717"><ele>540.5</ele><time>2026-04-06T08:47:58.281Z</time></trkpt><trkpt lat="43.9418535" lon="11.1893565"><ele>541.3333333333334</ele><time>2026-04-06T08:48:02.284Z</time></trkpt><trkpt lat="43.9418589" lon="11.1892692"><ele>542.1666666666666</ele><time>2026-04-06T08:48:05.283Z</time></trkpt><trkpt lat="43.9418836" lon="11.1891455"><ele>543.0</ele><time>2026-04-06T08:48:08.284Z</time></trkpt><trkpt lat="43.941896" lon="11.1890281"><ele>543.0</ele><time>2026-04-06T08:48:10.29Z</time></trkpt><trkpt lat="43.9418602" lon="11.1888841"><ele>543.0</ele><time>2026-04-06T08:48:12.295Z</time></trkpt><trkpt lat="43.9418184" lon="11.188804"><ele>543.0</ele><time>2026-04-06T08:48:13.279Z</time></trkpt><trkpt lat="43.9417674" lon="11.1887276"><ele>543.0</ele><time>2026-04-06T08:48:14.28Z</time></trkpt><trkpt lat="43.9417057" lon="11.1886464"><ele>543.0</ele><time>2026-04-06T08:48:15.282Z</time></trkpt><trkpt lat="43.9416264" lon="11.1885456"><ele>543.0</ele><time>2026-04-06T08:48:16.285Z</time></trkpt><trkpt lat="43.9415523" lon="11.1884407"><ele>542.4</ele><time>2026-04-06T08:48:17.284Z</time></trkpt><trkpt lat="43.9414759" lon="11.1883263"><ele>541.8</ele><time>2026-04-06T08:48:18.285Z</time></trkpt><trkpt lat="43.9414119" lon="11.1882271"><ele>541.2</ele><time>2026-04-06T08:48:19.278Z</time></trkpt><trkpt lat="43.9413536" lon="11.1881451"><ele>540.6</ele><time>2026-04-06T08:48:20.278Z</time></trkpt><trkpt lat="43.9412934" lon="11.1881162"><ele>540.0</ele><time>2026-04-06T08:48:21.269Z</time></trkpt><trkpt lat="43.9411965" lon="11.1881642"><ele>537.6</ele><time>2026-04-06T08:48:23.281Z</time></trkpt><trkpt lat="43.9411519" lon="11.1882727"><ele>535.2</ele><time>2026-04-06T08:48:25.276Z</time></trkpt><trkpt lat="43.9411006" lon="11.1883644"><ele>532.8</ele><time>2026-04-06T08:48:27.279Z</time></trkpt><trkpt lat="43.9410428" lon="11.1884705"><ele>530.4</ele><time>2026-04-06T08:48:29.286Z</time></trkpt><trkpt lat="43.9409469" lon="11.1885626"><ele>528.0</ele><time>2026-04-06T08:48:31.279Z</time></trkpt><trkpt lat="43.9408308" lon="11.1885816"><ele>527.0</ele><time>2026-04-06T08:48:33.274Z</time></trkpt><trkpt lat="43.9407223" lon="11.188591"><ele>526.0</ele><time>2026-04-06T08:48:35.278Z</time></trkpt><trkpt lat="43.9406184" lon="11.1886107"><ele>525.0</ele><time>2026-04-06T08:48:37.287Z</time></trkpt><trkpt lat="43.940499" lon="11.1886242"><ele>524.0</ele><time>2026-04-06T08:48:39.288Z</time></trkpt><trkpt lat="43.9404356" lon="11.1886224"><ele>523.0</ele><time>2026-04-06T08:48:40.284Z</time></trkpt><trkpt lat="43.9403726" lon="11.1886246"><ele>523.0</ele><time>2026-04-06T08:48:41.292Z</time></trkpt><trkpt lat="43.9403068" lon="11.1886248"><ele>523.0</ele><time>2026-04-06T08:48:42.282Z</time></trkpt><trkpt lat="43.9402375" lon="11.188615"><ele>523.0</ele><time>2026-04-06T08:48:43.289Z</time></trkpt><trkpt lat="43.9401684" lon="11.1886057"><ele>523.0</ele><time>2026-04-06T08:48:44.292Z</time></trkpt><trkpt lat="43.9400506" lon="11.1885753"><ele>523.0</ele><time>2026-04-06T08:48:46.299Z</time></trkpt><trkpt lat="43.9399876" lon="11.1885656"><ele>523.0</ele><time>2026-04-06T08:48:47.279Z</time></trkpt><trkpt lat="43.9398778" lon="11.1885263"><ele>521.6</ele><time>2026-04-06T08:48:49.293Z</time></trkpt><trkpt lat="43.9397732" lon="11.1884428"><ele>520.1999999999999</ele><time>2026-04-06T08:48:51.295Z</time></trkpt><trkpt lat="43.9396721" lon="11.1883562"><ele>518.8</ele><time>2026-04-06T08:48:53.278Z</time></trkpt><trkpt lat="43.9396138" lon="11.1883119"><ele>517.4</ele><time>2026-04-06T08:48:54.291Z</time></trkpt><trkpt lat="43.9395456" lon="11.1882674"><ele>516.0</ele><time>2026-04-06T08:48:55.283Z</time></trkpt><trkpt lat="43.9394743" lon="11.1882265"><ele>516.0</ele><time>2026-04-06T08:48:56.295Z</time></trkpt><trkpt lat="43.9394084" lon="11.1881802"><ele>516.0</ele><time>2026-04-06T08:48:57.282Z</time></trkpt><trkpt lat="43.939351" lon="11.1881264"><ele>516.0</ele><time>2026-04-06T08:48:58.276Z</time></trkpt><trkpt lat="43.9392614" lon="11.1880525"><ele>516.0</ele><time>2026-04-06T08:49:00.29Z</time></trkpt><trkpt lat="43.9391881" lon="11.1880218"><ele>516.0</ele><time>2026-04-06T08:49:02.293Z</time></trkpt><trkpt lat="43.9391136" lon="11.187973"><ele>516.0</ele><time>2026-04-06T08:49:05.292Z</time></trkpt><trkpt lat="43.9390369" lon="11.18791"><ele>516.0</ele><time>2026-04-06T08:49:08.29Z</time></trkpt><trkpt lat="43.9389559" lon="11.1878678"><ele>516.0</ele><time>2026-04-06T08:49:11.294Z</time></trkpt><trkpt lat="43.938874" lon="11.1878407"><ele>516.0</ele><time>2026-04-06T08:49:14.282Z</time></trkpt><trkpt lat="43.9387775" lon="11.1877947"><ele>516.0</ele><time>2026-04-06T08:49:17.28Z</time></trkpt><trkpt lat="43.9387003" lon="11.1877423"><ele>516.0</ele><time>2026-04-06T08:49:19.277Z</time></trkpt><trkpt lat="43.9386546" lon="11.187669"><ele>516.0</ele><time>2026-04-06T08:49:21.286Z</time></trkpt><trkpt lat="43.9386157" lon="11.1875536"><ele>516.0</ele><time>2026-04-06T08:49:24.297Z</time></trkpt><trkpt lat="43.9385783" lon="11.1874429"><ele>516.0</ele><time>2026-04-06T08:49:27.277Z</time></trkpt><trkpt lat="43.9385351" lon="11.1873478"><ele>516.0</ele><time>2026-04-06T08:49:29.279Z</time></trkpt><trkpt lat="43.9384782" lon="11.1872654"><ele>516.0</ele><time>2026-04-06T08:49:31.282Z</time></trkpt><trkpt lat="43.9384113" lon="11.1871852"><ele>516.0</ele><time>2026-04-06T08:49:33.287Z</time></trkpt><trkpt lat="43.9383619" lon="11.1871286"><ele>516.0</ele><time>2026-04-06T08:49:35.282Z</time></trkpt><trkpt lat="43.9383018" lon="11.187073"><ele>517.8333333333334</ele><time>2026-04-06T08:49:38.283Z</time></trkpt><trkpt lat="43.9382387" lon="11.1870519"><ele>519.6666666666666</ele><time>2026-04-06T08:49:41.284Z</time></trkpt><trkpt lat="43.9381521" lon="11.1870136"><ele>521.5</ele><time>2026-04-06T08:49:44.286Z</time></trkpt><trkpt lat="43.9380789" lon="11.1869863"><ele>523.3333333333333</ele><time>2026-04-06T08:49:46.29Z</time></trkpt><trkpt lat="43.9379992" lon="11.1869806"><ele>525.1666666666666</ele><time>2026-04-06T08:49:49.295Z</time></trkpt><trkpt lat="43.9379149" lon="11.186988"><ele>527.0</ele><time>2026-04-06T08:49:52.294Z</time></trkpt><trkpt lat="43.9378504" lon="11.1869877"><ele>527.0</ele><time>2026-04-06T08:49:54.298Z</time></trkpt><trkpt lat="43.9377864" lon="11.1869872"><ele>527.0</ele><time>2026-04-06T08:49:56.287Z</time></trkpt><trkpt lat="43.9376988" lon="11.1869944"><ele>527.0</ele><time>2026-04-06T08:49:59.286Z</time></trkpt><trkpt lat="43.9376014" lon="11.1870019"><ele>527.0</ele><time>2026-04-06T08:50:02.289Z</time></trkpt><trkpt lat="43.9375175" lon="11.1869795"><ele>527.0</ele><time>2026-04-06T08:50:05.281Z</time></trkpt><trkpt lat="43.9374596" lon="11.1869147"><ele>527.0</ele><time>2026-04-06T08:50:08.287Z</time></trkpt><trkpt lat="43.937401" lon="11.1868564"><ele>526.5714285714287</ele><time>2026-04-06T08:50:11.278Z</time></trkpt><trkpt lat="43.9373215" lon="11.1868354"><ele>526.1428571428571</ele><time>2026-04-06T08:50:15.296Z</time></trkpt><trkpt lat="43.9372925" lon="11.1869167"><ele>525.7142857142858</ele><time>2026-04-06T08:50:18.29Z</time></trkpt><trkpt lat="43.9372705" lon="11.1870011"><ele>525.2857142857143</ele><time>2026-04-06T08:50:20.283Z</time></trkpt><trkpt lat="43.9372506" lon="11.1870888"><ele>524.8571428571429</ele><time>2026-04-06T08:50:22.296Z</time></trkpt><trkpt lat="43.9372234" lon="11.1871779"><ele>524.4285714285714</ele><time>2026-04-06T08:50:24.28Z</time></trkpt><trkpt lat="43.9371958" lon="11.1872822"><ele>524.0</ele><time>2026-04-06T08:50:27.293Z</time></trkpt><trkpt lat="43.937142" lon="11.1873716"><ele>521.5</ele><time>2026-04-06T08:50:30.294Z</time></trkpt><trkpt lat="43.9370734" lon="11.1874535"><ele>519.0</ele><time>2026-04-06T08:50:32.288Z</time></trkpt><trkpt lat="43.9370212" lon="11.1875075"><ele>516.5</ele><time>2026-04-06T08:50:33.288Z</time></trkpt><trkpt lat="43.9369661" lon="11.187559"><ele>514.0</ele><time>2026-04-06T08:50:34.296Z</time></trkpt><trkpt lat="43.9369087" lon="11.1876"><ele>511.49999999999994</ele><time>2026-04-06T08:50:35.279Z</time></trkpt><trkpt lat="43.9367996" lon="11.1876516"><ele>509.0</ele><time>2026-04-06T08:50:37.288Z</time></trkpt><trkpt lat="43.9366913" lon="11.187667"><ele>509.0</ele><time>2026-04-06T08:50:39.279Z</time></trkpt><trkpt lat="43.936574" lon="11.1876352"><ele>509.0</ele><time>2026-04-06T08:50:41.288Z</time></trkpt><trkpt lat="43.9364375" lon="11.1876277"><ele>509.0</ele><time>2026-04-06T08:50:43.288Z</time></trkpt><trkpt lat="43.9363591" lon="11.1876436"><ele>509.0</ele><time>2026-04-06T08:50:44.282Z</time></trkpt><trkpt lat="43.9362845" lon="11.1876483"><ele>509.0</ele><time>2026-04-06T08:50:45.285Z</time></trkpt><trkpt lat="43.9362205" lon="11.1876464"><ele>508.99999999999994</ele><time>2026-04-06T08:50:46.276Z</time></trkpt><trkpt lat="43.9361168" lon="11.187629"><ele>509.0</ele><time>2026-04-06T08:50:48.285Z</time></trkpt><trkpt lat="43.9360442" lon="11.1876181"><ele>509.0</ele><time>2026-04-06T08:50:51.29Z</time></trkpt><trkpt lat="43.9359699" lon="11.1876569"><ele>509.0</ele><time>2026-04-06T08:50:55.298Z</time></trkpt><trkpt lat="43.9359001" lon="11.1877738"><ele>508.99999999999994</ele><time>2026-04-06T08:53:10.286Z</time></trkpt><trkpt lat="43.9358376" lon="11.1877582"><ele>509.0</ele><time>2026-04-06T08:53:15.288Z</time></trkpt><trkpt lat="43.9357741" lon="11.1877841"><ele>508.66666666666663</ele><time>2026-04-06T08:53:19.277Z</time></trkpt><trkpt lat="43.9357051" lon="11.187846"><ele>508.3333333333333</ele><time>2026-04-06T08:53:23.288Z</time></trkpt><trkpt lat="43.9356512" lon="11.1879078"><ele>508.0</ele><time>2026-04-06T08:53:27.283Z</time></trkpt><trkpt lat="43.9356269" lon="11.1879943"><ele>507.66666666666663</ele><time>2026-04-06T08:53:31.289Z</time></trkpt><trkpt lat="43.9356385" lon="11.1880952"><ele>507.3333333333333</ele><time>2026-04-06T08:53:34.281Z</time></trkpt><trkpt lat="43.935585" lon="11.1881919"><ele>507.0</ele><time>2026-04-06T08:53:37.286Z</time></trkpt><trkpt lat="43.9355292" lon="11.1882504"><ele>505.0</ele><time>2026-04-06T08:53:39.279Z</time></trkpt><trkpt lat="43.9354425" lon="11.1883148"><ele>503.0</ele><time>2026-04-06T08:53:42.283Z</time></trkpt><trkpt lat="43.9353751" lon="11.1883599"><ele>501.0</ele><time>2026-04-06T08:53:44.288Z</time></trkpt><trkpt lat="43.935298" lon="11.1883848"><ele>499.0</ele><time>2026-04-06T08:53:46.3Z</time></trkpt><trkpt lat="43.935227" lon="11.1883694"><ele>497.0</ele><time>2026-04-06T08:53:48.29Z</time></trkpt><trkpt lat="43.9351604" lon="11.1883382"><ele>495.0</ele><time>2026-04-06T08:53:50.289Z</time></trkpt><trkpt lat="43.9351004" lon="11.1882973"><ele>494.0</ele><time>2026-04-06T08:53:52.29Z</time></trkpt><trkpt lat="43.935037" lon="11.1882471"><ele>493.0</ele><time>2026-04-06T08:53:54.29Z</time></trkpt><trkpt lat="43.9349576" lon="11.188193"><ele>492.0</ele><time>2026-04-06T08:53:57.286Z</time></trkpt><trkpt lat="43.9348981" lon="11.1881591"><ele>491.0</ele><time>2026-04-06T08:53:59.288Z</time></trkpt><trkpt lat="43.9348373" lon="11.1881308"><ele>490.0</ele><time>2026-04-06T08:54:01.284Z</time></trkpt><trkpt lat="43.9347486" lon="11.1881051"><ele>489.0</ele><time>2026-04-06T08:54:04.278Z</time></trkpt><trkpt lat="43.9346542" lon="11.1881091"><ele>489.42857142857144</ele><time>2026-04-06T08:54:07.29Z</time></trkpt><trkpt lat="43.9345902" lon="11.1881211"><ele>489.8571428571429</ele><time>2026-04-06T08:54:09.291Z</time></trkpt><trkpt lat="43.9345135" lon="11.1881224"><ele>490.28571428571433</ele><time>2026-04-06T08:54:12.29Z</time></trkpt><trkpt lat="43.9344465" lon="11.1881211"><ele>490.7142857142858</ele><time>2026-04-06T08:54:15.291Z</time></trkpt><trkpt lat="43.9343682" lon="11.1880925"><ele>491.14285714285717</ele><time>2026-04-06T08:54:18.288Z</time></trkpt><trkpt lat="43.9342979" lon="11.1880768"><ele>491.57142857142867</ele><time>2026-04-06T08:54:20.284Z</time></trkpt><trkpt lat="43.9342101" lon="11.1880724"><ele>492.00000000000006</ele><time>2026-04-06T08:54:22.289Z</time></trkpt><trkpt lat="43.9341311" lon="11.1880803"><ele>492.0</ele><time>2026-04-06T08:54:24.296Z</time></trkpt><trkpt lat="43.9340611" lon="11.1880844"><ele>492.0</ele><time>2026-04-06T08:54:26.304Z</time></trkpt><trkpt lat="43.9339667" lon="11.1881071"><ele>492.0</ele><time>2026-04-06T08:54:29.29Z</time></trkpt><trkpt lat="43.9339019" lon="11.1881246"><ele>492.0</ele><time>2026-04-06T08:54:31.282Z</time></trkpt><trkpt lat="43.9338212" lon="11.1881372"><ele>492.0</ele><time>2026-04-06T08:54:33.299Z</time></trkpt><trkpt lat="43.9337095" lon="11.1881573"><ele>492.0</ele><time>2026-04-06T08:54:35.289Z</time></trkpt><trkpt lat="43.9336145" lon="11.1881635"><ele>489.8333333333333</ele><time>2026-04-06T08:54:37.28Z</time></trkpt><trkpt lat="43.9335271" lon="11.188202"><ele>487.66666666666663</ele><time>2026-04-06T08:54:39.291Z</time></trkpt><trkpt lat="43.9334652" lon="11.1882251"><ele>485.5</ele><time>2026-04-06T08:54:41.296Z</time></trkpt><trkpt lat="43.9333837" lon="11.1882701"><ele>483.3333333333333</ele><time>2026-04-06T08:54:44.29Z</time></trkpt><trkpt lat="43.9333194" lon="11.1883022"><ele>481.16666666666663</ele><time>2026-04-06T08:54:46.296Z</time></trkpt><trkpt lat="43.933245" lon="11.1883476"><ele>479.0</ele><time>2026-04-06T08:54:48.297Z</time></trkpt><trkpt lat="43.9331628" lon="11.1883797"><ele>478.1428571428571</ele><time>2026-04-06T08:54:50.286Z</time></trkpt><trkpt lat="43.9330924" lon="11.1884103"><ele>477.28571428571433</ele><time>2026-04-06T08:54:52.29Z</time></trkpt><trkpt lat="43.9330327" lon="11.1884449"><ele>476.42857142857144</ele><time>2026-04-06T08:54:55.277Z</time></trkpt><trkpt lat="43.9329744" lon="11.1884927"><ele>475.57142857142856</ele><time>2026-04-06T08:54:58.285Z</time></trkpt><trkpt lat="43.9329117" lon="11.1885353"><ele>474.71428571428567</ele><time>2026-04-06T08:55:01.282Z</time></trkpt><trkpt lat="43.9328559" lon="11.1885851"><ele>473.8571428571429</ele><time>2026-04-06T08:55:03.279Z</time></trkpt><trkpt lat="43.9327974" lon="11.1886185"><ele>473.0</ele><time>2026-04-06T08:55:05.292Z</time></trkpt><trkpt lat="43.9327427" lon="11.1886624"><ele>472.99999999999994</ele><time>2026-04-06T08:55:08.291Z</time></trkpt><trkpt lat="43.9326798" lon="11.1887258"><ele>473.0</ele><time>2026-04-06T08:55:12.292Z</time></trkpt><trkpt lat="43.9326105" lon="11.1887794"><ele>473.0</ele><time>2026-04-06T08:55:16.297Z</time></trkpt><trkpt lat="43.9325403" lon="11.1888017"><ele>473.0</ele><time>2026-04-06T08:55:19.278Z</time></trkpt><trkpt lat="43.9324622" lon="11.1888318"><ele>472.99999999999994</ele><time>2026-04-06T08:55:22.286Z</time></trkpt><trkpt lat="43.9324014" lon="11.1888584"><ele>473.0</ele><time>2026-04-06T08:55:24.294Z</time></trkpt><trkpt lat="43.9323303" lon="11.1888964"><ele>473.59999999999997</ele><time>2026-04-06T08:55:26.299Z</time></trkpt><trkpt lat="43.9322434" lon="11.1889332"><ele>474.19999999999993</ele><time>2026-04-06T08:55:28.288Z</time></trkpt><trkpt lat="43.9321527" lon="11.1890061"><ele>474.8</ele><time>2026-04-06T08:55:30.275Z</time></trkpt><trkpt lat="43.9320731" lon="11.1890798"><ele>475.4</ele><time>2026-04-06T08:55:32.288Z</time></trkpt><trkpt lat="43.9319894" lon="11.1891402"><ele>476.0</ele><time>2026-04-06T08:55:34.291Z</time></trkpt><trkpt lat="43.9319064" lon="11.1891388"><ele>473.99999999999994</ele><time>2026-04-06T08:55:36.288Z</time></trkpt><trkpt lat="43.931822" lon="11.1891189"><ele>472.0</ele><time>2026-04-06T08:55:38.29Z</time></trkpt><trkpt lat="43.9317343" lon="11.1890763"><ele>470.0</ele><time>2026-04-06T08:55:40.284Z</time></trkpt><trkpt lat="43.9316687" lon="11.1890077"><ele>468.0</ele><time>2026-04-06T08:55:42.291Z</time></trkpt><trkpt lat="43.9316219" lon="11.1889357"><ele>465.99999999999994</ele><time>2026-04-06T08:55:44.291Z</time></trkpt><trkpt lat="43.9315779" lon="11.1888638"><ele>464.0</ele><time>2026-04-06T08:55:46.276Z</time></trkpt><trkpt lat="43.9315156" lon="11.1887947"><ele>463.2</ele><time>2026-04-06T08:55:48.289Z</time></trkpt><trkpt lat="43.9314352" lon="11.1887301"><ele>462.4</ele><time>2026-04-06T08:55:50.294Z</time></trkpt><trkpt lat="43.9313573" lon="11.1886643"><ele>461.6</ele><time>2026-04-06T08:55:52.286Z</time></trkpt><trkpt lat="43.9312761" lon="11.1885861"><ele>460.8</ele><time>2026-04-06T08:55:54.289Z</time></trkpt><trkpt lat="43.9311841" lon="11.1885096"><ele>460.0</ele><time>2026-04-06T08:55:56.288Z</time></trkpt><trkpt lat="43.9310717" lon="11.1884641"><ele>460.0</ele><time>2026-04-06T08:55:58.287Z</time></trkpt><trkpt lat="43.9309639" lon="11.1884139"><ele>460.0</ele><time>2026-04-06T08:56:00.298Z</time></trkpt><trkpt lat="43.9308714" lon="11.1883247"><ele>460.0</ele><time>2026-04-06T08:56:02.288Z</time></trkpt><trkpt lat="43.9307744" lon="11.1882357"><ele>460.0</ele><time>2026-04-06T08:56:04.276Z</time></trkpt><trkpt lat="43.9307212" lon="11.1881836"><ele>460.0</ele><time>2026-04-06T08:56:05.297Z</time></trkpt><trkpt lat="43.9306138" lon="11.1881045"><ele>458.8</ele><time>2026-04-06T08:56:07.292Z</time></trkpt><trkpt lat="43.9305189" lon="11.1880371"><ele>457.6</ele><time>2026-04-06T08:56:09.285Z</time></trkpt><trkpt lat="43.9304329" lon="11.1879777"><ele>456.4</ele><time>2026-04-06T08:56:11.289Z</time></trkpt><trkpt lat="43.9303435" lon="11.1879263"><ele>455.2</ele><time>2026-04-06T08:56:13.287Z</time></trkpt><trkpt lat="43.9302724" lon="11.1878939"><ele>454.0</ele><time>2026-04-06T08:56:15.295Z</time></trkpt><trkpt lat="43.9301985" lon="11.1878655"><ele>454.00000000000006</ele><time>2026-04-06T08:56:18.276Z</time></trkpt><trkpt lat="43.9301211" lon="11.1878406"><ele>454.0</ele><time>2026-04-06T08:56:21.284Z</time></trkpt><trkpt lat="43.9300437" lon="11.1878057"><ele>454.0</ele><time>2026-04-06T08:56:24.278Z</time></trkpt><trkpt lat="43.9299688" lon="11.1877617"><ele>454.0</ele><time>2026-04-06T08:56:27.293Z</time></trkpt><trkpt lat="43.9299233" lon="11.1876871"><ele>454.00000000000006</ele><time>2026-04-06T08:56:30.289Z</time></trkpt><trkpt lat="43.9299336" lon="11.1875869"><ele>454.0</ele><time>2026-04-06T08:56:33.29Z</time></trkpt><trkpt lat="43.9299663" lon="11.1874838"><ele>453.00000000000006</ele><time>2026-04-06T08:56:36.291Z</time></trkpt><trkpt lat="43.9300002" lon="11.1873921"><ele>452.0</ele><time>2026-04-06T08:56:39.287Z</time></trkpt><trkpt lat="43.9300326" lon="11.1872972"><ele>451.0</ele><time>2026-04-06T08:56:42.284Z</time></trkpt><trkpt lat="43.9300565" lon="11.1872088"><ele>450.0</ele><time>2026-04-06T08:56:45.294Z</time></trkpt><trkpt lat="43.9300645" lon="11.1871074"><ele>449.00000000000006</ele><time>2026-04-06T08:56:48.284Z</time></trkpt><trkpt lat="43.9300482" lon="11.1870044"><ele>448.0</ele><time>2026-04-06T08:56:51.295Z</time></trkpt><trkpt lat="43.9300114" lon="11.1869014"><ele>448.0</ele><time>2026-04-06T08:56:54.289Z</time></trkpt><trkpt lat="43.9299704" lon="11.1868066"><ele>448.0</ele><time>2026-04-06T08:56:57.287Z</time></trkpt><trkpt lat="43.9299257" lon="11.1867247"><ele>448.0</ele><time>2026-04-06T08:57:01.283Z</time></trkpt><trkpt lat="43.9298797" lon="11.1866475"><ele>448.0</ele><time>2026-04-06T08:57:05.287Z</time></trkpt><trkpt lat="43.929843" lon="11.1865647"><ele>448.0</ele><time>2026-04-06T08:57:09.296Z</time></trkpt><trkpt lat="43.9298207" lon="11.1864734"><ele>448.0</ele><time>2026-04-06T08:57:13.283Z</time></trkpt><trkpt lat="43.9297907" lon="11.1863733"><ele>448.0</ele><time>2026-04-06T08:57:18.292Z</time></trkpt><trkpt lat="43.9297653" lon="11.1862868"><ele>448.33333333333337</ele><time>2026-04-06T08:57:22.286Z</time></trkpt><trkpt lat="43.9297325" lon="11.1862041"><ele>448.6666666666667</ele><time>2026-04-06T08:57:25.29Z</time></trkpt><trkpt lat="43.9296982" lon="11.1860825"><ele>449.0</ele><time>2026-04-06T08:57:28.285Z</time></trkpt><trkpt lat="43.9296978" lon="11.1859707"><ele>449.33333333333337</ele><time>2026-04-06T08:57:31.294Z</time></trkpt><trkpt lat="43.9297053" lon="11.1858723"><ele>449.6666666666667</ele><time>2026-04-06T08:57:34.287Z</time></trkpt><trkpt lat="43.9297379" lon="11.1857731"><ele>450.0</ele><time>2026-04-06T08:57:37.292Z</time></trkpt><trkpt lat="43.9297596" lon="11.1856517"><ele>450.5</ele><time>2026-04-06T08:57:41.286Z</time></trkpt><trkpt lat="43.9297702" lon="11.1855522"><ele>451.0</ele><time>2026-04-06T08:57:44.293Z</time></trkpt><trkpt lat="43.9297568" lon="11.1854466"><ele>451.5</ele><time>2026-04-06T08:57:47.291Z</time></trkpt><trkpt lat="43.9297587" lon="11.1853514"><ele>452.0</ele><time>2026-04-06T08:57:50.285Z</time></trkpt><trkpt lat="43.9297266" lon="11.1852559"><ele>452.5</ele><time>2026-04-06T08:57:53.284Z</time></trkpt><trkpt lat="43.9296726" lon="11.1851692"><ele>453.0</ele><time>2026-04-06T08:57:56.293Z</time></trkpt><trkpt lat="43.9296193" lon="11.1850941"><ele>453.0</ele><time>2026-04-06T08:57:59.289Z</time></trkpt><trkpt lat="43.9295732" lon="11.1849958"><ele>453.0</ele><time>2026-04-06T08:58:02.295Z</time></trkpt><trkpt lat="43.929528" lon="11.1849098"><ele>453.0</ele><time>2026-04-06T08:58:05.285Z</time></trkpt><trkpt lat="43.9294758" lon="11.1848053"><ele>453.0</ele><time>2026-04-06T08:58:08.287Z</time></trkpt><trkpt lat="43.9294443" lon="11.1846916"><ele>453.0</ele><time>2026-04-06T08:58:11.279Z</time></trkpt><trkpt lat="43.9294094" lon="11.1845951"><ele>453.0</ele><time>2026-04-06T08:58:13.285Z</time></trkpt><trkpt lat="43.9293831" lon="11.1844725"><ele>452.6666666666667</ele><time>2026-04-06T08:58:15.3Z</time></trkpt><trkpt lat="43.9293673" lon="11.1843431"><ele>452.33333333333337</ele><time>2026-04-06T08:58:17.294Z</time></trkpt><trkpt lat="43.9293637" lon="11.1842324"><ele>452.0</ele><time>2026-04-06T08:58:19.287Z</time></trkpt><trkpt lat="43.9293616" lon="11.184141"><ele>451.6666666666667</ele><time>2026-04-06T08:58:23.283Z</time></trkpt><trkpt lat="43.9293757" lon="11.1840461"><ele>451.33333333333337</ele><time>2026-04-06T08:58:27.291Z</time></trkpt><trkpt lat="43.9293898" lon="11.1839298"><ele>451.0</ele><time>2026-04-06T08:58:31.289Z</time></trkpt><trkpt lat="43.9293959" lon="11.1838276"><ele>450.00000000000006</ele><time>2026-04-06T08:58:35.284Z</time></trkpt><trkpt lat="43.9294048" lon="11.1837383"><ele>449.0</ele><time>2026-04-06T08:58:38.283Z</time></trkpt><trkpt lat="43.9294235" lon="11.1836207"><ele>448.0</ele><time>2026-04-06T08:58:41.295Z</time></trkpt><trkpt lat="43.9294412" lon="11.1835035"><ele>447.0</ele><time>2026-04-06T08:58:44.283Z</time></trkpt><trkpt lat="43.9294509" lon="11.1834"><ele>446.00000000000006</ele><time>2026-04-06T08:58:47.286Z</time></trkpt><trkpt lat="43.9294575" lon="11.1833069"><ele>445.0</ele><time>2026-04-06T08:58:50.296Z</time></trkpt><trkpt lat="43.929483" lon="11.1832159"><ele>444.00000000000006</ele><time>2026-04-06T08:58:53.292Z</time></trkpt><trkpt lat="43.9295228" lon="11.183133"><ele>443.0</ele><time>2026-04-06T08:58:56.305Z</time></trkpt><trkpt lat="43.9295748" lon="11.1830267"><ele>442.0</ele><time>2026-04-06T08:58:59.293Z</time></trkpt><trkpt lat="43.9296168" lon="11.1829541"><ele>441.0</ele><time>2026-04-06T08:59:01.298Z</time></trkpt><trkpt lat="43.9296666" lon="11.1828474"><ele>440.00000000000006</ele><time>2026-04-06T08:59:04.285Z</time></trkpt><trkpt lat="43.9297045" lon="11.1827662"><ele>439.0</ele><time>2026-04-06T08:59:06.298Z</time></trkpt><trkpt lat="43.9297438" lon="11.1826859"><ele>439.00000000000006</ele><time>2026-04-06T08:59:08.284Z</time></trkpt><trkpt lat="43.929788" lon="11.182576"><ele>439.0</ele><time>2026-04-06T08:59:10.289Z</time></trkpt><trkpt lat="43.9298261" lon="11.1824683"><ele>439.0</ele><time>2026-04-06T08:59:12.28Z</time></trkpt><trkpt lat="43.9298666" lon="11.1823525"><ele>439.0</ele><time>2026-04-06T08:59:14.285Z</time></trkpt><trkpt lat="43.9298995" lon="11.1822618"><ele>439.00000000000006</ele><time>2026-04-06T08:59:16.301Z</time></trkpt><trkpt lat="43.9299136" lon="11.1821259"><ele>439.0</ele><time>2026-04-06T08:59:19.279Z</time></trkpt><trkpt lat="43.9298867" lon="11.1820083"><ele>438.50000000000006</ele><time>2026-04-06T08:59:22.283Z</time></trkpt><trkpt lat="43.9298532" lon="11.1819243"><ele>438.0</ele><time>2026-04-06T08:59:24.294Z</time></trkpt><trkpt lat="43.9298308" lon="11.1818113"><ele>437.5</ele><time>2026-04-06T08:59:26.293Z</time></trkpt><trkpt lat="43.9298073" lon="11.1816584"><ele>437.0</ele><time>2026-04-06T08:59:28.29Z</time></trkpt><trkpt lat="43.9297901" lon="11.1815639"><ele>436.50000000000006</ele><time>2026-04-06T08:59:29.284Z</time></trkpt><trkpt lat="43.9297574" lon="11.181485"><ele>436.0</ele><time>2026-04-06T08:59:30.293Z</time></trkpt><trkpt lat="43.9297195" lon="11.1813963"><ele>437.33333333333337</ele><time>2026-04-06T08:59:32.278Z</time></trkpt><trkpt lat="43.9296866" lon="11.1812892"><ele>438.6666666666667</ele><time>2026-04-06T08:59:36.288Z</time></trkpt><trkpt lat="43.929649" lon="11.1811906"><ele>440.0</ele><time>2026-04-06T08:59:40.303Z</time></trkpt><trkpt lat="43.9296121" lon="11.1811083"><ele>441.33333333333337</ele><time>2026-04-06T08:59:43.295Z</time></trkpt><trkpt lat="43.9295589" lon="11.1810204"><ele>442.6666666666667</ele><time>2026-04-06T08:59:46.289Z</time></trkpt><trkpt lat="43.9295048" lon="11.1809148"><ele>444.0</ele><time>2026-04-06T08:59:49.276Z</time></trkpt><trkpt lat="43.9294789" lon="11.1808286"><ele>444.0</ele><time>2026-04-06T08:59:51.29Z</time></trkpt><trkpt lat="43.9294382" lon="11.1807417"><ele>444.0</ele><time>2026-04-06T08:59:54.291Z</time></trkpt><trkpt lat="43.9294009" lon="11.1806709"><ele>444.0</ele><time>2026-04-06T08:59:56.286Z</time></trkpt><trkpt lat="43.9293799" lon="11.1805874"><ele>444.0</ele><time>2026-04-06T08:59:59.279Z</time></trkpt><trkpt lat="43.9293341" lon="11.1805163"><ele>444.0</ele><time>2026-04-06T09:00:02.287Z</time></trkpt><trkpt lat="43.9292904" lon="11.1804327"><ele>444.0</ele><time>2026-04-06T09:00:06.294Z</time></trkpt><trkpt lat="43.9292397" lon="11.1803613"><ele>444.0</ele><time>2026-04-06T09:00:09.292Z</time></trkpt><trkpt lat="43.9291811" lon="11.1802726"><ele>440.6666666666667</ele><time>2026-04-06T09:00:12.289Z</time></trkpt><trkpt lat="43.9291087" lon="11.1802336"><ele>437.33333333333337</ele><time>2026-04-06T09:00:15.29Z</time></trkpt><trkpt lat="43.9291017" lon="11.1803206"><ele>434.0</ele><time>2026-04-06T09:00:18.299Z</time></trkpt><trkpt lat="43.9291201" lon="11.1804296"><ele>430.6666666666667</ele><time>2026-04-06T09:00:21.287Z</time></trkpt><trkpt lat="43.9291532" lon="11.180524"><ele>427.33333333333337</ele><time>2026-04-06T09:00:24.28Z</time></trkpt><trkpt lat="43.9291967" lon="11.1806468"><ele>424.0</ele><time>2026-04-06T09:00:27.291Z</time></trkpt><trkpt lat="43.9292239" lon="11.1807439"><ele>421.79999999999995</ele><time>2026-04-06T09:00:29.281Z</time></trkpt><trkpt lat="43.9292476" lon="11.180852"><ele>419.59999999999997</ele><time>2026-04-06T09:00:31.293Z</time></trkpt><trkpt lat="43.9292612" lon="11.1809743"><ele>417.4</ele><time>2026-04-06T09:00:33.275Z</time></trkpt><trkpt lat="43.9292405" lon="11.1810883"><ele>415.2</ele><time>2026-04-06T09:00:35.29Z</time></trkpt><trkpt lat="43.9291737" lon="11.1811964"><ele>413.0</ele><time>2026-04-06T09:00:37.288Z</time></trkpt><trkpt lat="43.9290854" lon="11.181273"><ele>413.0</ele><time>2026-04-06T09:00:39.296Z</time></trkpt><trkpt lat="43.9290008" lon="11.1813226"><ele>413.0</ele><time>2026-04-06T09:00:41.297Z</time></trkpt><trkpt lat="43.9289058" lon="11.181352"><ele>413.0</ele><time>2026-04-06T09:00:43.281Z</time></trkpt><trkpt lat="43.9288083" lon="11.181371"><ele>413.0</ele><time>2026-04-06T09:00:45.289Z</time></trkpt><trkpt lat="43.9287056" lon="11.1813924"><ele>413.0</ele><time>2026-04-06T09:00:47.29Z</time></trkpt><trkpt lat="43.9286148" lon="11.1814204"><ele>413.0</ele><time>2026-04-06T09:00:49.287Z</time></trkpt><trkpt lat="43.9285254" lon="11.1814607"><ele>413.0</ele><time>2026-04-06T09:00:51.293Z</time></trkpt><trkpt lat="43.9284304" lon="11.1814627"><ele>413.0</ele><time>2026-04-06T09:00:53.293Z</time></trkpt><trkpt lat="43.9283617" lon="11.1813884"><ele>413.0</ele><time>2026-04-06T09:00:55.293Z</time></trkpt><trkpt lat="43.928313" lon="11.181264"><ele>413.0</ele><time>2026-04-06T09:00:57.284Z</time></trkpt><trkpt lat="43.9282847" lon="11.1811354"><ele>408.2</ele><time>2026-04-06T09:00:59.286Z</time></trkpt><trkpt lat="43.928272" lon="11.1810153"><ele>403.4</ele><time>2026-04-06T09:01:01.299Z</time></trkpt><trkpt lat="43.9282525" lon="11.1808869"><ele>398.59999999999997</ele><time>2026-04-06T09:01:03.285Z</time></trkpt><trkpt lat="43.928208" lon="11.1807268"><ele>393.79999999999995</ele><time>2026-04-06T09:01:05.29Z</time></trkpt><trkpt lat="43.9281825" lon="11.1806402"><ele>389.0</ele><time>2026-04-06T09:01:06.293Z</time></trkpt><trkpt lat="43.9281377" lon="11.1804883"><ele>389.0</ele><time>2026-04-06T09:01:08.294Z</time></trkpt><trkpt lat="43.9280907" lon="11.1803542"><ele>389.0</ele><time>2026-04-06T09:01:10.305Z</time></trkpt><trkpt lat="43.9280546" lon="11.1802109"><ele>389.0</ele><time>2026-04-06T09:01:12.289Z</time></trkpt><trkpt lat="43.9280496" lon="11.1800697"><ele>389.0</ele><time>2026-04-06T09:01:14.288Z</time></trkpt><trkpt lat="43.928063" lon="11.1799449"><ele>389.0</ele><time>2026-04-06T09:01:16.276Z</time></trkpt><trkpt lat="43.9280728" lon="11.1798245"><ele>389.0</ele><time>2026-04-06T09:01:18.294Z</time></trkpt><trkpt lat="43.928062" lon="11.1797007"><ele>389.0</ele><time>2026-04-06T09:01:20.294Z</time></trkpt><trkpt lat="43.9280131" lon="11.1796181"><ele>389.0</ele><time>2026-04-06T09:01:22.295Z</time></trkpt><trkpt lat="43.9279252" lon="11.1796315"><ele>389.0</ele><time>2026-04-06T09:01:24.277Z</time></trkpt><trkpt lat="43.9278709" lon="11.1797414"><ele>389.0</ele><time>2026-04-06T09:01:26.294Z</time></trkpt><trkpt lat="43.9278491" lon="11.1798818"><ele>389.0</ele><time>2026-04-06T09:01:28.292Z</time></trkpt><trkpt lat="43.9278232" lon="11.1800203"><ele>389.0</ele><time>2026-04-06T09:01:30.285Z</time></trkpt><trkpt lat="43.9278012" lon="11.1801419"><ele>389.0</ele><time>2026-04-06T09:01:32.279Z</time></trkpt><trkpt lat="43.9277749" lon="11.1802692"><ele>389.0</ele><time>2026-04-06T09:01:34.292Z</time></trkpt><trkpt lat="43.9277398" lon="11.1803908"><ele>389.0</ele><time>2026-04-06T09:01:36.284Z</time></trkpt><trkpt lat="43.9277112" lon="11.1804966"><ele>389.0</ele><time>2026-04-06T09:01:38.283Z</time></trkpt><trkpt lat="43.9276693" lon="11.1806238"><ele>389.0</ele><time>2026-04-06T09:01:40.29Z</time></trkpt><trkpt lat="43.9276213" lon="11.1807748"><ele>389.0</ele><time>2026-04-06T09:01:42.301Z</time></trkpt><trkpt lat="43.9275776" lon="11.1808922"><ele>389.0</ele><time>2026-04-06T09:01:44.298Z</time></trkpt><trkpt lat="43.9275262" lon="11.1810122"><ele>389.0</ele><time>2026-04-06T09:01:46.28Z</time></trkpt><trkpt lat="43.9274633" lon="11.181103"><ele>384.2857142857143</ele><time>2026-04-06T09:01:48.285Z</time></trkpt><trkpt lat="43.9273727" lon="11.1811381"><ele>379.57142857142856</ele><time>2026-04-06T09:01:50.291Z</time></trkpt><trkpt lat="43.9273078" lon="11.1811135"><ele>374.85714285714283</ele><time>2026-04-06T09:01:51.294Z</time></trkpt><trkpt lat="43.9272464" lon="11.1810887"><ele>370.1428571428571</ele><time>2026-04-06T09:01:52.284Z</time></trkpt><trkpt lat="43.9271802" lon="11.1810591"><ele>365.42857142857144</ele><time>2026-04-06T09:01:53.299Z</time></trkpt><trkpt lat="43.9271145" lon="11.1810337"><ele>360.71428571428567</ele><time>2026-04-06T09:01:54.276Z</time></trkpt><trkpt lat="43.9270514" lon="11.1810145"><ele>356.0</ele><time>2026-04-06T09:01:55.291Z</time></trkpt><trkpt lat="43.9269877" lon="11.1810149"><ele>356.0</ele><time>2026-04-06T09:01:56.29Z</time></trkpt><trkpt lat="43.9268733" lon="11.1810333"><ele>356.0</ele><time>2026-04-06T09:01:58.292Z</time></trkpt><trkpt lat="43.9267798" lon="11.1811027"><ele>356.0</ele><time>2026-04-06T09:02:00.301Z</time></trkpt><trkpt lat="43.926713" lon="11.1812211"><ele>356.0</ele><time>2026-04-06T09:02:02.288Z</time></trkpt><trkpt lat="43.9266376" lon="11.1813431"><ele>356.0</ele><time>2026-04-06T09:02:04.291Z</time></trkpt><trkpt lat="43.9265598" lon="11.181484"><ele>352.6</ele><time>2026-04-06T09:02:06.291Z</time></trkpt><trkpt lat="43.9265289" lon="11.1815633"><ele>349.20000000000005</ele><time>2026-04-06T09:02:07.291Z</time></trkpt><trkpt lat="43.9264742" lon="11.1817071"><ele>345.79999999999995</ele><time>2026-04-06T09:02:09.282Z</time></trkpt><trkpt lat="43.926392" lon="11.1817924"><ele>342.4</ele><time>2026-04-06T09:02:11.29Z</time></trkpt><trkpt lat="43.9262964" lon="11.1818408"><ele>339.0</ele><time>2026-04-06T09:02:13.296Z</time></trkpt><trkpt lat="43.9262143" lon="11.1818595"><ele>339.0</ele><time>2026-04-06T09:02:15.296Z</time></trkpt><trkpt lat="43.9261285" lon="11.181893"><ele>339.0</ele><time>2026-04-06T09:02:17.29Z</time></trkpt><trkpt lat="43.9260408" lon="11.1819654"><ele>339.0</ele><time>2026-04-06T09:02:19.287Z</time></trkpt><trkpt lat="43.9259736" lon="11.1820679"><ele>339.0</ele><time>2026-04-06T09:02:21.29Z</time></trkpt><trkpt lat="43.9259503" lon="11.182219"><ele>339.0</ele><time>2026-04-06T09:02:23.295Z</time></trkpt><trkpt lat="43.9259274" lon="11.1823518"><ele>338.2</ele><time>2026-04-06T09:02:25.299Z</time></trkpt><trkpt lat="43.925901" lon="11.182495"><ele>337.4</ele><time>2026-04-06T09:02:27.287Z</time></trkpt><trkpt lat="43.9258786" lon="11.1826366"><ele>336.6</ele><time>2026-04-06T09:02:29.285Z</time></trkpt><trkpt lat="43.9258533" lon="11.1827743"><ele>335.8</ele><time>2026-04-06T09:02:31.294Z</time></trkpt><trkpt lat="43.9258275" lon="11.1829325"><ele>335.0</ele><time>2026-04-06T09:02:33.291Z</time></trkpt><trkpt lat="43.9258062" lon="11.1830856"><ele>331.4</ele><time>2026-04-06T09:02:35.278Z</time></trkpt><trkpt lat="43.9257633" lon="11.1832111"><ele>327.8</ele><time>2026-04-06T09:02:37.284Z</time></trkpt><trkpt lat="43.9256815" lon="11.1833142"><ele>324.2</ele><time>2026-04-06T09:02:39.296Z</time></trkpt><trkpt lat="43.9255948" lon="11.1834351"><ele>320.6</ele><time>2026-04-06T09:02:41.295Z</time></trkpt><trkpt lat="43.9255218" lon="11.1835569"><ele>317.0</ele><time>2026-04-06T09:02:43.292Z</time></trkpt><trkpt lat="43.925452" lon="11.1836685"><ele>317.0</ele><time>2026-04-06T09:02:45.292Z</time></trkpt><trkpt lat="43.9253757" lon="11.1837417"><ele>317.0</ele><time>2026-04-06T09:02:47.292Z</time></trkpt><trkpt lat="43.9252718" lon="11.1837932"><ele>317.0</ele><time>2026-04-06T09:02:49.288Z</time></trkpt><trkpt lat="43.9251727" lon="11.1838377"><ele>317.0</ele><time>2026-04-06T09:02:51.298Z</time></trkpt><trkpt lat="43.9251053" lon="11.1838723"><ele>317.0</ele><time>2026-04-06T09:02:53.297Z</time></trkpt><trkpt lat="43.9250537" lon="11.1839576"><ele>313.6</ele><time>2026-04-06T09:02:55.282Z</time></trkpt><trkpt lat="43.9250192" lon="11.1840858"><ele>310.2</ele><time>2026-04-06T09:02:57.298Z</time></trkpt><trkpt lat="43.9249691" lon="11.1842423"><ele>306.8</ele><time>2026-04-06T09:02:59.297Z</time></trkpt><trkpt lat="43.9249321" lon="11.1843294"><ele>303.4</ele><time>2026-04-06T09:03:00.288Z</time></trkpt><trkpt lat="43.9248858" lon="11.1844336"><ele>300.0</ele><time>2026-04-06T09:03:01.297Z</time></trkpt><trkpt lat="43.92483" lon="11.1845431"><ele>300.0</ele><time>2026-04-06T09:03:02.284Z</time></trkpt><trkpt lat="43.9247727" lon="11.1846677"><ele>300.0</ele><time>2026-04-06T09:03:03.298Z</time></trkpt><trkpt lat="43.9247236" lon="11.1847936"><ele>300.0</ele><time>2026-04-06T09:03:04.284Z</time></trkpt><trkpt lat="43.9246802" lon="11.1849241"><ele>300.0</ele><time>2026-04-06T09:03:05.291Z</time></trkpt><trkpt lat="43.9246513" lon="11.1850566"><ele>300.0</ele><time>2026-04-06T09:03:06.285Z</time></trkpt><trkpt lat="43.9246389" lon="11.1851753"><ele>299.6666666666667</ele><time>2026-04-06T09:03:07.277Z</time></trkpt><trkpt lat="43.9246274" lon="11.1852821"><ele>299.3333333333333</ele><time>2026-04-06T09:03:08.295Z</time></trkpt><trkpt lat="43.9245758" lon="11.1854182"><ele>299.0</ele><time>2026-04-06T09:03:10.295Z</time></trkpt><trkpt lat="43.9245375" lon="11.1855088"><ele>298.66666666666663</ele><time>2026-04-06T09:03:12.291Z</time></trkpt><trkpt lat="43.9244935" lon="11.1856224"><ele>298.3333333333333</ele><time>2026-04-06T09:03:15.291Z</time></trkpt><trkpt lat="43.9244531" lon="11.1857318"><ele>298.0</ele><time>2026-04-06T09:03:18.299Z</time></trkpt><trkpt lat="43.9244084" lon="11.1858432"><ele>299.8</ele><time>2026-04-06T09:03:21.288Z</time></trkpt><trkpt lat="43.9243574" lon="11.1859423"><ele>301.6</ele><time>2026-04-06T09:03:24.297Z</time></trkpt><trkpt lat="43.9243017" lon="11.1860437"><ele>303.4</ele><time>2026-04-06T09:03:27.281Z</time></trkpt><trkpt lat="43.9242402" lon="11.1861523"><ele>305.2</ele><time>2026-04-06T09:03:30.297Z</time></trkpt><trkpt lat="43.9241889" lon="11.1862687"><ele>307.0</ele><time>2026-04-06T09:03:32.291Z</time></trkpt><trkpt lat="43.9241494" lon="11.1864295"><ele>304.66666666666663</ele><time>2026-04-06T09:03:34.295Z</time></trkpt><trkpt lat="43.9241322" lon="11.1865211"><ele>302.3333333333333</ele><time>2026-04-06T09:03:35.298Z</time></trkpt><trkpt lat="43.9241207" lon="11.1866197"><ele>300.0</ele><time>2026-04-06T09:03:36.288Z</time></trkpt><trkpt lat="43.924112" lon="11.1867132"><ele>297.6666666666667</ele><time>2026-04-06T09:03:37.289Z</time></trkpt><trkpt lat="43.9240968" lon="11.1868788"><ele>295.33333333333337</ele><time>2026-04-06T09:03:39.296Z</time></trkpt><trkpt lat="43.9240682" lon="11.1870126"><ele>293.0</ele><time>2026-04-06T09:03:41.301Z</time></trkpt><trkpt lat="43.9240392" lon="11.1871224"><ele>293.0</ele><time>2026-04-06T09:03:43.288Z</time></trkpt><trkpt lat="43.9240055" lon="11.1872221"><ele>293.0</ele><time>2026-04-06T09:03:45.291Z</time></trkpt><trkpt lat="43.92397" lon="11.1873147"><ele>293.0</ele><time>2026-04-06T09:03:47.293Z</time></trkpt><trkpt lat="43.9239302" lon="11.1874259"><ele>293.0</ele><time>2026-04-06T09:03:49.299Z</time></trkpt><trkpt lat="43.9238913" lon="11.18751"><ele>293.0</ele><time>2026-04-06T09:03:51.288Z</time></trkpt><trkpt lat="43.9238518" lon="11.1875866"><ele>293.0</ele><time>2026-04-06T09:03:53.287Z</time></trkpt><trkpt lat="43.9238103" lon="11.1876721"><ele>294.83333333333337</ele><time>2026-04-06T09:03:56.297Z</time></trkpt><trkpt lat="43.9237745" lon="11.1877481"><ele>296.6666666666667</ele><time>2026-04-06T09:03:59.292Z</time></trkpt><trkpt lat="43.9237433" lon="11.1878504"><ele>298.5</ele><time>2026-04-06T09:04:02.291Z</time></trkpt><trkpt lat="43.9237129" lon="11.187972"><ele>300.3333333333333</ele><time>2026-04-06T09:04:05.289Z</time></trkpt><trkpt lat="43.9236632" lon="11.188091"><ele>302.16666666666663</ele><time>2026-04-06T09:04:07.3Z</time></trkpt><trkpt lat="43.9236349" lon="11.1881842"><ele>304.0</ele><time>2026-04-06T09:04:08.285Z</time></trkpt><trkpt lat="43.9236046" lon="11.1882947"><ele>306.16666666666663</ele><time>2026-04-06T09:04:09.29Z</time></trkpt><trkpt lat="43.9235731" lon="11.1884046"><ele>308.3333333333333</ele><time>2026-04-06T09:04:10.294Z</time></trkpt><trkpt lat="43.9235338" lon="11.1885279"><ele>310.5</ele><time>2026-04-06T09:04:11.294Z</time></trkpt><trkpt lat="43.9235004" lon="11.1886346"><ele>312.6666666666667</ele><time>2026-04-06T09:04:12.295Z</time></trkpt><trkpt lat="43.9234617" lon="11.188724"><ele>314.83333333333337</ele><time>2026-04-06T09:04:13.281Z</time></trkpt><trkpt lat="43.9234183" lon="11.1887996"><ele>317.0</ele><time>2026-04-06T09:04:14.294Z</time></trkpt><trkpt lat="43.9233769" lon="11.1888835"><ele>311.5</ele><time>2026-04-06T09:04:15.285Z</time></trkpt><trkpt lat="43.923336" lon="11.1889646"><ele>306.0</ele><time>2026-04-06T09:04:16.295Z</time></trkpt><trkpt lat="43.9232461" lon="11.1890784"><ele>300.5</ele><time>2026-04-06T09:04:18.286Z</time></trkpt><trkpt lat="43.9231952" lon="11.1891469"><ele>295.0</ele><time>2026-04-06T09:04:19.29Z</time></trkpt><trkpt lat="43.9231301" lon="11.1892855"><ele>289.5</ele><time>2026-04-06T09:04:21.287Z</time></trkpt><trkpt lat="43.9231152" lon="11.1893722"><ele>284.0</ele><time>2026-04-06T09:04:22.284Z</time></trkpt><trkpt lat="43.9231005" lon="11.1894765"><ele>284.0</ele><time>2026-04-06T09:04:23.272Z</time></trkpt><trkpt lat="43.9230918" lon="11.1895975"><ele>284.0</ele><time>2026-04-06T09:04:24.289Z</time></trkpt><trkpt lat="43.9230929" lon="11.1897137"><ele>284.0</ele><time>2026-04-06T09:04:25.283Z</time></trkpt><trkpt lat="43.9230886" lon="11.1898333"><ele>284.0</ele><time>2026-04-06T09:04:26.296Z</time></trkpt><trkpt lat="43.9230904" lon="11.1899429"><ele>284.0</ele><time>2026-04-06T09:04:27.28Z</time></trkpt><trkpt lat="43.923074" lon="11.1900468"><ele>284.0</ele><time>2026-04-06T09:04:28.284Z</time></trkpt><trkpt lat="43.9230058" lon="11.1901694"><ele>283.2</ele><time>2026-04-06T09:04:29.281Z</time></trkpt><trkpt lat="43.9229225" lon="11.1902571"><ele>282.4</ele><time>2026-04-06T09:04:30.271Z</time></trkpt><trkpt lat="43.9228316" lon="11.1903377"><ele>281.6</ele><time>2026-04-06T09:04:31.294Z</time></trkpt><trkpt lat="43.9227459" lon="11.1904246"><ele>280.8</ele><time>2026-04-06T09:04:32.292Z</time></trkpt><trkpt lat="43.9226586" lon="11.1905087"><ele>280.0</ele><time>2026-04-06T09:04:33.28Z</time></trkpt><trkpt lat="43.9225886" lon="11.1905921"><ele>274.6</ele><time>2026-04-06T09:04:34.29Z</time></trkpt><trkpt lat="43.9225186" lon="11.1906836"><ele>269.2</ele><time>2026-04-06T09:04:35.285Z</time></trkpt><trkpt lat="43.9224506" lon="11.1907827"><ele>263.8</ele><time>2026-04-06T09:04:36.293Z</time></trkpt><trkpt lat="43.9223878" lon="11.1908793"><ele>258.4</ele><time>2026-04-06T09:04:37.29Z</time></trkpt><trkpt lat="43.9223338" lon="11.1909668"><ele>253.0</ele><time>2026-04-06T09:04:38.285Z</time></trkpt><trkpt lat="43.9222742" lon="11.191047"><ele>253.0</ele><time>2026-04-06T09:04:39.287Z</time></trkpt><trkpt lat="43.9221984" lon="11.1911095"><ele>253.0</ele><time>2026-04-06T09:04:40.281Z</time></trkpt><trkpt lat="43.9221067" lon="11.1911627"><ele>253.0</ele><time>2026-04-06T09:04:41.292Z</time></trkpt><trkpt lat="43.9220135" lon="11.1912138"><ele>253.0</ele><time>2026-04-06T09:04:42.293Z</time></trkpt><trkpt lat="43.9219176" lon="11.1912572"><ele>253.0</ele><time>2026-04-06T09:04:43.28Z</time></trkpt><trkpt lat="43.9218259" lon="11.1912826"><ele>252.99999999999997</ele><time>2026-04-06T09:04:44.297Z</time></trkpt><trkpt lat="43.9217347" lon="11.1912838"><ele>253.0</ele><time>2026-04-06T09:04:45.292Z</time></trkpt><trkpt lat="43.921651" lon="11.1912473"><ele>253.0</ele><time>2026-04-06T09:04:46.282Z</time></trkpt><trkpt lat="43.9215862" lon="11.19119"><ele>253.0</ele><time>2026-04-06T09:04:47.287Z</time></trkpt><trkpt lat="43.9215287" lon="11.1911489"><ele>252.99999999999997</ele><time>2026-04-06T09:04:48.285Z</time></trkpt><trkpt lat="43.9214708" lon="11.1911099"><ele>253.0</ele><time>2026-04-06T09:04:49.293Z</time></trkpt><trkpt lat="43.9214085" lon="11.1910748"><ele>249.83333333333331</ele><time>2026-04-06T09:04:50.287Z</time></trkpt><trkpt lat="43.9213401" lon="11.1910259"><ele>246.66666666666666</ele><time>2026-04-06T09:04:51.29Z</time></trkpt><trkpt lat="43.9212688" lon="11.1909729"><ele>243.5</ele><time>2026-04-06T09:04:52.287Z</time></trkpt><trkpt lat="43.9211951" lon="11.1909216"><ele>240.33333333333331</ele><time>2026-04-06T09:04:53.289Z</time></trkpt><trkpt lat="43.921123" lon="11.1908744"><ele>237.16666666666666</ele><time>2026-04-06T09:04:54.282Z</time></trkpt><trkpt lat="43.9210475" lon="11.1908492"><ele>234.0</ele><time>2026-04-06T09:04:55.285Z</time></trkpt><trkpt lat="43.9209727" lon="11.1908402"><ele>232.16666666666666</ele><time>2026-04-06T09:04:56.288Z</time></trkpt><trkpt lat="43.9208922" lon="11.1908538"><ele>230.33333333333331</ele><time>2026-04-06T09:04:57.286Z</time></trkpt><trkpt lat="43.9208095" lon="11.1908884"><ele>228.5</ele><time>2026-04-06T09:04:58.293Z</time></trkpt><trkpt lat="43.9207264" lon="11.1909429"><ele>226.66666666666666</ele><time>2026-04-06T09:04:59.293Z</time></trkpt><trkpt lat="43.9206545" lon="11.1910102"><ele>224.83333333333331</ele><time>2026-04-06T09:05:00.283Z</time></trkpt><trkpt lat="43.9205927" lon="11.1910831"><ele>223.0</ele><time>2026-04-06T09:05:01.293Z</time></trkpt><trkpt lat="43.9205243" lon="11.1911533"><ele>222.99999999999997</ele><time>2026-04-06T09:05:02.286Z</time></trkpt><trkpt lat="43.9204499" lon="11.1912257"><ele>223.0</ele><time>2026-04-06T09:05:03.275Z</time></trkpt><trkpt lat="43.9203739" lon="11.1912931"><ele>223.0</ele><time>2026-04-06T09:05:04.284Z</time></trkpt><trkpt lat="43.920311" lon="11.1913637"><ele>223.0</ele><time>2026-04-06T09:05:05.281Z</time></trkpt><trkpt lat="43.9202593" lon="11.1914541"><ele>222.99999999999997</ele><time>2026-04-06T09:05:06.289Z</time></trkpt><trkpt lat="43.9202021" lon="11.1915569"><ele>223.0</ele><time>2026-04-06T09:05:07.28Z</time></trkpt><trkpt lat="43.920125" lon="11.1916537"><ele>220.8</ele><time>2026-04-06T09:05:08.285Z</time></trkpt><trkpt lat="43.9200308" lon="11.1917422"><ele>218.60000000000002</ele><time>2026-04-06T09:05:09.293Z</time></trkpt><trkpt lat="43.9199375" lon="11.191822"><ele>216.39999999999998</ele><time>2026-04-06T09:05:10.282Z</time></trkpt><trkpt lat="43.9198427" lon="11.1918899"><ele>214.2</ele><time>2026-04-06T09:05:11.291Z</time></trkpt><trkpt lat="43.9197547" lon="11.1919783"><ele>212.0</ele><time>2026-04-06T09:05:12.289Z</time></trkpt><trkpt lat="43.9196808" lon="11.1920656"><ele>212.0</ele><time>2026-04-06T09:05:13.281Z</time></trkpt><trkpt lat="43.9195962" lon="11.1921422"><ele>212.0</ele><time>2026-04-06T09:05:14.285Z</time></trkpt><trkpt lat="43.919522" lon="11.1922131"><ele>212.0</ele><time>2026-04-06T09:05:15.29Z</time></trkpt><trkpt lat="43.9194387" lon="11.1922781"><ele>212.0</ele><time>2026-04-06T09:05:16.285Z</time></trkpt><trkpt lat="43.9193334" lon="11.1923441"><ele>212.0</ele><time>2026-04-06T09:05:17.294Z</time></trkpt><trkpt lat="43.919231" lon="11.192407"><ele>208.8</ele><time>2026-04-06T09:05:18.284Z</time></trkpt><trkpt lat="43.9191321" lon="11.1924553"><ele>205.6</ele><time>2026-04-06T09:05:19.286Z</time></trkpt><trkpt lat="43.9190261" lon="11.1924963"><ele>202.4</ele><time>2026-04-06T09:05:20.275Z</time></trkpt><trkpt lat="43.9189142" lon="11.1925311"><ele>199.20000000000002</ele><time>2026-04-06T09:05:21.279Z</time></trkpt><trkpt lat="43.9188" lon="11.1925636"><ele>196.0</ele><time>2026-04-06T09:05:22.287Z</time></trkpt><trkpt lat="43.9186899" lon="11.1925939"><ele>196.0</ele><time>2026-04-06T09:05:23.279Z</time></trkpt><trkpt lat="43.9185762" lon="11.1926269"><ele>196.0</ele><time>2026-04-06T09:05:24.292Z</time></trkpt><trkpt lat="43.9184659" lon="11.1926744"><ele>196.0</ele><time>2026-04-06T09:05:25.283Z</time></trkpt><trkpt lat="43.9183549" lon="11.1927214"><ele>196.0</ele><time>2026-04-06T09:05:26.287Z</time></trkpt><trkpt lat="43.9182553" lon="11.1927688"><ele>193.4</ele><time>2026-04-06T09:05:27.29Z</time></trkpt><trkpt lat="43.9181517" lon="11.1928103"><ele>190.8</ele><time>2026-04-06T09:05:28.28Z</time></trkpt><trkpt lat="43.9180408" lon="11.1928554"><ele>188.20000000000002</ele><time>2026-04-06T09:05:29.279Z</time></trkpt><trkpt lat="43.9179347" lon="11.1928988"><ele>185.60000000000002</ele><time>2026-04-06T09:05:30.283Z</time></trkpt><trkpt lat="43.9178397" lon="11.1929465"><ele>183.0</ele><time>2026-04-06T09:05:31.291Z</time></trkpt><trkpt lat="43.9177471" lon="11.1929929"><ele>183.0</ele><time>2026-04-06T09:05:32.295Z</time></trkpt><trkpt lat="43.9176538" lon="11.1930238"><ele>183.0</ele><time>2026-04-06T09:05:33.284Z</time></trkpt><trkpt lat="43.9175589" lon="11.1930318"><ele>183.0</ele><time>2026-04-06T09:05:34.297Z</time></trkpt><trkpt lat="43.9174681" lon="11.1930147"><ele>183.0</ele><time>2026-04-06T09:05:35.289Z</time></trkpt><trkpt lat="43.9173777" lon="11.1930062"><ele>183.0</ele><time>2026-04-06T09:05:36.282Z</time></trkpt><trkpt lat="43.9172704" lon="11.1930131"><ele>181.60000000000002</ele><time>2026-04-06T09:05:37.283Z</time></trkpt><trkpt lat="43.9171584" lon="11.1930327"><ele>180.20000000000002</ele><time>2026-04-06T09:05:38.287Z</time></trkpt><trkpt lat="43.9170528" lon="11.1930572"><ele>178.8</ele><time>2026-04-06T09:05:39.282Z</time></trkpt><trkpt lat="43.9169428" lon="11.1930846"><ele>177.4</ele><time>2026-04-06T09:05:40.287Z</time></trkpt><trkpt lat="43.9168447" lon="11.1930946"><ele>176.0</ele><time>2026-04-06T09:05:41.282Z</time></trkpt><trkpt lat="43.9167419" lon="11.1931059"><ele>176.60000000000002</ele><time>2026-04-06T09:05:42.28Z</time></trkpt><trkpt lat="43.916636" lon="11.1931224"><ele>177.2</ele><time>2026-04-06T09:05:43.281Z</time></trkpt><trkpt lat="43.9165336" lon="11.1931314"><ele>177.8</ele><time>2026-04-06T09:05:44.285Z</time></trkpt><trkpt lat="43.9164388" lon="11.1931393"><ele>178.39999999999998</ele><time>2026-04-06T09:05:45.284Z</time></trkpt><trkpt lat="43.9163493" lon="11.1931519"><ele>179.0</ele><time>2026-04-06T09:05:46.29Z</time></trkpt><trkpt lat="43.9162621" lon="11.1931724"><ele>179.0</ele><time>2026-04-06T09:05:47.285Z</time></trkpt><trkpt lat="43.9161828" lon="11.1931954"><ele>179.0</ele><time>2026-04-06T09:05:48.297Z</time></trkpt><trkpt lat="43.9161024" lon="11.1932216"><ele>179.0</ele><time>2026-04-06T09:05:49.283Z</time></trkpt><trkpt lat="43.9160288" lon="11.1932448"><ele>179.0</ele><time>2026-04-06T09:05:50.278Z</time></trkpt><trkpt lat="43.9159586" lon="11.1932571"><ele>179.0</ele><time>2026-04-06T09:05:51.3Z</time></trkpt><trkpt lat="43.9158854" lon="11.193261"><ele>179.0</ele><time>2026-04-06T09:05:52.294Z</time></trkpt><trkpt lat="43.9157943" lon="11.1932528"><ele>177.66666666666666</ele><time>2026-04-06T09:05:53.283Z</time></trkpt><trkpt lat="43.9157055" lon="11.1932427"><ele>176.33333333333331</ele><time>2026-04-06T09:05:54.285Z</time></trkpt><trkpt lat="43.9156178" lon="11.1932262"><ele>175.0</ele><time>2026-04-06T09:05:55.287Z</time></trkpt><trkpt lat="43.9155304" lon="11.1932131"><ele>173.66666666666666</ele><time>2026-04-06T09:05:56.293Z</time></trkpt><trkpt lat="43.915441" lon="11.1932031"><ele>172.33333333333334</ele><time>2026-04-06T09:05:57.283Z</time></trkpt><trkpt lat="43.9153477" lon="11.1931937"><ele>171.0</ele><time>2026-04-06T09:05:58.298Z</time></trkpt><trkpt lat="43.9152535" lon="11.1931878"><ele>171.0</ele><time>2026-04-06T09:05:59.287Z</time></trkpt><trkpt lat="43.9151628" lon="11.1931827"><ele>171.0</ele><time>2026-04-06T09:06:00.288Z</time></trkpt><trkpt lat="43.9150699" lon="11.1931947"><ele>171.0</ele><time>2026-04-06T09:06:01.291Z</time></trkpt><trkpt lat="43.9149822" lon="11.1932245"><ele>171.0</ele><time>2026-04-06T09:06:02.292Z</time></trkpt><trkpt lat="43.9149053" lon="11.1932715"><ele>171.0</ele><time>2026-04-06T09:06:03.283Z</time></trkpt><trkpt lat="43.9148364" lon="11.1933389"><ele>171.0</ele><time>2026-04-06T09:06:04.285Z</time></trkpt><trkpt lat="43.9147727" lon="11.1934096"><ele>169.66666666666666</ele><time>2026-04-06T09:06:05.289Z</time></trkpt><trkpt lat="43.9147124" lon="11.1934812"><ele>168.33333333333334</ele><time>2026-04-06T09:06:06.284Z</time></trkpt><trkpt lat="43.914651" lon="11.193551"><ele>167.0</ele><time>2026-04-06T09:06:07.296Z</time></trkpt><trkpt lat="43.9145968" lon="11.1936127"><ele>165.66666666666669</ele><time>2026-04-06T09:06:08.284Z</time></trkpt><trkpt lat="43.9145082" lon="11.1937131"><ele>164.33333333333334</ele><time>2026-04-06T09:06:10.287Z</time></trkpt><trkpt lat="43.91442" lon="11.193789"><ele>163.0</ele><time>2026-04-06T09:06:12.279Z</time></trkpt><trkpt lat="43.9143185" lon="11.193889"><ele>163.0</ele><time>2026-04-06T09:06:14.285Z</time></trkpt><trkpt lat="43.9142387" lon="11.1940116"><ele>163.0</ele><time>2026-04-06T09:06:16.285Z</time></trkpt><trkpt lat="43.9141905" lon="11.1941806"><ele>163.0</ele><time>2026-04-06T09:06:18.285Z</time></trkpt><trkpt lat="43.9141837" lon="11.194278"><ele>163.0</ele><time>2026-04-06T09:06:19.285Z</time></trkpt><trkpt lat="43.9141929" lon="11.194375"><ele>163.0</ele><time>2026-04-06T09:06:20.286Z</time></trkpt><trkpt lat="43.9142118" lon="11.1944683"><ele>163.0</ele><time>2026-04-06T09:06:21.278Z</time></trkpt><trkpt lat="43.9142332" lon="11.1945594"><ele>163.0</ele><time>2026-04-06T09:06:22.296Z</time></trkpt><trkpt lat="43.9142443" lon="11.1946521"><ele>163.0</ele><time>2026-04-06T09:06:23.281Z</time></trkpt><trkpt lat="43.9142522" lon="11.1948248"><ele>163.0</ele><time>2026-04-06T09:06:25.284Z</time></trkpt><trkpt lat="43.9142242" lon="11.1949683"><ele>163.0</ele><time>2026-04-06T09:06:27.288Z</time></trkpt><trkpt lat="43.9141666" lon="11.1950848"><ele>161.66666666666669</ele><time>2026-04-06T09:06:29.282Z</time></trkpt><trkpt lat="43.9140971" lon="11.1951768"><ele>160.33333333333334</ele><time>2026-04-06T09:06:31.288Z</time></trkpt><trkpt lat="43.9140005" lon="11.1952199"><ele>159.0</ele><time>2026-04-06T09:06:33.296Z</time></trkpt><trkpt lat="43.9139066" lon="11.1952366"><ele>157.66666666666666</ele><time>2026-04-06T09:06:35.291Z</time></trkpt><trkpt lat="43.9138279" lon="11.1952549"><ele>156.33333333333331</ele><time>2026-04-06T09:06:37.285Z</time></trkpt><trkpt lat="43.9137633" lon="11.1952572"><ele>155.0</ele><time>2026-04-06T09:06:39.289Z</time></trkpt><trkpt lat="43.9136996" lon="11.1952573"><ele>155.0</ele><time>2026-04-06T09:06:41.276Z</time></trkpt><trkpt lat="43.9136351" lon="11.1952578"><ele>155.0</ele><time>2026-04-06T09:06:43.288Z</time></trkpt><trkpt lat="43.9135582" lon="11.195243"><ele>155.0</ele><time>2026-04-06T09:06:46.283Z</time></trkpt><trkpt lat="43.9135015" lon="11.1952037"><ele>155.0</ele><time>2026-04-06T09:06:49.284Z</time></trkpt><trkpt lat="43.9134439" lon="11.1951601"><ele>155.0</ele><time>2026-04-06T09:06:52.295Z</time></trkpt><trkpt lat="43.9133799" lon="11.1950948"><ele>155.0</ele><time>2026-04-06T09:06:55.291Z</time></trkpt><trkpt lat="43.9133174" lon="11.1950262"><ele>155.0</ele><time>2026-04-06T09:06:58.291Z</time></trkpt><trkpt lat="43.9132443" lon="11.1949736"><ele>155.5</ele><time>2026-04-06T09:07:01.295Z</time></trkpt><trkpt lat="43.9131692" lon="11.1949265"><ele>156.0</ele><time>2026-04-06T09:07:04.293Z</time></trkpt><trkpt lat="43.9130898" lon="11.1948944"><ele>156.5</ele><time>2026-04-06T09:07:07.284Z</time></trkpt><trkpt lat="43.9130107" lon="11.1948454"><ele>157.0</ele><time>2026-04-06T09:07:10.289Z</time></trkpt><trkpt lat="43.9129454" lon="11.1948074"><ele>157.5</ele><time>2026-04-06T09:07:12.294Z</time></trkpt><trkpt lat="43.9128803" lon="11.1947691"><ele>158.0</ele><time>2026-04-06T09:07:14.297Z</time></trkpt><trkpt lat="43.912816" lon="11.1947268"><ele>157.0</ele><time>2026-04-06T09:07:16.294Z</time></trkpt><trkpt lat="43.9127475" lon="11.1946911"><ele>156.0</ele><time>2026-04-06T09:07:18.285Z</time></trkpt><trkpt lat="43.9126614" lon="11.1946455"><ele>155.0</ele><time>2026-04-06T09:07:21.284Z</time></trkpt><trkpt lat="43.9125975" lon="11.1946004"><ele>154.0</ele><time>2026-04-06T09:07:23.282Z</time></trkpt><trkpt lat="43.9125342" lon="11.1945525"><ele>153.0</ele><time>2026-04-06T09:07:25.28Z</time></trkpt><trkpt lat="43.9124715" lon="11.1945029"><ele>152.0</ele><time>2026-04-06T09:07:27.284Z</time></trkpt><trkpt lat="43.9124095" lon="11.1944583"><ele>152.0</ele><time>2026-04-06T09:07:29.286Z</time></trkpt><trkpt lat="43.9123433" lon="11.194415"><ele>152.0</ele><time>2026-04-06T09:07:31.297Z</time></trkpt><trkpt lat="43.912273" lon="11.1943756"><ele>152.0</ele><time>2026-04-06T09:07:33.28Z</time></trkpt><trkpt lat="43.9121986" lon="11.1943249"><ele>152.0</ele><time>2026-04-06T09:07:35.285Z</time></trkpt><trkpt lat="43.9121164" lon="11.1942714"><ele>152.0</ele><time>2026-04-06T09:07:37.294Z</time></trkpt><trkpt lat="43.9120305" lon="11.194215"><ele>152.0</ele><time>2026-04-06T09:07:39.282Z</time></trkpt><trkpt lat="43.9119493" lon="11.1941538"><ele>152.0</ele><time>2026-04-06T09:07:41.299Z</time></trkpt><trkpt lat="43.9118666" lon="11.1940984"><ele>152.0</ele><time>2026-04-06T09:07:43.29Z</time></trkpt><trkpt lat="43.9117724" lon="11.1940346"><ele>152.0</ele><time>2026-04-06T09:07:45.288Z</time></trkpt><trkpt lat="43.9116668" lon="11.1939708"><ele>152.0</ele><time>2026-04-06T09:07:47.285Z</time></trkpt><trkpt lat="43.9115701" lon="11.1939092"><ele>152.0</ele><time>2026-04-06T09:07:49.285Z</time></trkpt><trkpt lat="43.9114849" lon="11.1938466"><ele>151.66666666666666</ele><time>2026-04-06T09:07:51.291Z</time></trkpt><trkpt lat="43.9114015" lon="11.1937851"><ele>151.33333333333331</ele><time>2026-04-06T09:07:53.299Z</time></trkpt><trkpt lat="43.9113207" lon="11.193733"><ele>151.0</ele><time>2026-04-06T09:07:55.299Z</time></trkpt><trkpt lat="43.9112448" lon="11.1936787"><ele>150.66666666666666</ele><time>2026-04-06T09:07:57.285Z</time></trkpt><trkpt lat="43.9111701" lon="11.1936253"><ele>150.33333333333334</ele><time>2026-04-06T09:07:59.298Z</time></trkpt><trkpt lat="43.9110896" lon="11.1935702"><ele>150.0</ele><time>2026-04-06T09:08:01.293Z</time></trkpt><trkpt lat="43.9110045" lon="11.193514"><ele>150.0</ele><time>2026-04-06T09:08:03.28Z</time></trkpt><trkpt lat="43.9109113" lon="11.1934558"><ele>150.0</ele><time>2026-04-06T09:08:05.287Z</time></trkpt><trkpt lat="43.9108194" lon="11.1933909"><ele>150.0</ele><time>2026-04-06T09:08:07.285Z</time></trkpt><trkpt lat="43.9107287" lon="11.1933331"><ele>150.0</ele><time>2026-04-06T09:08:09.284Z</time></trkpt><trkpt lat="43.9106346" lon="11.1932784"><ele>150.0</ele><time>2026-04-06T09:08:11.288Z</time></trkpt><trkpt lat="43.9105427" lon="11.1932225"><ele>149.4</ele><time>2026-04-06T09:08:13.293Z</time></trkpt><trkpt lat="43.9104591" lon="11.1931638"><ele>148.8</ele><time>2026-04-06T09:08:15.285Z</time></trkpt><trkpt lat="43.9103617" lon="11.1930922"><ele>148.2</ele><time>2026-04-06T09:08:17.283Z</time></trkpt><trkpt lat="43.9102671" lon="11.1930181"><ele>147.6</ele><time>2026-04-06T09:08:19.292Z</time></trkpt><trkpt lat="43.9101711" lon="11.1929492"><ele>147.0</ele><time>2026-04-06T09:08:21.294Z</time></trkpt><trkpt lat="43.9100759" lon="11.1928781"><ele>146.25</ele><time>2026-04-06T09:08:23.29Z</time></trkpt><trkpt lat="43.9099747" lon="11.1928048"><ele>145.5</ele><time>2026-04-06T09:08:25.288Z</time></trkpt><trkpt lat="43.9098698" lon="11.192737"><ele>144.75</ele><time>2026-04-06T09:08:27.295Z</time></trkpt><trkpt lat="43.9097638" lon="11.1926606"><ele>144.0</ele><time>2026-04-06T09:08:29.288Z</time></trkpt><trkpt lat="43.9096579" lon="11.1925947"><ele>144.0</ele><time>2026-04-06T09:08:31.274Z</time></trkpt><trkpt lat="43.9095677" lon="11.1925273"><ele>144.0</ele><time>2026-04-06T09:08:33.277Z</time></trkpt><trkpt lat="43.9094743" lon="11.1924592"><ele>144.0</ele><time>2026-04-06T09:08:35.292Z</time></trkpt><trkpt lat="43.9093703" lon="11.1923909"><ele>144.0</ele><time>2026-04-06T09:08:37.278Z</time></trkpt><trkpt lat="43.9092637" lon="11.1923236"><ele>144.0</ele><time>2026-04-06T09:08:39.29Z</time></trkpt><trkpt lat="43.9092039" lon="11.192296"><ele>143.66666666666666</ele><time>2026-04-06T09:08:40.291Z</time></trkpt><trkpt lat="43.9091426" lon="11.1922657"><ele>143.33333333333334</ele><time>2026-04-06T09:08:41.287Z</time></trkpt><trkpt lat="43.909081" lon="11.192241"><ele>143.0</ele><time>2026-04-06T09:08:42.283Z</time></trkpt><trkpt lat="43.9089614" lon="11.1922115"><ele>142.66666666666669</ele><time>2026-04-06T09:08:44.29Z</time></trkpt><trkpt lat="43.9088939" lon="11.1922009"><ele>142.33333333333334</ele><time>2026-04-06T09:08:45.291Z</time></trkpt><trkpt lat="43.9087699" lon="11.192177"><ele>142.0</ele><time>2026-04-06T09:08:47.293Z</time></trkpt><trkpt lat="43.9086495" lon="11.1921536"><ele>142.0</ele><time>2026-04-06T09:08:49.294Z</time></trkpt><trkpt lat="43.908533" lon="11.1921281"><ele>142.0</ele><time>2026-04-06T09:08:51.287Z</time></trkpt><trkpt lat="43.9084197" lon="11.1921035"><ele>142.0</ele><time>2026-04-06T09:08:53.292Z</time></trkpt><trkpt lat="43.9083045" lon="11.1920737"><ele>142.0</ele><time>2026-04-06T09:08:55.285Z</time></trkpt><trkpt lat="43.9081938" lon="11.1920402"><ele>141.75</ele><time>2026-04-06T09:08:57.279Z</time></trkpt><trkpt lat="43.9080854" lon="11.1919913"><ele>141.5</ele><time>2026-04-06T09:08:59.285Z</time></trkpt><trkpt lat="43.9079736" lon="11.191933"><ele>141.25</ele><time>2026-04-06T09:09:01.292Z</time></trkpt><trkpt lat="43.9078616" lon="11.1918585"><ele>141.0</ele><time>2026-04-06T09:09:03.288Z</time></trkpt><trkpt lat="43.9077533" lon="11.1917722"><ele>141.0</ele><time>2026-04-06T09:09:05.29Z</time></trkpt><trkpt lat="43.9076974" lon="11.1917236"><ele>141.0</ele><time>2026-04-06T09:09:06.291Z</time></trkpt><trkpt lat="43.9076419" lon="11.1916783"><ele>141.0</ele><time>2026-04-06T09:09:07.29Z</time></trkpt><trkpt lat="43.9075318" lon="11.1915917"><ele>141.0</ele><time>2026-04-06T09:09:09.289Z</time></trkpt><trkpt lat="43.9074284" lon="11.1915026"><ele>141.0</ele><time>2026-04-06T09:09:11.29Z</time></trkpt><trkpt lat="43.9073301" lon="11.1914197"><ele>140.0</ele><time>2026-04-06T09:09:13.28Z</time></trkpt><trkpt lat="43.9072291" lon="11.1913372"><ele>139.0</ele><time>2026-04-06T09:09:15.29Z</time></trkpt><trkpt lat="43.9071313" lon="11.1912499"><ele>138.0</ele><time>2026-04-06T09:09:17.292Z</time></trkpt><trkpt lat="43.9070322" lon="11.1911621"><ele>137.0</ele><time>2026-04-06T09:09:19.295Z</time></trkpt><trkpt lat="43.9069321" lon="11.1910803"><ele>137.0</ele><time>2026-04-06T09:09:21.289Z</time></trkpt><trkpt lat="43.9068244" lon="11.1910048"><ele>137.0</ele><time>2026-04-06T09:09:23.295Z</time></trkpt><trkpt lat="43.9067125" lon="11.1909438"><ele>137.0</ele><time>2026-04-06T09:09:25.287Z</time></trkpt><trkpt lat="43.9065906" lon="11.1908908"><ele>137.0</ele><time>2026-04-06T09:09:27.295Z</time></trkpt><trkpt lat="43.9065285" lon="11.1908639"><ele>137.0</ele><time>2026-04-06T09:09:28.287Z</time></trkpt><trkpt lat="43.9064641" lon="11.1908341"><ele>136.66666666666666</ele><time>2026-04-06T09:09:29.302Z</time></trkpt><trkpt lat="43.9064002" lon="11.1907996"><ele>136.33333333333331</ele><time>2026-04-06T09:09:30.294Z</time></trkpt><trkpt lat="43.9063373" lon="11.1907575"><ele>136.0</ele><time>2026-04-06T09:09:31.291Z</time></trkpt><trkpt lat="43.9062768" lon="11.1907123"><ele>135.66666666666666</ele><time>2026-04-06T09:09:32.282Z</time></trkpt><trkpt lat="43.906217" lon="11.1906635"><ele>135.33333333333334</ele><time>2026-04-06T09:09:33.281Z</time></trkpt><trkpt lat="43.9061611" lon="11.1906182"><ele>135.0</ele><time>2026-04-06T09:09:34.282Z</time></trkpt><trkpt lat="43.9060661" lon="11.1905123"><ele>134.5</ele><time>2026-04-06T09:09:36.281Z</time></trkpt><trkpt lat="43.9060133" lon="11.1904622"><ele>134.0</ele><time>2026-04-06T09:09:37.298Z</time></trkpt><trkpt lat="43.9059023" lon="11.1903773"><ele>133.5</ele><time>2026-04-06T09:09:39.293Z</time></trkpt><trkpt lat="43.9057939" lon="11.1902862"><ele>133.0</ele><time>2026-04-06T09:09:41.289Z</time></trkpt><trkpt lat="43.9057391" lon="11.1902428"><ele>132.5</ele><time>2026-04-06T09:09:42.284Z</time></trkpt><trkpt lat="43.9056838" lon="11.1901943"><ele>132.0</ele><time>2026-04-06T09:09:43.287Z</time></trkpt><trkpt lat="43.9056302" lon="11.1901464"><ele>131.75</ele><time>2026-04-06T09:09:44.296Z</time></trkpt><trkpt lat="43.9055259" lon="11.1900609"><ele>131.5</ele><time>2026-04-06T09:09:46.3Z</time></trkpt><trkpt lat="43.9054241" lon="11.1899758"><ele>131.25</ele><time>2026-04-06T09:09:48.281Z</time></trkpt><trkpt lat="43.9053197" lon="11.1898908"><ele>131.0</ele><time>2026-04-06T09:09:50.285Z</time></trkpt><trkpt lat="43.9052163" lon="11.1898079"><ele>130.83333333333331</ele><time>2026-04-06T09:09:52.293Z</time></trkpt><trkpt lat="43.9051159" lon="11.1897329"><ele>130.66666666666666</ele><time>2026-04-06T09:09:54.286Z</time></trkpt><trkpt lat="43.9050192" lon="11.1896533"><ele>130.5</ele><time>2026-04-06T09:09:56.294Z</time></trkpt><trkpt lat="43.9049648" lon="11.1896059"><ele>130.33333333333334</ele><time>2026-04-06T09:09:57.289Z</time></trkpt><trkpt lat="43.9049103" lon="11.1895592"><ele>130.16666666666669</ele><time>2026-04-06T09:09:58.288Z</time></trkpt><trkpt lat="43.9048558" lon="11.1895134"><ele>130.0</ele><time>2026-04-06T09:09:59.288Z</time></trkpt><trkpt lat="43.9047525" lon="11.189425"><ele>129.5</ele><time>2026-04-06T09:10:01.289Z</time></trkpt><trkpt lat="43.9046564" lon="11.1893441"><ele>129.0</ele><time>2026-04-06T09:10:03.28Z</time></trkpt><trkpt lat="43.9045437" lon="11.1892813"><ele>128.5</ele><time>2026-04-06T09:10:05.288Z</time></trkpt><trkpt lat="43.9044351" lon="11.1892384"><ele>128.0</ele><time>2026-04-06T09:10:07.289Z</time></trkpt><trkpt lat="43.9043243" lon="11.1892164"><ele>127.99999999999999</ele><time>2026-04-06T09:10:09.285Z</time></trkpt><trkpt lat="43.9042095" lon="11.1892003"><ele>128.0</ele><time>2026-04-06T09:10:11.286Z</time></trkpt><trkpt lat="43.9040838" lon="11.1891918"><ele>128.0</ele><time>2026-04-06T09:10:13.289Z</time></trkpt><trkpt lat="43.9040209" lon="11.1891877"><ele>128.0</ele><time>2026-04-06T09:10:14.29Z</time></trkpt><trkpt lat="43.9039574" lon="11.1891815"><ele>127.99999999999999</ele><time>2026-04-06T09:10:15.28Z</time></trkpt><trkpt lat="43.9038945" lon="11.1891753"><ele>128.0</ele><time>2026-04-06T09:10:16.297Z</time></trkpt><trkpt lat="43.9037676" lon="11.1891589"><ele>128.0</ele><time>2026-04-06T09:10:18.286Z</time></trkpt><trkpt lat="43.9037029" lon="11.189151"><ele>127.99999999999999</ele><time>2026-04-06T09:10:19.289Z</time></trkpt><trkpt lat="43.9036383" lon="11.189143"><ele>128.0</ele><time>2026-04-06T09:10:20.291Z</time></trkpt><trkpt lat="43.9035736" lon="11.1891373"><ele>128.0</ele><time>2026-04-06T09:10:21.282Z</time></trkpt><trkpt lat="43.9035082" lon="11.1891338"><ele>127.99999999999999</ele><time>2026-04-06T09:10:22.295Z</time></trkpt><trkpt lat="43.9034423" lon="11.1891317"><ele>128.0</ele><time>2026-04-06T09:10:23.285Z</time></trkpt><trkpt lat="43.9033751" lon="11.1891295"><ele>128.0</ele><time>2026-04-06T09:10:24.282Z</time></trkpt><trkpt lat="43.9033048" lon="11.1891271"><ele>127.57142857142857</ele><time>2026-04-06T09:10:25.287Z</time></trkpt><trkpt lat="43.9032292" lon="11.1891287"><ele>127.14285714285714</ele><time>2026-04-06T09:10:26.291Z</time></trkpt><trkpt lat="43.9031547" lon="11.1891285"><ele>126.71428571428571</ele><time>2026-04-06T09:10:27.296Z</time></trkpt><trkpt lat="43.9030807" lon="11.1891261"><ele>126.28571428571428</ele><time>2026-04-06T09:10:28.288Z</time></trkpt><trkpt lat="43.9030094" lon="11.1891229"><ele>125.85714285714286</ele><time>2026-04-06T09:10:29.295Z</time></trkpt><trkpt lat="43.9029348" lon="11.1891211"><ele>125.42857142857142</ele><time>2026-04-06T09:10:30.289Z</time></trkpt><trkpt lat="43.9028658" lon="11.1891189"><ele>125.0</ele><time>2026-04-06T09:10:31.29Z</time></trkpt><trkpt lat="43.9027955" lon="11.1891157"><ele>125.0</ele><time>2026-04-06T09:10:32.287Z</time></trkpt><trkpt lat="43.9027232" lon="11.1891134"><ele>125.0</ele><time>2026-04-06T09:10:33.288Z</time></trkpt><trkpt lat="43.9026555" lon="11.1891084"><ele>125.0</ele><time>2026-04-06T09:10:34.277Z</time></trkpt><trkpt lat="43.9025881" lon="11.1891054"><ele>125.0</ele><time>2026-04-06T09:10:35.278Z</time></trkpt><trkpt lat="43.902522" lon="11.1891022"><ele>125.0</ele><time>2026-04-06T09:10:36.289Z</time></trkpt><trkpt lat="43.9024579" lon="11.1891031"><ele>125.0</ele><time>2026-04-06T09:10:37.293Z</time></trkpt><trkpt lat="43.9023927" lon="11.1891049"><ele>125.0</ele><time>2026-04-06T09:10:38.289Z</time></trkpt><trkpt lat="43.9023272" lon="11.1891074"><ele>124.66666666666666</ele><time>2026-04-06T09:10:39.296Z</time></trkpt><trkpt lat="43.9022614" lon="11.1891075"><ele>124.33333333333333</ele><time>2026-04-06T09:10:40.28Z</time></trkpt><trkpt lat="43.9021979" lon="11.1891065"><ele>124.0</ele><time>2026-04-06T09:10:41.285Z</time></trkpt><trkpt lat="43.9020714" lon="11.1891044"><ele>123.66666666666666</ele><time>2026-04-06T09:10:43.292Z</time></trkpt><trkpt lat="43.9020077" lon="11.1891024"><ele>123.33333333333333</ele><time>2026-04-06T09:10:44.297Z</time></trkpt><trkpt lat="43.9019434" lon="11.1890971"><ele>123.0</ele><time>2026-04-06T09:10:45.301Z</time></trkpt><trkpt lat="43.9018749" lon="11.1890993"><ele>123.0</ele><time>2026-04-06T09:10:46.282Z</time></trkpt><trkpt lat="43.9018091" lon="11.1890984"><ele>123.00000000000001</ele><time>2026-04-06T09:10:47.29Z</time></trkpt><trkpt lat="43.9016834" lon="11.1891011"><ele>123.00000000000001</ele><time>2026-04-06T09:10:49.293Z</time></trkpt><trkpt lat="43.9015593" lon="11.1890998"><ele>123.0</ele><time>2026-04-06T09:10:51.276Z</time></trkpt><trkpt lat="43.90144" lon="11.1890847"><ele>123.0</ele><time>2026-04-06T09:10:53.291Z</time></trkpt><trkpt lat="43.9013272" lon="11.1890521"><ele>122.80000000000001</ele><time>2026-04-06T09:10:55.294Z</time></trkpt><trkpt lat="43.9012184" lon="11.1890308"><ele>122.60000000000001</ele><time>2026-04-06T09:10:57.291Z</time></trkpt><trkpt lat="43.9011128" lon="11.1890065"><ele>122.39999999999999</ele><time>2026-04-06T09:10:59.29Z</time></trkpt><trkpt lat="43.9010105" lon="11.1889827"><ele>122.19999999999999</ele><time>2026-04-06T09:11:01.29Z</time></trkpt><trkpt lat="43.900897" lon="11.1889537"><ele>122.0</ele><time>2026-04-06T09:11:03.287Z</time></trkpt><trkpt lat="43.9007817" lon="11.1889329"><ele>121.75</ele><time>2026-04-06T09:11:05.287Z</time></trkpt><trkpt lat="43.9006672" lon="11.1888969"><ele>121.5</ele><time>2026-04-06T09:11:07.287Z</time></trkpt><trkpt lat="43.9005548" lon="11.18886"><ele>121.25</ele><time>2026-04-06T09:11:09.286Z</time></trkpt><trkpt lat="43.9004529" lon="11.1888037"><ele>121.0</ele><time>2026-04-06T09:11:11.292Z</time></trkpt><trkpt lat="43.9003478" lon="11.188724"><ele>121.0</ele><time>2026-04-06T09:11:13.289Z</time></trkpt><trkpt lat="43.9002459" lon="11.1886429"><ele>121.0</ele><time>2026-04-06T09:11:15.288Z</time></trkpt><trkpt lat="43.9001445" lon="11.1885634"><ele>121.0</ele><time>2026-04-06T09:11:17.293Z</time></trkpt><trkpt lat="43.900043" lon="11.1884831"><ele>121.0</ele><time>2026-04-06T09:11:19.288Z</time></trkpt><trkpt lat="43.8999882" lon="11.188439"><ele>121.0</ele><time>2026-04-06T09:11:20.283Z</time></trkpt><trkpt lat="43.899882" lon="11.1883573"><ele>120.75</ele><time>2026-04-06T09:11:22.293Z</time></trkpt><trkpt lat="43.8997748" lon="11.1882778"><ele>120.5</ele><time>2026-04-06T09:11:24.3Z</time></trkpt><trkpt lat="43.8996749" lon="11.1881971"><ele>120.25</ele><time>2026-04-06T09:11:26.283Z</time></trkpt><trkpt lat="43.8995747" lon="11.1881142"><ele>120.0</ele><time>2026-04-06T09:11:28.291Z</time></trkpt><trkpt lat="43.8994811" lon="11.1880309"><ele>119.5</ele><time>2026-04-06T09:11:30.288Z</time></trkpt><trkpt lat="43.8993769" lon="11.1879591"><ele>119.0</ele><time>2026-04-06T09:11:32.29Z</time></trkpt><trkpt lat="43.8992734" lon="11.1878927"><ele>118.5</ele><time>2026-04-06T09:11:34.296Z</time></trkpt><trkpt lat="43.8991559" lon="11.1878414"><ele>118.0</ele><time>2026-04-06T09:11:36.291Z</time></trkpt><trkpt lat="43.8990471" lon="11.1877737"><ele>117.60000000000001</ele><time>2026-04-06T09:11:38.289Z</time></trkpt><trkpt lat="43.898953" lon="11.1876912"><ele>117.20000000000002</ele><time>2026-04-06T09:11:40.285Z</time></trkpt><trkpt lat="43.8988494" lon="11.1876399"><ele>116.8</ele><time>2026-04-06T09:11:42.292Z</time></trkpt><trkpt lat="43.8987514" lon="11.18758"><ele>116.4</ele><time>2026-04-06T09:11:44.289Z</time></trkpt><trkpt lat="43.8986582" lon="11.1874978"><ele>116.0</ele><time>2026-04-06T09:11:46.277Z</time></trkpt><trkpt lat="43.8985657" lon="11.1874339"><ele>116.0</ele><time>2026-04-06T09:11:48.278Z</time></trkpt><trkpt lat="43.8984663" lon="11.1873797"><ele>116.0</ele><time>2026-04-06T09:11:50.279Z</time></trkpt><trkpt lat="43.8983643" lon="11.1873207"><ele>116.0</ele><time>2026-04-06T09:11:52.291Z</time></trkpt><trkpt lat="43.8982574" lon="11.1872604"><ele>116.0</ele><time>2026-04-06T09:11:54.291Z</time></trkpt><trkpt lat="43.8981489" lon="11.1872025"><ele>116.0</ele><time>2026-04-06T09:11:56.288Z</time></trkpt><trkpt lat="43.8980402" lon="11.1871444"><ele>115.75</ele><time>2026-04-06T09:11:58.294Z</time></trkpt><trkpt lat="43.8979316" lon="11.1870833"><ele>115.5</ele><time>2026-04-06T09:12:00.289Z</time></trkpt><trkpt lat="43.8978274" lon="11.1870197"><ele>115.25</ele><time>2026-04-06T09:12:02.28Z</time></trkpt><trkpt lat="43.8977193" lon="11.1869607"><ele>115.0</ele><time>2026-04-06T09:12:04.288Z</time></trkpt><trkpt lat="43.8976177" lon="11.186901"><ele>114.8</ele><time>2026-04-06T09:12:06.297Z</time></trkpt><trkpt lat="43.8975217" lon="11.1868277"><ele>114.6</ele><time>2026-04-06T09:12:08.286Z</time></trkpt><trkpt lat="43.8974352" lon="11.1867397"><ele>114.4</ele><time>2026-04-06T09:12:10.286Z</time></trkpt><trkpt lat="43.8973535" lon="11.1866516"><ele>114.2</ele><time>2026-04-06T09:12:12.287Z</time></trkpt><trkpt lat="43.8972628" lon="11.1866037"><ele>114.0</ele><time>2026-04-06T09:12:14.276Z</time></trkpt><trkpt lat="43.8971591" lon="11.1865893"><ele>114.0</ele><time>2026-04-06T09:12:16.277Z</time></trkpt><trkpt lat="43.8970483" lon="11.1865757"><ele>114.0</ele><time>2026-04-06T09:12:18.29Z</time></trkpt><trkpt lat="43.8969418" lon="11.1865221"><ele>114.0</ele><time>2026-04-06T09:12:20.284Z</time></trkpt><trkpt lat="43.8968445" lon="11.1864612"><ele>114.0</ele><time>2026-04-06T09:12:22.293Z</time></trkpt><trkpt lat="43.8967406" lon="11.1864041"><ele>114.0</ele><time>2026-04-06T09:12:24.292Z</time></trkpt><trkpt lat="43.8966372" lon="11.1863432"><ele>113.6</ele><time>2026-04-06T09:12:26.29Z</time></trkpt><trkpt lat="43.8965501" lon="11.1862813"><ele>113.2</ele><time>2026-04-06T09:12:28.293Z</time></trkpt><trkpt lat="43.8964623" lon="11.1862197"><ele>112.79999999999998</ele><time>2026-04-06T09:12:30.279Z</time></trkpt><trkpt lat="43.8963794" lon="11.1861687"><ele>112.39999999999999</ele><time>2026-04-06T09:12:32.282Z</time></trkpt><trkpt lat="43.8962995" lon="11.1861166"><ele>112.0</ele><time>2026-04-06T09:12:34.29Z</time></trkpt><trkpt lat="43.8962193" lon="11.1860686"><ele>112.0</ele><time>2026-04-06T09:12:36.287Z</time></trkpt><trkpt lat="43.8961312" lon="11.1860277"><ele>111.99999999999999</ele><time>2026-04-06T09:12:38.295Z</time></trkpt><trkpt lat="43.8960367" lon="11.1859799"><ele>111.99999999999999</ele><time>2026-04-06T09:12:40.296Z</time></trkpt><trkpt lat="43.8959454" lon="11.1859177"><ele>112.0</ele><time>2026-04-06T09:12:42.289Z</time></trkpt><trkpt lat="43.8958546" lon="11.1858575"><ele>112.0</ele><time>2026-04-06T09:12:44.297Z</time></trkpt><trkpt lat="43.8957588" lon="11.1857963"><ele>112.19999999999999</ele><time>2026-04-06T09:12:46.29Z</time></trkpt><trkpt lat="43.8956655" lon="11.185735"><ele>112.39999999999999</ele><time>2026-04-06T09:12:48.279Z</time></trkpt><trkpt lat="43.895578" lon="11.1856742"><ele>112.60000000000001</ele><time>2026-04-06T09:12:50.295Z</time></trkpt><trkpt lat="43.8954883" lon="11.1856097"><ele>112.80000000000001</ele><time>2026-04-06T09:12:52.299Z</time></trkpt><trkpt lat="43.8953987" lon="11.1855501"><ele>113.0</ele><time>2026-04-06T09:12:54.289Z</time></trkpt><trkpt lat="43.895303" lon="11.1854843"><ele>112.4</ele><time>2026-04-06T09:12:56.29Z</time></trkpt><trkpt lat="43.8952105" lon="11.1854216"><ele>111.80000000000001</ele><time>2026-04-06T09:12:58.303Z</time></trkpt><trkpt lat="43.8951192" lon="11.1853546"><ele>111.2</ele><time>2026-04-06T09:13:00.286Z</time></trkpt><trkpt lat="43.8950281" lon="11.1852924"><ele>110.6</ele><time>2026-04-06T09:13:02.291Z</time></trkpt><trkpt lat="43.8949406" lon="11.1852272"><ele>110.0</ele><time>2026-04-06T09:13:04.291Z</time></trkpt><trkpt lat="43.8948496" lon="11.1851543"><ele>110.0</ele><time>2026-04-06T09:13:06.304Z</time></trkpt><trkpt lat="43.8947572" lon="11.1850911"><ele>110.0</ele><time>2026-04-06T09:13:08.284Z</time></trkpt><trkpt lat="43.894659" lon="11.1850345"><ele>110.0</ele><time>2026-04-06T09:13:10.295Z</time></trkpt><trkpt lat="43.8945633" lon="11.1849661"><ele>110.0</ele><time>2026-04-06T09:13:12.288Z</time></trkpt><trkpt lat="43.8944669" lon="11.1848932"><ele>110.0</ele><time>2026-04-06T09:13:14.29Z</time></trkpt><trkpt lat="43.8943681" lon="11.1848183"><ele>109.8</ele><time>2026-04-06T09:13:16.291Z</time></trkpt><trkpt lat="43.8942651" lon="11.1847511"><ele>109.6</ele><time>2026-04-06T09:13:18.296Z</time></trkpt><trkpt lat="43.8941701" lon="11.1846858"><ele>109.4</ele><time>2026-04-06T09:13:20.302Z</time></trkpt><trkpt lat="43.894076" lon="11.1846141"><ele>109.2</ele><time>2026-04-06T09:13:22.285Z</time></trkpt><trkpt lat="43.8939811" lon="11.184543"><ele>109.0</ele><time>2026-04-06T09:13:24.291Z</time></trkpt><trkpt lat="43.8938882" lon="11.1844693"><ele>108.75</ele><time>2026-04-06T09:13:26.295Z</time></trkpt><trkpt lat="43.8937893" lon="11.1843965"><ele>108.5</ele><time>2026-04-06T09:13:28.297Z</time></trkpt><trkpt lat="43.8936918" lon="11.1843193"><ele>108.25</ele><time>2026-04-06T09:13:30.294Z</time></trkpt><trkpt lat="43.8935954" lon="11.1842307"><ele>108.0</ele><time>2026-04-06T09:13:32.291Z</time></trkpt><trkpt lat="43.8935039" lon="11.1841465"><ele>108.0</ele><time>2026-04-06T09:13:34.298Z</time></trkpt><trkpt lat="43.8934273" lon="11.1840747"><ele>108.0</ele><time>2026-04-06T09:13:36.297Z</time></trkpt><trkpt lat="43.8933663" lon="11.1840123"><ele>108.0</ele><time>2026-04-06T09:13:38.29Z</time></trkpt><trkpt lat="43.8933242" lon="11.1839357"><ele>108.0</ele><time>2026-04-06T09:13:41.294Z</time></trkpt><trkpt lat="43.8933265" lon="11.1838346"><ele>108.0</ele><time>2026-04-06T09:13:45.296Z</time></trkpt><trkpt lat="43.8933539" lon="11.1837231"><ele>108.0</ele><time>2026-04-06T09:14:12.291Z</time></trkpt><trkpt lat="43.8933901" lon="11.1836444"><ele>107.42857142857143</ele><time>2026-04-06T09:14:15.293Z</time></trkpt><trkpt lat="43.893387" lon="11.1837419"><ele>106.85714285714286</ele><time>2026-04-06T09:15:04.281Z</time></trkpt><trkpt lat="43.8933559" lon="11.1838194"><ele>106.28571428571428</ele><time>2026-04-06T09:15:06.293Z</time></trkpt><trkpt lat="43.8933038" lon="11.1838756"><ele>105.71428571428572</ele><time>2026-04-06T09:15:08.292Z</time></trkpt><trkpt lat="43.8932363" lon="11.1838845"><ele>105.14285714285715</ele><time>2026-04-06T09:15:11.287Z</time></trkpt><trkpt lat="43.8931993" lon="11.1838047"><ele>104.57142857142857</ele><time>2026-04-06T09:15:14.29Z</time></trkpt><trkpt lat="43.8931369" lon="11.1837611"><ele>104.0</ele><time>2026-04-06T09:15:16.277Z</time></trkpt><trkpt lat="43.8930703" lon="11.1837126"><ele>103.99999999999999</ele><time>2026-04-06T09:15:18.292Z</time></trkpt><trkpt lat="43.8929889" lon="11.1836533"><ele>104.0</ele><time>2026-04-06T09:15:21.271Z</time></trkpt><trkpt lat="43.8929305" lon="11.1835993"><ele>104.0</ele><time>2026-04-06T09:15:23.272Z</time></trkpt><trkpt lat="43.8928713" lon="11.1835493"><ele>104.0</ele><time>2026-04-06T09:15:25.287Z</time></trkpt><trkpt lat="43.892812" lon="11.1834896"><ele>103.99999999999999</ele><time>2026-04-06T09:15:27.279Z</time></trkpt><trkpt lat="43.892751" lon="11.1834291"><ele>104.0</ele><time>2026-04-06T09:15:29.289Z</time></trkpt><trkpt lat="43.8926927" lon="11.1833726"><ele>103.99999999999999</ele><time>2026-04-06T09:15:31.299Z</time></trkpt><trkpt lat="43.8926237" lon="11.1833155"><ele>104.0</ele><time>2026-04-06T09:15:33.286Z</time></trkpt><trkpt lat="43.8925532" lon="11.1832529"><ele>104.0</ele><time>2026-04-06T09:15:35.274Z</time></trkpt><trkpt lat="43.8924708" lon="11.1831818"><ele>104.0</ele><time>2026-04-06T09:15:37.284Z</time></trkpt><trkpt lat="43.8923936" lon="11.1831182"><ele>103.99999999999999</ele><time>2026-04-06T09:15:39.283Z</time></trkpt><trkpt lat="43.8923211" lon="11.1830647"><ele>104.0</ele><time>2026-04-06T09:15:41.299Z</time></trkpt><trkpt lat="43.892245" lon="11.1830184"><ele>103.99999999999999</ele><time>2026-04-06T09:15:43.276Z</time></trkpt><trkpt lat="43.892172" lon="11.1829792"><ele>104.0</ele><time>2026-04-06T09:15:45.286Z</time></trkpt><trkpt lat="43.8920997" lon="11.1829533"><ele>104.0</ele><time>2026-04-06T09:15:47.283Z</time></trkpt><trkpt lat="43.8920275" lon="11.1829141"><ele>104.0</ele><time>2026-04-06T09:15:49.277Z</time></trkpt><trkpt lat="43.8919551" lon="11.1828616"><ele>103.99999999999999</ele><time>2026-04-06T09:15:51.291Z</time></trkpt><trkpt lat="43.8918832" lon="11.1828121"><ele>104.0</ele><time>2026-04-06T09:15:53.292Z</time></trkpt><trkpt lat="43.8918077" lon="11.1827797"><ele>104.0</ele><time>2026-04-06T09:15:55.272Z</time></trkpt><trkpt lat="43.8917267" lon="11.1827578"><ele>104.0</ele><time>2026-04-06T09:15:57.275Z</time></trkpt><trkpt lat="43.891641" lon="11.1827318"><ele>104.0</ele><time>2026-04-06T09:15:59.275Z</time></trkpt><trkpt lat="43.8915466" lon="11.1827018"><ele>104.0</ele><time>2026-04-06T09:16:01.296Z</time></trkpt><trkpt lat="43.8914456" lon="11.182659"><ele>104.0</ele><time>2026-04-06T09:16:03.29Z</time></trkpt><trkpt lat="43.891349" lon="11.1826284"><ele>104.0</ele><time>2026-04-06T09:16:05.289Z</time></trkpt><trkpt lat="43.891254" lon="11.1825983"><ele>104.0</ele><time>2026-04-06T09:16:07.303Z</time></trkpt><trkpt lat="43.8911563" lon="11.1825733"><ele>104.0</ele><time>2026-04-06T09:16:09.284Z</time></trkpt><trkpt lat="43.8910607" lon="11.1825455"><ele>104.0</ele><time>2026-04-06T09:16:11.279Z</time></trkpt><trkpt lat="43.8909651" lon="11.1825208"><ele>104.0</ele><time>2026-04-06T09:16:13.281Z</time></trkpt><trkpt lat="43.8908709" lon="11.1824964"><ele>103.80000000000001</ele><time>2026-04-06T09:16:15.285Z</time></trkpt><trkpt lat="43.8907806" lon="11.1824479"><ele>103.60000000000001</ele><time>2026-04-06T09:16:17.283Z</time></trkpt><trkpt lat="43.8906845" lon="11.1824114"><ele>103.4</ele><time>2026-04-06T09:16:19.289Z</time></trkpt><trkpt lat="43.8905806" lon="11.1824038"><ele>103.2</ele><time>2026-04-06T09:16:21.285Z</time></trkpt><trkpt lat="43.890474" lon="11.182416"><ele>103.0</ele><time>2026-04-06T09:16:23.275Z</time></trkpt><trkpt lat="43.8903708" lon="11.1824299"><ele>103.0</ele><time>2026-04-06T09:16:25.275Z</time></trkpt><trkpt lat="43.8902741" lon="11.1824448"><ele>103.0</ele><time>2026-04-06T09:16:27.271Z</time></trkpt><trkpt lat="43.8901723" lon="11.1824574"><ele>103.0</ele><time>2026-04-06T09:16:29.287Z</time></trkpt><trkpt lat="43.8900662" lon="11.1824701"><ele>103.0</ele><time>2026-04-06T09:16:31.284Z</time></trkpt><trkpt lat="43.8899612" lon="11.1824762"><ele>103.0</ele><time>2026-04-06T09:16:33.286Z</time></trkpt><trkpt lat="43.8898397" lon="11.1824781"><ele>102.5</ele><time>2026-04-06T09:16:35.283Z</time></trkpt><trkpt lat="43.8897208" lon="11.18247"><ele>102.0</ele><time>2026-04-06T09:16:37.271Z</time></trkpt><trkpt lat="43.8896102" lon="11.1824638"><ele>101.5</ele><time>2026-04-06T09:16:39.288Z</time></trkpt><trkpt lat="43.8895011" lon="11.1824523"><ele>101.0</ele><time>2026-04-06T09:16:41.272Z</time></trkpt><trkpt lat="43.8893905" lon="11.1824404"><ele>101.0</ele><time>2026-04-06T09:16:43.282Z</time></trkpt><trkpt lat="43.8892854" lon="11.1824254"><ele>101.0</ele><time>2026-04-06T09:16:45.293Z</time></trkpt><trkpt lat="43.8891769" lon="11.182412"><ele>101.0</ele><time>2026-04-06T09:16:47.286Z</time></trkpt><trkpt lat="43.8890735" lon="11.1824019"><ele>101.0</ele><time>2026-04-06T09:16:49.284Z</time></trkpt><trkpt lat="43.8889676" lon="11.1823922"><ele>101.0</ele><time>2026-04-06T09:16:51.283Z</time></trkpt><trkpt lat="43.8888625" lon="11.1823856"><ele>101.4</ele><time>2026-04-06T09:16:53.291Z</time></trkpt><trkpt lat="43.8887541" lon="11.1823782"><ele>101.8</ele><time>2026-04-06T09:16:55.278Z</time></trkpt><trkpt lat="43.8886604" lon="11.1823722"><ele>102.2</ele><time>2026-04-06T09:16:57.285Z</time></trkpt><trkpt lat="43.8885708" lon="11.1823585"><ele>102.60000000000001</ele><time>2026-04-06T09:16:59.286Z</time></trkpt><trkpt lat="43.8884874" lon="11.1823367"><ele>103.0</ele><time>2026-04-06T09:17:01.283Z</time></trkpt><trkpt lat="43.888409" lon="11.1823176"><ele>101.50000000000001</ele><time>2026-04-06T09:17:03.274Z</time></trkpt><trkpt lat="43.8883314" lon="11.1823029"><ele>100.0</ele><time>2026-04-06T09:17:05.278Z</time></trkpt><trkpt lat="43.8882529" lon="11.1822836"><ele>98.5</ele><time>2026-04-06T09:17:07.289Z</time></trkpt><trkpt lat="43.8881636" lon="11.1822609"><ele>97.0</ele><time>2026-04-06T09:17:09.286Z</time></trkpt><trkpt lat="43.8880708" lon="11.1822363"><ele>95.5</ele><time>2026-04-06T09:17:11.28Z</time></trkpt><trkpt lat="43.8879779" lon="11.1822018"><ele>94.0</ele><time>2026-04-06T09:17:13.284Z</time></trkpt><trkpt lat="43.8878892" lon="11.1821695"><ele>94.0</ele><time>2026-04-06T09:17:15.277Z</time></trkpt><trkpt lat="43.887805" lon="11.1821464"><ele>94.0</ele><time>2026-04-06T09:17:17.3Z</time></trkpt><trkpt lat="43.8877272" lon="11.1821257"><ele>94.0</ele><time>2026-04-06T09:17:19.281Z</time></trkpt><trkpt lat="43.8876467" lon="11.1821065"><ele>94.0</ele><time>2026-04-06T09:17:21.282Z</time></trkpt><trkpt lat="43.8875636" lon="11.1820923"><ele>94.0</ele><time>2026-04-06T09:17:23.286Z</time></trkpt><trkpt lat="43.8874748" lon="11.1820744"><ele>94.0</ele><time>2026-04-06T09:17:25.286Z</time></trkpt><trkpt lat="43.8873878" lon="11.1820607"><ele>94.0</ele><time>2026-04-06T09:17:27.273Z</time></trkpt><trkpt lat="43.8873019" lon="11.182045"><ele>94.0</ele><time>2026-04-06T09:17:29.275Z</time></trkpt><trkpt lat="43.8872164" lon="11.1820226"><ele>94.0</ele><time>2026-04-06T09:17:31.271Z</time></trkpt><trkpt lat="43.8871347" lon="11.1820053"><ele>94.0</ele><time>2026-04-06T09:17:33.284Z</time></trkpt><trkpt lat="43.8870622" lon="11.1819842"><ele>94.0</ele><time>2026-04-06T09:17:35.29Z</time></trkpt><trkpt lat="43.886992" lon="11.1819619"><ele>94.0</ele><time>2026-04-06T09:17:37.286Z</time></trkpt><trkpt lat="43.8869271" lon="11.1819598"><ele>94.0</ele><time>2026-04-06T09:17:41.279Z</time></trkpt><trkpt lat="43.8868681" lon="11.1819236"><ele>94.0</ele><time>2026-04-06T09:17:44.276Z</time></trkpt><trkpt lat="43.8867872" lon="11.1818986"><ele>94.0</ele><time>2026-04-06T09:17:47.279Z</time></trkpt><trkpt lat="43.8867199" lon="11.1818636"><ele>94.0</ele><time>2026-04-06T09:17:49.28Z</time></trkpt><trkpt lat="43.8866457" lon="11.1818069"><ele>94.0</ele><time>2026-04-06T09:17:51.275Z</time></trkpt><trkpt lat="43.8865657" lon="11.1817446"><ele>94.0</ele><time>2026-04-06T09:17:53.272Z</time></trkpt><trkpt lat="43.886486" lon="11.1816871"><ele>94.0</ele><time>2026-04-06T09:17:55.272Z</time></trkpt><trkpt lat="43.886407" lon="11.1816273"><ele>94.0</ele><time>2026-04-06T09:17:57.28Z</time></trkpt><trkpt lat="43.8863284" lon="11.1815675"><ele>94.0</ele><time>2026-04-06T09:17:59.281Z</time></trkpt><trkpt lat="43.8862473" lon="11.1815095"><ele>94.0</ele><time>2026-04-06T09:18:01.275Z</time></trkpt><trkpt lat="43.8861653" lon="11.1814674"><ele>94.0</ele><time>2026-04-06T09:18:03.281Z</time></trkpt><trkpt lat="43.8860858" lon="11.1814202"><ele>94.0</ele><time>2026-04-06T09:18:05.277Z</time></trkpt><trkpt lat="43.886018" lon="11.1813662"><ele>93.85714285714286</ele><time>2026-04-06T09:18:07.27Z</time></trkpt><trkpt lat="43.8859517" lon="11.1813135"><ele>93.71428571428571</ele><time>2026-04-06T09:18:09.284Z</time></trkpt><trkpt lat="43.8858894" lon="11.1812647"><ele>93.57142857142858</ele><time>2026-04-06T09:18:11.297Z</time></trkpt><trkpt lat="43.8858242" lon="11.1812258"><ele>93.42857142857143</ele><time>2026-04-06T09:18:13.27Z</time></trkpt><trkpt lat="43.8857535" lon="11.181184"><ele>93.28571428571429</ele><time>2026-04-06T09:18:15.282Z</time></trkpt><trkpt lat="43.8856845" lon="11.1811471"><ele>93.14285714285715</ele><time>2026-04-06T09:18:17.284Z</time></trkpt><trkpt lat="43.8856125" lon="11.1811262"><ele>93.0</ele><time>2026-04-06T09:18:19.293Z</time></trkpt><trkpt lat="43.8855371" lon="11.1810937"><ele>92.66666666666667</ele><time>2026-04-06T09:18:21.283Z</time></trkpt><trkpt lat="43.8854554" lon="11.1810584"><ele>92.33333333333333</ele><time>2026-04-06T09:18:23.277Z</time></trkpt><trkpt lat="43.8853694" lon="11.1810262"><ele>92.0</ele><time>2026-04-06T09:18:25.277Z</time></trkpt><trkpt lat="43.8852901" lon="11.1809948"><ele>91.66666666666666</ele><time>2026-04-06T09:18:27.279Z</time></trkpt><trkpt lat="43.8852106" lon="11.1809636"><ele>91.33333333333333</ele><time>2026-04-06T09:18:29.277Z</time></trkpt><trkpt lat="43.8851373" lon="11.1809265"><ele>91.0</ele><time>2026-04-06T09:18:31.288Z</time></trkpt><trkpt lat="43.885058" lon="11.1808859"><ele>91.0</ele><time>2026-04-06T09:18:33.279Z</time></trkpt><trkpt lat="43.8849781" lon="11.18085"><ele>91.0</ele><time>2026-04-06T09:18:35.28Z</time></trkpt><trkpt lat="43.8849024" lon="11.1808283"><ele>91.0</ele><time>2026-04-06T09:18:37.283Z</time></trkpt><trkpt lat="43.8848254" lon="11.1808192"><ele>91.0</ele><time>2026-04-06T09:18:39.284Z</time></trkpt><trkpt lat="43.8847406" lon="11.180817"><ele>91.0</ele><time>2026-04-06T09:18:41.281Z</time></trkpt><trkpt lat="43.8846455" lon="11.1808133"><ele>91.0</ele><time>2026-04-06T09:18:43.284Z</time></trkpt><trkpt lat="43.8845662" lon="11.1808052"><ele>91.0</ele><time>2026-04-06T09:18:45.283Z</time></trkpt><trkpt lat="43.8844818" lon="11.1808008"><ele>91.0</ele><time>2026-04-06T09:18:47.293Z</time></trkpt><trkpt lat="43.8844031" lon="11.1807951"><ele>91.0</ele><time>2026-04-06T09:18:49.284Z</time></trkpt><trkpt lat="43.8843344" lon="11.1807934"><ele>91.0</ele><time>2026-04-06T09:18:51.287Z</time></trkpt><trkpt lat="43.8842436" lon="11.1807692"><ele>91.0</ele><time>2026-04-06T09:18:54.285Z</time></trkpt><trkpt lat="43.8841759" lon="11.1807613"><ele>91.0</ele><time>2026-04-06T09:18:56.291Z</time></trkpt><trkpt lat="43.8841085" lon="11.1807626"><ele>91.0</ele><time>2026-04-06T09:18:58.287Z</time></trkpt><trkpt lat="43.8840166" lon="11.1807582"><ele>91.0</ele><time>2026-04-06T09:19:01.288Z</time></trkpt><trkpt lat="43.8839509" lon="11.1807472"><ele>91.0</ele><time>2026-04-06T09:19:03.287Z</time></trkpt><trkpt lat="43.8838777" lon="11.1807254"><ele>91.0</ele><time>2026-04-06T09:19:05.281Z</time></trkpt><trkpt lat="43.8838127" lon="11.1806908"><ele>91.0</ele><time>2026-04-06T09:19:07.291Z</time></trkpt><trkpt lat="43.8837517" lon="11.1806325"><ele>91.0</ele><time>2026-04-06T09:19:09.281Z</time></trkpt><trkpt lat="43.8836895" lon="11.1805708"><ele>91.0</ele><time>2026-04-06T09:19:11.286Z</time></trkpt><trkpt lat="43.8836257" lon="11.1805171"><ele>91.0</ele><time>2026-04-06T09:19:13.287Z</time></trkpt><trkpt lat="43.8835611" lon="11.1804746"><ele>91.0</ele><time>2026-04-06T09:19:15.281Z</time></trkpt><trkpt lat="43.8834916" lon="11.1804561"><ele>91.0</ele><time>2026-04-06T09:19:17.285Z</time></trkpt><trkpt lat="43.8834037" lon="11.1804256"><ele>91.0</ele><time>2026-04-06T09:19:20.286Z</time></trkpt><trkpt lat="43.8833247" lon="11.1804704"><ele>91.0</ele><time>2026-04-06T09:19:23.284Z</time></trkpt><trkpt lat="43.8832768" lon="11.180553"><ele>91.0</ele><time>2026-04-06T09:19:25.289Z</time></trkpt><trkpt lat="43.8832566" lon="11.1806415"><ele>91.0</ele><time>2026-04-06T09:19:28.278Z</time></trkpt><trkpt lat="43.8831962" lon="11.1806764"><ele>91.0</ele><time>2026-04-06T09:19:41.289Z</time></trkpt><trkpt lat="43.8831242" lon="11.1806444"><ele>91.0</ele><time>2026-04-06T09:19:43.296Z</time></trkpt><trkpt lat="43.8830451" lon="11.1806087"><ele>91.0</ele><time>2026-04-06T09:19:45.292Z</time></trkpt><trkpt lat="43.8829705" lon="11.1805833"><ele>91.0</ele><time>2026-04-06T09:19:47.281Z</time></trkpt><trkpt lat="43.8828938" lon="11.180554"><ele>91.0</ele><time>2026-04-06T09:19:49.285Z</time></trkpt><trkpt lat="43.8828248" lon="11.1805171"><ele>91.0</ele><time>2026-04-06T09:19:51.281Z</time></trkpt><trkpt lat="43.8827474" lon="11.1804897"><ele>91.0</ele><time>2026-04-06T09:19:53.276Z</time></trkpt><trkpt lat="43.8826622" lon="11.1804636"><ele>91.0</ele><time>2026-04-06T09:19:55.29Z</time></trkpt><trkpt lat="43.8825767" lon="11.1804187"><ele>91.0</ele><time>2026-04-06T09:19:57.283Z</time></trkpt><trkpt lat="43.88249" lon="11.180368"><ele>91.0</ele><time>2026-04-06T09:19:59.291Z</time></trkpt><trkpt lat="43.8824056" lon="11.180322"><ele>91.0</ele><time>2026-04-06T09:20:01.3Z</time></trkpt><trkpt lat="43.8823137" lon="11.1802663"><ele>91.0</ele><time>2026-04-06T09:20:03.283Z</time></trkpt><trkpt lat="43.8822272" lon="11.1802017"><ele>91.0</ele><time>2026-04-06T09:20:05.281Z</time></trkpt><trkpt lat="43.8821602" lon="11.1801204"><ele>91.0</ele><time>2026-04-06T09:20:07.299Z</time></trkpt><trkpt lat="43.882146" lon="11.180005"><ele>91.0</ele><time>2026-04-06T09:20:09.279Z</time></trkpt><trkpt lat="43.8821576" lon="11.1799017"><ele>91.0</ele><time>2026-04-06T09:20:11.282Z</time></trkpt><trkpt lat="43.8821558" lon="11.1798056"><ele>91.0</ele><time>2026-04-06T09:20:13.279Z</time></trkpt><trkpt lat="43.8821357" lon="11.1797104"><ele>91.33333333333333</ele><time>2026-04-06T09:20:15.286Z</time></trkpt><trkpt lat="43.8821045" lon="11.1796082"><ele>91.66666666666666</ele><time>2026-04-06T09:20:17.28Z</time></trkpt><trkpt lat="43.8820533" lon="11.1795142"><ele>92.0</ele><time>2026-04-06T09:20:19.304Z</time></trkpt><trkpt lat="43.8819851" lon="11.1794078"><ele>92.33333333333333</ele><time>2026-04-06T09:20:21.291Z</time></trkpt><trkpt lat="43.881939" lon="11.1793074"><ele>92.66666666666667</ele><time>2026-04-06T09:20:23.29Z</time></trkpt><trkpt lat="43.8818902" lon="11.179218"><ele>93.0</ele><time>2026-04-06T09:20:25.284Z</time></trkpt><trkpt lat="43.8818621" lon="11.1791332"><ele>93.00000000000001</ele><time>2026-04-06T09:20:27.275Z</time></trkpt><trkpt lat="43.8818301" lon="11.179056"><ele>93.0</ele><time>2026-04-06T09:20:29.283Z</time></trkpt><trkpt lat="43.8817843" lon="11.1789593"><ele>93.0</ele><time>2026-04-06T09:20:32.279Z</time></trkpt><trkpt lat="43.8817522" lon="11.1788674"><ele>93.0</ele><time>2026-04-06T09:26:25.286Z</time></trkpt><trkpt lat="43.8817539" lon="11.1787679"><ele>93.0</ele><time>2026-04-06T09:26:30.302Z</time></trkpt><trkpt lat="43.8816891" lon="11.1787758"><ele>93.00000000000001</ele><time>2026-04-06T09:26:33.292Z</time></trkpt><trkpt lat="43.8816886" lon="11.1788742"><ele>93.0</ele><time>2026-04-06T09:26:37.292Z</time></trkpt><trkpt lat="43.8817443" lon="11.1789235"><ele>106.0</ele><time>2026-04-06T09:27:11.288Z</time></trkpt><trkpt lat="43.8817359" lon="11.1788342"><ele>106.0</ele><time>2026-04-06T09:27:16.289Z</time></trkpt><trkpt lat="43.8816725" lon="11.1787644"><ele>106.0</ele><time>2026-04-06T09:27:19.302Z</time></trkpt><trkpt lat="43.8816132" lon="11.1786993"><ele>106.0</ele><time>2026-04-06T09:27:22.293Z</time></trkpt><trkpt lat="43.8815451" lon="11.1786618"><ele>106.0</ele><time>2026-04-06T09:27:26.291Z</time></trkpt></trkseg></trk></gpx>